<?xml version='1.0' encoding='UTF-8'?><gpx version="1.1" creator="JPX - https://github.com/jenetics/jpx" xmlns="http://www.topografix.com/GPX/1/1"><trk><trkseg><trkpt lat="42.39914912137567" lon="19.677894628647643"><ele>1077.0</ele><time>2026-05-01T13:26:55.999Z</time></trkpt><trkpt lat="42.399178943988645" lon="19.677799301582528"><ele>1077.0</ele><time>2026-05-01T13:26:56.999Z</time></trkpt><trkpt lat="42.39918108293051" lon="19.677687259832304"><ele>1077.0</ele><time>2026-05-01T13:26:57.999Z</time></trkpt><trkpt lat="42.39918114120376" lon="19.67754626265633"><ele>1077.0</ele><time>2026-05-01T13:26:58.999Z</time></trkpt><trkpt lat="42.39922059965599" lon="19.67738940283094"><ele>1077.0</ele><time>2026-05-01T13:26:59.999Z</time></trkpt><trkpt lat="42.39924298918451" lon="19.677207947384638"><ele>1075.5</ele><time>2026-05-01T13:27:00.999Z</time></trkpt><trkpt lat="42.39926682734238" lon="19.67701386169813"><ele>1074.0</ele><time>2026-05-01T13:27:01.999Z</time></trkpt><trkpt lat="42.39931789365258" lon="19.676837635081828"><ele>1072.5</ele><time>2026-05-01T13:27:02.999Z</time></trkpt><trkpt lat="42.39936643242201" lon="19.676692572342898"><ele>1071.0</ele><time>2026-05-01T13:27:03.999Z</time></trkpt><trkpt lat="42.39941578157899" lon="19.676556058616246"><ele>1070.8</ele><time>2026-05-01T13:27:04.999Z</time></trkpt><trkpt lat="42.39945864049563" lon="19.67642991905049"><ele>1070.6</ele><time>2026-05-01T13:27:05.999Z</time></trkpt><trkpt lat="42.399496171207446" lon="19.6763121367994"><ele>1070.4</ele><time>2026-05-01T13:27:06.999Z</time></trkpt><trkpt lat="42.39951692599068" lon="19.676148312947273"><ele>1070.2</ele><time>2026-05-01T13:27:07.999Z</time></trkpt><trkpt lat="42.399526713269154" lon="19.675975214399397"><ele>1070.0</ele><time>2026-05-01T13:27:08.999Z</time></trkpt><trkpt lat="42.39953222012812" lon="19.675783180059586"><ele>1068.0</ele><time>2026-05-01T13:27:09.999Z</time></trkpt><trkpt lat="42.39953850063242" lon="19.675583062554896"><ele>1066.0</ele><time>2026-05-01T13:27:10.999Z</time></trkpt><trkpt lat="42.399543963259816" lon="19.675396748810403"><ele>1064.0</ele><time>2026-05-01T13:27:11.999Z</time></trkpt><trkpt lat="42.3995500961479" lon="19.67521640120895"><ele>1062.0</ele><time>2026-05-01T13:27:12.999Z</time></trkpt><trkpt lat="42.3995605339771" lon="19.67503333424011"><ele>1060.75</ele><time>2026-05-01T13:27:13.999Z</time></trkpt><trkpt lat="42.39957443557568" lon="19.67484365144729"><ele>1059.5</ele><time>2026-05-01T13:27:14.999Z</time></trkpt><trkpt lat="42.3995971099846" lon="19.67465887676805"><ele>1058.25</ele><time>2026-05-01T13:27:15.999Z</time></trkpt><trkpt lat="42.39963627225886" lon="19.67447898953121"><ele>1057.0</ele><time>2026-05-01T13:27:16.999Z</time></trkpt><trkpt lat="42.3996768438427" lon="19.67428829368031"><ele>1059.5</ele><time>2026-05-01T13:27:17.999Z</time></trkpt><trkpt lat="42.399717051567166" lon="19.674095857247888"><ele>1062.0</ele><time>2026-05-01T13:27:18.999Z</time></trkpt><trkpt lat="42.399761098122056" lon="19.673912949142835"><ele>1064.5</ele><time>2026-05-01T13:27:19.999Z</time></trkpt><trkpt lat="42.39980153133687" lon="19.673748837072147"><ele>1067.0</ele><time>2026-05-01T13:27:20.999Z</time></trkpt><trkpt lat="42.399838709398196" lon="19.673598646834005"><ele>1067.0</ele><time>2026-05-01T13:27:21.999Z</time></trkpt><trkpt lat="42.399875666660186" lon="19.673450126913192"><ele>1067.0</ele><time>2026-05-01T13:27:22.999Z</time></trkpt><trkpt lat="42.39990726511757" lon="19.673292703329363"><ele>1067.0</ele><time>2026-05-01T13:27:23.999Z</time></trkpt><trkpt lat="42.39993958628019" lon="19.67313451149971"><ele>1067.0</ele><time>2026-05-01T13:27:24.999Z</time></trkpt><trkpt lat="42.39997245945177" lon="19.672973674418888"><ele>1067.0</ele><time>2026-05-01T13:27:25.999Z</time></trkpt><trkpt lat="42.40000643704102" lon="19.672804980067593"><ele>1067.0</ele><time>2026-05-01T13:27:26.999Z</time></trkpt><trkpt lat="42.40004137758125" lon="19.672630021616193"><ele>1067.0</ele><time>2026-05-01T13:27:27.999Z</time></trkpt><trkpt lat="42.40007748152904" lon="19.672445019669034"><ele>1067.0</ele><time>2026-05-01T13:27:28.999Z</time></trkpt><trkpt lat="42.40011585717836" lon="19.67224895172469"><ele>1065.25</ele><time>2026-05-01T13:27:29.999Z</time></trkpt><trkpt lat="42.40015137586136" lon="19.672044748828124"><ele>1063.5</ele><time>2026-05-01T13:27:30.999Z</time></trkpt><trkpt lat="42.40018015926546" lon="19.6718543972496"><ele>1061.75</ele><time>2026-05-01T13:27:31.999Z</time></trkpt><trkpt lat="42.400208527692264" lon="19.671677117276325"><ele>1060.0</ele><time>2026-05-01T13:27:32.999Z</time></trkpt><trkpt lat="42.400241547179576" lon="19.671506764867697"><ele>1057.75</ele><time>2026-05-01T13:27:34Z</time></trkpt><trkpt lat="42.40027440042835" lon="19.67134289180021"><ele>1055.5</ele><time>2026-05-01T13:27:35Z</time></trkpt><trkpt lat="42.40030600174366" lon="19.67118435294175"><ele>1053.25</ele><time>2026-05-01T13:27:36Z</time></trkpt><trkpt lat="42.4003373550562" lon="19.671025347682797"><ele>1051.0</ele><time>2026-05-01T13:27:37Z</time></trkpt><trkpt lat="42.400369892137526" lon="19.670861336204307"><ele>1049.0</ele><time>2026-05-01T13:27:38Z</time></trkpt><trkpt lat="42.40040091838287" lon="19.67069256712593"><ele>1047.0</ele><time>2026-05-01T13:27:39Z</time></trkpt><trkpt lat="42.400392853118625" lon="19.67048753771943"><ele>1045.0</ele><time>2026-05-01T13:27:40Z</time></trkpt><trkpt lat="42.40038574716882" lon="19.670300558784593"><ele>1043.0</ele><time>2026-05-01T13:27:41Z</time></trkpt><trkpt lat="42.40035347805091" lon="19.67012176674207"><ele>1041.25</ele><time>2026-05-01T13:27:42Z</time></trkpt><trkpt lat="42.40032886769769" lon="19.669964509470628"><ele>1039.5</ele><time>2026-05-01T13:27:43Z</time></trkpt><trkpt lat="42.40031215788906" lon="19.669803182201072"><ele>1037.75</ele><time>2026-05-01T13:27:44Z</time></trkpt><trkpt lat="42.400331689073106" lon="19.669658229942307"><ele>1036.0</ele><time>2026-05-01T13:27:44.999Z</time></trkpt><trkpt lat="42.40036137399139" lon="19.66948384106012"><ele>1034.5</ele><time>2026-05-01T13:27:46Z</time></trkpt><trkpt lat="42.40039295918956" lon="19.669301076903956"><ele>1033.0</ele><time>2026-05-01T13:27:47Z</time></trkpt><trkpt lat="42.40042447983921" lon="19.669124306697366"><ele>1031.5</ele><time>2026-05-01T13:27:47.999Z</time></trkpt><trkpt lat="42.40044653136871" lon="19.66894525473603"><ele>1030.0</ele><time>2026-05-01T13:27:48.999Z</time></trkpt><trkpt lat="42.40044489358847" lon="19.668773106245233"><ele>1027.5</ele><time>2026-05-01T13:27:49.999Z</time></trkpt><trkpt lat="42.40043968251471" lon="19.66860867259279"><ele>1025.0</ele><time>2026-05-01T13:27:50.999Z</time></trkpt><trkpt lat="42.400420907418216" lon="19.668433388318434"><ele>1022.5</ele><time>2026-05-01T13:27:51.999Z</time></trkpt><trkpt lat="42.40039376962024" lon="19.66824976036093"><ele>1020.0</ele><time>2026-05-01T13:27:52.999Z</time></trkpt><trkpt lat="42.400328916282675" lon="19.66806443993922"><ele>1020.0</ele><time>2026-05-01T13:27:53.999Z</time></trkpt><trkpt lat="42.40027409764296" lon="19.667899718416006"><ele>1020.0</ele><time>2026-05-01T13:27:54.999Z</time></trkpt><trkpt lat="42.40022477973008" lon="19.66776024437626"><ele>1020.0</ele><time>2026-05-01T13:27:55.999Z</time></trkpt><trkpt lat="42.40020860256947" lon="19.667628563235336"><ele>1020.0</ele><time>2026-05-01T13:27:56.999Z</time></trkpt><trkpt lat="42.400214004443264" lon="19.667475147539324"><ele>1018.5</ele><time>2026-05-01T13:27:57.999Z</time></trkpt><trkpt lat="42.400228538330815" lon="19.66729171322605"><ele>1017.0</ele><time>2026-05-01T13:27:58.999Z</time></trkpt><trkpt lat="42.40025191938456" lon="19.667089066023056"><ele>1015.5</ele><time>2026-05-01T13:27:59.999Z</time></trkpt><trkpt lat="42.400276620604146" lon="19.666875205634007"><ele>1014.0</ele><time>2026-05-01T13:28:00.999Z</time></trkpt><trkpt lat="42.40032180291878" lon="19.66666759902069"><ele>1012.6666666666667</ele><time>2026-05-01T13:28:01.999Z</time></trkpt><trkpt lat="42.40037179651204" lon="19.666454328028305"><ele>1011.3333333333334</ele><time>2026-05-01T13:28:02.999Z</time></trkpt><trkpt lat="42.40042098900355" lon="19.666247582261075"><ele>1010.0</ele><time>2026-05-01T13:28:03.999Z</time></trkpt><trkpt lat="42.40046652542472" lon="19.666054709391865"><ele>1011.6666666666667</ele><time>2026-05-01T13:28:04.999Z</time></trkpt><trkpt lat="42.400507438462704" lon="19.665866287608196"><ele>1013.3333333333333</ele><time>2026-05-01T13:28:05.999Z</time></trkpt><trkpt lat="42.40054976768471" lon="19.665669763597343"><ele>1015.0</ele><time>2026-05-01T13:28:06.999Z</time></trkpt><trkpt lat="42.4005851712819" lon="19.66545757488325"><ele>1013.0</ele><time>2026-05-01T13:28:07.999Z</time></trkpt><trkpt lat="42.40061460791803" lon="19.66524548505132"><ele>1011.0</ele><time>2026-05-01T13:28:08.999Z</time></trkpt><trkpt lat="42.400646744229704" lon="19.66503002936962"><ele>1009.0</ele><time>2026-05-01T13:28:09.999Z</time></trkpt><trkpt lat="42.40066494324803" lon="19.664806958090537"><ele>1009.0</ele><time>2026-05-01T13:28:10.999Z</time></trkpt><trkpt lat="42.40067267045334" lon="19.664580846353605"><ele>1009.0</ele><time>2026-05-01T13:28:11.999Z</time></trkpt><trkpt lat="42.40067481325758" lon="19.664355021585145"><ele>1009.0</ele><time>2026-05-01T13:28:12.999Z</time></trkpt><trkpt lat="42.40067214500628" lon="19.664128021796802"><ele>1008.75</ele><time>2026-05-01T13:28:13.999Z</time></trkpt><trkpt lat="42.40067645199193" lon="19.66391744132591"><ele>1008.5</ele><time>2026-05-01T13:28:14.999Z</time></trkpt><trkpt lat="42.40069165303321" lon="19.663723763285667"><ele>1008.25</ele><time>2026-05-01T13:28:15.999Z</time></trkpt><trkpt lat="42.40070593604208" lon="19.663547978309058"><ele>1008.0</ele><time>2026-05-01T13:28:16.999Z</time></trkpt><trkpt lat="42.400716699222684" lon="19.663376486628664"><ele>1007.2</ele><time>2026-05-01T13:28:17.999Z</time></trkpt><trkpt lat="42.400711499205585" lon="19.663208627383856"><ele>1006.4</ele><time>2026-05-01T13:28:18.999Z</time></trkpt><trkpt lat="42.40069014373364" lon="19.663055679507206"><ele>1005.6000000000001</ele><time>2026-05-01T13:28:19.999Z</time></trkpt><trkpt lat="42.400692721847946" lon="19.662916830994618"><ele>1004.8000000000001</ele><time>2026-05-01T13:28:20.999Z</time></trkpt><trkpt lat="42.40073540770317" lon="19.66278647989283"><ele>1004.0</ele><time>2026-05-01T13:28:21.999Z</time></trkpt><trkpt lat="42.4007761664111" lon="19.662636160813257"><ele>1003.6</ele><time>2026-05-01T13:28:22.999Z</time></trkpt><trkpt lat="42.40081223902416" lon="19.662498456132813"><ele>1003.2</ele><time>2026-05-01T13:28:23.999Z</time></trkpt><trkpt lat="42.40083322033503" lon="19.662372295709936"><ele>1002.8000000000001</ele><time>2026-05-01T13:28:24.999Z</time></trkpt><trkpt lat="42.400831551900744" lon="19.662226945461434"><ele>1002.4000000000001</ele><time>2026-05-01T13:28:25.999Z</time></trkpt><trkpt lat="42.400794008728546" lon="19.662057586573855"><ele>1002.0</ele><time>2026-05-01T13:28:26.999Z</time></trkpt><trkpt lat="42.40077292098072" lon="19.661891105306353"><ele>1000.75</ele><time>2026-05-01T13:28:27.999Z</time></trkpt><trkpt lat="42.40076801559528" lon="19.66170793562379"><ele>999.5</ele><time>2026-05-01T13:28:28.999Z</time></trkpt><trkpt lat="42.400759291469704" lon="19.66151355356288"><ele>998.25</ele><time>2026-05-01T13:28:29.999Z</time></trkpt><trkpt lat="42.40071459750271" lon="19.66133992992815"><ele>997.0</ele><time>2026-05-01T13:28:30.999Z</time></trkpt><trkpt lat="42.40070988657768" lon="19.661166406778314"><ele>996.0</ele><time>2026-05-01T13:28:31.999Z</time></trkpt><trkpt lat="42.40070304069886" lon="19.660977069449547"><ele>995.0</ele><time>2026-05-01T13:28:32.999Z</time></trkpt><trkpt lat="42.40069758177481" lon="19.660777592631632"><ele>994.0</ele><time>2026-05-01T13:28:33.999Z</time></trkpt><trkpt lat="42.400735449491755" lon="19.66058129892653"><ele>993.0</ele><time>2026-05-01T13:28:34.999Z</time></trkpt><trkpt lat="42.4007410615743" lon="19.660401101452347"><ele>991.5</ele><time>2026-05-01T13:28:35.999Z</time></trkpt><trkpt lat="42.40074590718874" lon="19.66021327160496"><ele>990.0</ele><time>2026-05-01T13:28:36.999Z</time></trkpt><trkpt lat="42.40075160394958" lon="19.660035469498084"><ele>988.5</ele><time>2026-05-01T13:28:37.999Z</time></trkpt><trkpt lat="42.40074915964695" lon="19.659865225058457"><ele>987.0</ele><time>2026-05-01T13:28:38.999Z</time></trkpt><trkpt lat="42.40073795329134" lon="19.659704115244185"><ele>987.0</ele><time>2026-05-01T13:28:39.999Z</time></trkpt><trkpt lat="42.40072124835225" lon="19.659560035566436"><ele>987.0</ele><time>2026-05-01T13:28:40.999Z</time></trkpt><trkpt lat="42.400667579743896" lon="19.659439691898942"><ele>987.0</ele><time>2026-05-01T13:28:41.999Z</time></trkpt><trkpt lat="42.40067478150168" lon="19.659330588142186"><ele>987.0</ele><time>2026-05-01T13:28:42.999Z</time></trkpt><trkpt lat="42.400698791631996" lon="19.659246095554057"><ele>987.0</ele><time>2026-05-01T13:28:43.999Z</time></trkpt><trkpt lat="42.40072000712609" lon="19.65915887702817"><ele>987.0</ele><time>2026-05-01T13:28:44.999Z</time></trkpt><trkpt lat="42.400776637698264" lon="19.659030798175174"><ele>985.8</ele><time>2026-05-01T13:28:46.999Z</time></trkpt><trkpt lat="42.40078049625933" lon="19.65886137397154"><ele>984.6</ele><time>2026-05-01T13:28:48.999Z</time></trkpt><trkpt lat="42.40074146711912" lon="19.65876506736845"><ele>983.3999999999999</ele><time>2026-05-01T13:28:50.999Z</time></trkpt><trkpt lat="42.4006762693247" lon="19.658703924001802"><ele>982.1999999999999</ele><time>2026-05-01T13:29:01.999Z</time></trkpt><trkpt lat="42.40061053858154" lon="19.658618049020017"><ele>981.0</ele><time>2026-05-01T13:29:02.999Z</time></trkpt><trkpt lat="42.400521080960374" lon="19.65852110740043"><ele>978.0</ele><time>2026-05-01T13:29:03.999Z</time></trkpt><trkpt lat="42.4004345379624" lon="19.658411796422218"><ele>974.9999999999999</ele><time>2026-05-01T13:29:04.999Z</time></trkpt><trkpt lat="42.4003734845689" lon="19.65831188445512"><ele>971.9999999999999</ele><time>2026-05-01T13:29:05.999Z</time></trkpt><trkpt lat="42.400366946410124" lon="19.658197616672737"><ele>969.0</ele><time>2026-05-01T13:29:06.999Z</time></trkpt><trkpt lat="42.400395684800564" lon="19.658072247427718"><ele>966.0</ele><time>2026-05-01T13:29:07.999Z</time></trkpt><trkpt lat="42.400420593067395" lon="19.65790349814622"><ele>965.25</ele><time>2026-05-01T13:29:08.999Z</time></trkpt><trkpt lat="42.4004434117601" lon="19.65772441877475"><ele>964.5</ele><time>2026-05-01T13:29:09.999Z</time></trkpt><trkpt lat="42.400464806937244" lon="19.657530526256256"><ele>963.75</ele><time>2026-05-01T13:29:10.999Z</time></trkpt><trkpt lat="42.40048686081139" lon="19.6573250150453"><ele>963.0</ele><time>2026-05-01T13:29:11.999Z</time></trkpt><trkpt lat="42.400512369454034" lon="19.65711011630165"><ele>966.0</ele><time>2026-05-01T13:29:12.999Z</time></trkpt><trkpt lat="42.40053656484016" lon="19.656901813873482"><ele>969.0</ele><time>2026-05-01T13:29:13.999Z</time></trkpt><trkpt lat="42.400556883845134" lon="19.656714317027465"><ele>972.0</ele><time>2026-05-01T13:29:14.999Z</time></trkpt><trkpt lat="42.400577525535155" lon="19.656529347328373"><ele>975.0</ele><time>2026-05-01T13:29:15.999Z</time></trkpt><trkpt lat="42.40058336859741" lon="19.656350353016663"><ele>975.0</ele><time>2026-05-01T13:29:16.999Z</time></trkpt><trkpt lat="42.40062670731166" lon="19.656202434224245"><ele>975.0</ele><time>2026-05-01T13:29:17.999Z</time></trkpt><trkpt lat="42.400665972744655" lon="19.656065708238135"><ele>975.0</ele><time>2026-05-01T13:29:18.999Z</time></trkpt><trkpt lat="42.40071182246611" lon="19.655934631448275"><ele>975.0</ele><time>2026-05-01T13:29:19.999Z</time></trkpt><trkpt lat="42.40078698330633" lon="19.655857755589633"><ele>975.0</ele><time>2026-05-01T13:29:20.999Z</time></trkpt><trkpt lat="42.40084697978701" lon="19.65575892775237"><ele>974.6</ele><time>2026-05-01T13:29:21.999Z</time></trkpt><trkpt lat="42.400867333772574" lon="19.655617046481286"><ele>974.2</ele><time>2026-05-01T13:29:22.999Z</time></trkpt><trkpt lat="42.40081707925193" lon="19.655479592172938"><ele>973.8</ele><time>2026-05-01T13:29:23.999Z</time></trkpt><trkpt lat="42.40077512035388" lon="19.655356880385664"><ele>973.4</ele><time>2026-05-01T13:29:24.999Z</time></trkpt><trkpt lat="42.40077804830058" lon="19.655234180364907"><ele>973.0</ele><time>2026-05-01T13:29:25.999Z</time></trkpt><trkpt lat="42.40081989479953" lon="19.655159676966466"><ele>972.2</ele><time>2026-05-01T13:29:26.999Z</time></trkpt><trkpt lat="42.40087807010286" lon="19.655073640057807"><ele>971.4</ele><time>2026-05-01T13:29:27.999Z</time></trkpt><trkpt lat="42.40093650350044" lon="19.65495136595415"><ele>970.6000000000001</ele><time>2026-05-01T13:29:28.999Z</time></trkpt><trkpt lat="42.40100045237096" lon="19.6548141402502"><ele>969.8000000000001</ele><time>2026-05-01T13:29:29.999Z</time></trkpt><trkpt lat="42.4010573163862" lon="19.654674824102948"><ele>969.0</ele><time>2026-05-01T13:29:30.999Z</time></trkpt><trkpt lat="42.40109385484667" lon="19.654517667517293"><ele>968.0</ele><time>2026-05-01T13:29:31.999Z</time></trkpt><trkpt lat="42.401091431678566" lon="19.654351574870173"><ele>967.0</ele><time>2026-05-01T13:29:32.999Z</time></trkpt><trkpt lat="42.40109192373051" lon="19.65418990104051"><ele>966.0</ele><time>2026-05-01T13:29:33.998Z</time></trkpt><trkpt lat="42.40116584630835" lon="19.654037445108553"><ele>965.0</ele><time>2026-05-01T13:29:34.998Z</time></trkpt><trkpt lat="42.40103850790464" lon="19.653847749029225"><ele>965.0</ele><time>2026-05-01T13:29:35.998Z</time></trkpt><trkpt lat="42.40101814956378" lon="19.653649768602175"><ele>965.0</ele><time>2026-05-01T13:29:36.998Z</time></trkpt><trkpt lat="42.40100163239049" lon="19.653441389085586"><ele>965.0</ele><time>2026-05-01T13:29:37.998Z</time></trkpt><trkpt lat="42.40097982002554" lon="19.65323336850051"><ele>964.5</ele><time>2026-05-01T13:29:38.998Z</time></trkpt><trkpt lat="42.400997063612095" lon="19.65303984738416"><ele>964.0</ele><time>2026-05-01T13:29:39.999Z</time></trkpt><trkpt lat="42.40096430677781" lon="19.652854978565667"><ele>963.5</ele><time>2026-05-01T13:29:40.999Z</time></trkpt><trkpt lat="42.4009102741124" lon="19.65267424540361"><ele>963.0</ele><time>2026-05-01T13:29:41.999Z</time></trkpt><trkpt lat="42.400821447565335" lon="19.652493603501537"><ele>962.3333333333333</ele><time>2026-05-01T13:29:42.999Z</time></trkpt><trkpt lat="42.400731340140126" lon="19.65230167115928"><ele>961.6666666666666</ele><time>2026-05-01T13:29:43.999Z</time></trkpt><trkpt lat="42.400631643955286" lon="19.652120757822352"><ele>961.0</ele><time>2026-05-01T13:29:44.999Z</time></trkpt><trkpt lat="42.40052733810883" lon="19.65197395579037"><ele>958.0</ele><time>2026-05-01T13:29:45.999Z</time></trkpt><trkpt lat="42.40040711597124" lon="19.651841472132084"><ele>955.0</ele><time>2026-05-01T13:29:46.999Z</time></trkpt><trkpt lat="42.40034659498887" lon="19.651674297679175"><ele>952.0</ele><time>2026-05-01T13:29:47.999Z</time></trkpt><trkpt lat="42.400300751946496" lon="19.65152371901247"><ele>949.0</ele><time>2026-05-01T13:29:48.999Z</time></trkpt><trkpt lat="42.4002500760252" lon="19.65134682380879"><ele>949.0</ele><time>2026-05-01T13:29:49.999Z</time></trkpt><trkpt lat="42.400195833350374" lon="19.65115921766146"><ele>949.0</ele><time>2026-05-01T13:29:50.999Z</time></trkpt><trkpt lat="42.40013500627443" lon="19.650964097283357"><ele>949.0</ele><time>2026-05-01T13:29:51.999Z</time></trkpt><trkpt lat="42.40006905719694" lon="19.650763600238122"><ele>949.3333333333333</ele><time>2026-05-01T13:29:52.999Z</time></trkpt><trkpt lat="42.400002618331925" lon="19.650561233079788"><ele>949.6666666666667</ele><time>2026-05-01T13:29:53.999Z</time></trkpt><trkpt lat="42.39993494200102" lon="19.650354588781884"><ele>950.0</ele><time>2026-05-01T13:29:54.999Z</time></trkpt><trkpt lat="42.399878060921836" lon="19.650154243359353"><ele>950.0</ele><time>2026-05-01T13:29:55.999Z</time></trkpt><trkpt lat="42.39983126079565" lon="19.649975922153683"><ele>950.0</ele><time>2026-05-01T13:29:56.999Z</time></trkpt><trkpt lat="42.399785914944296" lon="19.649806845134265"><ele>950.0</ele><time>2026-05-01T13:29:57.999Z</time></trkpt><trkpt lat="42.39974796041245" lon="19.6496484698157"><ele>950.0</ele><time>2026-05-01T13:29:58.999Z</time></trkpt><trkpt lat="42.39971307788535" lon="19.64949513686882"><ele>950.5</ele><time>2026-05-01T13:29:59.999Z</time></trkpt><trkpt lat="42.39967944522233" lon="19.64934370851259"><ele>951.0</ele><time>2026-05-01T13:30:00.999Z</time></trkpt><trkpt lat="42.399658328338816" lon="19.649190172909186"><ele>951.5</ele><time>2026-05-01T13:30:01.999Z</time></trkpt><trkpt lat="42.39963473288905" lon="19.649030043112752"><ele>952.0</ele><time>2026-05-01T13:30:02.999Z</time></trkpt><trkpt lat="42.39961212565151" lon="19.648865763533532"><ele>949.4000000000001</ele><time>2026-05-01T13:30:03.999Z</time></trkpt><trkpt lat="42.399576297363296" lon="19.64872271975213"><ele>946.8000000000001</ele><time>2026-05-01T13:30:04.999Z</time></trkpt><trkpt lat="42.399568933194956" lon="19.64859305682118"><ele>944.2</ele><time>2026-05-01T13:30:05.999Z</time></trkpt><trkpt lat="42.39957532160022" lon="19.64848143042052"><ele>941.6</ele><time>2026-05-01T13:30:06.999Z</time></trkpt><trkpt lat="42.39955508554726" lon="19.648370732688697"><ele>939.0</ele><time>2026-05-01T13:30:07.999Z</time></trkpt><trkpt lat="42.39952669169889" lon="19.648266011125685"><ele>938.6</ele><time>2026-05-01T13:30:08.999Z</time></trkpt><trkpt lat="42.39943261918324" lon="19.648203288603742"><ele>938.2</ele><time>2026-05-01T13:30:09.999Z</time></trkpt><trkpt lat="42.39938471390568" lon="19.648124333990648"><ele>937.8000000000001</ele><time>2026-05-01T13:30:10.999Z</time></trkpt><trkpt lat="42.399279291481776" lon="19.648141968773977"><ele>937.4000000000001</ele><time>2026-05-01T13:30:11.999Z</time></trkpt><trkpt lat="42.39917055355392" lon="19.648158039229894"><ele>937.0</ele><time>2026-05-01T13:30:12.999Z</time></trkpt><trkpt lat="42.399057648315484" lon="19.648191054920108"><ele>937.0</ele><time>2026-05-01T13:30:13.999Z</time></trkpt><trkpt lat="42.39893307374381" lon="19.64821101742539"><ele>937.0</ele><time>2026-05-01T13:30:14.999Z</time></trkpt><trkpt lat="42.39880755740411" lon="19.648230777215762"><ele>937.0</ele><time>2026-05-01T13:30:15.999Z</time></trkpt><trkpt lat="42.398693432619076" lon="19.648249722635317"><ele>937.0</ele><time>2026-05-01T13:30:16.999Z</time></trkpt><trkpt lat="42.398587987798145" lon="19.648265780885815"><ele>935.8333333333333</ele><time>2026-05-01T13:30:17.999Z</time></trkpt><trkpt lat="42.398487386028606" lon="19.64827957487103"><ele>934.6666666666666</ele><time>2026-05-01T13:30:18.999Z</time></trkpt><trkpt lat="42.39839980618665" lon="19.64829211353273"><ele>933.5</ele><time>2026-05-01T13:30:19.999Z</time></trkpt><trkpt lat="42.39832293698146" lon="19.64829572904982"><ele>932.3333333333333</ele><time>2026-05-01T13:30:20.999Z</time></trkpt><trkpt lat="42.398255257527566" lon="19.648260637207166"><ele>931.1666666666666</ele><time>2026-05-01T13:30:21.999Z</time></trkpt><trkpt lat="42.398222943941754" lon="19.648149696239177"><ele>930.0</ele><time>2026-05-01T13:30:22.999Z</time></trkpt><trkpt lat="42.39816402366674" lon="19.648038587325704"><ele>930.0</ele><time>2026-05-01T13:30:23.999Z</time></trkpt><trkpt lat="42.39809682835947" lon="19.64790523417719"><ele>930.0</ele><time>2026-05-01T13:30:24.999Z</time></trkpt><trkpt lat="42.398035491899165" lon="19.647756712559744"><ele>930.0</ele><time>2026-05-01T13:30:25.999Z</time></trkpt><trkpt lat="42.39798414414702" lon="19.647587969000387"><ele>930.0</ele><time>2026-05-01T13:30:26.999Z</time></trkpt><trkpt lat="42.39793859539672" lon="19.647399717807005"><ele>930.3333333333333</ele><time>2026-05-01T13:30:27.999Z</time></trkpt><trkpt lat="42.39789205603054" lon="19.647197722883355"><ele>930.6666666666666</ele><time>2026-05-01T13:30:28.999Z</time></trkpt><trkpt lat="42.397844587560144" lon="19.646988228520005"><ele>931.0</ele><time>2026-05-01T13:30:29.999Z</time></trkpt><trkpt lat="42.397784578173045" lon="19.64678027871447"><ele>929.3333333333333</ele><time>2026-05-01T13:30:30.999Z</time></trkpt><trkpt lat="42.397716342059" lon="19.646601977757225"><ele>927.6666666666667</ele><time>2026-05-01T13:30:31.999Z</time></trkpt><trkpt lat="42.39764377391365" lon="19.64642089239241"><ele>926.0</ele><time>2026-05-01T13:30:32.999Z</time></trkpt><trkpt lat="42.39756857980063" lon="19.64623662175814"><ele>926.25</ele><time>2026-05-01T13:30:33.999Z</time></trkpt><trkpt lat="42.39749329468469" lon="19.646052116135596"><ele>926.5</ele><time>2026-05-01T13:30:34.999Z</time></trkpt><trkpt lat="42.39742932891988" lon="19.645862389779698"><ele>926.75</ele><time>2026-05-01T13:30:35.999Z</time></trkpt><trkpt lat="42.39735893018886" lon="19.645705768328423"><ele>927.0</ele><time>2026-05-01T13:30:36.999Z</time></trkpt><trkpt lat="42.39729095270913" lon="19.645556580725525"><ele>927.0</ele><time>2026-05-01T13:30:37.999Z</time></trkpt><trkpt lat="42.39722579045995" lon="19.64539218008406"><ele>927.0</ele><time>2026-05-01T13:30:38.999Z</time></trkpt><trkpt lat="42.397177724164685" lon="19.645232916325455"><ele>927.0</ele><time>2026-05-01T13:30:39.999Z</time></trkpt><trkpt lat="42.39716795322975" lon="19.645077365542726"><ele>927.0</ele><time>2026-05-01T13:30:40.999Z</time></trkpt><trkpt lat="42.39717095185347" lon="19.64491669826162"><ele>927.25</ele><time>2026-05-01T13:30:41.999Z</time></trkpt><trkpt lat="42.39718547796038" lon="19.64476401742874"><ele>927.5</ele><time>2026-05-01T13:30:42.999Z</time></trkpt><trkpt lat="42.39714746120849" lon="19.644619885327458"><ele>927.75</ele><time>2026-05-01T13:30:43.999Z</time></trkpt><trkpt lat="42.39711825624926" lon="19.644479103642187"><ele>928.0</ele><time>2026-05-01T13:30:44.999Z</time></trkpt><trkpt lat="42.39702503685076" lon="19.644355656016952"><ele>928.0</ele><time>2026-05-01T13:30:45.999Z</time></trkpt><trkpt lat="42.39696260187597" lon="19.64421972874784"><ele>928.0</ele><time>2026-05-01T13:30:46.999Z</time></trkpt><trkpt lat="42.3969112282239" lon="19.644075762175486"><ele>928.0</ele><time>2026-05-01T13:30:47.999Z</time></trkpt><trkpt lat="42.39686508302259" lon="19.643945771778178"><ele>928.0</ele><time>2026-05-01T13:30:48.999Z</time></trkpt><trkpt lat="42.39680751829583" lon="19.64383370376196"><ele>928.0</ele><time>2026-05-01T13:30:49.999Z</time></trkpt><trkpt lat="42.39674075724889" lon="19.643699138079935"><ele>928.75</ele><time>2026-05-01T13:30:50.999Z</time></trkpt><trkpt lat="42.39664163612849" lon="19.643581907069702"><ele>929.5</ele><time>2026-05-01T13:30:51.999Z</time></trkpt><trkpt lat="42.396526583291404" lon="19.643478706681876"><ele>930.25</ele><time>2026-05-01T13:30:52.999Z</time></trkpt><trkpt lat="42.39642928613586" lon="19.643331665100984"><ele>931.0</ele><time>2026-05-01T13:30:53.999Z</time></trkpt><trkpt lat="42.39631767019573" lon="19.643193825489597"><ele>931.0</ele><time>2026-05-01T13:30:54.999Z</time></trkpt><trkpt lat="42.39620741678567" lon="19.64305061855903"><ele>931.0</ele><time>2026-05-01T13:30:55.999Z</time></trkpt><trkpt lat="42.39610213664329" lon="19.642891150057075"><ele>931.0</ele><time>2026-05-01T13:30:56.999Z</time></trkpt><trkpt lat="42.39599362262936" lon="19.642767059088246"><ele>928.0</ele><time>2026-05-01T13:30:57.999Z</time></trkpt><trkpt lat="42.39588619360345" lon="19.64263189057393"><ele>925.0</ele><time>2026-05-01T13:30:58.999Z</time></trkpt><trkpt lat="42.39576262495272" lon="19.642502454706932"><ele>922.0</ele><time>2026-05-01T13:30:59.999Z</time></trkpt><trkpt lat="42.39562553720477" lon="19.64237089186235"><ele>920.6666666666666</ele><time>2026-05-01T13:31:00.999Z</time></trkpt><trkpt lat="42.39549162065762" lon="19.642235199323157"><ele>919.3333333333333</ele><time>2026-05-01T13:31:01.999Z</time></trkpt><trkpt lat="42.39538325994076" lon="19.64208871026106"><ele>918.0</ele><time>2026-05-01T13:31:02.999Z</time></trkpt><trkpt lat="42.39528601461857" lon="19.641952915996757"><ele>918.0</ele><time>2026-05-01T13:31:03.999Z</time></trkpt><trkpt lat="42.395182853639895" lon="19.641810006394543"><ele>918.0</ele><time>2026-05-01T13:31:04.999Z</time></trkpt><trkpt lat="42.395055514823056" lon="19.64167468634107"><ele>918.0</ele><time>2026-05-01T13:31:05.999Z</time></trkpt><trkpt lat="42.39492590289663" lon="19.641537360082964"><ele>918.0</ele><time>2026-05-01T13:31:06.999Z</time></trkpt><trkpt lat="42.394799250456245" lon="19.641403821917052"><ele>918.0</ele><time>2026-05-01T13:31:07.999Z</time></trkpt><trkpt lat="42.394675910486335" lon="19.64130276155807"><ele>918.0</ele><time>2026-05-01T13:31:08.999Z</time></trkpt><trkpt lat="42.39457080593521" lon="19.641200734803775"><ele>918.0</ele><time>2026-05-01T13:31:09.999Z</time></trkpt><trkpt lat="42.3944795408287" lon="19.64108774812763"><ele>917.5</ele><time>2026-05-01T13:31:10.999Z</time></trkpt><trkpt lat="42.39440013157504" lon="19.640975420923628"><ele>917.0</ele><time>2026-05-01T13:31:11.999Z</time></trkpt><trkpt lat="42.39432940709858" lon="19.640840029567897"><ele>916.5</ele><time>2026-05-01T13:31:12.999Z</time></trkpt><trkpt lat="42.39424913838098" lon="19.640692156340332"><ele>916.0</ele><time>2026-05-01T13:31:13.999Z</time></trkpt><trkpt lat="42.394155683732514" lon="19.64057375063042"><ele>916.0</ele><time>2026-05-01T13:31:14.999Z</time></trkpt><trkpt lat="42.394073233869634" lon="19.640475014573994"><ele>916.0</ele><time>2026-05-01T13:31:15.999Z</time></trkpt><trkpt lat="42.39397091963025" lon="19.640404072846955"><ele>916.0</ele><time>2026-05-01T13:31:16.999Z</time></trkpt><trkpt lat="42.393859242388686" lon="19.64032360648315"><ele>916.0</ele><time>2026-05-01T13:31:17.999Z</time></trkpt><trkpt lat="42.393728743918004" lon="19.640275725268527"><ele>915.75</ele><time>2026-05-01T13:31:18.999Z</time></trkpt><trkpt lat="42.39361907987807" lon="19.640155676320543"><ele>915.5</ele><time>2026-05-01T13:31:19.999Z</time></trkpt><trkpt lat="42.3934937098202" lon="19.64004608388977"><ele>915.25</ele><time>2026-05-01T13:31:20.999Z</time></trkpt><trkpt lat="42.39334995042974" lon="19.639957725105827"><ele>915.0</ele><time>2026-05-01T13:31:21.999Z</time></trkpt><trkpt lat="42.393208917006596" lon="19.639847569150792"><ele>915.0</ele><time>2026-05-01T13:31:22.999Z</time></trkpt><trkpt lat="42.39305991654684" lon="19.639748943891824"><ele>915.0</ele><time>2026-05-01T13:31:23.999Z</time></trkpt><trkpt lat="42.392906806869604" lon="19.63964968899022"><ele>915.0</ele><time>2026-05-01T13:31:24.999Z</time></trkpt><trkpt lat="42.39275010808536" lon="19.63954723853878"><ele>912.3333333333333</ele><time>2026-05-01T13:31:25.999Z</time></trkpt><trkpt lat="42.392591152215644" lon="19.639439139806036"><ele>909.6666666666666</ele><time>2026-05-01T13:31:26.999Z</time></trkpt><trkpt lat="42.39242822375323" lon="19.639329960946167"><ele>907.0</ele><time>2026-05-01T13:31:27.999Z</time></trkpt><trkpt lat="42.392270900851564" lon="19.639224909208966"><ele>910.3333333333333</ele><time>2026-05-01T13:31:28.999Z</time></trkpt><trkpt lat="42.39213353637484" lon="19.639105793137745"><ele>913.6666666666667</ele><time>2026-05-01T13:31:29.999Z</time></trkpt><trkpt lat="42.391995555017154" lon="19.639001893008285"><ele>917.0</ele><time>2026-05-01T13:31:30.999Z</time></trkpt><trkpt lat="42.39185682218847" lon="19.638897230307744"><ele>917.0</ele><time>2026-05-01T13:31:31.999Z</time></trkpt><trkpt lat="42.39172586722601" lon="19.638797949593496"><ele>917.0</ele><time>2026-05-01T13:31:32.999Z</time></trkpt><trkpt lat="42.391607793833295" lon="19.638707775407998"><ele>917.0</ele><time>2026-05-01T13:31:33.999Z</time></trkpt><trkpt lat="42.39147997384189" lon="19.638630837644904"><ele>917.0</ele><time>2026-05-01T13:31:34.999Z</time></trkpt><trkpt lat="42.39134653209375" lon="19.638536604050657"><ele>914.0</ele><time>2026-05-01T13:31:35.999Z</time></trkpt><trkpt lat="42.39119125447564" lon="19.638444780109143"><ele>911.0</ele><time>2026-05-01T13:31:36.999Z</time></trkpt><trkpt lat="42.39103019011903" lon="19.638323140068415"><ele>908.0</ele><time>2026-05-01T13:31:37.999Z</time></trkpt><trkpt lat="42.39086597823306" lon="19.638221781634094"><ele>908.0</ele><time>2026-05-01T13:31:38.999Z</time></trkpt><trkpt lat="42.39071960303766" lon="19.63812283494325"><ele>908.0</ele><time>2026-05-01T13:31:39.999Z</time></trkpt><trkpt lat="42.39057160620981" lon="19.638018495262795"><ele>908.0</ele><time>2026-05-01T13:31:40.999Z</time></trkpt><trkpt lat="42.39041898426843" lon="19.63791158259739"><ele>906.3333333333334</ele><time>2026-05-01T13:31:41.999Z</time></trkpt><trkpt lat="42.390263617281875" lon="19.637803012850057"><ele>904.6666666666667</ele><time>2026-05-01T13:31:42.999Z</time></trkpt><trkpt lat="42.39010955146134" lon="19.637696493791445"><ele>903.0</ele><time>2026-05-01T13:31:43.998Z</time></trkpt><trkpt lat="42.3899594268917" lon="19.637594910392718"><ele>903.0</ele><time>2026-05-01T13:31:44.998Z</time></trkpt><trkpt lat="42.389807528749685" lon="19.63752281711766"><ele>903.0</ele><time>2026-05-01T13:31:45.999Z</time></trkpt><trkpt lat="42.38966320207286" lon="19.637433643374067"><ele>903.0</ele><time>2026-05-01T13:31:46.999Z</time></trkpt><trkpt lat="42.38951778228776" lon="19.637338275325394"><ele>906.0</ele><time>2026-05-01T13:31:47.999Z</time></trkpt><trkpt lat="42.3893696967677" lon="19.63724427885829"><ele>909.0</ele><time>2026-05-01T13:31:48.999Z</time></trkpt><trkpt lat="42.389238883579814" lon="19.63713521822415"><ele>912.0</ele><time>2026-05-01T13:31:49.999Z</time></trkpt><trkpt lat="42.389112828772596" lon="19.63705480470484"><ele>912.0</ele><time>2026-05-01T13:31:50.999Z</time></trkpt><trkpt lat="42.38897634093511" lon="19.636998035713724"><ele>912.0</ele><time>2026-05-01T13:31:51.999Z</time></trkpt><trkpt lat="42.38884036611046" lon="19.636927314711805"><ele>912.0</ele><time>2026-05-01T13:31:52.999Z</time></trkpt><trkpt lat="42.38869968317572" lon="19.636870880997552"><ele>912.0</ele><time>2026-05-01T13:31:53.999Z</time></trkpt><trkpt lat="42.388554591826626" lon="19.636817816903694"><ele>912.5</ele><time>2026-05-01T13:31:54.999Z</time></trkpt><trkpt lat="42.38840358627247" lon="19.636756568129137"><ele>913.0</ele><time>2026-05-01T13:31:55.999Z</time></trkpt><trkpt lat="42.38826438133222" lon="19.636693636957403"><ele>913.5</ele><time>2026-05-01T13:31:56.999Z</time></trkpt><trkpt lat="42.38813588976748" lon="19.636637142188874"><ele>914.0</ele><time>2026-05-01T13:31:57.999Z</time></trkpt><trkpt lat="42.38800346300297" lon="19.636583594305897"><ele>914.0</ele><time>2026-05-01T13:31:58.999Z</time></trkpt><trkpt lat="42.38786341626483" lon="19.63652852652167"><ele>914.0</ele><time>2026-05-01T13:31:59.999Z</time></trkpt><trkpt lat="42.387721969841635" lon="19.636468423873037"><ele>914.0</ele><time>2026-05-01T13:32:00.999Z</time></trkpt><trkpt lat="42.38758965244679" lon="19.636367053358814"><ele>914.0</ele><time>2026-05-01T13:32:01.999Z</time></trkpt><trkpt lat="42.38744487373413" lon="19.63629464233682"><ele>914.0</ele><time>2026-05-01T13:32:02.999Z</time></trkpt><trkpt lat="42.387304935831736" lon="19.63620130961724"><ele>914.0</ele><time>2026-05-01T13:32:03.999Z</time></trkpt><trkpt lat="42.38715311382819" lon="19.63612249128507"><ele>914.0</ele><time>2026-05-01T13:32:04.999Z</time></trkpt><trkpt lat="42.38700141894717" lon="19.63602792083194"><ele>908.0</ele><time>2026-05-01T13:32:05.999Z</time></trkpt><trkpt lat="42.38682992708198" lon="19.635996601452927"><ele>902.0</ele><time>2026-05-01T13:32:06.999Z</time></trkpt><trkpt lat="42.38665921517939" lon="19.635947714777593"><ele>896.0</ele><time>2026-05-01T13:32:07.999Z</time></trkpt><trkpt lat="42.38650333761043" lon="19.635861173725164"><ele>896.0</ele><time>2026-05-01T13:32:08.999Z</time></trkpt><trkpt lat="42.38635852834902" lon="19.635798606292685"><ele>896.0</ele><time>2026-05-01T13:32:09.999Z</time></trkpt><trkpt lat="42.38620766653907" lon="19.635753741284223"><ele>896.0</ele><time>2026-05-01T13:32:10.999Z</time></trkpt><trkpt lat="42.386059102066234" lon="19.63568064460769"><ele>898.0</ele><time>2026-05-01T13:32:11.999Z</time></trkpt><trkpt lat="42.3859055795088" lon="19.635607219122118"><ele>900.0</ele><time>2026-05-01T13:32:12.999Z</time></trkpt><trkpt lat="42.385745479677475" lon="19.635543355300115"><ele>902.0</ele><time>2026-05-01T13:32:13.999Z</time></trkpt><trkpt lat="42.3855847194532" lon="19.63544916801805"><ele>898.3333333333334</ele><time>2026-05-01T13:32:14.999Z</time></trkpt><trkpt lat="42.385432260465656" lon="19.63533300106789"><ele>894.6666666666667</ele><time>2026-05-01T13:32:15.999Z</time></trkpt><trkpt lat="42.385270573897316" lon="19.63520780342226"><ele>891.0</ele><time>2026-05-01T13:32:16.999Z</time></trkpt><trkpt lat="42.38510528601733" lon="19.63510612864782"><ele>891.0</ele><time>2026-05-01T13:32:17.999Z</time></trkpt><trkpt lat="42.38492372814946" lon="19.635046092224243"><ele>891.0</ele><time>2026-05-01T13:32:18.999Z</time></trkpt><trkpt lat="42.38475018216018" lon="19.634965745433185"><ele>891.0</ele><time>2026-05-01T13:32:19.999Z</time></trkpt><trkpt lat="42.38458234989997" lon="19.63489519333427"><ele>893.0</ele><time>2026-05-01T13:32:20.999Z</time></trkpt><trkpt lat="42.38443987020018" lon="19.63480955093387"><ele>895.0</ele><time>2026-05-01T13:32:21.999Z</time></trkpt><trkpt lat="42.38430075738563" lon="19.63474781279557"><ele>897.0</ele><time>2026-05-01T13:32:22.999Z</time></trkpt><trkpt lat="42.38416159772606" lon="19.63468648335615"><ele>899.0</ele><time>2026-05-01T13:32:23.999Z</time></trkpt><trkpt lat="42.384017818668624" lon="19.63462311446795"><ele>899.0</ele><time>2026-05-01T13:32:24.999Z</time></trkpt><trkpt lat="42.38387007507207" lon="19.634571372196"><ele>899.0</ele><time>2026-05-01T13:32:25.999Z</time></trkpt><trkpt lat="42.38372630130107" lon="19.63450122290412"><ele>899.0</ele><time>2026-05-01T13:32:26.999Z</time></trkpt><trkpt lat="42.38359881977768" lon="19.634416663040554"><ele>899.0</ele><time>2026-05-01T13:32:27.999Z</time></trkpt><trkpt lat="42.38346114049873" lon="19.634378911487552"><ele>896.3333333333334</ele><time>2026-05-01T13:32:28.999Z</time></trkpt><trkpt lat="42.38331937777386" lon="19.63432350339165"><ele>893.6666666666667</ele><time>2026-05-01T13:32:29.999Z</time></trkpt><trkpt lat="42.383168051282695" lon="19.634281241869406"><ele>891.0</ele><time>2026-05-01T13:32:30.999Z</time></trkpt><trkpt lat="42.38300578876944" lon="19.63424864963189"><ele>891.0</ele><time>2026-05-01T13:32:31.999Z</time></trkpt><trkpt lat="42.38283951512666" lon="19.634217377585166"><ele>891.0</ele><time>2026-05-01T13:32:32.999Z</time></trkpt><trkpt lat="42.38267012278973" lon="19.634188928309488"><ele>891.0</ele><time>2026-05-01T13:32:33.999Z</time></trkpt><trkpt lat="42.38249714000223" lon="19.63417078173506"><ele>891.0</ele><time>2026-05-01T13:32:34.999Z</time></trkpt><trkpt lat="42.38231843850079" lon="19.63416456375393"><ele>891.0</ele><time>2026-05-01T13:32:35.999Z</time></trkpt><trkpt lat="42.38213661260389" lon="19.634162149826313"><ele>891.0</ele><time>2026-05-01T13:32:36.999Z</time></trkpt><trkpt lat="42.38194922919277" lon="19.63415940595356"><ele>889.3333333333333</ele><time>2026-05-01T13:32:37.999Z</time></trkpt><trkpt lat="42.38175862234226" lon="19.634155976929975"><ele>887.6666666666666</ele><time>2026-05-01T13:32:38.999Z</time></trkpt><trkpt lat="42.38157535040112" lon="19.634159137114068"><ele>886.0</ele><time>2026-05-01T13:32:39.999Z</time></trkpt><trkpt lat="42.38140771348842" lon="19.634169522658393"><ele>885.25</ele><time>2026-05-01T13:32:40.999Z</time></trkpt><trkpt lat="42.381251179497085" lon="19.63417505136669"><ele>884.5</ele><time>2026-05-01T13:32:41.999Z</time></trkpt><trkpt lat="42.38110871281564" lon="19.634172956284004"><ele>883.75</ele><time>2026-05-01T13:32:42.999Z</time></trkpt><trkpt lat="42.38098191850381" lon="19.63417168753686"><ele>883.0</ele><time>2026-05-01T13:32:43.999Z</time></trkpt><trkpt lat="42.38086945625252" lon="19.634176240080762"><ele>883.0</ele><time>2026-05-01T13:32:44.999Z</time></trkpt><trkpt lat="42.38076664653374" lon="19.63419245136141"><ele>883.0</ele><time>2026-05-01T13:32:45.999Z</time></trkpt><trkpt lat="42.380669922981525" lon="19.634212665251606"><ele>883.0</ele><time>2026-05-01T13:32:46.999Z</time></trkpt><trkpt lat="42.38058139592761" lon="19.63423435240578"><ele>883.0</ele><time>2026-05-01T13:32:47.999Z</time></trkpt><trkpt lat="42.380497027232806" lon="19.634260760531713"><ele>883.0</ele><time>2026-05-01T13:32:48.999Z</time></trkpt><trkpt lat="42.38042149504666" lon="19.63429115739173"><ele>882.5714285714286</ele><time>2026-05-01T13:32:49.999Z</time></trkpt><trkpt lat="42.380357502869174" lon="19.63432238565769"><ele>882.1428571428571</ele><time>2026-05-01T13:32:50.999Z</time></trkpt><trkpt lat="42.38029222694008" lon="19.63435030211166"><ele>881.7142857142857</ele><time>2026-05-01T13:32:51.999Z</time></trkpt><trkpt lat="42.38022965095054" lon="19.634379295692508"><ele>881.2857142857142</ele><time>2026-05-01T13:32:52.999Z</time></trkpt><trkpt lat="42.38017059778845" lon="19.634411457024573"><ele>880.8571428571429</ele><time>2026-05-01T13:32:53.999Z</time></trkpt><trkpt lat="42.38010732210338" lon="19.634445383046597"><ele>880.4285714285713</ele><time>2026-05-01T13:32:54.999Z</time></trkpt><trkpt lat="42.38004324732398" lon="19.634479584057267"><ele>880.0</ele><time>2026-05-01T13:32:55.999Z</time></trkpt><trkpt lat="42.37997448840798" lon="19.634511667655072"><ele>882.1666666666666</ele><time>2026-05-01T13:32:56.999Z</time></trkpt><trkpt lat="42.3799018880838" lon="19.634539181024458"><ele>884.3333333333333</ele><time>2026-05-01T13:32:57.999Z</time></trkpt><trkpt lat="42.37982273314479" lon="19.63453617141327"><ele>886.5</ele><time>2026-05-01T13:32:58.999Z</time></trkpt><trkpt lat="42.37974073805758" lon="19.634547247248715"><ele>888.6666666666667</ele><time>2026-05-01T13:32:59.999Z</time></trkpt><trkpt lat="42.3796584861173" lon="19.634558182578864"><ele>890.8333333333334</ele><time>2026-05-01T13:33:00.999Z</time></trkpt><trkpt lat="42.3795710713681" lon="19.634568112828674"><ele>893.0</ele><time>2026-05-01T13:33:01.999Z</time></trkpt><trkpt lat="42.379482474673964" lon="19.634572552603096"><ele>893.1666666666667</ele><time>2026-05-01T13:33:02.999Z</time></trkpt><trkpt lat="42.37940273370469" lon="19.634565924808108"><ele>893.3333333333334</ele><time>2026-05-01T13:33:03.999Z</time></trkpt><trkpt lat="42.37931569594876" lon="19.63457516663895"><ele>893.5</ele><time>2026-05-01T13:33:04.999Z</time></trkpt><trkpt lat="42.37923409601104" lon="19.63455993175381"><ele>893.6666666666667</ele><time>2026-05-01T13:33:05.999Z</time></trkpt><trkpt lat="42.37915793153516" lon="19.634550477571395"><ele>893.8333333333334</ele><time>2026-05-01T13:33:06.999Z</time></trkpt><trkpt lat="42.37907742113991" lon="19.634543295062354"><ele>894.0</ele><time>2026-05-01T13:33:07.999Z</time></trkpt><trkpt lat="42.37899567743413" lon="19.634540808283752"><ele>894.0</ele><time>2026-05-01T13:33:08.999Z</time></trkpt><trkpt lat="42.37891243530132" lon="19.63453851276785"><ele>894.0</ele><time>2026-05-01T13:33:09.999Z</time></trkpt><trkpt lat="42.37883156531826" lon="19.634534559957313"><ele>894.0</ele><time>2026-05-01T13:33:10.999Z</time></trkpt><trkpt lat="42.37874469899106" lon="19.634525929610582"><ele>894.0</ele><time>2026-05-01T13:33:11.999Z</time></trkpt><trkpt lat="42.378657632918305" lon="19.634500064046346"><ele>894.0</ele><time>2026-05-01T13:33:12.999Z</time></trkpt><trkpt lat="42.3785818466981" lon="19.634428559997577"><ele>894.0</ele><time>2026-05-01T13:33:13.999Z</time></trkpt><trkpt lat="42.37850711070003" lon="19.634362422379418"><ele>891.6</ele><time>2026-05-01T13:33:14.999Z</time></trkpt><trkpt lat="42.378418683653756" lon="19.634313112034693"><ele>889.2</ele><time>2026-05-01T13:33:15.999Z</time></trkpt><trkpt lat="42.37833852625112" lon="19.634230253128358"><ele>886.8000000000001</ele><time>2026-05-01T13:33:16.999Z</time></trkpt><trkpt lat="42.37823988575388" lon="19.634166774891423"><ele>884.4000000000001</ele><time>2026-05-01T13:33:17.999Z</time></trkpt><trkpt lat="42.378136009718595" lon="19.63409777618823"><ele>882.0</ele><time>2026-05-01T13:33:18.999Z</time></trkpt><trkpt lat="42.37801010295443" lon="19.634064555201142"><ele>882.0</ele><time>2026-05-01T13:33:19.999Z</time></trkpt><trkpt lat="42.377896324246066" lon="19.633989988406018"><ele>882.0</ele><time>2026-05-01T13:33:20.999Z</time></trkpt><trkpt lat="42.37776686215625" lon="19.633952099132593"><ele>882.0</ele><time>2026-05-01T13:33:21.999Z</time></trkpt><trkpt lat="42.377642177429564" lon="19.633879053901904"><ele>882.0</ele><time>2026-05-01T13:33:22.999Z</time></trkpt><trkpt lat="42.37752532734011" lon="19.633808043486724"><ele>882.0</ele><time>2026-05-01T13:33:23.999Z</time></trkpt><trkpt lat="42.377432362371664" lon="19.633755390748544"><ele>882.0</ele><time>2026-05-01T13:33:24.999Z</time></trkpt><trkpt lat="42.37731087150063" lon="19.633784036955472"><ele>882.0</ele><time>2026-05-01T13:33:25.999Z</time></trkpt><trkpt lat="42.37721036544211" lon="19.63378139451031"><ele>882.0</ele><time>2026-05-01T13:33:26.999Z</time></trkpt><trkpt lat="42.3771033755665" lon="19.633768090842274"><ele>882.0</ele><time>2026-05-01T13:33:27.999Z</time></trkpt><trkpt lat="42.37699357262426" lon="19.633768913955535"><ele>881.8</ele><time>2026-05-01T13:33:28.999Z</time></trkpt><trkpt lat="42.376881929702776" lon="19.633770075761493"><ele>881.6</ele><time>2026-05-01T13:33:29.999Z</time></trkpt><trkpt lat="42.3767669256123" lon="19.633771219446537"><ele>881.3999999999999</ele><time>2026-05-01T13:33:30.999Z</time></trkpt><trkpt lat="42.37665520025088" lon="19.633772330557733"><ele>881.1999999999999</ele><time>2026-05-01T13:33:31.999Z</time></trkpt><trkpt lat="42.37656108514578" lon="19.63377571250536"><ele>881.0</ele><time>2026-05-01T13:33:33.999Z</time></trkpt><trkpt lat="42.376435284456996" lon="19.633765809314177"><ele>881.1999999999999</ele><time>2026-05-01T13:33:35.999Z</time></trkpt><trkpt lat="42.37631019918724" lon="19.633748827035845"><ele>881.3999999999999</ele><time>2026-05-01T13:33:37.999Z</time></trkpt><trkpt lat="42.376201319517705" lon="19.633745646542103"><ele>881.6</ele><time>2026-05-01T13:33:39.999Z</time></trkpt><trkpt lat="42.37613015648559" lon="19.633743190412268"><ele>881.8</ele><time>2026-05-01T13:33:41.999Z</time></trkpt><trkpt lat="42.37606611366571" lon="19.63372438294858"><ele>882.0</ele><time>2026-05-01T13:34:19.999Z</time></trkpt><trkpt lat="42.37594827977866" lon="19.63373745470175"><ele>882.0</ele><time>2026-05-01T13:34:21.999Z</time></trkpt><trkpt lat="42.37587450076318" lon="19.633732102689393"><ele>882.0</ele><time>2026-05-01T13:34:22.999Z</time></trkpt><trkpt lat="42.37579985952623" lon="19.633720195369524"><ele>882.0</ele><time>2026-05-01T13:34:23.999Z</time></trkpt><trkpt lat="42.37572118177156" lon="19.6337050112132"><ele>882.0</ele><time>2026-05-01T13:34:24.999Z</time></trkpt><trkpt lat="42.37564391328835" lon="19.6336892624902"><ele>882.0</ele><time>2026-05-01T13:34:25.999Z</time></trkpt><trkpt lat="42.37556925038532" lon="19.6336773834064"><ele>882.0</ele><time>2026-05-01T13:34:26.999Z</time></trkpt><trkpt lat="42.37549700233914" lon="19.63366322889215"><ele>881.7142857142857</ele><time>2026-05-01T13:34:27.999Z</time></trkpt><trkpt lat="42.375427691810145" lon="19.633641643350806"><ele>881.4285714285714</ele><time>2026-05-01T13:34:28.999Z</time></trkpt><trkpt lat="42.375360395307304" lon="19.63362044887071"><ele>881.1428571428571</ele><time>2026-05-01T13:34:29.999Z</time></trkpt><trkpt lat="42.375293474248366" lon="19.633603192719868"><ele>880.8571428571429</ele><time>2026-05-01T13:34:30.999Z</time></trkpt><trkpt lat="42.37522887279499" lon="19.633589011085736"><ele>880.5714285714286</ele><time>2026-05-01T13:34:31.999Z</time></trkpt><trkpt lat="42.375131464077015" lon="19.63355267949655"><ele>880.2857142857142</ele><time>2026-05-01T13:34:33.999Z</time></trkpt><trkpt lat="42.3750620201646" lon="19.633516285323342"><ele>880.0</ele><time>2026-05-01T13:34:55.999Z</time></trkpt><trkpt lat="42.37498454921188" lon="19.633493135396538"><ele>877.0</ele><time>2026-05-01T13:34:58.999Z</time></trkpt><trkpt lat="42.374921873752356" lon="19.63347563424949"><ele>874.0</ele><time>2026-05-01T13:35:36.999Z</time></trkpt><trkpt lat="42.375066363639554" lon="19.633518365522868"><ele>871.0</ele><time>2026-05-01T13:35:48.999Z</time></trkpt><trkpt lat="42.37519330568365" lon="19.633593120703555"><ele>868.0</ele><time>2026-05-01T13:35:49.999Z</time></trkpt><trkpt lat="42.37534597000779" lon="19.633636526537643"><ele>872.6666666666666</ele><time>2026-05-01T13:35:50.999Z</time></trkpt><trkpt lat="42.37552560984192" lon="19.63367826662905"><ele>877.3333333333333</ele><time>2026-05-01T13:35:51.999Z</time></trkpt><trkpt lat="42.37572159706269" lon="19.633720973040827"><ele>882.0</ele><time>2026-05-01T13:35:52.999Z</time></trkpt><trkpt lat="42.375935294848155" lon="19.633752287601485"><ele>882.0</ele><time>2026-05-01T13:35:53.999Z</time></trkpt><trkpt lat="42.376156820380636" lon="19.63376482470174"><ele>882.0</ele><time>2026-05-01T13:35:54.999Z</time></trkpt><trkpt lat="42.3763684032793" lon="19.633773837217976"><ele>882.0</ele><time>2026-05-01T13:35:55.999Z</time></trkpt><trkpt lat="42.37654802253795" lon="19.63378226160727"><ele>881.6666666666667</ele><time>2026-05-01T13:35:56.999Z</time></trkpt><trkpt lat="42.37670990688542" lon="19.633817332346034"><ele>881.3333333333334</ele><time>2026-05-01T13:35:58Z</time></trkpt><trkpt lat="42.37686556145214" lon="19.633815158653867"><ele>881.0</ele><time>2026-05-01T13:35:59Z</time></trkpt><trkpt lat="42.377030181156314" lon="19.633791356959676"><ele>881.0</ele><time>2026-05-01T13:36:00Z</time></trkpt><trkpt lat="42.37717673226814" lon="19.633795128774548"><ele>881.0</ele><time>2026-05-01T13:36:01Z</time></trkpt><trkpt lat="42.37729581512482" lon="19.633802374396346"><ele>881.0</ele><time>2026-05-01T13:36:02Z</time></trkpt><trkpt lat="42.377389260480406" lon="19.63381962629313"><ele>881.0</ele><time>2026-05-01T13:36:03Z</time></trkpt><trkpt lat="42.37749100021572" lon="19.63384393857643"><ele>881.1999999999999</ele><time>2026-05-01T13:36:04Z</time></trkpt><trkpt lat="42.37759878506632" lon="19.63387930443585"><ele>881.3999999999999</ele><time>2026-05-01T13:36:05Z</time></trkpt><trkpt lat="42.377704112760796" lon="19.633927957984174"><ele>881.6</ele><time>2026-05-01T13:36:06Z</time></trkpt><trkpt lat="42.377806563051784" lon="19.63397746268973"><ele>881.8</ele><time>2026-05-01T13:36:07Z</time></trkpt><trkpt lat="42.37787822725351" lon="19.634008931961638"><ele>882.0</ele><time>2026-05-01T13:36:08Z</time></trkpt><trkpt lat="42.37795261193772" lon="19.634042714984815"><ele>882.0</ele><time>2026-05-01T13:36:10Z</time></trkpt><trkpt lat="42.37801549893624" lon="19.634077965958124"><ele>882.0</ele><time>2026-05-01T13:36:11.999Z</time></trkpt><trkpt lat="42.37808940712549" lon="19.63411552112526"><ele>882.0</ele><time>2026-05-01T13:36:14.999Z</time></trkpt><trkpt lat="42.37816172971786" lon="19.634164182070375"><ele>882.0</ele><time>2026-05-01T13:36:18.999Z</time></trkpt><trkpt lat="42.378258290413704" lon="19.63422835799753"><ele>882.0</ele><time>2026-05-01T13:36:20.999Z</time></trkpt><trkpt lat="42.378323558002904" lon="19.634270390316267"><ele>882.0</ele><time>2026-05-01T13:36:21.999Z</time></trkpt><trkpt lat="42.37839311334401" lon="19.63432228827264"><ele>881.6</ele><time>2026-05-01T13:36:22.999Z</time></trkpt><trkpt lat="42.37847386704102" lon="19.634362640636844"><ele>881.2</ele><time>2026-05-01T13:36:23.999Z</time></trkpt><trkpt lat="42.37853730101021" lon="19.63442320786539"><ele>880.8</ele><time>2026-05-01T13:36:24.999Z</time></trkpt><trkpt lat="42.37859238595468" lon="19.634505123218094"><ele>880.4</ele><time>2026-05-01T13:36:26.999Z</time></trkpt><trkpt lat="42.3785320844069" lon="19.634435132021036"><ele>880.0</ele><time>2026-05-01T13:36:39.999Z</time></trkpt><trkpt lat="42.378414294841804" lon="19.634300440343573"><ele>880.0</ele><time>2026-05-01T13:36:40.999Z</time></trkpt><trkpt lat="42.378273226551336" lon="19.63419877785758"><ele>880.0</ele><time>2026-05-01T13:36:41.999Z</time></trkpt><trkpt lat="42.37814992134484" lon="19.634135757350442"><ele>880.0</ele><time>2026-05-01T13:36:42.999Z</time></trkpt><trkpt lat="42.37804453101414" lon="19.63407833425925"><ele>880.0</ele><time>2026-05-01T13:36:43.999Z</time></trkpt><trkpt lat="42.37794763307563" lon="19.63402872439033"><ele>880.4</ele><time>2026-05-01T13:36:44.999Z</time></trkpt><trkpt lat="42.377858512946" lon="19.63398275316629"><ele>880.8</ele><time>2026-05-01T13:36:45.999Z</time></trkpt><trkpt lat="42.377778141077336" lon="19.63393909573798"><ele>881.2</ele><time>2026-05-01T13:36:46.999Z</time></trkpt><trkpt lat="42.37770408288365" lon="19.633905481881847"><ele>881.6</ele><time>2026-05-01T13:36:47.999Z</time></trkpt><trkpt lat="42.37763377752616" lon="19.633875648585303"><ele>882.0</ele><time>2026-05-01T13:36:48.999Z</time></trkpt><trkpt lat="42.37751605547355" lon="19.63383348928469"><ele>882.0</ele><time>2026-05-01T13:36:50.999Z</time></trkpt><trkpt lat="42.37741571170207" lon="19.633799411982174"><ele>882.0</ele><time>2026-05-01T13:36:52.999Z</time></trkpt><trkpt lat="42.37739032782327" lon="19.63371224074947"><ele>882.0</ele><time>2026-05-01T13:36:57.999Z</time></trkpt><trkpt lat="42.37750555533293" lon="19.633705854126564"><ele>882.0</ele><time>2026-05-01T13:40:00.999Z</time></trkpt><trkpt lat="42.377581895695904" lon="19.63369907517341"><ele>882.0</ele><time>2026-05-01T13:40:01.999Z</time></trkpt><trkpt lat="42.377646806825545" lon="19.63368375930006"><ele>882.0</ele><time>2026-05-01T13:40:02.999Z</time></trkpt><trkpt lat="42.3777676207005" lon="19.633741161937465"><ele>882.0</ele><time>2026-05-01T13:40:04.999Z</time></trkpt><trkpt lat="42.37784116854456" lon="19.633736575860933"><ele>882.0</ele><time>2026-05-01T13:40:05.999Z</time></trkpt><trkpt lat="42.37791564348051" lon="19.633674419116172"><ele>882.0</ele><time>2026-05-01T13:40:07.999Z</time></trkpt><trkpt lat="42.37800837751039" lon="19.633679611669038"><ele>882.0</ele><time>2026-05-01T13:40:11Z</time></trkpt><trkpt lat="42.37805932796403" lon="19.633730858787096"><ele>882.0</ele><time>2026-05-01T13:40:12Z</time></trkpt><trkpt lat="42.37812261508527" lon="19.63367885089917"><ele>882.0</ele><time>2026-05-01T13:40:12.999Z</time></trkpt><trkpt lat="42.37821583477009" lon="19.6336832700335"><ele>881.6</ele><time>2026-05-01T13:40:14.999Z</time></trkpt><trkpt lat="42.37829997815685" lon="19.633729558799537"><ele>881.2</ele><time>2026-05-01T13:40:16.999Z</time></trkpt><trkpt lat="42.37838857366392" lon="19.633712423074883"><ele>880.8</ele><time>2026-05-01T13:40:18.999Z</time></trkpt><trkpt lat="42.37849409225734" lon="19.63369405898446"><ele>880.4</ele><time>2026-05-01T13:40:20.999Z</time></trkpt><trkpt lat="42.37859138515106" lon="19.63373968922682"><ele>880.0</ele><time>2026-05-01T13:40:22.999Z</time></trkpt><trkpt lat="42.378699915555664" lon="19.63374960636453"><ele>879.9999999999999</ele><time>2026-05-01T13:40:24.999Z</time></trkpt><trkpt lat="42.37877883496769" lon="19.633757017153936"><ele>880.0</ele><time>2026-05-01T13:40:25.999Z</time></trkpt><trkpt lat="42.37886352044733" lon="19.633776581186098"><ele>880.0</ele><time>2026-05-01T13:40:26.999Z</time></trkpt><trkpt lat="42.37892911124572" lon="19.63379716346323"><ele>880.0</ele><time>2026-05-01T13:40:27.999Z</time></trkpt><trkpt lat="42.37899993031291" lon="19.63381909664017"><ele>879.9999999999999</ele><time>2026-05-01T13:40:30Z</time></trkpt><trkpt lat="42.378973852050414" lon="19.633714215381982"><ele>880.0</ele><time>2026-05-01T13:40:32.999Z</time></trkpt><trkpt lat="42.37886713611223" lon="19.633638426525323"><ele>877.5</ele><time>2026-05-01T13:40:34.999Z</time></trkpt><trkpt lat="42.378784151262124" lon="19.633564636187984"><ele>875.0</ele><time>2026-05-01T13:40:35.999Z</time></trkpt><trkpt lat="42.37868535558147" lon="19.633485343615945"><ele>872.5</ele><time>2026-05-01T13:40:36.999Z</time></trkpt><trkpt lat="42.37855987302995" lon="19.633379071493145"><ele>870.0</ele><time>2026-05-01T13:40:37.999Z</time></trkpt><trkpt lat="42.378418776553765" lon="19.633312525992114"><ele>870.0</ele><time>2026-05-01T13:40:38.999Z</time></trkpt><trkpt lat="42.37831233373253" lon="19.63324380917908"><ele>870.0</ele><time>2026-05-01T13:40:39.999Z</time></trkpt><trkpt lat="42.378217417658" lon="19.633181968552655"><ele>870.0</ele><time>2026-05-01T13:40:40.999Z</time></trkpt><trkpt lat="42.378139628525524" lon="19.633131221938932"><ele>870.0</ele><time>2026-05-01T13:40:41.999Z</time></trkpt><trkpt lat="42.378081355030425" lon="19.633093206350697"><ele>870.0</ele><time>2026-05-01T13:40:42.999Z</time></trkpt><trkpt lat="42.37801447958645" lon="19.63301082915489"><ele>870.0000000000001</ele><time>2026-05-01T13:40:44.999Z</time></trkpt><trkpt lat="42.37795809531219" lon="19.632957817969114"><ele>870.0</ele><time>2026-05-01T13:40:46.999Z</time></trkpt><trkpt lat="42.377899268285965" lon="19.633022661209385"><ele>870.0</ele><time>2026-05-01T13:47:07.999Z</time></trkpt><trkpt lat="42.377956321171155" lon="19.632980974128866"><ele>870.0</ele><time>2026-05-01T13:47:12.999Z</time></trkpt><trkpt lat="42.377990312888954" lon="19.633063983944723"><ele>870.0</ele><time>2026-05-01T13:47:14.999Z</time></trkpt><trkpt lat="42.37805369501681" lon="19.6331643656408"><ele>870.0000000000001</ele><time>2026-05-01T13:47:16.999Z</time></trkpt><trkpt lat="42.37811005513234" lon="19.633225264311008"><ele>870.0</ele><time>2026-05-01T13:47:18.999Z</time></trkpt><trkpt lat="42.37821061208517" lon="19.633254207585132"><ele>870.0</ele><time>2026-05-01T13:47:20.999Z</time></trkpt><trkpt lat="42.37830042674824" lon="19.633281785842318"><ele>870.0</ele><time>2026-05-01T13:47:22.999Z</time></trkpt><trkpt lat="42.3783716400739" lon="19.633295654149435"><ele>870.0</ele><time>2026-05-01T13:47:25.999Z</time></trkpt><trkpt lat="42.37838324382561" lon="19.633196295746313"><ele>870.0</ele><time>2026-05-01T13:47:29.999Z</time></trkpt><trkpt lat="42.37830265197777" lon="19.633144452323727"><ele>870.0</ele><time>2026-05-01T13:47:31.999Z</time></trkpt><trkpt lat="42.37820371928458" lon="19.633157004459342"><ele>870.0</ele><time>2026-05-01T13:47:33.999Z</time></trkpt><trkpt lat="42.37811669071971" lon="19.63316935821619"><ele>870.0</ele><time>2026-05-01T13:47:35.999Z</time></trkpt><trkpt lat="42.37801093471983" lon="19.63315323047516"><ele>870.0</ele><time>2026-05-01T13:47:37.999Z</time></trkpt><trkpt lat="42.37793410902379" lon="19.63311133691046"><ele>870.0</ele><time>2026-05-01T13:47:39.999Z</time></trkpt><trkpt lat="42.37787987374496" lon="19.633045407672313"><ele>870.0</ele><time>2026-05-01T13:47:41.999Z</time></trkpt><trkpt lat="42.37781552479301" lon="19.63303835161507"><ele>870.0</ele><time>2026-05-01T13:48:37Z</time></trkpt><trkpt lat="42.37776707470455" lon="19.633103795921922"><ele>870.0</ele><time>2026-05-01T13:49:31Z</time></trkpt><trkpt lat="42.37770210367557" lon="19.6330927944668"><ele>870.0</ele><time>2026-05-01T13:51:06Z</time></trkpt><trkpt lat="42.377718934467076" lon="19.633190507807882"><ele>870.0</ele><time>2026-05-01T13:51:20Z</time></trkpt><trkpt lat="42.37776890193614" lon="19.633264330490036"><ele>870.0</ele><time>2026-05-01T13:51:23Z</time></trkpt><trkpt lat="42.37783011685639" lon="19.63332520367563"><ele>870.0</ele><time>2026-05-01T13:51:25Z</time></trkpt><trkpt lat="42.377943863009016" lon="19.633355433795227"><ele>870.0</ele><time>2026-05-01T13:51:27Z</time></trkpt><trkpt lat="42.37800900715518" lon="19.63337078668589"><ele>870.0</ele><time>2026-05-01T13:51:28Z</time></trkpt><trkpt lat="42.378085762992214" lon="19.633395311045994"><ele>870.0</ele><time>2026-05-01T13:51:30Z</time></trkpt><trkpt lat="42.37815160950391" lon="19.63342270304755"><ele>870.0</ele><time>2026-05-01T13:51:32Z</time></trkpt><trkpt lat="42.37821951333999" lon="19.633450980564685"><ele>870.0</ele><time>2026-05-01T13:51:34Z</time></trkpt><trkpt lat="42.378277391490734" lon="19.633486473522318"><ele>870.0</ele><time>2026-05-01T13:51:36Z</time></trkpt><trkpt lat="42.378372240796914" lon="19.63333250978357"><ele>870.0</ele><time>2026-05-01T13:51:37Z</time></trkpt><trkpt lat="42.37835739060754" lon="19.633731124264035"><ele>871.6666666666666</ele><time>2026-05-01T13:51:46Z</time></trkpt><trkpt lat="42.378254533988006" lon="19.633700533705117"><ele>873.3333333333333</ele><time>2026-05-01T13:51:49Z</time></trkpt><trkpt lat="42.37814090251169" lon="19.633696660334266"><ele>875.0</ele><time>2026-05-01T13:51:51Z</time></trkpt><trkpt lat="42.378076718387184" lon="19.633701964426983"><ele>876.6666666666666</ele><time>2026-05-01T13:51:52Z</time></trkpt><trkpt lat="42.37799480312393" lon="19.633691009242117"><ele>878.3333333333333</ele><time>2026-05-01T13:51:53Z</time></trkpt><trkpt lat="42.377913675950815" lon="19.63370518675433"><ele>880.0</ele><time>2026-05-01T13:51:54Z</time></trkpt><trkpt lat="42.377830466098345" lon="19.633708405956664"><ele>880.3333333333333</ele><time>2026-05-01T13:51:55Z</time></trkpt><trkpt lat="42.37772657093562" lon="19.63371076891232"><ele>880.6666666666666</ele><time>2026-05-01T13:51:56Z</time></trkpt><trkpt lat="42.37763114613359" lon="19.6336578169107"><ele>881.0</ele><time>2026-05-01T13:51:57Z</time></trkpt><trkpt lat="42.37754466117559" lon="19.633651563691892"><ele>881.3333333333333</ele><time>2026-05-01T13:51:58Z</time></trkpt><trkpt lat="42.37747978444345" lon="19.63364786456415"><ele>881.6666666666666</ele><time>2026-05-01T13:51:59Z</time></trkpt><trkpt lat="42.37742120906042" lon="19.63368896238776"><ele>882.0</ele><time>2026-05-01T13:52:00Z</time></trkpt><trkpt lat="42.37733597291083" lon="19.633722950991466"><ele>882.0</ele><time>2026-05-01T13:52:02Z</time></trkpt><trkpt lat="42.377291799970656" lon="19.633788868981878"><ele>882.0</ele><time>2026-05-01T13:52:05Z</time></trkpt><trkpt lat="42.37719563769414" lon="19.63379063549216"><ele>882.0</ele><time>2026-05-01T13:52:08Z</time></trkpt><trkpt lat="42.377100458917404" lon="19.63376806428593"><ele>882.0</ele><time>2026-05-01T13:52:10Z</time></trkpt><trkpt lat="42.3769808986272" lon="19.633789335715125"><ele>882.0</ele><time>2026-05-01T13:52:12Z</time></trkpt><trkpt lat="42.37688448567065" lon="19.633770051710762"><ele>881.8</ele><time>2026-05-01T13:52:14Z</time></trkpt><trkpt lat="42.37678999184213" lon="19.633787193889734"><ele>881.6</ele><time>2026-05-01T13:52:16Z</time></trkpt><trkpt lat="42.37669037329266" lon="19.633786562964907"><ele>881.3999999999999</ele><time>2026-05-01T13:52:18Z</time></trkpt><trkpt lat="42.37657662712511" lon="19.63378072952681"><ele>881.1999999999999</ele><time>2026-05-01T13:52:20Z</time></trkpt><trkpt lat="42.37648382327637" lon="19.633775201930916"><ele>881.0</ele><time>2026-05-01T13:52:22Z</time></trkpt><trkpt lat="42.376383554661274" lon="19.63376178202422"><ele>881.1999999999999</ele><time>2026-05-01T13:52:24Z</time></trkpt><trkpt lat="42.37629311706949" lon="19.63375368446009"><ele>881.3999999999999</ele><time>2026-05-01T13:52:26Z</time></trkpt><trkpt lat="42.37619517553609" lon="19.63374590866233"><ele>881.6</ele><time>2026-05-01T13:52:28Z</time></trkpt><trkpt lat="42.37608594706897" lon="19.633744824704657"><ele>881.8</ele><time>2026-05-01T13:52:30Z</time></trkpt><trkpt lat="42.375969797168" lon="19.633737923984924"><ele>882.0</ele><time>2026-05-01T13:52:32Z</time></trkpt><trkpt lat="42.37590528987204" lon="19.63372866562499"><ele>882.0</ele><time>2026-05-01T13:52:33Z</time></trkpt><trkpt lat="42.375833800005" lon="19.63371759900212"><ele>882.0</ele><time>2026-05-01T13:52:34Z</time></trkpt><trkpt lat="42.37575499418021" lon="19.633705384052874"><ele>882.0</ele><time>2026-05-01T13:52:35Z</time></trkpt><trkpt lat="42.37567339609834" lon="19.633690876178886"><ele>882.0</ele><time>2026-05-01T13:52:36Z</time></trkpt><trkpt lat="42.375590698882526" lon="19.63367711778948"><ele>882.0</ele><time>2026-05-01T13:52:37Z</time></trkpt><trkpt lat="42.37550361887618" lon="19.63366041230899"><ele>882.0</ele><time>2026-05-01T13:52:38Z</time></trkpt><trkpt lat="42.375417594986295" lon="19.633640860973564"><ele>879.6666666666666</ele><time>2026-05-01T13:52:39Z</time></trkpt><trkpt lat="42.375333597288595" lon="19.633619073743738"><ele>877.3333333333333</ele><time>2026-05-01T13:52:40Z</time></trkpt><trkpt lat="42.375252068898085" lon="19.63359195315859"><ele>875.0</ele><time>2026-05-01T13:52:40.999Z</time></trkpt><trkpt lat="42.375170471968616" lon="19.633566951644873"><ele>872.6666666666666</ele><time>2026-05-01T13:52:41.999Z</time></trkpt><trkpt lat="42.375093309755165" lon="19.63354483020243"><ele>870.3333333333333</ele><time>2026-05-01T13:52:42.999Z</time></trkpt><trkpt lat="42.37502035067861" lon="19.633526207751856"><ele>868.0</ele><time>2026-05-01T13:52:43.999Z</time></trkpt><trkpt lat="42.37495271788258" lon="19.633483623276618"><ele>867.9999999999999</ele><time>2026-05-01T13:52:45Z</time></trkpt><trkpt lat="42.374885431151284" lon="19.633467196998847"><ele>868.0</ele><time>2026-05-01T13:52:46Z</time></trkpt><trkpt lat="42.37482177883842" lon="19.633452460630203"><ele>868.0</ele><time>2026-05-01T13:52:47Z</time></trkpt><trkpt lat="42.37475360321441" lon="19.63344319021899"><ele>868.0</ele><time>2026-05-01T13:52:48Z</time></trkpt><trkpt lat="42.37468971019107" lon="19.63346083036925"><ele>867.9999999999999</ele><time>2026-05-01T13:52:49Z</time></trkpt><trkpt lat="42.37456261920173" lon="19.633468098059527"><ele>868.0</ele><time>2026-05-01T13:52:51Z</time></trkpt><trkpt lat="42.374449558332515" lon="19.633482774055114"><ele>867.8333333333333</ele><time>2026-05-01T13:52:53Z</time></trkpt><trkpt lat="42.374358583546915" lon="19.633494768003846"><ele>867.6666666666666</ele><time>2026-05-01T13:52:55Z</time></trkpt><trkpt lat="42.374276233764505" lon="19.63350545869335"><ele>867.5</ele><time>2026-05-01T13:52:57Z</time></trkpt><trkpt lat="42.374194156984686" lon="19.633516757209343"><ele>867.3333333333333</ele><time>2026-05-01T13:52:59Z</time></trkpt><trkpt lat="42.374109264531704" lon="19.633526392915805"><ele>867.1666666666666</ele><time>2026-05-01T13:53:01Z</time></trkpt><trkpt lat="42.374035293826644" lon="19.633532662874565"><ele>867.0</ele><time>2026-05-01T13:53:03Z</time></trkpt><trkpt lat="42.373971426407024" lon="19.633539351906084"><ele>867.0</ele><time>2026-05-01T13:53:05Z</time></trkpt><trkpt lat="42.37386977301369" lon="19.633552540959027"><ele>867.0</ele><time>2026-05-01T13:53:08Z</time></trkpt><trkpt lat="42.3737974303845" lon="19.63356568580974"><ele>867.0</ele><time>2026-05-01T13:53:10Z</time></trkpt><trkpt lat="42.37372091811786" lon="19.633566637921025"><ele>867.0</ele><time>2026-05-01T13:53:13Z</time></trkpt><trkpt lat="42.37365158571647" lon="19.63357613573795"><ele>867.0</ele><time>2026-05-01T13:53:31Z</time></trkpt><trkpt lat="42.373545111761075" lon="19.633597840557286"><ele>867.0</ele><time>2026-05-01T13:53:33Z</time></trkpt><trkpt lat="42.37348121664483" lon="19.633603606785595"><ele>866.8</ele><time>2026-05-01T13:53:34Z</time></trkpt><trkpt lat="42.37335948564935" lon="19.6336136016767"><ele>866.6</ele><time>2026-05-01T13:53:36Z</time></trkpt><trkpt lat="42.37324556803099" lon="19.633621436291023"><ele>866.3999999999999</ele><time>2026-05-01T13:53:38Z</time></trkpt><trkpt lat="42.373158964625986" lon="19.633630567631368"><ele>866.1999999999999</ele><time>2026-05-01T13:53:40Z</time></trkpt><trkpt lat="42.373077863371655" lon="19.6336340750816"><ele>866.0</ele><time>2026-05-01T13:53:42Z</time></trkpt><trkpt lat="42.37299670222214" lon="19.633638902842637"><ele>868.1666666666667</ele><time>2026-05-01T13:53:44Z</time></trkpt><trkpt lat="42.372916986365674" lon="19.633639801698653"><ele>870.3333333333334</ele><time>2026-05-01T13:53:46Z</time></trkpt><trkpt lat="42.3728349921255" lon="19.633645922893958"><ele>872.5</ele><time>2026-05-01T13:53:48Z</time></trkpt><trkpt lat="42.37275060715184" lon="19.633653277769938"><ele>874.6666666666667</ele><time>2026-05-01T13:53:50Z</time></trkpt><trkpt lat="42.372664943659935" lon="19.63366157496252"><ele>876.8333333333334</ele><time>2026-05-01T13:53:52Z</time></trkpt><trkpt lat="42.37258360840549" lon="19.633673496757787"><ele>879.0</ele><time>2026-05-01T13:53:54Z</time></trkpt><trkpt lat="42.3724997041483" lon="19.633685453353856"><ele>879.0</ele><time>2026-05-01T13:53:56Z</time></trkpt><trkpt lat="42.3724149672318" lon="19.633698390881218"><ele>879.0</ele><time>2026-05-01T13:53:58Z</time></trkpt><trkpt lat="42.37233544705568" lon="19.63370154234529"><ele>879.0</ele><time>2026-05-01T13:54:00Z</time></trkpt><trkpt lat="42.37225197070194" lon="19.63370808344159"><ele>879.0</ele><time>2026-05-01T13:54:02Z</time></trkpt><trkpt lat="42.37216947021287" lon="19.63371421143124"><ele>879.0</ele><time>2026-05-01T13:54:04Z</time></trkpt><trkpt lat="42.372085755208424" lon="19.633716773630354"><ele>879.0</ele><time>2026-05-01T13:54:06Z</time></trkpt><trkpt lat="42.37200140222028" lon="19.63372190664827"><ele>879.0</ele><time>2026-05-01T13:54:08Z</time></trkpt><trkpt lat="42.37192072585462" lon="19.6337317177226"><ele>879.0</ele><time>2026-05-01T13:54:10Z</time></trkpt><trkpt lat="42.3718374219373" lon="19.633744671414398"><ele>879.0</ele><time>2026-05-01T13:54:12Z</time></trkpt><trkpt lat="42.37175822331362" lon="19.633745113896016"><ele>879.0</ele><time>2026-05-01T13:54:14Z</time></trkpt><trkpt lat="42.37168790193366" lon="19.63374812625799"><ele>879.0</ele><time>2026-05-01T13:54:15.999Z</time></trkpt><trkpt lat="42.371624931531" lon="19.633753018148692"><ele>879.0</ele><time>2026-05-01T13:54:17.999Z</time></trkpt><trkpt lat="42.37156070184253" lon="19.633744629234958"><ele>879.0</ele><time>2026-05-01T14:01:02Z</time></trkpt><trkpt lat="42.37149372369531" lon="19.63375267126002"><ele>879.0</ele><time>2026-05-01T14:01:10Z</time></trkpt><trkpt lat="42.37142065631829" lon="19.63375626617639"><ele>879.0</ele><time>2026-05-01T14:01:16Z</time></trkpt><trkpt lat="42.37134785158606" lon="19.633770875145792"><ele>879.0</ele><time>2026-05-01T14:01:21Z</time></trkpt><trkpt lat="42.371273204009675" lon="19.633769415211702"><ele>879.0</ele><time>2026-05-01T14:01:27Z</time></trkpt><trkpt lat="42.37120809347919" lon="19.6337768605467"><ele>879.0</ele><time>2026-05-01T14:01:32Z</time></trkpt><trkpt lat="42.371144973140936" lon="19.63375197079499"><ele>879.0</ele><time>2026-05-01T14:01:36Z</time></trkpt><trkpt lat="42.37107353064705" lon="19.633708897323878"><ele>879.0</ele><time>2026-05-01T14:01:41Z</time></trkpt><trkpt lat="42.371022841891914" lon="19.63365471676576"><ele>880.0</ele><time>2026-05-01T14:01:45Z</time></trkpt><trkpt lat="42.37097390457079" lon="19.633587862646255"><ele>881.0</ele><time>2026-05-01T14:01:50Z</time></trkpt><trkpt lat="42.371040123222556" lon="19.633593753341096"><ele>882.0</ele><time>2026-05-01T14:01:57Z</time></trkpt><trkpt lat="42.37110406684728" lon="19.633569634706003"><ele>883.0</ele><time>2026-05-01T14:02:05Z</time></trkpt><trkpt lat="42.371056400992366" lon="19.63366969030762"><ele>884.0</ele><time>2026-05-01T14:02:52Z</time></trkpt><trkpt lat="42.37111041310618" lon="19.63372981436925"><ele>885.0</ele><time>2026-05-01T14:02:59Z</time></trkpt><trkpt lat="42.37117471556062" lon="19.633741575873483"><ele>886.0</ele><time>2026-05-01T14:03:04Z</time></trkpt><trkpt lat="42.3712491603194" lon="19.633755366789696"><ele>886.0</ele><time>2026-05-01T14:03:09Z</time></trkpt><trkpt lat="42.37132243381366" lon="19.633759831031114"><ele>886.0</ele><time>2026-05-01T14:03:14Z</time></trkpt><trkpt lat="42.371387953063206" lon="19.633755953979737"><ele>886.0</ele><time>2026-05-01T14:03:20.001Z</time></trkpt><trkpt lat="42.37145919624301" lon="19.63371903552233"><ele>886.0</ele><time>2026-05-01T14:03:37.001Z</time></trkpt><trkpt lat="42.371526473409475" lon="19.633713688963606"><ele>886.0</ele><time>2026-05-01T14:03:44Z</time></trkpt><trkpt lat="42.37159597123235" lon="19.633740616160377"><ele>886.0</ele><time>2026-05-01T14:04:18Z</time></trkpt><trkpt lat="42.37154868897704" lon="19.633809467690053"><ele>886.0</ele><time>2026-05-01T14:04:29Z</time></trkpt><trkpt lat="42.371566529584285" lon="19.633912125836254"><ele>885.0</ele><time>2026-05-01T14:04:54Z</time></trkpt><trkpt lat="42.37156704073787" lon="19.63400414856356"><ele>884.0</ele><time>2026-05-01T14:05:08Z</time></trkpt><trkpt lat="42.37153746135619" lon="19.63408546405257"><ele>883.0</ele><time>2026-05-01T14:05:15Z</time></trkpt><trkpt lat="42.37146792849138" lon="19.63412186877504"><ele>882.0</ele><time>2026-05-01T14:05:26.001Z</time></trkpt><trkpt lat="42.371535693187624" lon="19.634099487231662"><ele>881.0</ele><time>2026-05-01T14:06:31Z</time></trkpt><trkpt lat="42.371565462465426" lon="19.634018475560417"><ele>880.0</ele><time>2026-05-01T14:06:37Z</time></trkpt><trkpt lat="42.371577962252886" lon="19.633922951184168"><ele>879.0</ele><time>2026-05-01T14:06:45Z</time></trkpt><trkpt lat="42.37159269699629" lon="19.63383591001023"><ele>879.0</ele><time>2026-05-01T14:07:20Z</time></trkpt><trkpt lat="42.37159296869869" lon="19.633750453668203"><ele>879.0</ele><time>2026-05-01T14:10:27Z</time></trkpt><trkpt lat="42.371517177812784" lon="19.633758285658402"><ele>879.0</ele><time>2026-05-01T14:12:24Z</time></trkpt><trkpt lat="42.37142171803983" lon="19.63376206649409"><ele>879.0</ele><time>2026-05-01T14:12:26Z</time></trkpt><trkpt lat="42.37135244059091" lon="19.633762243396728"><ele>879.0</ele><time>2026-05-01T14:12:35Z</time></trkpt><trkpt lat="42.37127148372373" lon="19.633757857395864"><ele>879.0</ele><time>2026-05-01T14:12:37Z</time></trkpt><trkpt lat="42.37120793704371" lon="19.633748618068694"><ele>879.0</ele><time>2026-05-01T14:12:43Z</time></trkpt><trkpt lat="42.37117269190004" lon="19.633820734988767"><ele>879.0</ele><time>2026-05-01T14:12:52Z</time></trkpt><trkpt lat="42.37124700920388" lon="19.633795638605104"><ele>879.0000000000001</ele><time>2026-05-01T14:13:03Z</time></trkpt><trkpt lat="42.37141945082862" lon="19.633801558918485"><ele>879.0000000000001</ele><time>2026-05-01T14:13:05Z</time></trkpt><trkpt lat="42.37148912103748" lon="19.633795414779115"><ele>879.0</ele><time>2026-05-01T14:13:06Z</time></trkpt><trkpt lat="42.37155942654163" lon="19.63381432201951"><ele>879.0</ele><time>2026-05-01T14:13:07Z</time></trkpt><trkpt lat="42.37163871322261" lon="19.63381116131434"><ele>879.0</ele><time>2026-05-01T14:13:08Z</time></trkpt><trkpt lat="42.37172296586561" lon="19.633807802643418"><ele>879.0</ele><time>2026-05-01T14:13:09Z</time></trkpt><trkpt lat="42.37181116680818" lon="19.633801610352613"><ele>879.0</ele><time>2026-05-01T14:13:10Z</time></trkpt><trkpt lat="42.37189906811206" lon="19.633793437532304"><ele>879.0</ele><time>2026-05-01T14:13:11Z</time></trkpt><trkpt lat="42.371984181360574" lon="19.63378552393764"><ele>879.0</ele><time>2026-05-01T14:13:12Z</time></trkpt><trkpt lat="42.37206559220808" lon="19.633777236231847"><ele>879.0</ele><time>2026-05-01T14:13:13Z</time></trkpt><trkpt lat="42.372143342549634" lon="19.633769493482813"><ele>879.0</ele><time>2026-05-01T14:13:14Z</time></trkpt><trkpt lat="42.372220342128976" lon="19.63376192635001"><ele>879.0</ele><time>2026-05-01T14:13:15Z</time></trkpt><trkpt lat="42.372294603068774" lon="19.633734642801116"><ele>879.0</ele><time>2026-05-01T14:13:16Z</time></trkpt><trkpt lat="42.372368977829154" lon="19.633725911878365"><ele>879.0</ele><time>2026-05-01T14:13:17Z</time></trkpt><trkpt lat="42.372442596874144" lon="19.633740988361517"><ele>879.0</ele><time>2026-05-01T14:13:18Z</time></trkpt><trkpt lat="42.3725146966456" lon="19.633733953171117"><ele>879.0</ele><time>2026-05-01T14:13:19Z</time></trkpt><trkpt lat="42.372585848574964" lon="19.63372701046941"><ele>879.0</ele><time>2026-05-01T14:13:20Z</time></trkpt><trkpt lat="42.37265510033151" lon="19.633720253176104"><ele>879.0</ele><time>2026-05-01T14:13:21Z</time></trkpt><trkpt lat="42.37272248302831" lon="19.633712978651385"><ele>879.0</ele><time>2026-05-01T14:13:22Z</time></trkpt><trkpt lat="42.372790745490256" lon="19.63370663643512"><ele>879.0</ele><time>2026-05-01T14:13:23Z</time></trkpt><trkpt lat="42.37285971218254" lon="19.633700392758488"><ele>879.0</ele><time>2026-05-01T14:13:24Z</time></trkpt><trkpt lat="42.37292861771841" lon="19.633694154620052"><ele>879.0</ele><time>2026-05-01T14:13:25Z</time></trkpt><trkpt lat="42.37299664399096" lon="19.63368799607767"><ele>879.0</ele><time>2026-05-01T14:13:26Z</time></trkpt><trkpt lat="42.373063566308964" lon="19.633681937483367"><ele>879.0</ele><time>2026-05-01T14:13:27Z</time></trkpt><trkpt lat="42.37316782337956" lon="19.63367206082209"><ele>878.8000000000001</ele><time>2026-05-01T14:13:28.999Z</time></trkpt><trkpt lat="42.37326407513541" lon="19.633663167312356"><ele>878.6000000000001</ele><time>2026-05-01T14:13:30.999Z</time></trkpt><trkpt lat="42.37335714022429" lon="19.63365456824888"><ele>878.4</ele><time>2026-05-01T14:13:32.999Z</time></trkpt><trkpt lat="42.373445456911554" lon="19.633646407927838"><ele>878.2</ele><time>2026-05-01T14:13:34.999Z</time></trkpt><trkpt lat="42.373536698925335" lon="19.633638323358955"><ele>878.0</ele><time>2026-05-01T14:13:36.999Z</time></trkpt><trkpt lat="42.37362540328898" lon="19.63363010771668"><ele>876.1666666666667</ele><time>2026-05-01T14:13:38.999Z</time></trkpt><trkpt lat="42.37369627316653" lon="19.633600719311318"><ele>874.3333333333334</ele><time>2026-05-01T14:13:40.999Z</time></trkpt><trkpt lat="42.373764265815474" lon="19.633599514690626"><ele>872.5</ele><time>2026-05-01T14:13:45Z</time></trkpt><trkpt lat="42.37387827418319" lon="19.633595325744114"><ele>870.6666666666667</ele><time>2026-05-01T14:14:46Z</time></trkpt><trkpt lat="42.37397031393673" lon="19.633562507621793"><ele>868.8333333333334</ele><time>2026-05-01T14:14:48Z</time></trkpt><trkpt lat="42.374062501801326" lon="19.633553902905664"><ele>867.0</ele><time>2026-05-01T14:14:50Z</time></trkpt><trkpt lat="42.374165214372525" lon="19.633532898280983"><ele>867.0</ele><time>2026-05-01T14:14:52Z</time></trkpt><trkpt lat="42.37425296304298" lon="19.633542132135776"><ele>867.0</ele><time>2026-05-01T14:14:54Z</time></trkpt><trkpt lat="42.374338007724866" lon="19.633507917447112"><ele>867.0</ele><time>2026-05-01T14:14:56Z</time></trkpt><trkpt lat="42.37442941795513" lon="19.633496133366293"><ele>867.0</ele><time>2026-05-01T14:14:58Z</time></trkpt><trkpt lat="42.37451291371281" lon="19.633482821999436"><ele>867.0</ele><time>2026-05-01T14:15:00Z</time></trkpt><trkpt lat="42.37459379840597" lon="19.633471004400974"><ele>867.0</ele><time>2026-05-01T14:15:02Z</time></trkpt><trkpt lat="42.37469400210655" lon="19.633484938041644"><ele>867.2</ele><time>2026-05-01T14:15:04Z</time></trkpt><trkpt lat="42.3748022287627" lon="19.63347453227222"><ele>867.4000000000001</ele><time>2026-05-01T14:15:06Z</time></trkpt><trkpt lat="42.37490807082183" lon="19.633498890393607"><ele>867.5999999999999</ele><time>2026-05-01T14:15:08Z</time></trkpt><trkpt lat="42.375017954851565" lon="19.633537780493374"><ele>867.8</ele><time>2026-05-01T14:15:10Z</time></trkpt><trkpt lat="42.37513426329512" lon="19.63357311449529"><ele>868.0</ele><time>2026-05-01T14:15:12Z</time></trkpt><trkpt lat="42.37525378203207" lon="19.633601122286926"><ele>868.0</ele><time>2026-05-01T14:15:14Z</time></trkpt><trkpt lat="42.37535423242769" lon="19.633634236237008"><ele>868.0</ele><time>2026-05-01T14:15:16Z</time></trkpt><trkpt lat="42.375424499610716" lon="19.63366860259608"><ele>868.0</ele><time>2026-05-01T14:15:19Z</time></trkpt><trkpt lat="42.3754953365493" lon="19.633670722399554"><ele>868.0</ele><time>2026-05-01T14:16:48Z</time></trkpt><trkpt lat="42.3755897054338" lon="19.63371762309015"><ele>868.0</ele><time>2026-05-01T14:16:50Z</time></trkpt><trkpt lat="42.375700510505965" lon="19.633736018971284"><ele>870.8</ele><time>2026-05-01T14:16:52Z</time></trkpt><trkpt lat="42.375816903604964" lon="19.633752644202612"><ele>873.5999999999999</ele><time>2026-05-01T14:16:54Z</time></trkpt><trkpt lat="42.37593204509062" lon="19.633741786509933"><ele>876.4000000000001</ele><time>2026-05-01T14:16:56Z</time></trkpt><trkpt lat="42.37606012373072" lon="19.633752071717076"><ele>879.2</ele><time>2026-05-01T14:16:58Z</time></trkpt><trkpt lat="42.376126729513906" lon="19.63375528622146"><ele>882.0</ele><time>2026-05-01T14:16:59Z</time></trkpt><trkpt lat="42.37619314610338" lon="19.633760274934026"><ele>882.0</ele><time>2026-05-01T14:17:00Z</time></trkpt><trkpt lat="42.376316027849484" lon="19.6337703628052"><ele>882.0</ele><time>2026-05-01T14:17:02Z</time></trkpt><trkpt lat="42.376436850036995" lon="19.633775306375878"><ele>882.0</ele><time>2026-05-01T14:17:04Z</time></trkpt><trkpt lat="42.376558442536776" lon="19.63378842922169"><ele>882.0</ele><time>2026-05-01T14:17:06Z</time></trkpt><trkpt lat="42.376621441461516" lon="19.633791408560665"><ele>882.0</ele><time>2026-05-01T14:17:07Z</time></trkpt><trkpt lat="42.37668971497653" lon="19.63381537018727"><ele>882.0</ele><time>2026-05-01T14:17:08Z</time></trkpt><trkpt lat="42.37676280303374" lon="19.633796392565642"><ele>882.0</ele><time>2026-05-01T14:17:09Z</time></trkpt><trkpt lat="42.37683382561673" lon="19.633798348625543"><ele>882.0</ele><time>2026-05-01T14:17:10Z</time></trkpt><trkpt lat="42.37690351893882" lon="19.63379966836657"><ele>882.0</ele><time>2026-05-01T14:17:11Z</time></trkpt><trkpt lat="42.37696962714337" lon="19.633800015387234"><ele>882.0</ele><time>2026-05-01T14:17:12Z</time></trkpt><trkpt lat="42.37707936111796" lon="19.633793937813287"><ele>882.0</ele><time>2026-05-01T14:17:14Z</time></trkpt><trkpt lat="42.377186891174055" lon="19.63380453591784"><ele>882.0</ele><time>2026-05-01T14:17:16Z</time></trkpt><trkpt lat="42.377276285331014" lon="19.633808781547863"><ele>882.0</ele><time>2026-05-01T14:17:18Z</time></trkpt><trkpt lat="42.37734140589501" lon="19.633829828026595"><ele>882.0</ele><time>2026-05-01T14:17:21Z</time></trkpt><trkpt lat="42.377257060693104" lon="19.633818820709433"><ele>882.0</ele><time>2026-05-01T14:18:27Z</time></trkpt><trkpt lat="42.377189346527445" lon="19.633813834522066"><ele>882.0</ele><time>2026-05-01T14:18:29Z</time></trkpt><trkpt lat="42.37703892876063" lon="19.633812394563677"><ele>881.8</ele><time>2026-05-01T14:18:31Z</time></trkpt><trkpt lat="42.37691141787313" lon="19.633767446866987"><ele>881.6</ele><time>2026-05-01T14:18:32Z</time></trkpt><trkpt lat="42.37681738211835" lon="19.633762587553946"><ele>881.3999999999999</ele><time>2026-05-01T14:18:33Z</time></trkpt><trkpt lat="42.37672036093297" lon="19.63375940568049"><ele>881.1999999999999</ele><time>2026-05-01T14:18:34Z</time></trkpt><trkpt lat="42.376625068932746" lon="19.633759424458205"><ele>881.0</ele><time>2026-05-01T14:18:35Z</time></trkpt><trkpt lat="42.37653181700816" lon="19.633754634251027"><ele>881.0</ele><time>2026-05-01T14:18:36Z</time></trkpt><trkpt lat="42.37644757646848" lon="19.63374975019592"><ele>881.0</ele><time>2026-05-01T14:18:37Z</time></trkpt><trkpt lat="42.37637549424609" lon="19.63374467976174"><ele>881.0</ele><time>2026-05-01T14:18:38Z</time></trkpt><trkpt lat="42.37630704872041" lon="19.633738486909344"><ele>881.0</ele><time>2026-05-01T14:18:39Z</time></trkpt><trkpt lat="42.37624187640036" lon="19.633739191594582"><ele>881.0</ele><time>2026-05-01T14:18:40Z</time></trkpt><trkpt lat="42.37617819743988" lon="19.633734328424495"><ele>881.0</ele><time>2026-05-01T14:18:41Z</time></trkpt><trkpt lat="42.37610766122502" lon="19.633730494461144"><ele>881.0</ele><time>2026-05-01T14:18:42Z</time></trkpt><trkpt lat="42.37602506825066" lon="19.63372536508238"><ele>881.1999999999999</ele><time>2026-05-01T14:18:43Z</time></trkpt><trkpt lat="42.37593584353913" lon="19.63371815475587"><ele>881.3999999999999</ele><time>2026-05-01T14:18:44Z</time></trkpt><trkpt lat="42.37584531166113" lon="19.63370648935474"><ele>881.6</ele><time>2026-05-01T14:18:45Z</time></trkpt><trkpt lat="42.37575038590918" lon="19.63369307689409"><ele>881.8</ele><time>2026-05-01T14:18:46Z</time></trkpt><trkpt lat="42.375656305310876" lon="19.633676628470944"><ele>882.0</ele><time>2026-05-01T14:18:47Z</time></trkpt><trkpt lat="42.37556526768084" lon="19.633657927917035"><ele>879.6666666666666</ele><time>2026-05-01T14:18:48Z</time></trkpt><trkpt lat="42.37547576511471" lon="19.633636860110222"><ele>877.3333333333333</ele><time>2026-05-01T14:18:49Z</time></trkpt><trkpt lat="42.37538924781374" lon="19.633615676991695"><ele>875.0</ele><time>2026-05-01T14:18:50Z</time></trkpt><trkpt lat="42.37530476006538" lon="19.633592629407566"><ele>872.6666666666666</ele><time>2026-05-01T14:18:51Z</time></trkpt><trkpt lat="42.375221860028454" lon="19.63356951960366"><ele>870.3333333333333</ele><time>2026-05-01T14:18:52Z</time></trkpt><trkpt lat="42.37514045848142" lon="19.63354830937852"><ele>868.0</ele><time>2026-05-01T14:18:53Z</time></trkpt><trkpt lat="42.37506105043399" lon="19.63352706135153"><ele>867.9999999999999</ele><time>2026-05-01T14:18:54Z</time></trkpt><trkpt lat="42.374988409518146" lon="19.633508063757407"><ele>868.0</ele><time>2026-05-01T14:18:55Z</time></trkpt><trkpt lat="42.374880303732255" lon="19.633473365465914"><ele>868.0</ele><time>2026-05-01T14:18:57Z</time></trkpt><trkpt lat="42.37479772263695" lon="19.633453049243133"><ele>868.0</ele><time>2026-05-01T14:18:59Z</time></trkpt><trkpt lat="42.37472569485308" lon="19.63343855363344"><ele>867.9999999999999</ele><time>2026-05-01T14:19:01Z</time></trkpt><trkpt lat="42.374662498005684" lon="19.633422792434292"><ele>868.0</ele><time>2026-05-01T14:19:26Z</time></trkpt><trkpt lat="42.37459515306595" lon="19.633441579736424"><ele>867.8333333333333</ele><time>2026-05-01T14:24:14Z</time></trkpt><trkpt lat="42.37449827579079" lon="19.63346522560288"><ele>867.6666666666666</ele><time>2026-05-01T14:24:16.001Z</time></trkpt><trkpt lat="42.37443141962278" lon="19.63347642256335"><ele>867.5</ele><time>2026-05-01T14:24:17.001Z</time></trkpt><trkpt lat="42.374363453847955" lon="19.63348718345128"><ele>867.3333333333333</ele><time>2026-05-01T14:24:18.001Z</time></trkpt><trkpt lat="42.37429846619418" lon="19.633495712896078"><ele>867.1666666666666</ele><time>2026-05-01T14:24:19.001Z</time></trkpt><trkpt lat="42.37418394464648" lon="19.633511673432157"><ele>867.0</ele><time>2026-05-01T14:24:21.001Z</time></trkpt><trkpt lat="42.3740570823283" lon="19.63352877262855"><ele>867.0</ele><time>2026-05-01T14:24:23.001Z</time></trkpt><trkpt lat="42.37399105536141" lon="19.633533315736827"><ele>867.0</ele><time>2026-05-01T14:24:24.001Z</time></trkpt><trkpt lat="42.37392417311114" lon="19.63353912554904"><ele>867.0</ele><time>2026-05-01T14:24:25.001Z</time></trkpt><trkpt lat="42.37382249621906" lon="19.63355396171552"><ele>867.0</ele><time>2026-05-01T14:24:27.001Z</time></trkpt><trkpt lat="42.373751511345915" lon="19.633565438579485"><ele>867.0</ele><time>2026-05-01T14:24:29.001Z</time></trkpt><trkpt lat="42.37368370178834" lon="19.63355638775551"><ele>867.0</ele><time>2026-05-01T15:09:51Z</time></trkpt><trkpt lat="42.37362202066434" lon="19.633580103772353"><ele>867.0</ele><time>2026-05-01T15:09:53Z</time></trkpt><trkpt lat="42.373550444576175" lon="19.633599087675222"><ele>866.8</ele><time>2026-05-01T15:09:54Z</time></trkpt><trkpt lat="42.37346346654567" lon="19.63360689785253"><ele>866.6</ele><time>2026-05-01T15:09:55Z</time></trkpt><trkpt lat="42.37334755970482" lon="19.633609502653158"><ele>866.3999999999999</ele><time>2026-05-01T15:09:56Z</time></trkpt><trkpt lat="42.37322544312289" lon="19.633618205371516"><ele>866.1999999999999</ele><time>2026-05-01T15:09:57Z</time></trkpt><trkpt lat="42.373107520841025" lon="19.63362448677637"><ele>866.0</ele><time>2026-05-01T15:09:58Z</time></trkpt><trkpt lat="42.373007552788344" lon="19.63363232833167"><ele>868.5999999999999</ele><time>2026-05-01T15:09:59Z</time></trkpt><trkpt lat="42.37292518728528" lon="19.633640771639058"><ele>871.1999999999999</ele><time>2026-05-01T15:10:00Z</time></trkpt><trkpt lat="42.372843666627276" lon="19.633654596033544"><ele>873.8000000000001</ele><time>2026-05-01T15:10:01Z</time></trkpt><trkpt lat="42.3727531816467" lon="19.633669632890147"><ele>876.4000000000001</ele><time>2026-05-01T15:10:02Z</time></trkpt><trkpt lat="42.372653333490746" lon="19.633684345530366"><ele>879.0</ele><time>2026-05-01T15:10:03Z</time></trkpt><trkpt lat="42.372549032248266" lon="19.633695840674363"><ele>879.0</ele><time>2026-05-01T15:10:04Z</time></trkpt><trkpt lat="42.37243581856211" lon="19.6337152388953"><ele>879.0</ele><time>2026-05-01T15:10:05Z</time></trkpt><trkpt lat="42.37231347976907" lon="19.633726988585668"><ele>879.0</ele><time>2026-05-01T15:10:06Z</time></trkpt><trkpt lat="42.37218263513706" lon="19.633728117708564"><ele>879.0</ele><time>2026-05-01T15:10:07Z</time></trkpt><trkpt lat="42.37204203517274" lon="19.633727929129353"><ele>879.0</ele><time>2026-05-01T15:10:08Z</time></trkpt><trkpt lat="42.37189764337903" lon="19.63373697192889"><ele>879.0</ele><time>2026-05-01T15:10:09Z</time></trkpt><trkpt lat="42.37174825266178" lon="19.633753814471117"><ele>879.0</ele><time>2026-05-01T15:10:10Z</time></trkpt><trkpt lat="42.371598771011136" lon="19.633772730251323"><ele>879.0</ele><time>2026-05-01T15:10:11Z</time></trkpt><trkpt lat="42.37146853136114" lon="19.633781405612787"><ele>879.0</ele><time>2026-05-01T15:10:12Z</time></trkpt><trkpt lat="42.37136419660204" lon="19.633780157125127"><ele>879.0000000000001</ele><time>2026-05-01T15:10:13Z</time></trkpt><trkpt lat="42.37126728167726" lon="19.63377089327282"><ele>879.0000000000001</ele><time>2026-05-01T15:10:14Z</time></trkpt><trkpt lat="42.37117375293086" lon="19.633760220527822"><ele>879.0</ele><time>2026-05-01T15:10:15Z</time></trkpt><trkpt lat="42.37109290581886" lon="19.6337277805616"><ele>879.0</ele><time>2026-05-01T15:10:16Z</time></trkpt><trkpt lat="42.371017545442065" lon="19.633673762019203"><ele>876.8000000000001</ele><time>2026-05-01T15:10:17Z</time></trkpt><trkpt lat="42.370937287244296" lon="19.63361383676905"><ele>874.6000000000001</ele><time>2026-05-01T15:10:18Z</time></trkpt><trkpt lat="42.370843369434105" lon="19.633571106767256"><ele>872.4</ele><time>2026-05-01T15:10:19Z</time></trkpt><trkpt lat="42.370736319642745" lon="19.633534107591178"><ele>870.2</ele><time>2026-05-01T15:10:20Z</time></trkpt><trkpt lat="42.37062070718141" lon="19.633494878153634"><ele>868.0</ele><time>2026-05-01T15:10:21Z</time></trkpt><trkpt lat="42.370495195422755" lon="19.633454919591603"><ele>867.8</ele><time>2026-05-01T15:10:22Z</time></trkpt><trkpt lat="42.37037197502883" lon="19.633413207889184"><ele>867.5999999999999</ele><time>2026-05-01T15:10:23Z</time></trkpt><trkpt lat="42.37026280491493" lon="19.633380248254536"><ele>867.4000000000001</ele><time>2026-05-01T15:10:24Z</time></trkpt><trkpt lat="42.370161552977294" lon="19.63335279298311"><ele>867.2</ele><time>2026-05-01T15:10:25.001Z</time></trkpt><trkpt lat="42.370062032027946" lon="19.633329466103536"><ele>867.0</ele><time>2026-05-01T15:10:26.001Z</time></trkpt><trkpt lat="42.36996016087902" lon="19.63330956208902"><ele>867.0</ele><time>2026-05-01T15:10:27.001Z</time></trkpt><trkpt lat="42.36985615689056" lon="19.633297520347888"><ele>867.0</ele><time>2026-05-01T15:10:28.001Z</time></trkpt><trkpt lat="42.36975182541587" lon="19.633284433261252"><ele>867.0</ele><time>2026-05-01T15:10:29.001Z</time></trkpt><trkpt lat="42.369642030292916" lon="19.633272349238318"><ele>867.0</ele><time>2026-05-01T15:10:30.001Z</time></trkpt><trkpt lat="42.36953281179075" lon="19.633262586404264"><ele>867.0</ele><time>2026-05-01T15:10:31.001Z</time></trkpt><trkpt lat="42.36942661332236" lon="19.633256078734576"><ele>866.8</ele><time>2026-05-01T15:10:32.001Z</time></trkpt><trkpt lat="42.36931572549515" lon="19.63325070353789"><ele>866.6</ele><time>2026-05-01T15:10:33.001Z</time></trkpt><trkpt lat="42.36920872797039" lon="19.633236969437025"><ele>866.3999999999999</ele><time>2026-05-01T15:10:34.001Z</time></trkpt><trkpt lat="42.36910579069585" lon="19.633218993284906"><ele>866.1999999999999</ele><time>2026-05-01T15:10:35.001Z</time></trkpt><trkpt lat="42.36900574788107" lon="19.63320195947299"><ele>866.0</ele><time>2026-05-01T15:10:36.001Z</time></trkpt><trkpt lat="42.36890876323825" lon="19.63318202567326"><ele>865.5999999999999</ele><time>2026-05-01T15:10:37.001Z</time></trkpt><trkpt lat="42.36880990295169" lon="19.63316747665158"><ele>865.1999999999999</ele><time>2026-05-01T15:10:38.001Z</time></trkpt><trkpt lat="42.36870349131908" lon="19.63315499382992"><ele>864.8000000000001</ele><time>2026-05-01T15:10:39.001Z</time></trkpt><trkpt lat="42.36859715597431" lon="19.63313490999026"><ele>864.4000000000001</ele><time>2026-05-01T15:10:40.001Z</time></trkpt><trkpt lat="42.36848982508473" lon="19.63310603093011"><ele>864.0</ele><time>2026-05-01T15:10:41.001Z</time></trkpt><trkpt lat="42.3683857386828" lon="19.633032630300512"><ele>864.0</ele><time>2026-05-01T15:10:42.001Z</time></trkpt><trkpt lat="42.368273399021355" lon="19.632950421233655"><ele>864.0000000000001</ele><time>2026-05-01T15:10:43.001Z</time></trkpt><trkpt lat="42.36815195402406" lon="19.632879981252138"><ele>864.0000000000001</ele><time>2026-05-01T15:10:44.001Z</time></trkpt><trkpt lat="42.36806456857085" lon="19.63284670513381"><ele>864.0</ele><time>2026-05-01T15:10:45.001Z</time></trkpt><trkpt lat="42.36798599360007" lon="19.63280373989444"><ele>864.0</ele><time>2026-05-01T15:10:46.001Z</time></trkpt><trkpt lat="42.367909062686394" lon="19.632779145033368"><ele>860.75</ele><time>2026-05-01T15:10:47.001Z</time></trkpt><trkpt lat="42.367835684306016" lon="19.632766608988216"><ele>857.5</ele><time>2026-05-01T15:10:48.001Z</time></trkpt><trkpt lat="42.36761517439737" lon="19.63275249766128"><ele>854.25</ele><time>2026-05-01T15:10:49.001Z</time></trkpt><trkpt lat="42.36751556945656" lon="19.63276655837603"><ele>851.0</ele><time>2026-05-01T15:10:50.001Z</time></trkpt><trkpt lat="42.36742641577205" lon="19.63277630577442"><ele>851.0</ele><time>2026-05-01T15:10:51.001Z</time></trkpt><trkpt lat="42.36734095795895" lon="19.6327831346041"><ele>851.0</ele><time>2026-05-01T15:10:52.001Z</time></trkpt><trkpt lat="42.36725097255049" lon="19.632790226971004"><ele>851.0</ele><time>2026-05-01T15:10:53.001Z</time></trkpt><trkpt lat="42.36715386851617" lon="19.63276692078015"><ele>851.0</ele><time>2026-05-01T15:10:54.001Z</time></trkpt><trkpt lat="42.36705455802732" lon="19.63274199631387"><ele>851.0</ele><time>2026-05-01T15:10:55.001Z</time></trkpt><trkpt lat="42.36694836198578" lon="19.63270745562189"><ele>851.5999999999999</ele><time>2026-05-01T15:10:56.001Z</time></trkpt><trkpt lat="42.3668448303619" lon="19.63264686027282"><ele>852.2</ele><time>2026-05-01T15:10:57.001Z</time></trkpt><trkpt lat="42.36674751273394" lon="19.632595711025058"><ele>852.8000000000001</ele><time>2026-05-01T15:10:58.001Z</time></trkpt><trkpt lat="42.366657205294196" lon="19.63254870147239"><ele>853.4000000000001</ele><time>2026-05-01T15:10:59Z</time></trkpt><trkpt lat="42.36657072503449" lon="19.632499313445855"><ele>854.0</ele><time>2026-05-01T15:11:00Z</time></trkpt><trkpt lat="42.36648262767073" lon="19.6324471473396"><ele>854.0</ele><time>2026-05-01T15:11:01Z</time></trkpt><trkpt lat="42.36638291732234" lon="19.632407612416035"><ele>854.0000000000001</ele><time>2026-05-01T15:11:02Z</time></trkpt><trkpt lat="42.36628908767142" lon="19.632343106884612"><ele>854.0000000000001</ele><time>2026-05-01T15:11:03Z</time></trkpt><trkpt lat="42.36620091726725" lon="19.63229073387682"><ele>854.0</ele><time>2026-05-01T15:11:04Z</time></trkpt><trkpt lat="42.36613022974145" lon="19.632248745522023"><ele>854.0</ele><time>2026-05-01T15:11:05Z</time></trkpt><trkpt lat="42.36606085426652" lon="19.63220459235943"><ele>855.2</ele><time>2026-05-01T15:11:06Z</time></trkpt><trkpt lat="42.365977992183794" lon="19.632172484151965"><ele>856.4000000000001</ele><time>2026-05-01T15:11:07Z</time></trkpt><trkpt lat="42.36589061183551" lon="19.632150459460764"><ele>857.6</ele><time>2026-05-01T15:11:08Z</time></trkpt><trkpt lat="42.3658033904294" lon="19.632127034852946"><ele>858.8</ele><time>2026-05-01T15:11:09Z</time></trkpt><trkpt lat="42.36571176536149" lon="19.632106834604865"><ele>860.0</ele><time>2026-05-01T15:11:10Z</time></trkpt><trkpt lat="42.36560676342139" lon="19.632093345634893"><ele>859.5</ele><time>2026-05-01T15:11:11Z</time></trkpt><trkpt lat="42.36549754639663" lon="19.632099792625123"><ele>859.0</ele><time>2026-05-01T15:11:12Z</time></trkpt><trkpt lat="42.365380331684975" lon="19.632110054786647"><ele>858.5</ele><time>2026-05-01T15:11:13Z</time></trkpt><trkpt lat="42.36525573686702" lon="19.632128948918986"><ele>858.0</ele><time>2026-05-01T15:11:14Z</time></trkpt><trkpt lat="42.365129113387354" lon="19.632145336764115"><ele>858.0</ele><time>2026-05-01T15:11:15Z</time></trkpt><trkpt lat="42.3650013734583" lon="19.632164879789265"><ele>858.0</ele><time>2026-05-01T15:11:16Z</time></trkpt><trkpt lat="42.364871617061276" lon="19.632184355204203"><ele>858.0</ele><time>2026-05-01T15:11:17Z</time></trkpt><trkpt lat="42.364751487289524" lon="19.63220039841298"><ele>858.0</ele><time>2026-05-01T15:11:18Z</time></trkpt><trkpt lat="42.36464283204592" lon="19.632213891851592"><ele>858.0</ele><time>2026-05-01T15:11:19Z</time></trkpt><trkpt lat="42.364539954577495" lon="19.632230995539757"><ele>858.0</ele><time>2026-05-01T15:11:20Z</time></trkpt><trkpt lat="42.36444140623139" lon="19.632239876184478"><ele>858.0</ele><time>2026-05-01T15:11:21Z</time></trkpt><trkpt lat="42.364336983243206" lon="19.632251344646644"><ele>858.0</ele><time>2026-05-01T15:11:22Z</time></trkpt><trkpt lat="42.36423244998508" lon="19.632257924092745"><ele>858.0</ele><time>2026-05-01T15:11:23Z</time></trkpt><trkpt lat="42.364121204141995" lon="19.63226395152619"><ele>858.0</ele><time>2026-05-01T15:11:24Z</time></trkpt><trkpt lat="42.364003565339075" lon="19.632273496382354"><ele>858.0</ele><time>2026-05-01T15:11:25Z</time></trkpt><trkpt lat="42.363883353580775" lon="19.632267206077973"><ele>858.0</ele><time>2026-05-01T15:11:26Z</time></trkpt><trkpt lat="42.363757365393106" lon="19.63224548594317"><ele>858.0</ele><time>2026-05-01T15:11:27Z</time></trkpt><trkpt lat="42.3636319473331" lon="19.632217615028203"><ele>857.8</ele><time>2026-05-01T15:11:28Z</time></trkpt><trkpt lat="42.3635175526366" lon="19.632184188289802"><ele>857.5999999999999</ele><time>2026-05-01T15:11:29Z</time></trkpt><trkpt lat="42.363420356655865" lon="19.632150462164184"><ele>857.4000000000001</ele><time>2026-05-01T15:11:30Z</time></trkpt><trkpt lat="42.36332410068151" lon="19.632135498396288"><ele>857.2</ele><time>2026-05-01T15:11:31Z</time></trkpt><trkpt lat="42.363217388300725" lon="19.632146294352353"><ele>857.0</ele><time>2026-05-01T15:11:32Z</time></trkpt><trkpt lat="42.36311089687487" lon="19.632172746611577"><ele>857.0</ele><time>2026-05-01T15:11:33Z</time></trkpt><trkpt lat="42.36300382595852" lon="19.632200395744437"><ele>857.0</ele><time>2026-05-01T15:11:34Z</time></trkpt><trkpt lat="42.362893694360736" lon="19.63223652186007"><ele>857.0</ele><time>2026-05-01T15:11:35Z</time></trkpt><trkpt lat="42.36278048017947" lon="19.632273290017363"><ele>857.0</ele><time>2026-05-01T15:11:36Z</time></trkpt><trkpt lat="42.36266358280116" lon="19.632304633511993"><ele>857.0</ele><time>2026-05-01T15:11:37Z</time></trkpt><trkpt lat="42.36254290397073" lon="19.63233367435361"><ele>857.0</ele><time>2026-05-01T15:11:38Z</time></trkpt><trkpt lat="42.362420192891406" lon="19.632362619341716"><ele>857.0</ele><time>2026-05-01T15:11:39Z</time></trkpt><trkpt lat="42.36229703650299" lon="19.632391002161228"><ele>857.0</ele><time>2026-05-01T15:11:40Z</time></trkpt><trkpt lat="42.362175901023534" lon="19.632433662349385"><ele>855.5</ele><time>2026-05-01T15:11:41Z</time></trkpt><trkpt lat="42.36205576201645" lon="19.63248495853829"><ele>854.0</ele><time>2026-05-01T15:11:42Z</time></trkpt><trkpt lat="42.36193571302247" lon="19.63253802542692"><ele>852.5</ele><time>2026-05-01T15:11:43Z</time></trkpt><trkpt lat="42.361813255981545" lon="19.632601192391054"><ele>851.0</ele><time>2026-05-01T15:11:44Z</time></trkpt><trkpt lat="42.36168900658937" lon="19.63267294908588"><ele>851.0</ele><time>2026-05-01T15:11:45Z</time></trkpt><trkpt lat="42.361563127482064" lon="19.632752693934016"><ele>851.0</ele><time>2026-05-01T15:11:46Z</time></trkpt><trkpt lat="42.36145262695371" lon="19.632827415143037"><ele>851.0</ele><time>2026-05-01T15:11:47Z</time></trkpt><trkpt lat="42.361366147676115" lon="19.63288081817864"><ele>851.0</ele><time>2026-05-01T15:11:48Z</time></trkpt><trkpt lat="42.361307694120626" lon="19.63291416031483"><ele>851.0</ele><time>2026-05-01T15:11:49Z</time></trkpt><trkpt lat="42.36118784562457" lon="19.632986112542532"><ele>850.5000000000001</ele><time>2026-05-01T15:11:51Z</time></trkpt><trkpt lat="42.36111843524466" lon="19.633026536774747"><ele>850.0</ele><time>2026-05-01T15:11:52Z</time></trkpt><trkpt lat="42.36104787440659" lon="19.633062370653395"><ele>849.5</ele><time>2026-05-01T15:11:53Z</time></trkpt><trkpt lat="42.3609770128464" lon="19.63309324638644"><ele>849.0</ele><time>2026-05-01T15:11:54Z</time></trkpt><trkpt lat="42.36089993907533" lon="19.633126259738084"><ele>848.5000000000001</ele><time>2026-05-01T15:11:55Z</time></trkpt><trkpt lat="42.360817587555495" lon="19.633159811177645"><ele>848.0</ele><time>2026-05-01T15:11:56Z</time></trkpt><trkpt lat="42.36072011604368" lon="19.633215164216118"><ele>848.0</ele><time>2026-05-01T15:11:57Z</time></trkpt><trkpt lat="42.36060656323743" lon="19.63326093802952"><ele>848.0</ele><time>2026-05-01T15:11:58Z</time></trkpt><trkpt lat="42.36048154670639" lon="19.633303506216443"><ele>848.0</ele><time>2026-05-01T15:11:59Z</time></trkpt><trkpt lat="42.36034036368883" lon="19.633353493467887"><ele>848.0</ele><time>2026-05-01T15:12:00Z</time></trkpt><trkpt lat="42.360191605713105" lon="19.63340772481369"><ele>845.5</ele><time>2026-05-01T15:12:01Z</time></trkpt><trkpt lat="42.360044704176346" lon="19.63345463747383"><ele>843.0</ele><time>2026-05-01T15:12:02Z</time></trkpt><trkpt lat="42.35991089833263" lon="19.63350985942564"><ele>840.5</ele><time>2026-05-01T15:12:03Z</time></trkpt><trkpt lat="42.35977142442" lon="19.633557527110572"><ele>838.0</ele><time>2026-05-01T15:12:04Z</time></trkpt><trkpt lat="42.3596414658255" lon="19.633600767277272"><ele>838.5</ele><time>2026-05-01T15:12:05Z</time></trkpt><trkpt lat="42.35951867520984" lon="19.63364040890534"><ele>839.0</ele><time>2026-05-01T15:12:06Z</time></trkpt><trkpt lat="42.359401540256435" lon="19.633678753459403"><ele>839.5</ele><time>2026-05-01T15:12:07Z</time></trkpt><trkpt lat="42.35928558886772" lon="19.633721095155273"><ele>840.0</ele><time>2026-05-01T15:12:08Z</time></trkpt><trkpt lat="42.359164255971756" lon="19.633759929394706"><ele>840.0</ele><time>2026-05-01T15:12:09Z</time></trkpt><trkpt lat="42.35903805141284" lon="19.633793230343677"><ele>840.0</ele><time>2026-05-01T15:12:10Z</time></trkpt><trkpt lat="42.358907758765646" lon="19.63382823492422"><ele>840.0</ele><time>2026-05-01T15:12:11Z</time></trkpt><trkpt lat="42.35877539118479" lon="19.633856808591734"><ele>840.0</ele><time>2026-05-01T15:12:12Z</time></trkpt><trkpt lat="42.35864735923465" lon="19.63387394505467"><ele>839.0</ele><time>2026-05-01T15:12:13Z</time></trkpt><trkpt lat="42.358529272365026" lon="19.633879441888656"><ele>838.0</ele><time>2026-05-01T15:12:14Z</time></trkpt><trkpt lat="42.358419983769636" lon="19.633873824069447"><ele>837.0</ele><time>2026-05-01T15:12:15Z</time></trkpt><trkpt lat="42.358321913527796" lon="19.633862092330315"><ele>836.0</ele><time>2026-05-01T15:12:16Z</time></trkpt><trkpt lat="42.358237212611506" lon="19.633841564592664"><ele>835.0</ele><time>2026-05-01T15:12:17Z</time></trkpt><trkpt lat="42.358165639084994" lon="19.633807691482865"><ele>835.0</ele><time>2026-05-01T15:12:18Z</time></trkpt><trkpt lat="42.35810525400497" lon="19.63376179509162"><ele>835.0</ele><time>2026-05-01T15:12:19Z</time></trkpt><trkpt lat="42.357998547649395" lon="19.633671314562633"><ele>835.0</ele><time>2026-05-01T15:12:21Z</time></trkpt><trkpt lat="42.35793158669921" lon="19.633627244164323"><ele>835.0</ele><time>2026-05-01T15:12:22Z</time></trkpt><trkpt lat="42.35785283996968" lon="19.63358765610776"><ele>835.0</ele><time>2026-05-01T15:12:23Z</time></trkpt><trkpt lat="42.35775631579809" lon="19.633552435977006"><ele>831.4</ele><time>2026-05-01T15:12:24Z</time></trkpt><trkpt lat="42.35764766343769" lon="19.633528215083995"><ele>827.8</ele><time>2026-05-01T15:12:25Z</time></trkpt><trkpt lat="42.35754085527598" lon="19.63350933094214"><ele>824.2</ele><time>2026-05-01T15:12:26Z</time></trkpt><trkpt lat="42.357434918647904" lon="19.633484867511953"><ele>820.6</ele><time>2026-05-01T15:12:27Z</time></trkpt><trkpt lat="42.35731755110136" lon="19.6334534840623"><ele>817.0</ele><time>2026-05-01T15:12:28Z</time></trkpt><trkpt lat="42.35719326269668" lon="19.633412914609764"><ele>817.0</ele><time>2026-05-01T15:12:29Z</time></trkpt><trkpt lat="42.35706577390955" lon="19.633357217407514"><ele>817.0</ele><time>2026-05-01T15:12:30Z</time></trkpt><trkpt lat="42.356936252420105" lon="19.633302000967177"><ele>817.0</ele><time>2026-05-01T15:12:31.001Z</time></trkpt><trkpt lat="42.356797732137444" lon="19.633248852771054"><ele>817.0</ele><time>2026-05-01T15:12:32.001Z</time></trkpt><trkpt lat="42.35666573051375" lon="19.633195065109792"><ele>817.0</ele><time>2026-05-01T15:12:33.001Z</time></trkpt><trkpt lat="42.35654644807223" lon="19.633142441046143"><ele>817.0</ele><time>2026-05-01T15:12:34.001Z</time></trkpt><trkpt lat="42.35643886832675" lon="19.63306814087884"><ele>817.0</ele><time>2026-05-01T15:12:35.001Z</time></trkpt><trkpt lat="42.35632130225101" lon="19.63301406770233"><ele>817.0</ele><time>2026-05-01T15:12:36.001Z</time></trkpt><trkpt lat="42.35619278090477" lon="19.632973416717274"><ele>816.75</ele><time>2026-05-01T15:12:37.001Z</time></trkpt><trkpt lat="42.35606939526582" lon="19.632886975414507"><ele>816.5</ele><time>2026-05-01T15:12:38.001Z</time></trkpt><trkpt lat="42.35595116940427" lon="19.632784478344067"><ele>816.25</ele><time>2026-05-01T15:12:39.001Z</time></trkpt><trkpt lat="42.355841146848064" lon="19.63267931902684"><ele>816.0</ele><time>2026-05-01T15:12:40.001Z</time></trkpt><trkpt lat="42.355742514626776" lon="19.632585662179924"><ele>814.5</ele><time>2026-05-01T15:12:41.001Z</time></trkpt><trkpt lat="42.355636149221986" lon="19.632524331981603"><ele>813.0</ele><time>2026-05-01T15:12:42.001Z</time></trkpt><trkpt lat="42.35551457368696" lon="19.632487049476588"><ele>811.5</ele><time>2026-05-01T15:12:43.001Z</time></trkpt><trkpt lat="42.355381327490896" lon="19.63246106655665"><ele>810.0</ele><time>2026-05-01T15:12:44.001Z</time></trkpt><trkpt lat="42.35524098421559" lon="19.63243550059999"><ele>809.5</ele><time>2026-05-01T15:12:45.001Z</time></trkpt><trkpt lat="42.35509669128215" lon="19.63241196001302"><ele>809.0</ele><time>2026-05-01T15:12:46.001Z</time></trkpt><trkpt lat="42.35494736128395" lon="19.63239796214649"><ele>808.5</ele><time>2026-05-01T15:12:47.001Z</time></trkpt><trkpt lat="42.35479417350493" lon="19.632383935719147"><ele>808.0</ele><time>2026-05-01T15:12:48.001Z</time></trkpt><trkpt lat="42.35465045897745" lon="19.63237053192598"><ele>809.5</ele><time>2026-05-01T15:12:49.001Z</time></trkpt><trkpt lat="42.35452439107505" lon="19.632367701538534"><ele>811.0</ele><time>2026-05-01T15:12:50.001Z</time></trkpt><trkpt lat="42.35441075814716" lon="19.632394264055467"><ele>812.5</ele><time>2026-05-01T15:12:51.001Z</time></trkpt><trkpt lat="42.35429659710914" lon="19.632450104015078"><ele>814.0</ele><time>2026-05-01T15:12:52.001Z</time></trkpt><trkpt lat="42.3541838892491" lon="19.632514548828222"><ele>814.0</ele><time>2026-05-01T15:12:53.001Z</time></trkpt><trkpt lat="42.35407879535338" lon="19.632575012368484"><ele>814.0</ele><time>2026-05-01T15:12:54.001Z</time></trkpt><trkpt lat="42.35398388187719" lon="19.632610311998352"><ele>814.0</ele><time>2026-05-01T15:12:55.001Z</time></trkpt><trkpt lat="42.35390070857336" lon="19.632655800107624"><ele>814.0</ele><time>2026-05-01T15:12:56.001Z</time></trkpt><trkpt lat="42.353811189525274" lon="19.632701777738532"><ele>814.0</ele><time>2026-05-01T15:12:57.001Z</time></trkpt><trkpt lat="42.35371014933785" lon="19.632749812523027"><ele>814.6</ele><time>2026-05-01T15:12:58.001Z</time></trkpt><trkpt lat="42.35360740817555" lon="19.63279835611734"><ele>815.2</ele><time>2026-05-01T15:12:59.001Z</time></trkpt><trkpt lat="42.35351287855518" lon="19.6328431212741"><ele>815.8000000000001</ele><time>2026-05-01T15:13:00.001Z</time></trkpt><trkpt lat="42.353425866279395" lon="19.632884325015965"><ele>816.4000000000001</ele><time>2026-05-01T15:13:01.001Z</time></trkpt><trkpt lat="42.35334664181007" lon="19.632921091391903"><ele>817.0</ele><time>2026-05-01T15:13:02.001Z</time></trkpt><trkpt lat="42.35327740932675" lon="19.63295822506223"><ele>815.3333333333333</ele><time>2026-05-01T15:13:03Z</time></trkpt><trkpt lat="42.35321187456826" lon="19.63298935565986"><ele>813.6666666666666</ele><time>2026-05-01T15:13:04Z</time></trkpt><trkpt lat="42.35313848622864" lon="19.63301776638865"><ele>812.0</ele><time>2026-05-01T15:13:05Z</time></trkpt><trkpt lat="42.35305911109515" lon="19.63304643247253"><ele>810.3333333333333</ele><time>2026-05-01T15:13:06Z</time></trkpt><trkpt lat="42.35297926566372" lon="19.63306713814308"><ele>808.6666666666666</ele><time>2026-05-01T15:13:07Z</time></trkpt><trkpt lat="42.35289894019269" lon="19.6330817754909"><ele>807.0</ele><time>2026-05-01T15:13:08Z</time></trkpt><trkpt lat="42.35281835510332" lon="19.633082515853868"><ele>806.4000000000001</ele><time>2026-05-01T15:13:09Z</time></trkpt><trkpt lat="42.3527256327698" lon="19.633087067188832"><ele>805.8000000000001</ele><time>2026-05-01T15:13:10Z</time></trkpt><trkpt lat="42.35262175976902" lon="19.633089733204503"><ele>805.2</ele><time>2026-05-01T15:13:11Z</time></trkpt><trkpt lat="42.35250505814699" lon="19.633086929559823"><ele>804.6</ele><time>2026-05-01T15:13:12Z</time></trkpt><trkpt lat="42.35240106517007" lon="19.63307234443368"><ele>804.0</ele><time>2026-05-01T15:13:13Z</time></trkpt><trkpt lat="42.35229162285578" lon="19.633056574487103"><ele>803.0</ele><time>2026-05-01T15:13:14Z</time></trkpt><trkpt lat="42.35218098360809" lon="19.633060104633948"><ele>802.0</ele><time>2026-05-01T15:13:15Z</time></trkpt><trkpt lat="42.35207339109989" lon="19.6330708540345"><ele>801.0</ele><time>2026-05-01T15:13:16Z</time></trkpt><trkpt lat="42.35197128616745" lon="19.633142287355593"><ele>800.0</ele><time>2026-05-01T15:13:17Z</time></trkpt><trkpt lat="42.351873673801784" lon="19.63318640143587"><ele>799.0</ele><time>2026-05-01T15:13:18Z</time></trkpt><trkpt lat="42.35177635742635" lon="19.633225130529844"><ele>799.0</ele><time>2026-05-01T15:13:19Z</time></trkpt><trkpt lat="42.351670945709216" lon="19.63323335804511"><ele>799.0</ele><time>2026-05-01T15:13:20Z</time></trkpt><trkpt lat="42.35155525124951" lon="19.633272245156494"><ele>799.0</ele><time>2026-05-01T15:13:21Z</time></trkpt><trkpt lat="42.35143856996832" lon="19.63333423173309"><ele>799.0</ele><time>2026-05-01T15:13:22Z</time></trkpt><trkpt lat="42.35133849840664" lon="19.63336588884553"><ele>799.0</ele><time>2026-05-01T15:13:23Z</time></trkpt><trkpt lat="42.351244417987566" lon="19.633388795519693"><ele>799.0</ele><time>2026-05-01T15:13:24Z</time></trkpt><trkpt lat="42.35115799281248" lon="19.633398999054723"><ele>799.0</ele><time>2026-05-01T15:13:25Z</time></trkpt><trkpt lat="42.35106432799012" lon="19.6334188353357"><ele>799.0</ele><time>2026-05-01T15:13:26Z</time></trkpt><trkpt lat="42.350957311422434" lon="19.633446136258982"><ele>799.0</ele><time>2026-05-01T15:13:27Z</time></trkpt><trkpt lat="42.35085828504874" lon="19.633458364747057"><ele>799.0</ele><time>2026-05-01T15:13:28Z</time></trkpt><trkpt lat="42.35076120620735" lon="19.633446266692772"><ele>799.0</ele><time>2026-05-01T15:13:29Z</time></trkpt><trkpt lat="42.35066841157359" lon="19.633392340245287"><ele>799.0</ele><time>2026-05-01T15:13:30Z</time></trkpt><trkpt lat="42.35056060935628" lon="19.633355125461254"><ele>799.0</ele><time>2026-05-01T15:13:31Z</time></trkpt><trkpt lat="42.35045504851545" lon="19.6333625963966"><ele>799.0</ele><time>2026-05-01T15:13:32Z</time></trkpt><trkpt lat="42.350346898667475" lon="19.633391611149307"><ele>800.25</ele><time>2026-05-01T15:13:33Z</time></trkpt><trkpt lat="42.35022132155966" lon="19.633462655715142"><ele>801.5</ele><time>2026-05-01T15:13:34Z</time></trkpt><trkpt lat="42.35009434362755" lon="19.63355924722765"><ele>802.75</ele><time>2026-05-01T15:13:35Z</time></trkpt><trkpt lat="42.349971153433266" lon="19.63367982895732"><ele>804.0</ele><time>2026-05-01T15:13:36Z</time></trkpt><trkpt lat="42.34985077534753" lon="19.633819075598357"><ele>803.5</ele><time>2026-05-01T15:13:37Z</time></trkpt><trkpt lat="42.349745698407574" lon="19.633954013607624"><ele>803.0</ele><time>2026-05-01T15:13:38Z</time></trkpt><trkpt lat="42.34965746244976" lon="19.63408840441693"><ele>802.5</ele><time>2026-05-01T15:13:39Z</time></trkpt><trkpt lat="42.34958052201894" lon="19.634233141017774"><ele>802.0</ele><time>2026-05-01T15:13:40Z</time></trkpt><trkpt lat="42.349490558517545" lon="19.63436095837437"><ele>797.8</ele><time>2026-05-01T15:13:41Z</time></trkpt><trkpt lat="42.34941220609324" lon="19.634484771647546"><ele>793.6</ele><time>2026-05-01T15:13:42Z</time></trkpt><trkpt lat="42.34933184031294" lon="19.634598243620697"><ele>789.4</ele><time>2026-05-01T15:13:43Z</time></trkpt><trkpt lat="42.34924989287642" lon="19.634690241716427"><ele>785.1999999999999</ele><time>2026-05-01T15:13:44Z</time></trkpt><trkpt lat="42.34917621172812" lon="19.634792959454288"><ele>781.0</ele><time>2026-05-01T15:13:45Z</time></trkpt><trkpt lat="42.34909431608669" lon="19.634909693025016"><ele>781.0</ele><time>2026-05-01T15:13:46Z</time></trkpt><trkpt lat="42.348993170592635" lon="19.63500778201952"><ele>781.0</ele><time>2026-05-01T15:13:47Z</time></trkpt><trkpt lat="42.3488853464102" lon="19.635107789576598"><ele>781.0</ele><time>2026-05-01T15:13:48Z</time></trkpt><trkpt lat="42.34878156543289" lon="19.635204396519423"><ele>781.0</ele><time>2026-05-01T15:13:49Z</time></trkpt><trkpt lat="42.34868062486731" lon="19.635299020960264"><ele>779.0</ele><time>2026-05-01T15:13:50Z</time></trkpt><trkpt lat="42.34858882114091" lon="19.635406729297706"><ele>777.0</ele><time>2026-05-01T15:13:51Z</time></trkpt><trkpt lat="42.348496048637365" lon="19.63548650351742"><ele>775.0</ele><time>2026-05-01T15:13:52Z</time></trkpt><trkpt lat="42.34839843424811" lon="19.63555211898019"><ele>773.0</ele><time>2026-05-01T15:13:53Z</time></trkpt><trkpt lat="42.348296002945844" lon="19.635614251549686"><ele>773.0</ele><time>2026-05-01T15:13:54Z</time></trkpt><trkpt lat="42.348176101322096" lon="19.635666871085387"><ele>773.0</ele><time>2026-05-01T15:13:55Z</time></trkpt><trkpt lat="42.34804980226539" lon="19.635706706502386"><ele>773.0</ele><time>2026-05-01T15:13:56Z</time></trkpt><trkpt lat="42.34792595341858" lon="19.635734161323928"><ele>773.0</ele><time>2026-05-01T15:13:57Z</time></trkpt><trkpt lat="42.347797335749625" lon="19.635741951343082"><ele>771.75</ele><time>2026-05-01T15:13:58Z</time></trkpt><trkpt lat="42.34766410010747" lon="19.635726827105138"><ele>770.5</ele><time>2026-05-01T15:13:59Z</time></trkpt><trkpt lat="42.347523434473246" lon="19.635718292756593"><ele>769.25</ele><time>2026-05-01T15:14:00Z</time></trkpt><trkpt lat="42.3473829719562" lon="19.63568752138672"><ele>768.0</ele><time>2026-05-01T15:14:01Z</time></trkpt><trkpt lat="42.34725226450642" lon="19.63565957791049"><ele>766.5</ele><time>2026-05-01T15:14:02Z</time></trkpt><trkpt lat="42.34711341854692" lon="19.635636384784565"><ele>765.0</ele><time>2026-05-01T15:14:03Z</time></trkpt><trkpt lat="42.346968637072614" lon="19.635613988780282"><ele>763.5</ele><time>2026-05-01T15:14:04Z</time></trkpt><trkpt lat="42.346829315375885" lon="19.635597450956674"><ele>762.0</ele><time>2026-05-01T15:14:05Z</time></trkpt><trkpt lat="42.34669820193761" lon="19.635584740827337"><ele>762.0</ele><time>2026-05-01T15:14:06Z</time></trkpt><trkpt lat="42.34657352548551" lon="19.635566440504086"><ele>762.0</ele><time>2026-05-01T15:14:07Z</time></trkpt><trkpt lat="42.34645320620396" lon="19.63553705314889"><ele>762.0</ele><time>2026-05-01T15:14:08Z</time></trkpt><trkpt lat="42.34633377229366" lon="19.6355013997517"><ele>762.0</ele><time>2026-05-01T15:14:09Z</time></trkpt><trkpt lat="42.346212160733465" lon="19.63543510004937"><ele>761.5</ele><time>2026-05-01T15:14:10Z</time></trkpt><trkpt lat="42.3460821929444" lon="19.635365540443576"><ele>761.0</ele><time>2026-05-01T15:14:11Z</time></trkpt><trkpt lat="42.3459364349209" lon="19.63528866607429"><ele>760.5</ele><time>2026-05-01T15:14:12Z</time></trkpt><trkpt lat="42.345802186359904" lon="19.63521449654051"><ele>760.0</ele><time>2026-05-01T15:14:13Z</time></trkpt><trkpt lat="42.34567283072292" lon="19.635157059589876"><ele>758.5</ele><time>2026-05-01T15:14:14Z</time></trkpt><trkpt lat="42.34553806684469" lon="19.63512184152664"><ele>757.0</ele><time>2026-05-01T15:14:15Z</time></trkpt><trkpt lat="42.345395623307375" lon="19.635093048293474"><ele>755.5</ele><time>2026-05-01T15:14:16Z</time></trkpt><trkpt lat="42.34527361080026" lon="19.63507708041344"><ele>754.0</ele><time>2026-05-01T15:14:17Z</time></trkpt><trkpt lat="42.34516376080124" lon="19.635059060589477"><ele>754.0</ele><time>2026-05-01T15:14:18Z</time></trkpt><trkpt lat="42.34507408312161" lon="19.635018511963285"><ele>754.0</ele><time>2026-05-01T15:14:19Z</time></trkpt><trkpt lat="42.344986826754344" lon="19.635003018670744"><ele>754.0</ele><time>2026-05-01T15:14:20Z</time></trkpt><trkpt lat="42.344918287766184" lon="19.634887111373263"><ele>754.0</ele><time>2026-05-01T15:14:21Z</time></trkpt><trkpt lat="42.34483372926054" lon="19.634813883790603"><ele>754.0</ele><time>2026-05-01T15:14:22Z</time></trkpt><trkpt lat="42.344779997446715" lon="19.63473185227807"><ele>753.0</ele><time>2026-05-01T15:14:23Z</time></trkpt><trkpt lat="42.34467022327146" lon="19.634662588524908"><ele>752.0</ele><time>2026-05-01T15:14:25Z</time></trkpt><trkpt lat="42.34460858980578" lon="19.634631749664514"><ele>751.0</ele><time>2026-05-01T15:14:26Z</time></trkpt><trkpt lat="42.34453974968605" lon="19.634597237496706"><ele>750.0</ele><time>2026-05-01T15:14:27Z</time></trkpt><trkpt lat="42.34446371840786" lon="19.634558450184734"><ele>749.0</ele><time>2026-05-01T15:14:28Z</time></trkpt><trkpt lat="42.34437626025908" lon="19.634517382521203"><ele>748.0</ele><time>2026-05-01T15:14:29Z</time></trkpt><trkpt lat="42.344280972644476" lon="19.634460287394354"><ele>747.5999999999999</ele><time>2026-05-01T15:14:30Z</time></trkpt><trkpt lat="42.34420101902153" lon="19.634396841470764"><ele>747.1999999999999</ele><time>2026-05-01T15:14:31Z</time></trkpt><trkpt lat="42.34412661600262" lon="19.634341149016045"><ele>746.8</ele><time>2026-05-01T15:14:32Z</time></trkpt><trkpt lat="42.34403953107678" lon="19.63430666948197"><ele>746.4</ele><time>2026-05-01T15:14:33Z</time></trkpt><trkpt lat="42.343942349419216" lon="19.63428272666508"><ele>746.0</ele><time>2026-05-01T15:14:34Z</time></trkpt><trkpt lat="42.34384065226399" lon="19.634256865107282"><ele>746.0</ele><time>2026-05-01T15:14:35Z</time></trkpt><trkpt lat="42.34375038192623" lon="19.634218778241074"><ele>746.0</ele><time>2026-05-01T15:14:36Z</time></trkpt><trkpt lat="42.34366385343821" lon="19.634169542752378"><ele>746.0</ele><time>2026-05-01T15:14:37.001Z</time></trkpt><trkpt lat="42.3435737760129" lon="19.634132306598136"><ele>746.0</ele><time>2026-05-01T15:14:38.001Z</time></trkpt><trkpt lat="42.34348264105407" lon="19.63411223871402"><ele>746.0</ele><time>2026-05-01T15:14:39.001Z</time></trkpt><trkpt lat="42.34341371845905" lon="19.63406573306737"><ele>746.0</ele><time>2026-05-01T15:14:40.001Z</time></trkpt><trkpt lat="42.343352886835596" lon="19.63403769403442"><ele>746.0</ele><time>2026-05-01T15:14:41.001Z</time></trkpt><trkpt lat="42.343309564544306" lon="19.633971072925913"><ele>746.0</ele><time>2026-05-01T15:14:42.001Z</time></trkpt><trkpt lat="42.34323298433974" lon="19.633899782485752"><ele>746.0</ele><time>2026-05-01T15:14:43.001Z</time></trkpt><trkpt lat="42.34315430354195" lon="19.633819869139607"><ele>746.0</ele><time>2026-05-01T15:14:44.001Z</time></trkpt><trkpt lat="42.343073223271524" lon="19.633729897048852"><ele>746.0</ele><time>2026-05-01T15:14:45.001Z</time></trkpt><trkpt lat="42.34298493169921" lon="19.63365761468726"><ele>745.5</ele><time>2026-05-01T15:14:46.001Z</time></trkpt><trkpt lat="42.34290581850125" lon="19.63359348981999"><ele>745.0</ele><time>2026-05-01T15:14:47.001Z</time></trkpt><trkpt lat="42.34282977195928" lon="19.633531045730564"><ele>744.5</ele><time>2026-05-01T15:14:48.001Z</time></trkpt><trkpt lat="42.34275344879387" lon="19.633468018412092"><ele>744.0</ele><time>2026-05-01T15:14:49.001Z</time></trkpt><trkpt lat="42.342686586339106" lon="19.633412839339154"><ele>743.5</ele><time>2026-05-01T15:14:50.001Z</time></trkpt><trkpt lat="42.342631596185875" lon="19.633352095258406"><ele>743.0</ele><time>2026-05-01T15:14:51.001Z</time></trkpt><trkpt lat="42.3425963147995" lon="19.633279929891398"><ele>743.0</ele><time>2026-05-01T15:14:52.001Z</time></trkpt><trkpt lat="42.34255500326296" lon="19.633192224091875"><ele>743.0</ele><time>2026-05-01T15:14:53.001Z</time></trkpt><trkpt lat="42.34253762260846" lon="19.633080564948564"><ele>743.0</ele><time>2026-05-01T15:14:54.001Z</time></trkpt><trkpt lat="42.34251940281982" lon="19.63295427669345"><ele>743.0</ele><time>2026-05-01T15:14:55.001Z</time></trkpt><trkpt lat="42.34249567098032" lon="19.632815098309102"><ele>743.0</ele><time>2026-05-01T15:14:56.001Z</time></trkpt><trkpt lat="42.342472835731186" lon="19.632673308627705"><ele>744.4</ele><time>2026-05-01T15:14:57.001Z</time></trkpt><trkpt lat="42.34245141847284" lon="19.63253445679947"><ele>745.8</ele><time>2026-05-01T15:14:58.001Z</time></trkpt><trkpt lat="42.34242632893084" lon="19.632405143893692"><ele>747.2</ele><time>2026-05-01T15:14:59.001Z</time></trkpt><trkpt lat="42.34240318620615" lon="19.632289135945513"><ele>748.6</ele><time>2026-05-01T15:15:00.001Z</time></trkpt><trkpt lat="42.34233268681321" lon="19.632203003521724"><ele>750.0</ele><time>2026-05-01T15:15:01.001Z</time></trkpt><trkpt lat="42.34225815685081" lon="19.632138254772613"><ele>749.0</ele><time>2026-05-01T15:15:02.001Z</time></trkpt><trkpt lat="42.34217847383562" lon="19.63208562379233"><ele>748.0</ele><time>2026-05-01T15:15:03.001Z</time></trkpt><trkpt lat="42.3420941101913" lon="19.63203232001339"><ele>747.0</ele><time>2026-05-01T15:15:04.001Z</time></trkpt><trkpt lat="42.34201145293797" lon="19.631970525598717"><ele>746.0</ele><time>2026-05-01T15:15:05.001Z</time></trkpt><trkpt lat="42.34192984399865" lon="19.63188573989973"><ele>745.0</ele><time>2026-05-01T15:15:06.001Z</time></trkpt><trkpt lat="42.34184818350808" lon="19.63179444827978"><ele>744.8</ele><time>2026-05-01T15:15:07Z</time></trkpt><trkpt lat="42.34177219871143" lon="19.63171257030699"><ele>744.6</ele><time>2026-05-01T15:15:08Z</time></trkpt><trkpt lat="42.341696232050616" lon="19.631637992424814"><ele>744.4000000000001</ele><time>2026-05-01T15:15:09Z</time></trkpt><trkpt lat="42.34162084342524" lon="19.631564798273654"><ele>744.2</ele><time>2026-05-01T15:15:10Z</time></trkpt><trkpt lat="42.34154741998393" lon="19.63148297429721"><ele>744.0</ele><time>2026-05-01T15:15:11Z</time></trkpt><trkpt lat="42.34145101413414" lon="19.63124132640581"><ele>742.6</ele><time>2026-05-01T15:15:13Z</time></trkpt><trkpt lat="42.34140748504149" lon="19.631105772188338"><ele>741.2</ele><time>2026-05-01T15:15:14Z</time></trkpt><trkpt lat="42.341356928544435" lon="19.630996249654835"><ele>739.8000000000001</ele><time>2026-05-01T15:15:15Z</time></trkpt><trkpt lat="42.341307881171716" lon="19.630883471570485"><ele>738.4000000000001</ele><time>2026-05-01T15:15:16Z</time></trkpt><trkpt lat="42.34124368969387" lon="19.630781006030194"><ele>737.0</ele><time>2026-05-01T15:15:17Z</time></trkpt><trkpt lat="42.341165566939644" lon="19.630686072603623"><ele>737.0</ele><time>2026-05-01T15:15:18Z</time></trkpt><trkpt lat="42.34107418191718" lon="19.63059512007732"><ele>737.0</ele><time>2026-05-01T15:15:19Z</time></trkpt><trkpt lat="42.34097650998975" lon="19.63050736296837"><ele>737.0</ele><time>2026-05-01T15:15:20Z</time></trkpt><trkpt lat="42.34088335987384" lon="19.630431814127085"><ele>737.0</ele><time>2026-05-01T15:15:21Z</time></trkpt><trkpt lat="42.340799375719484" lon="19.630358229140008"><ele>737.0</ele><time>2026-05-01T15:15:22Z</time></trkpt><trkpt lat="42.340721193821196" lon="19.630288801809908"><ele>738.2</ele><time>2026-05-01T15:15:23Z</time></trkpt><trkpt lat="42.34064121922948" lon="19.630220888501178"><ele>739.4000000000001</ele><time>2026-05-01T15:15:24Z</time></trkpt><trkpt lat="42.34054885333324" lon="19.630148974131185"><ele>740.5999999999999</ele><time>2026-05-01T15:15:25Z</time></trkpt><trkpt lat="42.34045593972523" lon="19.630065070609234"><ele>741.8</ele><time>2026-05-01T15:15:26Z</time></trkpt><trkpt lat="42.34037271688915" lon="19.62994261452823"><ele>743.0</ele><time>2026-05-01T15:15:27Z</time></trkpt><trkpt lat="42.34029745278444" lon="19.629833897522232"><ele>739.0</ele><time>2026-05-01T15:15:28Z</time></trkpt><trkpt lat="42.34022581091649" lon="19.629744591306945"><ele>735.0</ele><time>2026-05-01T15:15:29Z</time></trkpt><trkpt lat="42.34016243307885" lon="19.629667408791438"><ele>731.0</ele><time>2026-05-01T15:15:30Z</time></trkpt><trkpt lat="42.34008550255403" lon="19.629630260079164"><ele>727.0</ele><time>2026-05-01T15:15:31Z</time></trkpt><trkpt lat="42.34000514492674" lon="19.62961976125313"><ele>723.0</ele><time>2026-05-01T15:15:32Z</time></trkpt><trkpt lat="42.33992833641557" lon="19.629641929497797"><ele>719.0</ele><time>2026-05-01T15:15:33Z</time></trkpt><trkpt lat="42.33986315503195" lon="19.629699990795494"><ele>719.0</ele><time>2026-05-01T15:15:34Z</time></trkpt><trkpt lat="42.339807672262495" lon="19.629766333272162"><ele>719.0</ele><time>2026-05-01T15:15:35Z</time></trkpt><trkpt lat="42.339756383211814" lon="19.62983288880455"><ele>719.0</ele><time>2026-05-01T15:15:36Z</time></trkpt><trkpt lat="42.339690245219835" lon="19.629860603132066"><ele>719.0</ele><time>2026-05-01T15:15:37Z</time></trkpt><trkpt lat="42.33957746369875" lon="19.629814777978737"><ele>719.0</ele><time>2026-05-01T15:15:39Z</time></trkpt><trkpt lat="42.33949446684358" lon="19.62968073548417"><ele>715.8333333333333</ele><time>2026-05-01T15:15:41Z</time></trkpt><trkpt lat="42.339447043195406" lon="19.629606748802523"><ele>712.6666666666666</ele><time>2026-05-01T15:15:42Z</time></trkpt><trkpt lat="42.33939648489265" lon="19.62951745741971"><ele>709.5</ele><time>2026-05-01T15:15:43Z</time></trkpt><trkpt lat="42.339360324030636" lon="19.629418485209115"><ele>706.3333333333334</ele><time>2026-05-01T15:15:44Z</time></trkpt><trkpt lat="42.339318387687655" lon="19.629300864140266"><ele>703.1666666666667</ele><time>2026-05-01T15:15:45Z</time></trkpt><trkpt lat="42.33930271706034" lon="19.6291820566376"><ele>700.0</ele><time>2026-05-01T15:15:46Z</time></trkpt><trkpt lat="42.33929166382095" lon="19.629048298743758"><ele>700.0</ele><time>2026-05-01T15:15:47Z</time></trkpt><trkpt lat="42.33928467963787" lon="19.62889019426897"><ele>700.0</ele><time>2026-05-01T15:15:48Z</time></trkpt><trkpt lat="42.33929054783109" lon="19.628737441304942"><ele>700.0</ele><time>2026-05-01T15:15:49Z</time></trkpt><trkpt lat="42.33929019605207" lon="19.628587539661634"><ele>700.0</ele><time>2026-05-01T15:15:50Z</time></trkpt><trkpt lat="42.33928573416222" lon="19.628445975866395"><ele>700.0</ele><time>2026-05-01T15:15:51Z</time></trkpt><trkpt lat="42.33927945121508" lon="19.628304281456273"><ele>699.8</ele><time>2026-05-01T15:15:52Z</time></trkpt><trkpt lat="42.3392730665159" lon="19.628169153339293"><ele>699.6</ele><time>2026-05-01T15:15:53Z</time></trkpt><trkpt lat="42.339267700905665" lon="19.628041933073774"><ele>699.4000000000001</ele><time>2026-05-01T15:15:54Z</time></trkpt><trkpt lat="42.33927623352052" lon="19.62790776493105"><ele>699.2</ele><time>2026-05-01T15:15:55Z</time></trkpt><trkpt lat="42.339321023173724" lon="19.627780432426324"><ele>699.0</ele><time>2026-05-01T15:15:56Z</time></trkpt><trkpt lat="42.33935411588528" lon="19.627611462013483"><ele>697.75</ele><time>2026-05-01T15:15:57Z</time></trkpt><trkpt lat="42.33933640934629" lon="19.627440616018504"><ele>696.5</ele><time>2026-05-01T15:15:58Z</time></trkpt><trkpt lat="42.33933588307253" lon="19.627275885870503"><ele>695.25</ele><time>2026-05-01T15:15:59Z</time></trkpt><trkpt lat="42.33932931279126" lon="19.627129437722147"><ele>694.0</ele><time>2026-05-01T15:16:00Z</time></trkpt><trkpt lat="42.339312361118346" lon="19.6270012598594"><ele>694.0</ele><time>2026-05-01T15:16:01Z</time></trkpt><trkpt lat="42.33931203970071" lon="19.626868459606314"><ele>694.0</ele><time>2026-05-01T15:16:02Z</time></trkpt><trkpt lat="42.33925153163394" lon="19.6267362663516"><ele>694.0</ele><time>2026-05-01T15:16:03Z</time></trkpt><trkpt lat="42.3391717306049" lon="19.626605966254154"><ele>694.0</ele><time>2026-05-01T15:16:04Z</time></trkpt><trkpt lat="42.339097485006526" lon="19.626453936690776"><ele>694.0</ele><time>2026-05-01T15:16:05Z</time></trkpt><trkpt lat="42.33901698852178" lon="19.62627932863822"><ele>694.0</ele><time>2026-05-01T15:16:06Z</time></trkpt><trkpt lat="42.33893182057947" lon="19.62607194366263"><ele>694.0</ele><time>2026-05-01T15:16:07Z</time></trkpt><trkpt lat="42.33883750930588" lon="19.62582383776325"><ele>689.3333333333334</ele><time>2026-05-01T15:16:08Z</time></trkpt><trkpt lat="42.33872376110427" lon="19.62556812260739"><ele>684.6666666666666</ele><time>2026-05-01T15:16:09Z</time></trkpt><trkpt lat="42.338616957708524" lon="19.625326683176617"><ele>680.0</ele><time>2026-05-01T15:16:10Z</time></trkpt><trkpt lat="42.33852194691812" lon="19.625110378751597"><ele>680.0</ele><time>2026-05-01T15:16:11Z</time></trkpt><trkpt lat="42.338430112380095" lon="19.62490212233746"><ele>680.0</ele><time>2026-05-01T15:16:12Z</time></trkpt><trkpt lat="42.338363616336636" lon="19.624724433022397"><ele>680.0</ele><time>2026-05-01T15:16:13Z</time></trkpt><trkpt lat="42.33830886826223" lon="19.62455015423409"><ele>683.0</ele><time>2026-05-01T15:16:14Z</time></trkpt><trkpt lat="42.338262890225096" lon="19.624376098618264"><ele>686.0</ele><time>2026-05-01T15:16:15Z</time></trkpt><trkpt lat="42.33821799478657" lon="19.624201958093273"><ele>689.0</ele><time>2026-05-01T15:16:16Z</time></trkpt><trkpt lat="42.33817499425948" lon="19.624032381679008"><ele>692.0</ele><time>2026-05-01T15:16:17Z</time></trkpt><trkpt lat="42.33811034528302" lon="19.623883761270807"><ele>692.0</ele><time>2026-05-01T15:16:18Z</time></trkpt><trkpt lat="42.338064642589515" lon="19.62374666372289"><ele>692.0</ele><time>2026-05-01T15:16:19Z</time></trkpt><trkpt lat="42.33802837504523" lon="19.623610689653884"><ele>692.0</ele><time>2026-05-01T15:16:20Z</time></trkpt><trkpt lat="42.33798615126" lon="19.623457182332107"><ele>692.0</ele><time>2026-05-01T15:16:21Z</time></trkpt><trkpt lat="42.337958205783174" lon="19.623278059369937"><ele>688.0</ele><time>2026-05-01T15:16:22Z</time></trkpt><trkpt lat="42.337924912696" lon="19.623071759995593"><ele>684.0</ele><time>2026-05-01T15:16:23Z</time></trkpt><trkpt lat="42.33786030257613" lon="19.622882857798675"><ele>680.0</ele><time>2026-05-01T15:16:24Z</time></trkpt><trkpt lat="42.33778826148977" lon="19.622721606109497"><ele>676.0</ele><time>2026-05-01T15:16:25Z</time></trkpt><trkpt lat="42.33770125808051" lon="19.622596700165573"><ele>676.0</ele><time>2026-05-01T15:16:26Z</time></trkpt><trkpt lat="42.33762535155483" lon="19.622505092638566"><ele>676.0</ele><time>2026-05-01T15:16:27Z</time></trkpt><trkpt lat="42.3375877189974" lon="19.622397139860816"><ele>676.0</ele><time>2026-05-01T15:16:29Z</time></trkpt><trkpt lat="42.337542386708215" lon="19.622295008954477"><ele>676.0</ele><time>2026-05-01T15:16:31Z</time></trkpt><trkpt lat="42.33751373542131" lon="19.622189814670044"><ele>676.0</ele><time>2026-05-01T15:16:32Z</time></trkpt><trkpt lat="42.33746888833289" lon="19.62204928374549"><ele>677.25</ele><time>2026-05-01T15:16:33Z</time></trkpt><trkpt lat="42.337403788157225" lon="19.62189877997012"><ele>678.5</ele><time>2026-05-01T15:16:34Z</time></trkpt><trkpt lat="42.33732092664122" lon="19.621745201132004"><ele>679.75</ele><time>2026-05-01T15:16:35Z</time></trkpt><trkpt lat="42.337232447695804" lon="19.62157015193585"><ele>681.0</ele><time>2026-05-01T15:16:36Z</time></trkpt><trkpt lat="42.33715712669213" lon="19.621395628807743"><ele>677.75</ele><time>2026-05-01T15:16:37Z</time></trkpt><trkpt lat="42.337108172412684" lon="19.621229268182663"><ele>674.5</ele><time>2026-05-01T15:16:38Z</time></trkpt><trkpt lat="42.337088055582974" lon="19.621069086292"><ele>671.25</ele><time>2026-05-01T15:16:39Z</time></trkpt><trkpt lat="42.33707873435449" lon="19.620908380432653"><ele>668.0</ele><time>2026-05-01T15:16:40Z</time></trkpt><trkpt lat="42.33706721791608" lon="19.620761523900562"><ele>667.8</ele><time>2026-05-01T15:16:41Z</time></trkpt><trkpt lat="42.33702860576316" lon="19.62061570876943"><ele>667.5999999999999</ele><time>2026-05-01T15:16:42Z</time></trkpt><trkpt lat="42.33699138287108" lon="19.620486157167193"><ele>667.4000000000001</ele><time>2026-05-01T15:16:43.001Z</time></trkpt><trkpt lat="42.33695018730167" lon="19.620355809311597"><ele>667.2</ele><time>2026-05-01T15:16:44.001Z</time></trkpt><trkpt lat="42.33690183233811" lon="19.620217216339505"><ele>667.0</ele><time>2026-05-01T15:16:45.001Z</time></trkpt><trkpt lat="42.33684790539887" lon="19.620078568360388"><ele>668.0</ele><time>2026-05-01T15:16:46.001Z</time></trkpt><trkpt lat="42.33678709222843" lon="19.619941305574695"><ele>669.0</ele><time>2026-05-01T15:16:47.001Z</time></trkpt><trkpt lat="42.33672074332499" lon="19.61980776532486"><ele>670.0</ele><time>2026-05-01T15:16:48.001Z</time></trkpt><trkpt lat="42.33662745322527" lon="19.619699963329957"><ele>671.0</ele><time>2026-05-01T15:16:49.001Z</time></trkpt><trkpt lat="42.33654707459198" lon="19.619578736914452"><ele>668.75</ele><time>2026-05-01T15:16:50.001Z</time></trkpt><trkpt lat="42.336462834437356" lon="19.61945180722743"><ele>666.5</ele><time>2026-05-01T15:16:51.001Z</time></trkpt><trkpt lat="42.33639018853532" lon="19.619305513749595"><ele>664.25</ele><time>2026-05-01T15:16:52.001Z</time></trkpt><trkpt lat="42.33632307355556" lon="19.61914430390093"><ele>662.0</ele><time>2026-05-01T15:16:53.001Z</time></trkpt><trkpt lat="42.33627193772714" lon="19.618973938690495"><ele>662.0</ele><time>2026-05-01T15:16:54.001Z</time></trkpt><trkpt lat="42.33623349880048" lon="19.618784697872712"><ele>662.0</ele><time>2026-05-01T15:16:55.001Z</time></trkpt><trkpt lat="42.336155439378395" lon="19.618590115299043"><ele>662.0</ele><time>2026-05-01T15:16:56.001Z</time></trkpt><trkpt lat="42.336110648070296" lon="19.618360089046078"><ele>662.75</ele><time>2026-05-01T15:16:57.001Z</time></trkpt><trkpt lat="42.336030074848956" lon="19.618282752265458"><ele>663.5</ele><time>2026-05-01T15:16:58.001Z</time></trkpt><trkpt lat="42.33601562431103" lon="19.61805521013241"><ele>664.25</ele><time>2026-05-01T15:16:59.001Z</time></trkpt><trkpt lat="42.33599688809514" lon="19.617816649854184"><ele>665.0</ele><time>2026-05-01T15:17:00.001Z</time></trkpt><trkpt lat="42.33593504522323" lon="19.617593673701432"><ele>666.0</ele><time>2026-05-01T15:17:01.001Z</time></trkpt><trkpt lat="42.33588804691603" lon="19.617374316764185"><ele>667.0</ele><time>2026-05-01T15:17:02.001Z</time></trkpt><trkpt lat="42.335833039400576" lon="19.61715748116752"><ele>668.0</ele><time>2026-05-01T15:17:03.001Z</time></trkpt><trkpt lat="42.33579910699738" lon="19.616924993368293"><ele>669.3333333333333</ele><time>2026-05-01T15:17:04.001Z</time></trkpt><trkpt lat="42.33572435030796" lon="19.616704996450338"><ele>670.6666666666666</ele><time>2026-05-01T15:17:05.001Z</time></trkpt><trkpt lat="42.33565721509204" lon="19.616479138876112"><ele>672.0</ele><time>2026-05-01T15:17:06.001Z</time></trkpt><trkpt lat="42.335599285328264" lon="19.61624634107388"><ele>666.0</ele><time>2026-05-01T15:17:07Z</time></trkpt><trkpt lat="42.33554612490375" lon="19.616018344916597"><ele>660.0</ele><time>2026-05-01T15:17:08Z</time></trkpt><trkpt lat="42.335507008045624" lon="19.61578241095584"><ele>654.0</ele><time>2026-05-01T15:17:09Z</time></trkpt><trkpt lat="42.335466177244335" lon="19.615535763291405"><ele>656.3333333333334</ele><time>2026-05-01T15:17:10Z</time></trkpt><trkpt lat="42.33540711767042" lon="19.615301041711863"><ele>658.6666666666667</ele><time>2026-05-01T15:17:11Z</time></trkpt><trkpt lat="42.33536283657867" lon="19.615060121851425"><ele>661.0</ele><time>2026-05-01T15:17:12Z</time></trkpt><trkpt lat="42.33530132187189" lon="19.614837305745997"><ele>661.0</ele><time>2026-05-01T15:17:13Z</time></trkpt><trkpt lat="42.335242858544255" lon="19.61464367874198"><ele>661.0</ele><time>2026-05-01T15:17:14Z</time></trkpt><trkpt lat="42.33518195817384" lon="19.61446296609844"><ele>661.0</ele><time>2026-05-01T15:17:15Z</time></trkpt><trkpt lat="42.335167637325604" lon="19.61428935589312"><ele>661.0</ele><time>2026-05-01T15:17:16Z</time></trkpt><trkpt lat="42.33515589114214" lon="19.614110517127234"><ele>662.75</ele><time>2026-05-01T15:17:17Z</time></trkpt><trkpt lat="42.33514745254801" lon="19.613918209186618"><ele>664.5</ele><time>2026-05-01T15:17:18Z</time></trkpt><trkpt lat="42.33514442730501" lon="19.613748347897094"><ele>666.25</ele><time>2026-05-01T15:17:19Z</time></trkpt><trkpt lat="42.335120403918005" lon="19.613604377665347"><ele>668.0</ele><time>2026-05-01T15:17:20Z</time></trkpt><trkpt lat="42.33508050008825" lon="19.613449848432506"><ele>669.0</ele><time>2026-05-01T15:17:21Z</time></trkpt><trkpt lat="42.33501480904888" lon="19.613300998257092"><ele>670.0</ele><time>2026-05-01T15:17:22Z</time></trkpt><trkpt lat="42.33493089308008" lon="19.61314707836688"><ele>671.0</ele><time>2026-05-01T15:17:23Z</time></trkpt><trkpt lat="42.33483325523917" lon="19.61300154363509"><ele>672.0</ele><time>2026-05-01T15:17:24Z</time></trkpt><trkpt lat="42.334729771013485" lon="19.612858399815725"><ele>670.2</ele><time>2026-05-01T15:17:25Z</time></trkpt><trkpt lat="42.33466450093632" lon="19.612716676417534"><ele>668.4000000000001</ele><time>2026-05-01T15:17:26Z</time></trkpt><trkpt lat="42.33462607340544" lon="19.612593854781533"><ele>666.5999999999999</ele><time>2026-05-01T15:17:27Z</time></trkpt><trkpt lat="42.33462970650114" lon="19.612451518223384"><ele>664.8</ele><time>2026-05-01T15:17:28Z</time></trkpt><trkpt lat="42.33460442339211" lon="19.612336205884056"><ele>663.0</ele><time>2026-05-01T15:17:29Z</time></trkpt><trkpt lat="42.33454401016884" lon="19.612215691054345"><ele>663.0</ele><time>2026-05-01T15:17:30Z</time></trkpt><trkpt lat="42.33448451062161" lon="19.612090062588344"><ele>663.0</ele><time>2026-05-01T15:17:31Z</time></trkpt><trkpt lat="42.334369682411115" lon="19.611994379252945"><ele>663.0</ele><time>2026-05-01T15:17:32Z</time></trkpt><trkpt lat="42.334292820882006" lon="19.611846676766117"><ele>663.0</ele><time>2026-05-01T15:17:33Z</time></trkpt><trkpt lat="42.33420889924257" lon="19.611693084549913"><ele>665.0</ele><time>2026-05-01T15:17:34Z</time></trkpt><trkpt lat="42.33412960930576" lon="19.61153801420464"><ele>667.0</ele><time>2026-05-01T15:17:35Z</time></trkpt><trkpt lat="42.334062786400466" lon="19.611378813304025"><ele>669.0</ele><time>2026-05-01T15:17:36Z</time></trkpt><trkpt lat="42.33400665255661" lon="19.61120747915939"><ele>671.0</ele><time>2026-05-01T15:17:37Z</time></trkpt><trkpt lat="42.333957488402405" lon="19.61101854599183"><ele>673.3333333333333</ele><time>2026-05-01T15:17:38Z</time></trkpt><trkpt lat="42.333909708044445" lon="19.610818999041953"><ele>675.6666666666666</ele><time>2026-05-01T15:17:39Z</time></trkpt><trkpt lat="42.33386078771981" lon="19.61061634428098"><ele>678.0</ele><time>2026-05-01T15:17:40Z</time></trkpt><trkpt lat="42.33379144975129" lon="19.61042495108867"><ele>673.75</ele><time>2026-05-01T15:17:41Z</time></trkpt><trkpt lat="42.33371436902208" lon="19.610241278318632"><ele>669.5</ele><time>2026-05-01T15:17:42Z</time></trkpt><trkpt lat="42.333628961654945" lon="19.610071183479164"><ele>665.25</ele><time>2026-05-01T15:17:43Z</time></trkpt><trkpt lat="42.33355441896263" lon="19.609920011391285"><ele>661.0</ele><time>2026-05-01T15:17:44Z</time></trkpt><trkpt lat="42.33349446308285" lon="19.60977702363527"><ele>661.0</ele><time>2026-05-01T15:17:45Z</time></trkpt><trkpt lat="42.33343915805391" lon="19.60961014702527"><ele>661.0</ele><time>2026-05-01T15:17:46Z</time></trkpt><trkpt lat="42.33338202212149" lon="19.60942642287342"><ele>661.0</ele><time>2026-05-01T15:17:47Z</time></trkpt><trkpt lat="42.33331791166343" lon="19.609249426995238"><ele>661.0</ele><time>2026-05-01T15:17:48Z</time></trkpt><trkpt lat="42.333245613558915" lon="19.609098386615894"><ele>662.25</ele><time>2026-05-01T15:17:49Z</time></trkpt><trkpt lat="42.3331840436238" lon="19.608939033485658"><ele>663.5</ele><time>2026-05-01T15:17:50Z</time></trkpt><trkpt lat="42.33311679295903" lon="19.608793985151863"><ele>664.75</ele><time>2026-05-01T15:17:51Z</time></trkpt><trkpt lat="42.3330280105994" lon="19.608655735416296"><ele>666.0</ele><time>2026-05-01T15:17:52Z</time></trkpt><trkpt lat="42.33291641516444" lon="19.60851442932535"><ele>666.0</ele><time>2026-05-01T15:17:53Z</time></trkpt><trkpt lat="42.3327969891166" lon="19.60836936522189"><ele>666.0</ele><time>2026-05-01T15:17:54Z</time></trkpt><trkpt lat="42.332698993040644" lon="19.608219239978123"><ele>666.0</ele><time>2026-05-01T15:17:55Z</time></trkpt><trkpt lat="42.33259027682457" lon="19.60812594096401"><ele>666.0</ele><time>2026-05-01T15:17:56Z</time></trkpt><trkpt lat="42.332496090335724" lon="19.60803035609238"><ele>666.0</ele><time>2026-05-01T15:17:57Z</time></trkpt><trkpt lat="42.33237985582618" lon="19.607953705185505"><ele>666.0</ele><time>2026-05-01T15:17:58Z</time></trkpt><trkpt lat="42.33224595063729" lon="19.607888545096085"><ele>666.0</ele><time>2026-05-01T15:17:59Z</time></trkpt><trkpt lat="42.33212847272956" lon="19.60779845661202"><ele>666.0</ele><time>2026-05-01T15:18:00Z</time></trkpt><trkpt lat="42.33201924594744" lon="19.607701100395648"><ele>662.0</ele><time>2026-05-01T15:18:01Z</time></trkpt><trkpt lat="42.33190215463633" lon="19.607577416374422"><ele>658.0</ele><time>2026-05-01T15:18:02Z</time></trkpt><trkpt lat="42.33177086403177" lon="19.607446290771446"><ele>654.0</ele><time>2026-05-01T15:18:03Z</time></trkpt><trkpt lat="42.33164392810446" lon="19.60732583650106"><ele>654.0</ele><time>2026-05-01T15:18:04Z</time></trkpt><trkpt lat="42.33152803495281" lon="19.60721630122435"><ele>654.0</ele><time>2026-05-01T15:18:05Z</time></trkpt><trkpt lat="42.33141753635674" lon="19.607088190711064"><ele>654.0</ele><time>2026-05-01T15:18:06Z</time></trkpt><trkpt lat="42.33130288839038" lon="19.606946650880943"><ele>654.0</ele><time>2026-05-01T15:18:07Z</time></trkpt><trkpt lat="42.3311935123305" lon="19.60679564447951"><ele>652.25</ele><time>2026-05-01T15:18:08Z</time></trkpt><trkpt lat="42.33110328710951" lon="19.60665877787932"><ele>650.5</ele><time>2026-05-01T15:18:09Z</time></trkpt><trkpt lat="42.33102563041105" lon="19.606514652589333"><ele>648.75</ele><time>2026-05-01T15:18:10Z</time></trkpt><trkpt lat="42.330955883707254" lon="19.606346582597315"><ele>647.0</ele><time>2026-05-01T15:18:11Z</time></trkpt><trkpt lat="42.33088100865364" lon="19.60615356879782"><ele>653.6666666666666</ele><time>2026-05-01T15:18:12Z</time></trkpt><trkpt lat="42.330802626756444" lon="19.605951006354097"><ele>660.3333333333334</ele><time>2026-05-01T15:18:13Z</time></trkpt><trkpt lat="42.330724636907156" lon="19.605754827301308"><ele>667.0</ele><time>2026-05-01T15:18:14Z</time></trkpt><trkpt lat="42.33065423089527" lon="19.605574493926415"><ele>667.0</ele><time>2026-05-01T15:18:15Z</time></trkpt><trkpt lat="42.33059569647108" lon="19.605418001413376"><ele>667.0</ele><time>2026-05-01T15:18:16Z</time></trkpt><trkpt lat="42.330552679772865" lon="19.605256861560168"><ele>667.0</ele><time>2026-05-01T15:18:17Z</time></trkpt><trkpt lat="42.33054020240732" lon="19.60507378534121"><ele>667.0</ele><time>2026-05-01T15:18:18Z</time></trkpt><trkpt lat="42.33051728013547" lon="19.60487067120414"><ele>661.3333333333334</ele><time>2026-05-01T15:18:19Z</time></trkpt><trkpt lat="42.3304945713752" lon="19.604656072458027"><ele>655.6666666666666</ele><time>2026-05-01T15:18:20Z</time></trkpt><trkpt lat="42.33047028063519" lon="19.604432961335014"><ele>650.0</ele><time>2026-05-01T15:18:21Z</time></trkpt><trkpt lat="42.33044589650731" lon="19.604207738297934"><ele>650.0</ele><time>2026-05-01T15:18:22Z</time></trkpt><trkpt lat="42.330425269354954" lon="19.60400291214722"><ele>650.0</ele><time>2026-05-01T15:18:23Z</time></trkpt><trkpt lat="42.33041172553826" lon="19.603837256420512"><ele>650.0</ele><time>2026-05-01T15:18:24Z</time></trkpt><trkpt lat="42.33039911296675" lon="19.60367544155485"><ele>650.0</ele><time>2026-05-01T15:18:25Z</time></trkpt><trkpt lat="42.330383298073144" lon="19.60350588596559"><ele>650.0</ele><time>2026-05-01T15:18:26Z</time></trkpt><trkpt lat="42.33036513530985" lon="19.603321059124557"><ele>650.0</ele><time>2026-05-01T15:18:27Z</time></trkpt><trkpt lat="42.330341454273885" lon="19.60312306777119"><ele>650.0</ele><time>2026-05-01T15:18:28Z</time></trkpt><trkpt lat="42.33031767000018" lon="19.602937826679128"><ele>650.0</ele><time>2026-05-01T15:18:29Z</time></trkpt><trkpt lat="42.33029407911128" lon="19.602760360695072"><ele>648.8</ele><time>2026-05-01T15:18:30Z</time></trkpt><trkpt lat="42.33029509944872" lon="19.602616227103113"><ele>647.6</ele><time>2026-05-01T15:18:31Z</time></trkpt><trkpt lat="42.33031351667773" lon="19.602481221213157"><ele>646.4000000000001</ele><time>2026-05-01T15:18:32Z</time></trkpt><trkpt lat="42.330348618810284" lon="19.602349773264752"><ele>645.2</ele><time>2026-05-01T15:18:33Z</time></trkpt><trkpt lat="42.330403138254" lon="19.602245120049343"><ele>644.0</ele><time>2026-05-01T15:18:34Z</time></trkpt><trkpt lat="42.33047906075414" lon="19.602211358640037"><ele>644.0</ele><time>2026-05-01T15:18:35Z</time></trkpt><trkpt lat="42.33055227161927" lon="19.602152020512754"><ele>644.0</ele><time>2026-05-01T15:18:36Z</time></trkpt><trkpt lat="42.33062213478109" lon="19.602096912370943"><ele>644.0</ele><time>2026-05-01T15:18:37Z</time></trkpt><trkpt lat="42.33066063614523" lon="19.601990812224173"><ele>644.0</ele><time>2026-05-01T15:18:38Z</time></trkpt><trkpt lat="42.33068126713515" lon="19.60187069282182"><ele>644.0</ele><time>2026-05-01T15:18:39Z</time></trkpt><trkpt lat="42.3306538012639" lon="19.60173648586543"><ele>644.0</ele><time>2026-05-01T15:18:40Z</time></trkpt><trkpt lat="42.33057078938867" lon="19.60162023811446"><ele>643.25</ele><time>2026-05-01T15:18:41Z</time></trkpt><trkpt lat="42.330488800810905" lon="19.601505129003325"><ele>642.5</ele><time>2026-05-01T15:18:42Z</time></trkpt><trkpt lat="42.33038964295063" lon="19.60138061023918"><ele>641.75</ele><time>2026-05-01T15:18:43Z</time></trkpt><trkpt lat="42.33030441548208" lon="19.60127439379675"><ele>641.0</ele><time>2026-05-01T15:18:44Z</time></trkpt><trkpt lat="42.33023921322401" lon="19.601186130090753"><ele>641.1666666666666</ele><time>2026-05-01T15:18:45Z</time></trkpt><trkpt lat="42.33018653963652" lon="19.601115236896888"><ele>641.3333333333333</ele><time>2026-05-01T15:18:46Z</time></trkpt><trkpt lat="42.33009700210706" lon="19.60101932815361"><ele>641.5</ele><time>2026-05-01T15:18:48Z</time></trkpt><trkpt lat="42.33006008203433" lon="19.600945036931368"><ele>641.6666666666666</ele><time>2026-05-01T15:18:49.001Z</time></trkpt><trkpt lat="42.32998237194924" lon="19.60085364803424"><ele>641.8333333333334</ele><time>2026-05-01T15:18:51.001Z</time></trkpt><trkpt lat="42.32996329917212" lon="19.600739644448602"><ele>642.0</ele><time>2026-05-01T15:18:53.001Z</time></trkpt><trkpt lat="42.330244902741576" lon="19.60059537509977"><ele>642.0</ele><time>2026-05-01T15:19:04.001Z</time></trkpt><trkpt lat="42.33026962525889" lon="19.600497729154885"><ele>642.0</ele><time>2026-05-01T15:19:05.001Z</time></trkpt><trkpt lat="42.330314418273794" lon="19.600394714406004"><ele>642.0</ele><time>2026-05-01T15:19:06Z</time></trkpt><trkpt lat="42.33031921230179" lon="19.600288265154717"><ele>642.0</ele><time>2026-05-01T15:19:07Z</time></trkpt><trkpt lat="42.330357147198306" lon="19.600216371478872"><ele>642.0</ele><time>2026-05-01T15:19:08Z</time></trkpt><trkpt lat="42.330387629597574" lon="19.600117614459293"><ele>642.0</ele><time>2026-05-01T15:19:09Z</time></trkpt><trkpt lat="42.33041825385399" lon="19.59999697248824"><ele>642.0</ele><time>2026-05-01T15:19:10Z</time></trkpt><trkpt lat="42.3304545217405" lon="19.59986205379487"><ele>642.0</ele><time>2026-05-01T15:19:11Z</time></trkpt><trkpt lat="42.330446955914105" lon="19.599740534718958"><ele>642.0</ele><time>2026-05-01T15:19:12Z</time></trkpt><trkpt lat="42.33045985955013" lon="19.599627535593715"><ele>642.0</ele><time>2026-05-01T15:19:13Z</time></trkpt><trkpt lat="42.3304659729759" lon="19.599494456806266"><ele>642.0</ele><time>2026-05-01T15:19:14Z</time></trkpt><trkpt lat="42.33046500606026" lon="19.59935945533356"><ele>642.6</ele><time>2026-05-01T15:19:15Z</time></trkpt><trkpt lat="42.330456897304444" lon="19.599221538571488"><ele>643.2</ele><time>2026-05-01T15:19:16Z</time></trkpt><trkpt lat="42.330449983083724" lon="19.59908239976069"><ele>643.8</ele><time>2026-05-01T15:19:17Z</time></trkpt><trkpt lat="42.33048618842349" lon="19.598949665007837"><ele>644.4</ele><time>2026-05-01T15:19:18Z</time></trkpt><trkpt lat="42.33049396133113" lon="19.598816780593012"><ele>645.0</ele><time>2026-05-01T15:19:19Z</time></trkpt><trkpt lat="42.330496884556545" lon="19.5986932735862"><ele>646.3333333333334</ele><time>2026-05-01T15:19:20Z</time></trkpt><trkpt lat="42.33047316656182" lon="19.59859174569942"><ele>647.6666666666666</ele><time>2026-05-01T15:19:21Z</time></trkpt><trkpt lat="42.33048394278412" lon="19.598490072365614"><ele>649.0</ele><time>2026-05-01T15:19:22Z</time></trkpt><trkpt lat="42.33044715383774" lon="19.59838413932498"><ele>650.3333333333333</ele><time>2026-05-01T15:19:23Z</time></trkpt><trkpt lat="42.330416622033724" lon="19.598298731671036"><ele>651.6666666666666</ele><time>2026-05-01T15:19:24Z</time></trkpt><trkpt lat="42.33037057981694" lon="19.598217543924342"><ele>653.0</ele><time>2026-05-01T15:19:25Z</time></trkpt><trkpt lat="42.330306921723434" lon="19.59815020299935"><ele>653.0</ele><time>2026-05-01T15:19:26Z</time></trkpt><trkpt lat="42.330244769098165" lon="19.59809251416858"><ele>653.0</ele><time>2026-05-01T15:19:27Z</time></trkpt><trkpt lat="42.330194476165445" lon="19.598036815101082"><ele>653.0</ele><time>2026-05-01T15:19:28Z</time></trkpt><trkpt lat="42.33014869342089" lon="19.597958134044646"><ele>653.0</ele><time>2026-05-01T15:19:29Z</time></trkpt><trkpt lat="42.33011171082609" lon="19.597854991153973"><ele>653.0</ele><time>2026-05-01T15:19:30Z</time></trkpt><trkpt lat="42.330083120882776" lon="19.59774907674236"><ele>653.0</ele><time>2026-05-01T15:19:31Z</time></trkpt><trkpt lat="42.330092495456796" lon="19.597638909259118"><ele>655.0</ele><time>2026-05-01T15:19:32Z</time></trkpt><trkpt lat="42.330079969562796" lon="19.597491520511888"><ele>657.0</ele><time>2026-05-01T15:19:34Z</time></trkpt><trkpt lat="42.330072445530206" lon="19.597384741950933"><ele>659.0</ele><time>2026-05-01T15:19:35Z</time></trkpt><trkpt lat="42.33006542449375" lon="19.59727063637191"><ele>661.0</ele><time>2026-05-01T15:19:36Z</time></trkpt><trkpt lat="42.33004141954775" lon="19.59713922041592"><ele>663.0</ele><time>2026-05-01T15:19:37Z</time></trkpt><trkpt lat="42.3300240444447" lon="19.597020543473135"><ele>665.1666666666666</ele><time>2026-05-01T15:19:38Z</time></trkpt><trkpt lat="42.32999928099489" lon="19.59691466269565"><ele>667.3333333333334</ele><time>2026-05-01T15:19:39Z</time></trkpt><trkpt lat="42.32998470180462" lon="19.596804099151676"><ele>669.5</ele><time>2026-05-01T15:19:40Z</time></trkpt><trkpt lat="42.329921860809016" lon="19.596722580286333"><ele>671.6666666666667</ele><time>2026-05-01T15:19:41Z</time></trkpt><trkpt lat="42.32987452761453" lon="19.596639120481505"><ele>673.8333333333334</ele><time>2026-05-01T15:19:42Z</time></trkpt><trkpt lat="42.32984283635831" lon="19.596516492999438"><ele>676.0</ele><time>2026-05-01T15:19:43Z</time></trkpt><trkpt lat="42.3298147891344" lon="19.59642144676132"><ele>676.0</ele><time>2026-05-01T15:19:44Z</time></trkpt><trkpt lat="42.32978271257766" lon="19.59631659139417"><ele>676.0</ele><time>2026-05-01T15:19:45Z</time></trkpt><trkpt lat="42.32974226223433" lon="19.59618617175776"><ele>676.0</ele><time>2026-05-01T15:19:46Z</time></trkpt><trkpt lat="42.32968955507499" lon="19.59605293673091"><ele>676.0</ele><time>2026-05-01T15:19:47Z</time></trkpt><trkpt lat="42.32965663114528" lon="19.595945851988727"><ele>676.0</ele><time>2026-05-01T15:19:48Z</time></trkpt><trkpt lat="42.32961780747318" lon="19.59587548471539"><ele>676.1666666666667</ele><time>2026-05-01T15:19:49Z</time></trkpt><trkpt lat="42.32956145874265" lon="19.59581540730631"><ele>676.3333333333334</ele><time>2026-05-01T15:19:50Z</time></trkpt><trkpt lat="42.32950871897276" lon="19.595732723472782"><ele>676.5</ele><time>2026-05-01T15:19:51Z</time></trkpt><trkpt lat="42.32945517568284" lon="19.595647033375684"><ele>676.6666666666666</ele><time>2026-05-01T15:19:52Z</time></trkpt><trkpt lat="42.32939987568789" lon="19.59554887567224"><ele>676.8333333333333</ele><time>2026-05-01T15:19:53Z</time></trkpt><trkpt lat="42.329358369694006" lon="19.595455463081688"><ele>677.0</ele><time>2026-05-01T15:19:54Z</time></trkpt><trkpt lat="42.32932768516578" lon="19.59532895355094"><ele>677.0</ele><time>2026-05-01T15:19:56Z</time></trkpt><trkpt lat="42.32931377528268" lon="19.59520297899829"><ele>677.0</ele><time>2026-05-01T15:19:58Z</time></trkpt><trkpt lat="42.32928518360592" lon="19.59509831611566"><ele>677.0</ele><time>2026-05-01T15:20:01Z</time></trkpt><trkpt lat="42.32929507354094" lon="19.595207210592697"><ele>677.0</ele><time>2026-05-01T15:21:15Z</time></trkpt><trkpt lat="42.329344557614924" lon="19.59526040171962"><ele>677.0</ele><time>2026-05-01T15:21:17Z</time></trkpt><trkpt lat="42.32933755431226" lon="19.59537123825834"><ele>677.0</ele><time>2026-05-01T15:21:20Z</time></trkpt><trkpt lat="42.329359361369406" lon="19.59545766131703"><ele>675.4000000000001</ele><time>2026-05-01T15:21:22Z</time></trkpt><trkpt lat="42.32940188602625" lon="19.595549830660133"><ele>673.8000000000001</ele><time>2026-05-01T15:21:24Z</time></trkpt><trkpt lat="42.32945213836919" lon="19.595641887144584"><ele>672.2</ele><time>2026-05-01T15:21:26Z</time></trkpt><trkpt lat="42.32952986880176" lon="19.59576071187216"><ele>670.6</ele><time>2026-05-01T15:21:28Z</time></trkpt><trkpt lat="42.32959674969834" lon="19.59587020457392"><ele>669.0</ele><time>2026-05-01T15:21:30Z</time></trkpt><trkpt lat="42.32966450712845" lon="19.595952631538676"><ele>669.0</ele><time>2026-05-01T15:21:32Z</time></trkpt><trkpt lat="42.329708873294074" lon="19.596060570310158"><ele>669.0</ele><time>2026-05-01T15:21:34Z</time></trkpt><trkpt lat="42.32974219647298" lon="19.596194390437898"><ele>669.0</ele><time>2026-05-01T15:21:36Z</time></trkpt><trkpt lat="42.329778862970805" lon="19.596329001349055"><ele>669.0</ele><time>2026-05-01T15:21:38Z</time></trkpt><trkpt lat="42.32980830836214" lon="19.59642601086114"><ele>669.0</ele><time>2026-05-01T15:21:40Z</time></trkpt><trkpt lat="42.32986231266732" lon="19.596573689837278"><ele>667.8000000000001</ele><time>2026-05-01T15:21:42Z</time></trkpt><trkpt lat="42.32992615152795" lon="19.59671596738906"><ele>666.6</ele><time>2026-05-01T15:21:44Z</time></trkpt><trkpt lat="42.32997236812061" lon="19.596832199113454"><ele>665.4</ele><time>2026-05-01T15:21:46Z</time></trkpt><trkpt lat="42.330019158594475" lon="19.59695354997215"><ele>664.2</ele><time>2026-05-01T15:21:48Z</time></trkpt><trkpt lat="42.33003480396886" lon="19.597051171908827"><ele>663.0</ele><time>2026-05-01T15:21:49Z</time></trkpt><trkpt lat="42.33010898506455" lon="19.597093982035105"><ele>663.0</ele><time>2026-05-01T15:21:50Z</time></trkpt><trkpt lat="42.33005641103039" lon="19.597248674958404"><ele>663.0</ele><time>2026-05-01T15:21:51Z</time></trkpt><trkpt lat="42.330052060846555" lon="19.59738595516444"><ele>663.0</ele><time>2026-05-01T15:21:53Z</time></trkpt><trkpt lat="42.33005347758091" lon="19.597543609748033"><ele>663.0</ele><time>2026-05-01T15:21:55Z</time></trkpt><trkpt lat="42.3300716354273" lon="19.59763907116101"><ele>663.0</ele><time>2026-05-01T15:21:56Z</time></trkpt><trkpt lat="42.330070930232914" lon="19.5977296497761"><ele>661.3333333333334</ele><time>2026-05-01T15:21:57Z</time></trkpt><trkpt lat="42.33009090921776" lon="19.59785964820876"><ele>659.6666666666666</ele><time>2026-05-01T15:21:59Z</time></trkpt><trkpt lat="42.33012194795517" lon="19.597992845740574"><ele>658.0</ele><time>2026-05-01T15:22:01Z</time></trkpt><trkpt lat="42.330168067907266" lon="19.598071676318956"><ele>656.3333333333333</ele><time>2026-05-01T15:22:02Z</time></trkpt><trkpt lat="42.3302273918834" lon="19.598136213297398"><ele>654.6666666666666</ele><time>2026-05-01T15:22:03Z</time></trkpt><trkpt lat="42.33028705440436" lon="19.59821335813002"><ele>653.0</ele><time>2026-05-01T15:22:04Z</time></trkpt><trkpt lat="42.330332918589654" lon="19.598281795544988"><ele>653.0</ele><time>2026-05-01T15:22:05Z</time></trkpt><trkpt lat="42.33039477259102" lon="19.598374092886168"><ele>653.0</ele><time>2026-05-01T15:22:07Z</time></trkpt><trkpt lat="42.33042900396674" lon="19.598456716097427"><ele>653.0</ele><time>2026-05-01T15:22:09Z</time></trkpt><trkpt lat="42.33045109320917" lon="19.598560624488243"><ele>653.0</ele><time>2026-05-01T15:22:11Z</time></trkpt><trkpt lat="42.33046202728914" lon="19.598684234229424"><ele>653.0</ele><time>2026-05-01T15:22:13Z</time></trkpt><trkpt lat="42.33046116266792" lon="19.598794630119112"><ele>653.0</ele><time>2026-05-01T15:22:15Z</time></trkpt><trkpt lat="42.330451752514534" lon="19.598959225206645"><ele>651.6666666666666</ele><time>2026-05-01T15:22:17Z</time></trkpt><trkpt lat="42.33044185998301" lon="19.599066151115085"><ele>650.3333333333333</ele><time>2026-05-01T15:22:18Z</time></trkpt><trkpt lat="42.33043327335404" lon="19.5991574916988"><ele>649.0</ele><time>2026-05-01T15:22:19Z</time></trkpt><trkpt lat="42.33042545442844" lon="19.599244311037584"><ele>647.6666666666666</ele><time>2026-05-01T15:22:20Z</time></trkpt><trkpt lat="42.33045582881766" lon="19.599361343451964"><ele>646.3333333333334</ele><time>2026-05-01T15:22:21Z</time></trkpt><trkpt lat="42.330442645209736" lon="19.599493937834314"><ele>645.0</ele><time>2026-05-01T15:22:22Z</time></trkpt><trkpt lat="42.33043519603112" lon="19.59961771254444"><ele>644.4</ele><time>2026-05-01T15:22:23Z</time></trkpt><trkpt lat="42.33042792281527" lon="19.59974379585524"><ele>643.8</ele><time>2026-05-01T15:22:24Z</time></trkpt><trkpt lat="42.33043608784356" lon="19.59988281402522"><ele>643.2</ele><time>2026-05-01T15:22:25Z</time></trkpt><trkpt lat="42.330414886080206" lon="19.60002709452746"><ele>642.6</ele><time>2026-05-01T15:22:26Z</time></trkpt><trkpt lat="42.33039312235556" lon="19.60014505300645"><ele>642.0</ele><time>2026-05-01T15:22:27Z</time></trkpt><trkpt lat="42.330360360857505" lon="19.600243609607027"><ele>642.0</ele><time>2026-05-01T15:22:28Z</time></trkpt><trkpt lat="42.33031221784218" lon="19.600320785331476"><ele>642.0</ele><time>2026-05-01T15:22:29Z</time></trkpt><trkpt lat="42.33024917260909" lon="19.600392481756646"><ele>642.0</ele><time>2026-05-01T15:22:30Z</time></trkpt><trkpt lat="42.33022205998639" lon="19.60049993135721"><ele>642.0</ele><time>2026-05-01T15:22:31Z</time></trkpt><trkpt lat="42.330207826490955" lon="19.600615865552218"><ele>642.0</ele><time>2026-05-01T15:22:32Z</time></trkpt><trkpt lat="42.33017700159529" lon="19.600704977017596"><ele>642.0</ele><time>2026-05-01T15:22:33Z</time></trkpt><trkpt lat="42.330125601679775" lon="19.60081026891866"><ele>642.0</ele><time>2026-05-01T15:22:34Z</time></trkpt><trkpt lat="42.33007264325055" lon="19.600892939634967"><ele>642.0</ele><time>2026-05-01T15:22:36Z</time></trkpt><trkpt lat="42.33003078245984" lon="19.6009582096412"><ele>642.0</ele><time>2026-05-01T15:22:39Z</time></trkpt><trkpt lat="42.329877897246355" lon="19.600716794799975"><ele>642.0</ele><time>2026-05-01T15:22:40Z</time></trkpt><trkpt lat="42.329824029779466" lon="19.600648619402506"><ele>642.0</ele><time>2026-05-01T15:22:41Z</time></trkpt><trkpt lat="42.32977566198683" lon="19.60058716146488"><ele>642.0</ele><time>2026-05-01T15:22:42Z</time></trkpt><trkpt lat="42.32970744402291" lon="19.600529826630254"><ele>642.0</ele><time>2026-05-01T15:22:43Z</time></trkpt><trkpt lat="42.3296312366917" lon="19.60042955710233"><ele>642.0</ele><time>2026-05-01T15:22:44Z</time></trkpt><trkpt lat="42.32954027084692" lon="19.600318210229048"><ele>642.0</ele><time>2026-05-01T15:22:45Z</time></trkpt><trkpt lat="42.32945653617917" lon="19.600182611637116"><ele>638.3333333333334</ele><time>2026-05-01T15:22:46Z</time></trkpt><trkpt lat="42.32936047684405" lon="19.600048309861474"><ele>634.6666666666667</ele><time>2026-05-01T15:22:47Z</time></trkpt><trkpt lat="42.32924365910291" lon="19.599888944261615"><ele>631.0</ele><time>2026-05-01T15:22:48Z</time></trkpt><trkpt lat="42.3291360120719" lon="19.599739496218774"><ele>631.0</ele><time>2026-05-01T15:22:48.999Z</time></trkpt><trkpt lat="42.32904623990346" lon="19.59961460378759"><ele>631.0</ele><time>2026-05-01T15:22:49.999Z</time></trkpt><trkpt lat="42.32896472550632" lon="19.599499253387297"><ele>631.0</ele><time>2026-05-01T15:22:50.999Z</time></trkpt><trkpt lat="42.328893333093426" lon="19.59939856458727"><ele>631.0</ele><time>2026-05-01T15:22:51.999Z</time></trkpt><trkpt lat="42.32882643276982" lon="19.599304609862454"><ele>631.0</ele><time>2026-05-01T15:22:52.999Z</time></trkpt><trkpt lat="42.32876055674839" lon="19.599212093741826"><ele>630.8</ele><time>2026-05-01T15:22:53.999Z</time></trkpt><trkpt lat="42.32869678898779" lon="19.599122538516784"><ele>630.6</ele><time>2026-05-01T15:22:54.999Z</time></trkpt><trkpt lat="42.328627281616626" lon="19.59902607718056"><ele>630.4</ele><time>2026-05-01T15:22:55.999Z</time></trkpt><trkpt lat="42.328554823260525" lon="19.598924092367092"><ele>630.2</ele><time>2026-05-01T15:22:56.999Z</time></trkpt><trkpt lat="42.32848750417043" lon="19.598829981473642"><ele>630.0</ele><time>2026-05-01T15:22:57.999Z</time></trkpt><trkpt lat="42.32842693027423" lon="19.598745300186536"><ele>629.8333333333334</ele><time>2026-05-01T15:22:58.999Z</time></trkpt><trkpt lat="42.32836456522039" lon="19.598664576196708"><ele>629.6666666666666</ele><time>2026-05-01T15:23:00Z</time></trkpt><trkpt lat="42.32829954794868" lon="19.598578222838896"><ele>629.5</ele><time>2026-05-01T15:23:01Z</time></trkpt><trkpt lat="42.32822502097117" lon="19.598495655309968"><ele>629.3333333333333</ele><time>2026-05-01T15:23:02Z</time></trkpt><trkpt lat="42.32815024195889" lon="19.598439014733625"><ele>629.1666666666666</ele><time>2026-05-01T15:23:03Z</time></trkpt><trkpt lat="42.32808969908604" lon="19.598368188378352"><ele>629.0</ele><time>2026-05-01T15:23:04Z</time></trkpt><trkpt lat="42.32802548753993" lon="19.598295906564505"><ele>629.0</ele><time>2026-05-01T15:23:05Z</time></trkpt><trkpt lat="42.32796467457707" lon="19.598203985546203"><ele>629.0</ele><time>2026-05-01T15:23:06Z</time></trkpt><trkpt lat="42.32788745091147" lon="19.59812572738676"><ele>629.0</ele><time>2026-05-01T15:23:07Z</time></trkpt><trkpt lat="42.32778869556012" lon="19.598073780090115"><ele>629.0</ele><time>2026-05-01T15:23:08Z</time></trkpt><trkpt lat="42.32771679504284" lon="19.598002557951816"><ele>629.0</ele><time>2026-05-01T15:23:09Z</time></trkpt><trkpt lat="42.32767678020361" lon="19.597912222170308"><ele>629.8</ele><time>2026-05-01T15:23:10Z</time></trkpt><trkpt lat="42.32763467640325" lon="19.59781449520425"><ele>630.5999999999999</ele><time>2026-05-01T15:23:11Z</time></trkpt><trkpt lat="42.327594357502036" lon="19.597695522909678"><ele>631.4</ele><time>2026-05-01T15:23:12Z</time></trkpt><trkpt lat="42.32753836212078" lon="19.597580491645136"><ele>632.1999999999999</ele><time>2026-05-01T15:23:13Z</time></trkpt><trkpt lat="42.327508861610745" lon="19.59745043233529"><ele>633.0</ele><time>2026-05-01T15:23:14Z</time></trkpt><trkpt lat="42.327452038417" lon="19.597303133836558"><ele>633.0</ele><time>2026-05-01T15:23:15Z</time></trkpt><trkpt lat="42.327394272954244" lon="19.59717941387656"><ele>633.0</ele><time>2026-05-01T15:23:16Z</time></trkpt><trkpt lat="42.32733729842378" lon="19.59705782908531"><ele>633.0</ele><time>2026-05-01T15:23:17Z</time></trkpt><trkpt lat="42.327278231063325" lon="19.596930390847263"><ele>633.0</ele><time>2026-05-01T15:23:18Z</time></trkpt><trkpt lat="42.3272185341177" lon="19.596801930010663"><ele>633.0</ele><time>2026-05-01T15:23:19Z</time></trkpt><trkpt lat="42.32715531744387" lon="19.59666673388812"><ele>630.4</ele><time>2026-05-01T15:23:20Z</time></trkpt><trkpt lat="42.327097822133744" lon="19.596540496151757"><ele>627.8</ele><time>2026-05-01T15:23:21Z</time></trkpt><trkpt lat="42.327043715789785" lon="19.596421145405035"><ele>625.2</ele><time>2026-05-01T15:23:22Z</time></trkpt><trkpt lat="42.327004589291846" lon="19.596300692341615"><ele>622.6</ele><time>2026-05-01T15:23:23Z</time></trkpt><trkpt lat="42.3269873586304" lon="19.596160792839964"><ele>620.0</ele><time>2026-05-01T15:23:24Z</time></trkpt><trkpt lat="42.32698266864929" lon="19.596007755371854"><ele>620.0</ele><time>2026-05-01T15:23:25Z</time></trkpt><trkpt lat="42.32696879578222" lon="19.595865385639843"><ele>620.0</ele><time>2026-05-01T15:23:26Z</time></trkpt><trkpt lat="42.3269220163829" lon="19.59574455848402"><ele>620.0</ele><time>2026-05-01T15:23:27Z</time></trkpt><trkpt lat="42.32687650692249" lon="19.595627704662313"><ele>620.0</ele><time>2026-05-01T15:23:28Z</time></trkpt><trkpt lat="42.326804444911915" lon="19.5955384622356"><ele>620.0</ele><time>2026-05-01T15:23:29Z</time></trkpt><trkpt lat="42.326713317371585" lon="19.595449125519693"><ele>620.0</ele><time>2026-05-01T15:23:30Z</time></trkpt><trkpt lat="42.32660327917948" lon="19.59537952515869"><ele>620.0</ele><time>2026-05-01T15:23:31Z</time></trkpt><trkpt lat="42.32648861013002" lon="19.595302237113874"><ele>620.0</ele><time>2026-05-01T15:23:32Z</time></trkpt><trkpt lat="42.32639320036435" lon="19.595230981911516"><ele>620.0</ele><time>2026-05-01T15:23:33Z</time></trkpt><trkpt lat="42.3263079609793" lon="19.595174185441884"><ele>618.4</ele><time>2026-05-01T15:23:34Z</time></trkpt><trkpt lat="42.32622615779514" lon="19.595111733297824"><ele>616.8</ele><time>2026-05-01T15:23:35Z</time></trkpt><trkpt lat="42.32613952800253" lon="19.595044894704756"><ele>615.2</ele><time>2026-05-01T15:23:36Z</time></trkpt><trkpt lat="42.32605193107809" lon="19.59495299700976"><ele>613.6</ele><time>2026-05-01T15:23:37Z</time></trkpt><trkpt lat="42.3259425841395" lon="19.59487577122177"><ele>612.0</ele><time>2026-05-01T15:23:38Z</time></trkpt><trkpt lat="42.32584274775188" lon="19.59475046846135"><ele>612.0</ele><time>2026-05-01T15:23:39Z</time></trkpt><trkpt lat="42.32573292640767" lon="19.5946251663147"><ele>612.0</ele><time>2026-05-01T15:23:40Z</time></trkpt><trkpt lat="42.325633383201485" lon="19.59450479498497"><ele>612.0</ele><time>2026-05-01T15:23:41Z</time></trkpt><trkpt lat="42.32553629812368" lon="19.594388099789537"><ele>612.0</ele><time>2026-05-01T15:23:42Z</time></trkpt><trkpt lat="42.32544077640107" lon="19.594283867026512"><ele>609.6</ele><time>2026-05-01T15:23:43Z</time></trkpt><trkpt lat="42.32533868883804" lon="19.594197346884112"><ele>607.2</ele><time>2026-05-01T15:23:44Z</time></trkpt><trkpt lat="42.32524492317542" lon="19.594112937369182"><ele>604.8</ele><time>2026-05-01T15:23:45Z</time></trkpt><trkpt lat="42.32515158344031" lon="19.594027784337232"><ele>602.4</ele><time>2026-05-01T15:23:46Z</time></trkpt><trkpt lat="42.32507537308259" lon="19.593954353442214"><ele>600.0</ele><time>2026-05-01T15:23:47Z</time></trkpt><trkpt lat="42.32501808099848" lon="19.59385951713438"><ele>600.0</ele><time>2026-05-01T15:23:48Z</time></trkpt><trkpt lat="42.32499238152117" lon="19.593740320898807"><ele>600.0</ele><time>2026-05-01T15:23:49Z</time></trkpt><trkpt lat="42.32496478112365" lon="19.5935953103255"><ele>600.0</ele><time>2026-05-01T15:23:50Z</time></trkpt><trkpt lat="42.32491937571531" lon="19.59348769688894"><ele>600.0</ele><time>2026-05-01T15:23:51Z</time></trkpt><trkpt lat="42.32486182336707" lon="19.59341427796906"><ele>600.0</ele><time>2026-05-01T15:23:52Z</time></trkpt><trkpt lat="42.324776781482726" lon="19.593384561055807"><ele>598.6</ele><time>2026-05-01T15:23:53Z</time></trkpt><trkpt lat="42.32467842513886" lon="19.593388151543287"><ele>597.2</ele><time>2026-05-01T15:23:54Z</time></trkpt><trkpt lat="42.3245652099831" lon="19.59340418619238"><ele>595.8</ele><time>2026-05-01T15:23:55Z</time></trkpt><trkpt lat="42.32445345341113" lon="19.59338879159354"><ele>594.4</ele><time>2026-05-01T15:23:56Z</time></trkpt><trkpt lat="42.32438452631821" lon="19.593278446831583"><ele>593.0</ele><time>2026-05-01T15:23:57Z</time></trkpt><trkpt lat="42.32430640581087" lon="19.593171336908565"><ele>593.0</ele><time>2026-05-01T15:23:58Z</time></trkpt><trkpt lat="42.32421017240724" lon="19.59305389284404"><ele>593.0</ele><time>2026-05-01T15:23:59Z</time></trkpt><trkpt lat="42.32410583335887" lon="19.59292780806537"><ele>593.0</ele><time>2026-05-01T15:24:00Z</time></trkpt><trkpt lat="42.324012454571374" lon="19.592815153600974"><ele>593.0</ele><time>2026-05-01T15:24:01Z</time></trkpt><trkpt lat="42.323929076001676" lon="19.59271687600187"><ele>594.75</ele><time>2026-05-01T15:24:02Z</time></trkpt><trkpt lat="42.32384948031734" lon="19.592621549443056"><ele>596.5</ele><time>2026-05-01T15:24:03Z</time></trkpt><trkpt lat="42.32376018744481" lon="19.592515954490924"><ele>598.25</ele><time>2026-05-01T15:24:04Z</time></trkpt><trkpt lat="42.32367243543042" lon="19.592402045367894"><ele>600.0</ele><time>2026-05-01T15:24:05Z</time></trkpt><trkpt lat="42.32357612003136" lon="19.592286233186726"><ele>600.0</ele><time>2026-05-01T15:24:06Z</time></trkpt><trkpt lat="42.32349283271279" lon="19.59215547953061"><ele>600.0</ele><time>2026-05-01T15:24:07Z</time></trkpt><trkpt lat="42.323409612798486" lon="19.592031855311525"><ele>600.0</ele><time>2026-05-01T15:24:08Z</time></trkpt><trkpt lat="42.32332217321721" lon="19.59188559867636"><ele>600.0</ele><time>2026-05-01T15:24:09Z</time></trkpt><trkpt lat="42.32324819614443" lon="19.59173929309564"><ele>600.75</ele><time>2026-05-01T15:24:10Z</time></trkpt><trkpt lat="42.32317085900457" lon="19.591585983650035"><ele>601.5</ele><time>2026-05-01T15:24:11Z</time></trkpt><trkpt lat="42.32309368911582" lon="19.591433393077196"><ele>602.25</ele><time>2026-05-01T15:24:12Z</time></trkpt><trkpt lat="42.323016911345555" lon="19.591283345108288"><ele>603.0</ele><time>2026-05-01T15:24:13Z</time></trkpt><trkpt lat="42.322920642490544" lon="19.591124477222824"><ele>600.25</ele><time>2026-05-01T15:24:14Z</time></trkpt><trkpt lat="42.322810436669144" lon="19.59097480242129"><ele>597.5</ele><time>2026-05-01T15:24:15Z</time></trkpt><trkpt lat="42.322704787046405" lon="19.59084820062404"><ele>594.75</ele><time>2026-05-01T15:24:16Z</time></trkpt><trkpt lat="42.32260763660092" lon="19.590740696432977"><ele>592.0</ele><time>2026-05-01T15:24:17Z</time></trkpt><trkpt lat="42.32251026952922" lon="19.590640930883893"><ele>592.0</ele><time>2026-05-01T15:24:18Z</time></trkpt><trkpt lat="42.322398424118" lon="19.590566470554073"><ele>592.0</ele><time>2026-05-01T15:24:19Z</time></trkpt><trkpt lat="42.32228391708918" lon="19.59050406018523"><ele>592.0</ele><time>2026-05-01T15:24:20Z</time></trkpt><trkpt lat="42.322196321417394" lon="19.59043372878078"><ele>592.0</ele><time>2026-05-01T15:24:21Z</time></trkpt><trkpt lat="42.32210748613429" lon="19.590371992977836"><ele>589.0</ele><time>2026-05-01T15:24:22Z</time></trkpt><trkpt lat="42.322015885665714" lon="19.590303333632203"><ele>586.0</ele><time>2026-05-01T15:24:23Z</time></trkpt><trkpt lat="42.321971547064024" lon="19.59015066903629"><ele>583.0</ele><time>2026-05-01T15:24:24Z</time></trkpt><trkpt lat="42.32190176357229" lon="19.590016995866698"><ele>580.0</ele><time>2026-05-01T15:24:25Z</time></trkpt><trkpt lat="42.32183394618781" lon="19.589887987481244"><ele>580.0</ele><time>2026-05-01T15:24:26Z</time></trkpt><trkpt lat="42.321756205199485" lon="19.58977115981539"><ele>580.0</ele><time>2026-05-01T15:24:27Z</time></trkpt><trkpt lat="42.32167269165746" lon="19.58964832848516"><ele>580.0</ele><time>2026-05-01T15:24:28Z</time></trkpt><trkpt lat="42.32159479427216" lon="19.58953458357344"><ele>580.0</ele><time>2026-05-01T15:24:29Z</time></trkpt><trkpt lat="42.32152303336936" lon="19.589420343177107"><ele>581.75</ele><time>2026-05-01T15:24:30Z</time></trkpt><trkpt lat="42.32145481088624" lon="19.589305184429726"><ele>583.5</ele><time>2026-05-01T15:24:31Z</time></trkpt><trkpt lat="42.32138808730188" lon="19.589192457330597"><ele>585.25</ele><time>2026-05-01T15:24:32Z</time></trkpt><trkpt lat="42.32132915274419" lon="19.589057303944557"><ele>587.0</ele><time>2026-05-01T15:24:33Z</time></trkpt><trkpt lat="42.32128681635838" lon="19.588907541806034"><ele>582.75</ele><time>2026-05-01T15:24:34Z</time></trkpt><trkpt lat="42.32127581697284" lon="19.588748456351667"><ele>578.5</ele><time>2026-05-01T15:24:35Z</time></trkpt><trkpt lat="42.321262950521294" lon="19.588572185092303"><ele>574.25</ele><time>2026-05-01T15:24:36Z</time></trkpt><trkpt lat="42.321253010371244" lon="19.5883732088641"><ele>570.0</ele><time>2026-05-01T15:24:37Z</time></trkpt><trkpt lat="42.32124371532972" lon="19.588173581450455"><ele>570.0</ele><time>2026-05-01T15:24:38Z</time></trkpt><trkpt lat="42.32122710279248" lon="19.587981493515755"><ele>570.0</ele><time>2026-05-01T15:24:39Z</time></trkpt><trkpt lat="42.32117800387832" lon="19.587798159943507"><ele>570.0</ele><time>2026-05-01T15:24:40Z</time></trkpt><trkpt lat="42.32112961633034" lon="19.58760377578904"><ele>570.0</ele><time>2026-05-01T15:24:41Z</time></trkpt><trkpt lat="42.321090786169506" lon="19.587400821769844"><ele>571.0</ele><time>2026-05-01T15:24:42Z</time></trkpt><trkpt lat="42.32104802475512" lon="19.58722386193498"><ele>572.0</ele><time>2026-05-01T15:24:43Z</time></trkpt><trkpt lat="42.32100873527204" lon="19.587055073879366"><ele>573.0</ele><time>2026-05-01T15:24:44Z</time></trkpt><trkpt lat="42.32095346329172" lon="19.586903820977287"><ele>574.0</ele><time>2026-05-01T15:24:45Z</time></trkpt><trkpt lat="42.320889616199686" lon="19.586751791851622"><ele>574.5</ele><time>2026-05-01T15:24:46Z</time></trkpt><trkpt lat="42.32081082633835" lon="19.58660219005687"><ele>575.0</ele><time>2026-05-01T15:24:47Z</time></trkpt><trkpt lat="42.320683019467474" lon="19.586497781559252"><ele>575.5</ele><time>2026-05-01T15:24:48Z</time></trkpt><trkpt lat="42.32057627547943" lon="19.5863688074633"><ele>576.0</ele><time>2026-05-01T15:24:49Z</time></trkpt><trkpt lat="42.32047698252308" lon="19.586258238297532"><ele>573.75</ele><time>2026-05-01T15:24:50Z</time></trkpt><trkpt lat="42.32039112725822" lon="19.586143964038868"><ele>571.5</ele><time>2026-05-01T15:24:51Z</time></trkpt><trkpt lat="42.320309905427784" lon="19.586014487753385"><ele>569.25</ele><time>2026-05-01T15:24:52Z</time></trkpt><trkpt lat="42.320212088133545" lon="19.585886728810845"><ele>567.0</ele><time>2026-05-01T15:24:53Z</time></trkpt><trkpt lat="42.32012397896002" lon="19.585746249976047"><ele>567.0</ele><time>2026-05-01T15:24:54Z</time></trkpt><trkpt lat="42.32005320801542" lon="19.58560208810661"><ele>567.0</ele><time>2026-05-01T15:24:54.999Z</time></trkpt><trkpt lat="42.31996124548248" lon="19.585480870653793"><ele>567.0</ele><time>2026-05-01T15:24:55.999Z</time></trkpt><trkpt lat="42.319870456265704" lon="19.585362118157562"><ele>567.0</ele><time>2026-05-01T15:24:56.999Z</time></trkpt><trkpt lat="42.31978692233968" lon="19.58525477784812"><ele>568.0</ele><time>2026-05-01T15:24:57.999Z</time></trkpt><trkpt lat="42.31969613632494" lon="19.585171045377653"><ele>569.0</ele><time>2026-05-01T15:24:58.999Z</time></trkpt><trkpt lat="42.3196241931133" lon="19.58508049298366"><ele>570.0</ele><time>2026-05-01T15:24:59.999Z</time></trkpt><trkpt lat="42.31957167167317" lon="19.58499108058016"><ele>571.0</ele><time>2026-05-01T15:25:00.999Z</time></trkpt><trkpt lat="42.319493709833374" lon="19.584918346498082"><ele>572.0</ele><time>2026-05-01T15:25:02.999Z</time></trkpt><trkpt lat="42.319529554944864" lon="19.584808021604058"><ele>572.0</ele><time>2026-05-01T15:25:04.999Z</time></trkpt><trkpt lat="42.319508921995066" lon="19.584685409637817"><ele>572.0</ele><time>2026-05-01T15:25:07Z</time></trkpt><trkpt lat="42.31945043458029" lon="19.584564958371928"><ele>572.0</ele><time>2026-05-01T15:25:09Z</time></trkpt><trkpt lat="42.319400559104764" lon="19.58444679113265"><ele>572.0</ele><time>2026-05-01T15:25:11Z</time></trkpt><trkpt lat="42.31931566480468" lon="19.58435932432188"><ele>572.0</ele><time>2026-05-01T15:25:13Z</time></trkpt><trkpt lat="42.319260003865914" lon="19.584309933197623"><ele>572.25</ele><time>2026-05-01T15:25:14Z</time></trkpt><trkpt lat="42.31916968907879" lon="19.584245481101483"><ele>572.5</ele><time>2026-05-01T15:25:16Z</time></trkpt><trkpt lat="42.31907384713037" lon="19.58414847828988"><ele>572.75</ele><time>2026-05-01T15:25:18Z</time></trkpt><trkpt lat="42.31900933378849" lon="19.584009414181974"><ele>573.0</ele><time>2026-05-01T15:25:20Z</time></trkpt><trkpt lat="42.31891410727322" lon="19.5839225958135"><ele>571.8</ele><time>2026-05-01T15:25:22Z</time></trkpt><trkpt lat="42.31881832640163" lon="19.583885489034397"><ele>570.5999999999999</ele><time>2026-05-01T15:25:24Z</time></trkpt><trkpt lat="42.31877581006593" lon="19.58379613015743"><ele>569.4000000000001</ele><time>2026-05-01T15:25:27Z</time></trkpt><trkpt lat="42.3187171044467" lon="19.58368747172454"><ele>568.2</ele><time>2026-05-01T15:25:30Z</time></trkpt><trkpt lat="42.31867429525271" lon="19.58355745123294"><ele>567.0</ele><time>2026-05-01T15:25:32Z</time></trkpt><trkpt lat="42.3186461994951" lon="19.583471592956688"><ele>566.4</ele><time>2026-05-01T15:25:33Z</time></trkpt><trkpt lat="42.31861657963516" lon="19.583385192708107"><ele>565.8000000000001</ele><time>2026-05-01T15:25:34Z</time></trkpt><trkpt lat="42.31858132324072" lon="19.583281766182964"><ele>565.2</ele><time>2026-05-01T15:25:35Z</time></trkpt><trkpt lat="42.31852627892569" lon="19.58317173269622"><ele>564.6</ele><time>2026-05-01T15:25:36Z</time></trkpt><trkpt lat="42.31845660442335" lon="19.583062895026004"><ele>564.0</ele><time>2026-05-01T15:25:37Z</time></trkpt><trkpt lat="42.31838252326232" lon="19.582949458430626"><ele>564.4</ele><time>2026-05-01T15:25:38Z</time></trkpt><trkpt lat="42.31831439863178" lon="19.582829440259534"><ele>564.8</ele><time>2026-05-01T15:25:39Z</time></trkpt><trkpt lat="42.31825856193245" lon="19.582714951565446"><ele>565.2</ele><time>2026-05-01T15:25:40Z</time></trkpt><trkpt lat="42.3182208619717" lon="19.58258421589779"><ele>565.6</ele><time>2026-05-01T15:25:41Z</time></trkpt><trkpt lat="42.318196118312216" lon="19.58244091594939"><ele>566.0</ele><time>2026-05-01T15:25:42Z</time></trkpt><trkpt lat="42.31816915842664" lon="19.582314517103384"><ele>566.0</ele><time>2026-05-01T15:25:43Z</time></trkpt><trkpt lat="42.318126908643265" lon="19.58221610441439"><ele>566.0</ele><time>2026-05-01T15:25:44Z</time></trkpt><trkpt lat="42.31804547291746" lon="19.582163463630124"><ele>566.0</ele><time>2026-05-01T15:25:45Z</time></trkpt><trkpt lat="42.31798035538943" lon="19.582066627491212"><ele>566.0</ele><time>2026-05-01T15:25:46Z</time></trkpt><trkpt lat="42.31795057905939" lon="19.581971640398322"><ele>566.0</ele><time>2026-05-01T15:25:47Z</time></trkpt><trkpt lat="42.31792786669205" lon="19.581849570417706"><ele>566.0</ele><time>2026-05-01T15:25:48Z</time></trkpt><trkpt lat="42.31785768147507" lon="19.581660385868318"><ele>566.3333333333333</ele><time>2026-05-01T15:25:49Z</time></trkpt><trkpt lat="42.31776631516092" lon="19.581461973269626"><ele>566.6666666666666</ele><time>2026-05-01T15:25:50Z</time></trkpt><trkpt lat="42.31768920699635" lon="19.581273332586335"><ele>567.0</ele><time>2026-05-01T15:25:51Z</time></trkpt><trkpt lat="42.317625333549714" lon="19.58107437464796"><ele>567.0</ele><time>2026-05-01T15:25:52Z</time></trkpt><trkpt lat="42.31757581863975" lon="19.58090097858231"><ele>567.0</ele><time>2026-05-01T15:25:53Z</time></trkpt><trkpt lat="42.31751860659401" lon="19.580744464905212"><ele>567.0</ele><time>2026-05-01T15:25:54Z</time></trkpt><trkpt lat="42.317435616636786" lon="19.580613276846318"><ele>567.0</ele><time>2026-05-01T15:25:55Z</time></trkpt><trkpt lat="42.3173681409366" lon="19.580502056968644"><ele>567.0</ele><time>2026-05-01T15:25:56Z</time></trkpt><trkpt lat="42.31735326475466" lon="19.580370834131326"><ele>567.0</ele><time>2026-05-01T15:25:57Z</time></trkpt><trkpt lat="42.317341081132476" lon="19.580240494970873"><ele>567.0</ele><time>2026-05-01T15:25:58Z</time></trkpt><trkpt lat="42.31732685187826" lon="19.580073761352406"><ele>567.0</ele><time>2026-05-01T15:25:59Z</time></trkpt><trkpt lat="42.3173060768359" lon="19.579896712107917"><ele>567.6</ele><time>2026-05-01T15:26:00Z</time></trkpt><trkpt lat="42.317297652551986" lon="19.57973058161228"><ele>568.2</ele><time>2026-05-01T15:26:01Z</time></trkpt><trkpt lat="42.31731376092227" lon="19.579616572850963"><ele>568.8</ele><time>2026-05-01T15:26:02Z</time></trkpt><trkpt lat="42.31731648686639" lon="19.579503686508364"><ele>569.4</ele><time>2026-05-01T15:26:03Z</time></trkpt><trkpt lat="42.31739125847691" lon="19.57945360462257"><ele>570.0</ele><time>2026-05-01T15:26:04Z</time></trkpt><trkpt lat="42.317499915991405" lon="19.579403858955004"><ele>570.0</ele><time>2026-05-01T15:26:06Z</time></trkpt><trkpt lat="42.31754242651978" lon="19.579340299124805"><ele>570.0</ele><time>2026-05-01T15:26:07Z</time></trkpt><trkpt lat="42.31755154964048" lon="19.579222970033523"><ele>570.0</ele><time>2026-05-01T15:26:08Z</time></trkpt><trkpt lat="42.317608103067315" lon="19.579129605958457"><ele>570.0</ele><time>2026-05-01T15:26:09Z</time></trkpt><trkpt lat="42.31766329588049" lon="19.579039073044125"><ele>570.0</ele><time>2026-05-01T15:26:10Z</time></trkpt><trkpt lat="42.317693767349716" lon="19.578958584291293"><ele>570.0</ele><time>2026-05-01T15:26:11Z</time></trkpt><trkpt lat="42.31768914022833" lon="19.578861275126364"><ele>570.0</ele><time>2026-05-01T15:26:12Z</time></trkpt><trkpt lat="42.317668206738176" lon="19.57874655688915"><ele>570.0</ele><time>2026-05-01T15:26:13Z</time></trkpt><trkpt lat="42.317633116155186" lon="19.578621817802244"><ele>570.0</ele><time>2026-05-01T15:26:14Z</time></trkpt><trkpt lat="42.31758081754821" lon="19.578502390150387"><ele>570.0</ele><time>2026-05-01T15:26:15Z</time></trkpt><trkpt lat="42.31750823658376" lon="19.57839363244847"><ele>570.0</ele><time>2026-05-01T15:26:16Z</time></trkpt><trkpt lat="42.31746545771246" lon="19.578286640998467"><ele>570.2</ele><time>2026-05-01T15:26:17Z</time></trkpt><trkpt lat="42.31741866748537" lon="19.578210427642674"><ele>570.4</ele><time>2026-05-01T15:26:18Z</time></trkpt><trkpt lat="42.317441760188885" lon="19.578100911394216"><ele>570.6</ele><time>2026-05-01T15:26:19Z</time></trkpt><trkpt lat="42.31742925179143" lon="19.5779800697192"><ele>570.8</ele><time>2026-05-01T15:26:20Z</time></trkpt><trkpt lat="42.31736443204056" lon="19.577871830548546"><ele>571.0</ele><time>2026-05-01T15:26:21Z</time></trkpt><trkpt lat="42.317292815930536" lon="19.577760053387323"><ele>569.6</ele><time>2026-05-01T15:26:22Z</time></trkpt><trkpt lat="42.317208729265914" lon="19.577649492797505"><ele>568.2</ele><time>2026-05-01T15:26:23Z</time></trkpt><trkpt lat="42.31715385664763" lon="19.57751283596293"><ele>566.8</ele><time>2026-05-01T15:26:24Z</time></trkpt><trkpt lat="42.31709826449194" lon="19.577415394684675"><ele>565.4</ele><time>2026-05-01T15:26:25Z</time></trkpt><trkpt lat="42.317102753925795" lon="19.57729702030893"><ele>564.0</ele><time>2026-05-01T15:26:26Z</time></trkpt><trkpt lat="42.3171152162939" lon="19.577197509231855"><ele>564.0</ele><time>2026-05-01T15:26:27Z</time></trkpt><trkpt lat="42.3171333148527" lon="19.577085700622515"><ele>564.0</ele><time>2026-05-01T15:26:28Z</time></trkpt><trkpt lat="42.317147131824655" lon="19.57693844024723"><ele>564.0</ele><time>2026-05-01T15:26:29Z</time></trkpt><trkpt lat="42.317141727020655" lon="19.576795736165636"><ele>564.0</ele><time>2026-05-01T15:26:30Z</time></trkpt><trkpt lat="42.31711734818104" lon="19.57667198387863"><ele>564.0</ele><time>2026-05-01T15:26:31Z</time></trkpt><trkpt lat="42.31708992111765" lon="19.576546615364137"><ele>564.1666666666666</ele><time>2026-05-01T15:26:32Z</time></trkpt><trkpt lat="42.317060897083074" lon="19.576422494645595"><ele>564.3333333333334</ele><time>2026-05-01T15:26:33Z</time></trkpt><trkpt lat="42.31701368788056" lon="19.576333897241415"><ele>564.5</ele><time>2026-05-01T15:26:34Z</time></trkpt><trkpt lat="42.316969353133" lon="19.576248680001058"><ele>564.6666666666667</ele><time>2026-05-01T15:26:35Z</time></trkpt><trkpt lat="42.316910176385456" lon="19.576175961040203"><ele>564.8333333333334</ele><time>2026-05-01T15:26:36Z</time></trkpt><trkpt lat="42.31683839275187" lon="19.57609599555033"><ele>565.0</ele><time>2026-05-01T15:26:37Z</time></trkpt><trkpt lat="42.31676970102111" lon="19.57599082553117"><ele>565.5</ele><time>2026-05-01T15:26:38Z</time></trkpt><trkpt lat="42.31672976144784" lon="19.575863147351434"><ele>566.0</ele><time>2026-05-01T15:26:39Z</time></trkpt><trkpt lat="42.316690128565895" lon="19.575729647855777"><ele>566.5</ele><time>2026-05-01T15:26:40Z</time></trkpt><trkpt lat="42.31662106530913" lon="19.575592889493795"><ele>567.0</ele><time>2026-05-01T15:26:41Z</time></trkpt><trkpt lat="42.31656958908664" lon="19.575444413088825"><ele>568.0</ele><time>2026-05-01T15:26:42Z</time></trkpt><trkpt lat="42.31650822985363" lon="19.575344396816774"><ele>569.0</ele><time>2026-05-01T15:26:43Z</time></trkpt><trkpt lat="42.31643538934089" lon="19.575271691119898"><ele>570.0</ele><time>2026-05-01T15:26:44Z</time></trkpt><trkpt lat="42.3163888302577" lon="19.575163793017797"><ele>571.0</ele><time>2026-05-01T15:26:45Z</time></trkpt><trkpt lat="42.31638853527165" lon="19.575036605226412"><ele>572.0</ele><time>2026-05-01T15:26:46Z</time></trkpt><trkpt lat="42.316395085978975" lon="19.574896760909912"><ele>568.5</ele><time>2026-05-01T15:26:47Z</time></trkpt><trkpt lat="42.316334339405046" lon="19.57473433345517"><ele>565.0</ele><time>2026-05-01T15:26:48Z</time></trkpt><trkpt lat="42.316258997243835" lon="19.574581567759544"><ele>561.5</ele><time>2026-05-01T15:26:49Z</time></trkpt><trkpt lat="42.31624831417892" lon="19.574415518039814"><ele>558.0</ele><time>2026-05-01T15:26:50Z</time></trkpt><trkpt lat="42.31619677301061" lon="19.574272390676693"><ele>558.0</ele><time>2026-05-01T15:26:51Z</time></trkpt><trkpt lat="42.31619828981778" lon="19.574094518290973"><ele>558.0</ele><time>2026-05-01T15:26:52Z</time></trkpt><trkpt lat="42.31619373470415" lon="19.573908639037526"><ele>558.0</ele><time>2026-05-01T15:26:53Z</time></trkpt><trkpt lat="42.31615622550607" lon="19.573707988180526"><ele>558.0</ele><time>2026-05-01T15:26:54Z</time></trkpt><trkpt lat="42.31611091642432" lon="19.57352310758856"><ele>558.75</ele><time>2026-05-01T15:26:55Z</time></trkpt><trkpt lat="42.3160854931413" lon="19.573348672785976"><ele>559.5</ele><time>2026-05-01T15:26:56Z</time></trkpt><trkpt lat="42.316074293329905" lon="19.573185356075186"><ele>560.25</ele><time>2026-05-01T15:26:57Z</time></trkpt><trkpt lat="42.31603623910451" lon="19.57302756990013"><ele>561.0</ele><time>2026-05-01T15:26:58Z</time></trkpt><trkpt lat="42.315973007869125" lon="19.572906083182993"><ele>561.6666666666666</ele><time>2026-05-01T15:26:59Z</time></trkpt><trkpt lat="42.31594695807373" lon="19.572795589277906"><ele>562.3333333333334</ele><time>2026-05-01T15:27:00Z</time></trkpt><trkpt lat="42.315899556252695" lon="19.57272448815773"><ele>563.0</ele><time>2026-05-01T15:27:01Z</time></trkpt><trkpt lat="42.31592678270903" lon="19.57264409790697"><ele>563.6666666666667</ele><time>2026-05-01T15:27:02Z</time></trkpt><trkpt lat="42.31591267017964" lon="19.572543834927604"><ele>564.3333333333334</ele><time>2026-05-01T15:27:03Z</time></trkpt><trkpt lat="42.315883859992866" lon="19.572413419142432"><ele>565.0</ele><time>2026-05-01T15:27:03.999Z</time></trkpt><trkpt lat="42.3158874767097" lon="19.57226298273134"><ele>565.0</ele><time>2026-05-01T15:27:04.999Z</time></trkpt><trkpt lat="42.315885632780436" lon="19.572118715033135"><ele>565.0</ele><time>2026-05-01T15:27:05.999Z</time></trkpt><trkpt lat="42.315847334561504" lon="19.571996668163038"><ele>565.0</ele><time>2026-05-01T15:27:06.999Z</time></trkpt><trkpt lat="42.31580170842412" lon="19.5719005169526"><ele>565.0</ele><time>2026-05-01T15:27:07.999Z</time></trkpt><trkpt lat="42.315736308270196" lon="19.571812172041714"><ele>565.0</ele><time>2026-05-01T15:27:08.999Z</time></trkpt><trkpt lat="42.31565294445322" lon="19.571719926636515"><ele>564.0</ele><time>2026-05-01T15:27:09.999Z</time></trkpt><trkpt lat="42.31557575858259" lon="19.57161430688755"><ele>563.0</ele><time>2026-05-01T15:27:11Z</time></trkpt><trkpt lat="42.315554226233516" lon="19.571487046016298"><ele>562.0</ele><time>2026-05-01T15:27:12Z</time></trkpt><trkpt lat="42.315503606503206" lon="19.571379981789743"><ele>561.0</ele><time>2026-05-01T15:27:13Z</time></trkpt><trkpt lat="42.31545292375171" lon="19.57124774794259"><ele>560.0</ele><time>2026-05-01T15:27:14Z</time></trkpt><trkpt lat="42.31539092255459" lon="19.57108398772507"><ele>560.0</ele><time>2026-05-01T15:27:15Z</time></trkpt><trkpt lat="42.31530814466768" lon="19.57094487706198"><ele>560.0</ele><time>2026-05-01T15:27:16Z</time></trkpt><trkpt lat="42.31527588038095" lon="19.570806887726494"><ele>560.0</ele><time>2026-05-01T15:27:17Z</time></trkpt><trkpt lat="42.315233337645616" lon="19.57068958352287"><ele>560.0</ele><time>2026-05-01T15:27:18Z</time></trkpt><trkpt lat="42.31520108473605" lon="19.57056834434532"><ele>560.0</ele><time>2026-05-01T15:27:19Z</time></trkpt><trkpt lat="42.31516253137241" lon="19.57042828603547"><ele>561.5</ele><time>2026-05-01T15:27:20Z</time></trkpt><trkpt lat="42.31512634368794" lon="19.570291950810017"><ele>563.0</ele><time>2026-05-01T15:27:21Z</time></trkpt><trkpt lat="42.3150462964242" lon="19.570202531743902"><ele>564.5</ele><time>2026-05-01T15:27:22Z</time></trkpt><trkpt lat="42.31498807628996" lon="19.570122510574457"><ele>566.0</ele><time>2026-05-01T15:27:23Z</time></trkpt><trkpt lat="42.31494126033976" lon="19.570049580525517"><ele>567.5</ele><time>2026-05-01T15:27:24Z</time></trkpt><trkpt lat="42.31492513455087" lon="19.56994024082948"><ele>569.0</ele><time>2026-05-01T15:27:25Z</time></trkpt><trkpt lat="42.31490252819782" lon="19.569828544863235"><ele>569.0</ele><time>2026-05-01T15:27:26Z</time></trkpt><trkpt lat="42.31488087931906" lon="19.56969393177456"><ele>569.0</ele><time>2026-05-01T15:27:27Z</time></trkpt><trkpt lat="42.31486236330518" lon="19.56955018294842"><ele>569.0</ele><time>2026-05-01T15:27:28Z</time></trkpt><trkpt lat="42.314859922575444" lon="19.56940092982796"><ele>569.0</ele><time>2026-05-01T15:27:29Z</time></trkpt><trkpt lat="42.314867377205395" lon="19.569249573580564"><ele>569.0</ele><time>2026-05-01T15:27:30Z</time></trkpt><trkpt lat="42.31488323466469" lon="19.569087686420666"><ele>569.2</ele><time>2026-05-01T15:27:31Z</time></trkpt><trkpt lat="42.314905472832166" lon="19.568925586783436"><ele>569.4</ele><time>2026-05-01T15:27:32Z</time></trkpt><trkpt lat="42.31492384403013" lon="19.568804069478297"><ele>569.6</ele><time>2026-05-01T15:27:33Z</time></trkpt><trkpt lat="42.31492037561694" lon="19.568701427319777"><ele>569.8</ele><time>2026-05-01T15:27:34Z</time></trkpt><trkpt lat="42.31490710341538" lon="19.568598661261223"><ele>570.0</ele><time>2026-05-01T15:27:35Z</time></trkpt><trkpt lat="42.314882577035654" lon="19.568482663654"><ele>570.1666666666666</ele><time>2026-05-01T15:27:36Z</time></trkpt><trkpt lat="42.31482364893836" lon="19.568368067373644"><ele>570.3333333333334</ele><time>2026-05-01T15:27:37Z</time></trkpt><trkpt lat="42.31477749601942" lon="19.568269473768787"><ele>570.5</ele><time>2026-05-01T15:27:38Z</time></trkpt><trkpt lat="42.314767950872906" lon="19.56817332919539"><ele>570.6666666666667</ele><time>2026-05-01T15:27:39Z</time></trkpt><trkpt lat="42.31478058568275" lon="19.56807562678835"><ele>570.8333333333334</ele><time>2026-05-01T15:27:40Z</time></trkpt><trkpt lat="42.31479693178114" lon="19.567958610143886"><ele>571.0</ele><time>2026-05-01T15:27:41Z</time></trkpt><trkpt lat="42.314832529716284" lon="19.567845848137416"><ele>571.0</ele><time>2026-05-01T15:27:42Z</time></trkpt><trkpt lat="42.31488080888218" lon="19.56773972388348"><ele>571.0</ele><time>2026-05-01T15:27:43Z</time></trkpt><trkpt lat="42.31488865919218" lon="19.567611173013407"><ele>571.0</ele><time>2026-05-01T15:27:44Z</time></trkpt><trkpt lat="42.314897977706224" lon="19.567506692965406"><ele>571.0</ele><time>2026-05-01T15:27:45Z</time></trkpt><trkpt lat="42.314889989754526" lon="19.567390811970398"><ele>571.0</ele><time>2026-05-01T15:27:46Z</time></trkpt><trkpt lat="42.314863118509685" lon="19.567271397203697"><ele>571.0</ele><time>2026-05-01T15:27:47Z</time></trkpt><trkpt lat="42.31484251273751" lon="19.567163980699867"><ele>571.0</ele><time>2026-05-01T15:27:48Z</time></trkpt><trkpt lat="42.31490835327392" lon="19.567067255487952"><ele>571.0</ele><time>2026-05-01T15:27:49Z</time></trkpt><trkpt lat="42.314899649277585" lon="19.566857061405692"><ele>571.0</ele><time>2026-05-01T15:27:51Z</time></trkpt><trkpt lat="42.314884667814404" lon="19.566763562588523"><ele>571.0</ele><time>2026-05-01T15:27:52Z</time></trkpt><trkpt lat="42.31483681032041" lon="19.566686202805066"><ele>571.0</ele><time>2026-05-01T15:27:53Z</time></trkpt><trkpt lat="42.31479846600058" lon="19.566588505947067"><ele>571.0</ele><time>2026-05-01T15:27:54Z</time></trkpt><trkpt lat="42.314746899843534" lon="19.56651824569019"><ele>571.0</ele><time>2026-05-01T15:27:55Z</time></trkpt><trkpt lat="42.31472723382045" lon="19.566412646125876"><ele>571.0</ele><time>2026-05-01T15:27:56Z</time></trkpt><trkpt lat="42.31473626133289" lon="19.566283649560017"><ele>571.0</ele><time>2026-05-01T15:27:57Z</time></trkpt><trkpt lat="42.3147080661919" lon="19.56615191298414"><ele>571.0</ele><time>2026-05-01T15:27:58Z</time></trkpt><trkpt lat="42.314671359368205" lon="19.566032883057137"><ele>571.0</ele><time>2026-05-01T15:27:59Z</time></trkpt><trkpt lat="42.3146088359451" lon="19.565924645484415"><ele>568.8</ele><time>2026-05-01T15:28:00Z</time></trkpt><trkpt lat="42.31456896964334" lon="19.565785889252854"><ele>566.6</ele><time>2026-05-01T15:28:01Z</time></trkpt><trkpt lat="42.31451766491361" lon="19.565654736036393"><ele>564.4</ele><time>2026-05-01T15:28:02Z</time></trkpt><trkpt lat="42.31447383444392" lon="19.56554535089177"><ele>562.2</ele><time>2026-05-01T15:28:03Z</time></trkpt><trkpt lat="42.314448872034816" lon="19.56544165253074"><ele>560.0</ele><time>2026-05-01T15:28:04Z</time></trkpt><trkpt lat="42.3144257807108" lon="19.56532162810828"><ele>560.0</ele><time>2026-05-01T15:28:05Z</time></trkpt><trkpt lat="42.31439090926891" lon="19.565185522429775"><ele>560.0</ele><time>2026-05-01T15:28:06Z</time></trkpt><trkpt lat="42.31442453275291" lon="19.565024404761548"><ele>560.0</ele><time>2026-05-01T15:28:07Z</time></trkpt><trkpt lat="42.314418479371405" lon="19.564874816051937"><ele>560.0</ele><time>2026-05-01T15:28:08Z</time></trkpt><trkpt lat="42.31435467134786" lon="19.56474610236922"><ele>560.0</ele><time>2026-05-01T15:28:09Z</time></trkpt><trkpt lat="42.31434465089196" lon="19.56464071448851"><ele>560.0</ele><time>2026-05-01T15:28:10Z</time></trkpt><trkpt lat="42.314330413347754" lon="19.5645502193566"><ele>560.0</ele><time>2026-05-01T15:28:11Z</time></trkpt><trkpt lat="42.314317572604565" lon="19.56443245148111"><ele>560.0</ele><time>2026-05-01T15:28:12Z</time></trkpt><trkpt lat="42.31430196469655" lon="19.5642845170593"><ele>560.0</ele><time>2026-05-01T15:28:13Z</time></trkpt><trkpt lat="42.31426843529603" lon="19.564105374896705"><ele>560.6</ele><time>2026-05-01T15:28:14Z</time></trkpt><trkpt lat="42.31423020589275" lon="19.563951214545572"><ele>561.2</ele><time>2026-05-01T15:28:15Z</time></trkpt><trkpt lat="42.31421417488377" lon="19.56382535811361"><ele>561.8</ele><time>2026-05-01T15:28:16Z</time></trkpt><trkpt lat="42.31421356232957" lon="19.563714777510498"><ele>562.4</ele><time>2026-05-01T15:28:17Z</time></trkpt><trkpt lat="42.314215715653916" lon="19.563588666917262"><ele>563.0</ele><time>2026-05-01T15:28:18Z</time></trkpt><trkpt lat="42.31419826003343" lon="19.56346518512775"><ele>563.6666666666666</ele><time>2026-05-01T15:28:19Z</time></trkpt><trkpt lat="42.31414486148783" lon="19.56337165212735"><ele>564.3333333333333</ele><time>2026-05-01T15:28:20Z</time></trkpt><trkpt lat="42.31410260974284" lon="19.563286710061323"><ele>565.0</ele><time>2026-05-01T15:28:21Z</time></trkpt><trkpt lat="42.314045926938746" lon="19.563227977373224"><ele>565.6666666666666</ele><time>2026-05-01T15:28:22Z</time></trkpt><trkpt lat="42.31399710942214" lon="19.563118889673756"><ele>566.3333333333334</ele><time>2026-05-01T15:28:24Z</time></trkpt><trkpt lat="42.31400496969515" lon="19.562966095500574"><ele>567.0</ele><time>2026-05-01T15:28:26Z</time></trkpt><trkpt lat="42.31401910939486" lon="19.56284750937738"><ele>567.2</ele><time>2026-05-01T15:28:27Z</time></trkpt><trkpt lat="42.31404600579837" lon="19.562716302847118"><ele>567.4000000000001</ele><time>2026-05-01T15:28:28Z</time></trkpt><trkpt lat="42.314058291004805" lon="19.562571128559604"><ele>567.5999999999999</ele><time>2026-05-01T15:28:29Z</time></trkpt><trkpt lat="42.314071115650464" lon="19.562420848196904"><ele>567.8</ele><time>2026-05-01T15:28:30Z</time></trkpt><trkpt lat="42.31408640710177" lon="19.562270671384834"><ele>568.0</ele><time>2026-05-01T15:28:31Z</time></trkpt><trkpt lat="42.31410015409726" lon="19.56214320711831"><ele>568.6</ele><time>2026-05-01T15:28:32Z</time></trkpt><trkpt lat="42.314114841840734" lon="19.562013414298796"><ele>569.1999999999999</ele><time>2026-05-01T15:28:33Z</time></trkpt><trkpt lat="42.31410926266226" lon="19.561871257704315"><ele>569.8</ele><time>2026-05-01T15:28:34Z</time></trkpt><trkpt lat="42.3140989176179" lon="19.56171597135115"><ele>570.4</ele><time>2026-05-01T15:28:35Z</time></trkpt><trkpt lat="42.31406686330167" lon="19.56155446566245"><ele>571.0</ele><time>2026-05-01T15:28:36Z</time></trkpt><trkpt lat="42.31402321702789" lon="19.56142454729955"><ele>571.0</ele><time>2026-05-01T15:28:37Z</time></trkpt><trkpt lat="42.314017498941055" lon="19.561298858492314"><ele>571.0</ele><time>2026-05-01T15:28:38Z</time></trkpt><trkpt lat="42.31401575327092" lon="19.561157965445055"><ele>571.0</ele><time>2026-05-01T15:28:39Z</time></trkpt><trkpt lat="42.313992021238434" lon="19.560999636922798"><ele>571.0</ele><time>2026-05-01T15:28:40Z</time></trkpt><trkpt lat="42.313989319286456" lon="19.5608735438334"><ele>571.0</ele><time>2026-05-01T15:28:41Z</time></trkpt><trkpt lat="42.31395905789659" lon="19.560768568996117"><ele>567.6</ele><time>2026-05-01T15:28:42Z</time></trkpt><trkpt lat="42.313901865239295" lon="19.560659805601727"><ele>564.2</ele><time>2026-05-01T15:28:43Z</time></trkpt><trkpt lat="42.31383309262468" lon="19.560546080767192"><ele>560.8</ele><time>2026-05-01T15:28:44Z</time></trkpt><trkpt lat="42.31378692249728" lon="19.560425648984292"><ele>557.4</ele><time>2026-05-01T15:28:45Z</time></trkpt><trkpt lat="42.31378639373902" lon="19.560279024276593"><ele>554.0</ele><time>2026-05-01T15:28:46Z</time></trkpt><trkpt lat="42.313772889663795" lon="19.560121323575274"><ele>554.0</ele><time>2026-05-01T15:28:47Z</time></trkpt><trkpt lat="42.31375737448018" lon="19.559966473729695"><ele>554.0</ele><time>2026-05-01T15:28:48Z</time></trkpt><trkpt lat="42.31373002293449" lon="19.559833160088964"><ele>554.0</ele><time>2026-05-01T15:28:49Z</time></trkpt><trkpt lat="42.31368955397755" lon="19.55973840678753"><ele>554.0</ele><time>2026-05-01T15:28:50Z</time></trkpt><trkpt lat="42.313712836956874" lon="19.559653500218662"><ele>554.0</ele><time>2026-05-01T15:28:51Z</time></trkpt><trkpt lat="42.31377445633959" lon="19.559526152925912"><ele>554.0</ele><time>2026-05-01T15:28:53Z</time></trkpt><trkpt lat="42.31379582992503" lon="19.559406436828308"><ele>554.0</ele><time>2026-05-01T15:28:54Z</time></trkpt><trkpt lat="42.313837943988304" lon="19.55927897443935"><ele>554.0</ele><time>2026-05-01T15:28:55Z</time></trkpt><trkpt lat="42.313914846021284" lon="19.559170038011132"><ele>554.0</ele><time>2026-05-01T15:28:56Z</time></trkpt><trkpt lat="42.31394303229448" lon="19.55907279693301"><ele>554.0</ele><time>2026-05-01T15:28:57Z</time></trkpt><trkpt lat="42.313986746967274" lon="19.558993688980284"><ele>557.4</ele><time>2026-05-01T15:28:58Z</time></trkpt><trkpt lat="42.31399438801382" lon="19.558869365626624"><ele>560.8</ele><time>2026-05-01T15:28:59Z</time></trkpt><trkpt lat="42.31397034798056" lon="19.55874347696254"><ele>564.2</ele><time>2026-05-01T15:29:00Z</time></trkpt><trkpt lat="42.31395116188791" lon="19.558609886720745"><ele>567.6</ele><time>2026-05-01T15:29:01Z</time></trkpt><trkpt lat="42.313933688230485" lon="19.55845615270538"><ele>571.0</ele><time>2026-05-01T15:29:02Z</time></trkpt><trkpt lat="42.31392101313492" lon="19.558290883690667"><ele>571.0</ele><time>2026-05-01T15:29:03Z</time></trkpt><trkpt lat="42.313921706941514" lon="19.558124470989405"><ele>571.0</ele><time>2026-05-01T15:29:04Z</time></trkpt><trkpt lat="42.31392064509609" lon="19.55797256686577"><ele>571.0</ele><time>2026-05-01T15:29:05Z</time></trkpt><trkpt lat="42.31392317848463" lon="19.557808916884056"><ele>571.0</ele><time>2026-05-01T15:29:06Z</time></trkpt><trkpt lat="42.3139367642744" lon="19.55763969308787"><ele>571.75</ele><time>2026-05-01T15:29:06.999Z</time></trkpt><trkpt lat="42.313958040978235" lon="19.557485912081187"><ele>572.5</ele><time>2026-05-01T15:29:07.999Z</time></trkpt><trkpt lat="42.313968628769075" lon="19.557327749923406"><ele>573.25</ele><time>2026-05-01T15:29:08.999Z</time></trkpt><trkpt lat="42.31395863580461" lon="19.557155422305154"><ele>574.0</ele><time>2026-05-01T15:29:09.999Z</time></trkpt><trkpt lat="42.31392355458076" lon="19.55697472892793"><ele>575.25</ele><time>2026-05-01T15:29:10.999Z</time></trkpt><trkpt lat="42.313935407460214" lon="19.556786015287987"><ele>576.5</ele><time>2026-05-01T15:29:11.999Z</time></trkpt><trkpt lat="42.31393860394259" lon="19.556622226968347"><ele>577.75</ele><time>2026-05-01T15:29:12.999Z</time></trkpt><trkpt lat="42.3139516544063" lon="19.556454637987436"><ele>579.0</ele><time>2026-05-01T15:29:13.999Z</time></trkpt><trkpt lat="42.31397102086406" lon="19.556289939026342"><ele>579.4</ele><time>2026-05-01T15:29:14.999Z</time></trkpt><trkpt lat="42.31398329001264" lon="19.556136391203314"><ele>579.8</ele><time>2026-05-01T15:29:15.999Z</time></trkpt><trkpt lat="42.31398570198924" lon="19.555994336696717"><ele>580.2</ele><time>2026-05-01T15:29:17Z</time></trkpt><trkpt lat="42.31398294332304" lon="19.555866254900316"><ele>580.6</ele><time>2026-05-01T15:29:18Z</time></trkpt><trkpt lat="42.313979412626544" lon="19.555742015493596"><ele>581.0</ele><time>2026-05-01T15:29:19Z</time></trkpt><trkpt lat="42.31397637416183" lon="19.555635093187927"><ele>581.0</ele><time>2026-05-01T15:29:20Z</time></trkpt><trkpt lat="42.31391973102426" lon="19.555520768994104"><ele>581.0</ele><time>2026-05-01T15:29:21Z</time></trkpt><trkpt lat="42.313895341488504" lon="19.555387621884776"><ele>581.0</ele><time>2026-05-01T15:29:22Z</time></trkpt><trkpt lat="42.313868525591744" lon="19.555255190724967"><ele>581.0</ele><time>2026-05-01T15:29:23Z</time></trkpt><trkpt lat="42.31383368780463" lon="19.55512878369422"><ele>581.0</ele><time>2026-05-01T15:29:24Z</time></trkpt><trkpt lat="42.31381368258583" lon="19.555000206166266"><ele>573.25</ele><time>2026-05-01T15:29:25Z</time></trkpt><trkpt lat="42.3137480782187" lon="19.554885124753902"><ele>565.5</ele><time>2026-05-01T15:29:26Z</time></trkpt><trkpt lat="42.31370459365027" lon="19.55473516443103"><ele>557.75</ele><time>2026-05-01T15:29:27Z</time></trkpt><trkpt lat="42.313649678976745" lon="19.55460028283379"><ele>550.0</ele><time>2026-05-01T15:29:28Z</time></trkpt><trkpt lat="42.31357999968613" lon="19.554479198660022"><ele>550.0</ele><time>2026-05-01T15:29:29Z</time></trkpt><trkpt lat="42.31352370241361" lon="19.554360429490767"><ele>550.0</ele><time>2026-05-01T15:29:30Z</time></trkpt><trkpt lat="42.313471686796156" lon="19.554244056490738"><ele>550.0</ele><time>2026-05-01T15:29:31Z</time></trkpt><trkpt lat="42.313430284838326" lon="19.55412371318577"><ele>550.0</ele><time>2026-05-01T15:29:32Z</time></trkpt><trkpt lat="42.31339135999512" lon="19.553982044857136"><ele>550.0</ele><time>2026-05-01T15:29:33Z</time></trkpt><trkpt lat="42.313350033059834" lon="19.553836482520417"><ele>549.75</ele><time>2026-05-01T15:29:34Z</time></trkpt><trkpt lat="42.3133088857529" lon="19.55369927309686"><ele>549.5</ele><time>2026-05-01T15:29:35Z</time></trkpt><trkpt lat="42.31323483473227" lon="19.5535809872151"><ele>549.25</ele><time>2026-05-01T15:29:36Z</time></trkpt><trkpt lat="42.31318985744673" lon="19.553435046160192"><ele>549.0</ele><time>2026-05-01T15:29:37Z</time></trkpt><trkpt lat="42.31313849703622" lon="19.553297544582463"><ele>549.0</ele><time>2026-05-01T15:29:38Z</time></trkpt><trkpt lat="42.313085155520746" lon="19.553154739323155"><ele>549.0</ele><time>2026-05-01T15:29:39Z</time></trkpt><trkpt lat="42.31302783669402" lon="19.55300128585691"><ele>549.0</ele><time>2026-05-01T15:29:40Z</time></trkpt><trkpt lat="42.31297611215054" lon="19.552864561620154"><ele>549.0</ele><time>2026-05-01T15:29:41Z</time></trkpt><trkpt lat="42.312931922868934" lon="19.552742931900443"><ele>546.8</ele><time>2026-05-01T15:29:42Z</time></trkpt><trkpt lat="42.31287272561634" lon="19.55265642254156"><ele>544.5999999999999</ele><time>2026-05-01T15:29:43Z</time></trkpt><trkpt lat="42.312821202746115" lon="19.55257819859567"><ele>542.4</ele><time>2026-05-01T15:29:44Z</time></trkpt><trkpt lat="42.312763336190315" lon="19.552494826916856"><ele>540.1999999999999</ele><time>2026-05-01T15:29:45Z</time></trkpt><trkpt lat="42.312694045676565" lon="19.552394995752433"><ele>538.0</ele><time>2026-05-01T15:29:46Z</time></trkpt><trkpt lat="42.31262147612176" lon="19.55229044976248"><ele>538.0</ele><time>2026-05-01T15:29:47Z</time></trkpt><trkpt lat="42.31254917335082" lon="19.552201930862218"><ele>538.0</ele><time>2026-05-01T15:29:48Z</time></trkpt><trkpt lat="42.312497504218236" lon="19.552083798567242"><ele>538.0</ele><time>2026-05-01T15:29:49Z</time></trkpt><trkpt lat="42.3124050369474" lon="19.55200987815669"><ele>538.0</ele><time>2026-05-01T15:29:50Z</time></trkpt><trkpt lat="42.312345637047116" lon="19.551914691272057"><ele>538.0</ele><time>2026-05-01T15:29:51Z</time></trkpt><trkpt lat="42.31229711881978" lon="19.55182951333203"><ele>535.6</ele><time>2026-05-01T15:29:52Z</time></trkpt><trkpt lat="42.312189868580255" lon="19.55181377654547"><ele>533.1999999999999</ele><time>2026-05-01T15:29:53Z</time></trkpt><trkpt lat="42.312084830540904" lon="19.55178137179827"><ele>530.8</ele><time>2026-05-01T15:29:54Z</time></trkpt><trkpt lat="42.31200010624158" lon="19.551742564213384"><ele>528.4</ele><time>2026-05-01T15:29:55Z</time></trkpt><trkpt lat="42.31196350784153" lon="19.55165719614949"><ele>526.0</ele><time>2026-05-01T15:29:56Z</time></trkpt><trkpt lat="42.31191927017078" lon="19.551574644945184"><ele>526.0</ele><time>2026-05-01T15:29:57Z</time></trkpt><trkpt lat="42.31190263559468" lon="19.551475276943762"><ele>526.0</ele><time>2026-05-01T15:29:58Z</time></trkpt><trkpt lat="42.31189345221734" lon="19.55137050527108"><ele>526.0</ele><time>2026-05-01T15:29:59Z</time></trkpt><trkpt lat="42.311898493920104" lon="19.55124442793688"><ele>526.0</ele><time>2026-05-01T15:30:00Z</time></trkpt><trkpt lat="42.311898153362684" lon="19.551083215834446"><ele>526.0</ele><time>2026-05-01T15:30:01Z</time></trkpt><trkpt lat="42.311898746237645" lon="19.550950895477882"><ele>525.4</ele><time>2026-05-01T15:30:02Z</time></trkpt><trkpt lat="42.3119032869394" lon="19.55082591976843"><ele>524.8</ele><time>2026-05-01T15:30:03Z</time></trkpt><trkpt lat="42.31193543121893" lon="19.550707702046004"><ele>524.1999999999999</ele><time>2026-05-01T15:30:04Z</time></trkpt><trkpt lat="42.31192873862672" lon="19.55059496673497"><ele>523.6</ele><time>2026-05-01T15:30:05Z</time></trkpt><trkpt lat="42.31193473570598" lon="19.550509852318697"><ele>523.0</ele><time>2026-05-01T15:30:06Z</time></trkpt><trkpt lat="42.31184251534011" lon="19.55038349702222"><ele>523.3333333333334</ele><time>2026-05-01T15:30:08Z</time></trkpt><trkpt lat="42.311794443715264" lon="19.55032342501202"><ele>523.6666666666667</ele><time>2026-05-01T15:30:10Z</time></trkpt><trkpt lat="42.31174362316399" lon="19.550259014935214"><ele>524.0</ele><time>2026-05-01T15:30:12Z</time></trkpt><trkpt lat="42.311684479464745" lon="19.55016802809447"><ele>524.3333333333334</ele><time>2026-05-01T15:30:14Z</time></trkpt><trkpt lat="42.31163693793827" lon="19.55005965291989"><ele>524.6666666666666</ele><time>2026-05-01T15:30:16Z</time></trkpt><trkpt lat="42.311602513669236" lon="19.54998048616158"><ele>525.0</ele><time>2026-05-01T15:30:18Z</time></trkpt><trkpt lat="42.311571458448554" lon="19.549867759635266"><ele>525.0</ele><time>2026-05-01T15:30:20Z</time></trkpt><trkpt lat="42.311548915334164" lon="19.54976011227555"><ele>525.0</ele><time>2026-05-01T15:30:22Z</time></trkpt><trkpt lat="42.31152545510311" lon="19.549649529816527"><ele>525.0</ele><time>2026-05-01T15:30:25Z</time></trkpt><trkpt lat="42.311509182668374" lon="19.54954578730657"><ele>525.0</ele><time>2026-05-01T15:30:28Z</time></trkpt><trkpt lat="42.31150013448362" lon="19.549408390235094"><ele>525.0</ele><time>2026-05-01T15:30:30Z</time></trkpt><trkpt lat="42.311503830010885" lon="19.5492425981975"><ele>525.3333333333334</ele><time>2026-05-01T15:30:32Z</time></trkpt><trkpt lat="42.31151676178656" lon="19.549146896460506"><ele>525.6666666666666</ele><time>2026-05-01T15:30:33Z</time></trkpt><trkpt lat="42.31153280031439" lon="19.54902820328165"><ele>526.0</ele><time>2026-05-01T15:30:35Z</time></trkpt><trkpt lat="42.311545862604746" lon="19.54893153472966"><ele>526.3333333333333</ele><time>2026-05-01T15:31:27.001Z</time></trkpt><trkpt lat="42.3115967217487" lon="19.548801330159865"><ele>526.6666666666666</ele><time>2026-05-01T15:31:29.001Z</time></trkpt><trkpt lat="42.311627053508886" lon="19.548721101829425"><ele>527.0</ele><time>2026-05-01T15:31:30.001Z</time></trkpt><trkpt lat="42.31165313994711" lon="19.548585241974617"><ele>527.0</ele><time>2026-05-01T15:31:32.001Z</time></trkpt><trkpt lat="42.31167957593821" lon="19.54842112256028"><ele>527.0</ele><time>2026-05-01T15:31:34.001Z</time></trkpt><trkpt lat="42.31167559815259" lon="19.54829964273331"><ele>527.0</ele><time>2026-05-01T15:31:36.001Z</time></trkpt><trkpt lat="42.311537045812635" lon="19.548891530221816"><ele>527.0</ele><time>2026-05-01T15:32:11Z</time></trkpt><trkpt lat="42.311506418782955" lon="19.549039842969655"><ele>527.0</ele><time>2026-05-01T15:32:13Z</time></trkpt><trkpt lat="42.311501233982234" lon="19.549137778068435"><ele>527.0</ele><time>2026-05-01T15:32:14Z</time></trkpt><trkpt lat="42.31149545299744" lon="19.54923329009265"><ele>527.0</ele><time>2026-05-01T15:32:15Z</time></trkpt><trkpt lat="42.31147893605874" lon="19.54937881762918"><ele>527.0</ele><time>2026-05-01T15:32:17Z</time></trkpt><trkpt lat="42.31148429774966" lon="19.54954287541034"><ele>526.6666666666666</ele><time>2026-05-01T15:32:19Z</time></trkpt><trkpt lat="42.31150204807212" lon="19.549655635488246"><ele>526.3333333333333</ele><time>2026-05-01T15:32:20Z</time></trkpt><trkpt lat="42.311522316879916" lon="19.54977279581132"><ele>526.0</ele><time>2026-05-01T15:32:21Z</time></trkpt><trkpt lat="42.311539196616316" lon="19.5498918235413"><ele>525.6666666666666</ele><time>2026-05-01T15:32:22Z</time></trkpt><trkpt lat="42.311567590339685" lon="19.549986570157678"><ele>525.3333333333334</ele><time>2026-05-01T15:32:23Z</time></trkpt><trkpt lat="42.311606151699806" lon="19.55007266915956"><ele>525.0</ele><time>2026-05-01T15:32:24Z</time></trkpt><trkpt lat="42.31164893618695" lon="19.55015546568391"><ele>525.0</ele><time>2026-05-01T15:32:25Z</time></trkpt><trkpt lat="42.31169814486796" lon="19.55023676609898"><ele>525.0</ele><time>2026-05-01T15:32:26Z</time></trkpt><trkpt lat="42.311740882865806" lon="19.550313628098372"><ele>525.0</ele><time>2026-05-01T15:32:27Z</time></trkpt><trkpt lat="42.31181127126712" lon="19.550402338958122"><ele>525.0</ele><time>2026-05-01T15:32:29Z</time></trkpt><trkpt lat="42.31179371842481" lon="19.550511742056624"><ele>525.0</ele><time>2026-05-01T15:32:33Z</time></trkpt><trkpt lat="42.31172353518982" lon="19.550552076904367"><ele>525.0</ele><time>2026-05-01T15:32:35Z</time></trkpt><trkpt lat="42.31166969709125" lon="19.550605493873924"><ele>525.1666666666666</ele><time>2026-05-01T15:32:37Z</time></trkpt><trkpt lat="42.31164130313072" lon="19.550701287771208"><ele>525.3333333333334</ele><time>2026-05-01T15:32:39Z</time></trkpt><trkpt lat="42.31163803559506" lon="19.550816141968017"><ele>525.5</ele><time>2026-05-01T15:32:41Z</time></trkpt><trkpt lat="42.3116604125849" lon="19.550942646592087"><ele>525.6666666666667</ele><time>2026-05-01T15:32:43Z</time></trkpt><trkpt lat="42.31166465331273" lon="19.55103988694799"><ele>525.8333333333334</ele><time>2026-05-01T15:32:45Z</time></trkpt><trkpt lat="42.31165645373161" lon="19.551168650557962"><ele>526.0</ele><time>2026-05-01T15:32:47Z</time></trkpt><trkpt lat="42.311615291243434" lon="19.551270617653355"><ele>526.0</ele><time>2026-05-01T15:32:49Z</time></trkpt><trkpt lat="42.311597010100506" lon="19.551352718346138"><ele>526.0</ele><time>2026-05-01T15:32:51Z</time></trkpt><trkpt lat="42.31151939702096" lon="19.551385629364002"><ele>526.0</ele><time>2026-05-01T15:32:54Z</time></trkpt><trkpt lat="42.31144548700331" lon="19.551362456819152"><ele>526.0</ele><time>2026-05-01T15:32:58Z</time></trkpt><trkpt lat="42.3113750072768" lon="19.551296656784952"><ele>526.0</ele><time>2026-05-01T15:33:06Z</time></trkpt><trkpt lat="42.31134259726888" lon="19.551149578489248"><ele>526.0</ele><time>2026-05-01T15:33:08Z</time></trkpt><trkpt lat="42.31129224751168" lon="19.55108669147693"><ele>524.1666666666667</ele><time>2026-05-01T15:33:10Z</time></trkpt><trkpt lat="42.311231052602324" lon="19.5510207890369"><ele>522.3333333333334</ele><time>2026-05-01T15:33:12Z</time></trkpt><trkpt lat="42.311173961500984" lon="19.550959022558562"><ele>520.5</ele><time>2026-05-01T15:33:14Z</time></trkpt><trkpt lat="42.31110053929237" lon="19.55087243128465"><ele>518.6666666666666</ele><time>2026-05-01T15:33:16Z</time></trkpt><trkpt lat="42.31104193963737" lon="19.55075166149079"><ele>516.8333333333333</ele><time>2026-05-01T15:33:18Z</time></trkpt><trkpt lat="42.31101335986363" lon="19.550659392614563"><ele>515.0</ele><time>2026-05-01T15:33:20Z</time></trkpt><trkpt lat="42.31099173755719" lon="19.550516400463408"><ele>515.0</ele><time>2026-05-01T15:33:22Z</time></trkpt><trkpt lat="42.31095755116545" lon="19.550358806566443"><ele>515.0</ele><time>2026-05-01T15:33:24Z</time></trkpt><trkpt lat="42.310907421862375" lon="19.550199532394764"><ele>515.0</ele><time>2026-05-01T15:33:26Z</time></trkpt><trkpt lat="42.31086719201117" lon="19.55010691619779"><ele>515.0</ele><time>2026-05-01T15:33:27Z</time></trkpt><trkpt lat="42.31078437062972" lon="19.549966044714548"><ele>515.0</ele><time>2026-05-01T15:33:29.001Z</time></trkpt><trkpt lat="42.31074325214591" lon="19.549899219280984"><ele>515.0</ele><time>2026-05-01T15:33:30.001Z</time></trkpt><trkpt lat="42.31066355034151" lon="19.5497813875321"><ele>515.0</ele><time>2026-05-01T15:33:32.001Z</time></trkpt><trkpt lat="42.31060742968566" lon="19.54970538747087"><ele>515.0</ele><time>2026-05-01T15:33:34.001Z</time></trkpt><trkpt lat="42.31057861586752" lon="19.54962854021811"><ele>515.0</ele><time>2026-05-01T15:33:36.001Z</time></trkpt><trkpt lat="42.31052973448037" lon="19.549490889947396"><ele>515.0</ele><time>2026-05-01T15:33:38.001Z</time></trkpt><trkpt lat="42.31048522613207" lon="19.549424797622233"><ele>512.8</ele><time>2026-05-01T15:33:39.001Z</time></trkpt><trkpt lat="42.310404363139014" lon="19.549332106156424"><ele>510.6</ele><time>2026-05-01T15:33:41.001Z</time></trkpt><trkpt lat="42.310280308010014" lon="19.549349787413647"><ele>508.4</ele><time>2026-05-01T15:33:43.001Z</time></trkpt><trkpt lat="42.31021234415607" lon="19.549325210880465"><ele>506.2</ele><time>2026-05-01T15:33:44.001Z</time></trkpt><trkpt lat="42.31013891702098" lon="19.54931914159383"><ele>504.0</ele><time>2026-05-01T15:33:45.001Z</time></trkpt><trkpt lat="42.31006282201304" lon="19.54931350493189"><ele>504.0</ele><time>2026-05-01T15:33:46.001Z</time></trkpt><trkpt lat="42.309940070125215" lon="19.549303640612383"><ele>504.0</ele><time>2026-05-01T15:33:48.001Z</time></trkpt><trkpt lat="42.30986588444788" lon="19.54929653437416"><ele>504.0</ele><time>2026-05-01T15:33:49.001Z</time></trkpt><trkpt lat="42.30972430584563" lon="19.549299828566866"><ele>504.0</ele><time>2026-05-01T15:33:51Z</time></trkpt><trkpt lat="42.30965233100249" lon="19.54933570200109"><ele>504.0</ele><time>2026-05-01T15:33:52Z</time></trkpt><trkpt lat="42.30959181316331" lon="19.54936558228691"><ele>502.5</ele><time>2026-05-01T15:33:53Z</time></trkpt><trkpt lat="42.309485943566834" lon="19.5494171163577"><ele>501.0</ele><time>2026-05-01T15:33:55Z</time></trkpt><trkpt lat="42.30941346293925" lon="19.54942456391021"><ele>499.5</ele><time>2026-05-01T15:33:57Z</time></trkpt><trkpt lat="42.30933236455251" lon="19.549432230147488"><ele>498.0</ele><time>2026-05-01T15:33:59Z</time></trkpt><trkpt lat="42.309255660968425" lon="19.549430706233238"><ele>496.5</ele><time>2026-05-01T15:34:01Z</time></trkpt><trkpt lat="42.30915390023677" lon="19.54941164788405"><ele>495.0</ele><time>2026-05-01T15:34:03Z</time></trkpt><trkpt lat="42.30908204314633" lon="19.549349162344548"><ele>494.99999999999994</ele><time>2026-05-01T15:34:06Z</time></trkpt><trkpt lat="42.309014366971965" lon="19.549284795596563"><ele>495.0</ele><time>2026-05-01T15:34:09Z</time></trkpt><trkpt lat="42.308948330747306" lon="19.549245395839268"><ele>494.99999999999994</ele><time>2026-05-01T15:34:12Z</time></trkpt><trkpt lat="42.308889483991685" lon="19.549322567015928"><ele>494.99999999999994</ele><time>2026-05-01T15:45:55.999Z</time></trkpt><trkpt lat="42.308861617589564" lon="19.54941162109624"><ele>495.0</ele><time>2026-05-01T15:45:58.999Z</time></trkpt><trkpt lat="42.30880035873607" lon="19.549431953195363"><ele>494.99999999999994</ele><time>2026-05-01T15:47:29Z</time></trkpt><trkpt lat="42.30872499937502" lon="19.549455403617188"><ele>494.99999999999994</ele><time>2026-05-01T15:47:40Z</time></trkpt><trkpt lat="42.30866141204644" lon="19.54940795971422"><ele>495.1428571428571</ele><time>2026-05-01T15:47:43Z</time></trkpt><trkpt lat="42.30859597779774" lon="19.549393840955567"><ele>495.2857142857143</ele><time>2026-05-01T15:48:01.999Z</time></trkpt><trkpt lat="42.3085306768582" lon="19.549347054331683"><ele>495.42857142857144</ele><time>2026-05-01T15:48:04.999Z</time></trkpt><trkpt lat="42.30845505828275" lon="19.549328508860977"><ele>495.57142857142856</ele><time>2026-05-01T15:48:06.999Z</time></trkpt><trkpt lat="42.30836824743813" lon="19.549306832201815"><ele>495.7142857142858</ele><time>2026-05-01T15:48:08.999Z</time></trkpt><trkpt lat="42.3083055450909" lon="19.549291175326303"><ele>495.8571428571429</ele><time>2026-05-01T15:48:11Z</time></trkpt><trkpt lat="42.30823177935089" lon="19.549272755421367"><ele>496.0</ele><time>2026-05-01T15:48:13Z</time></trkpt><trkpt lat="42.30815459926499" lon="19.549230685166066"><ele>496.6</ele><time>2026-05-01T15:48:15Z</time></trkpt><trkpt lat="42.308069375508445" lon="19.549171769850826"><ele>497.20000000000005</ele><time>2026-05-01T15:48:17Z</time></trkpt><trkpt lat="42.30797136785811" lon="19.54912115206275"><ele>497.79999999999995</ele><time>2026-05-01T15:48:19Z</time></trkpt><trkpt lat="42.30783987098234" lon="19.5490931017444"><ele>498.4</ele><time>2026-05-01T15:48:21Z</time></trkpt><trkpt lat="42.307766291896705" lon="19.54908984329165"><ele>499.0</ele><time>2026-05-01T15:48:22Z</time></trkpt><trkpt lat="42.30769319742947" lon="19.549086295004287"><ele>499.0</ele><time>2026-05-01T15:48:23Z</time></trkpt><trkpt lat="42.30758319116084" lon="19.549095202405645"><ele>499.0</ele><time>2026-05-01T15:48:25Z</time></trkpt><trkpt lat="42.30748815249191" lon="19.549095021749146"><ele>499.0</ele><time>2026-05-01T15:48:27Z</time></trkpt><trkpt lat="42.307433073750765" lon="19.548984875422917"><ele>499.0</ele><time>2026-05-01T15:48:29Z</time></trkpt><trkpt lat="42.30734862241019" lon="19.548879579224916"><ele>499.0</ele><time>2026-05-01T15:48:31Z</time></trkpt><trkpt lat="42.30729940865626" lon="19.54881764355559"><ele>499.6</ele><time>2026-05-01T15:48:32Z</time></trkpt><trkpt lat="42.30721603167381" lon="19.548774629752216"><ele>500.2</ele><time>2026-05-01T15:48:33Z</time></trkpt><trkpt lat="42.30716042531572" lon="19.54872424994967"><ele>500.80000000000007</ele><time>2026-05-01T15:48:34Z</time></trkpt><trkpt lat="42.307070287696305" lon="19.548617252131525"><ele>501.40000000000003</ele><time>2026-05-01T15:48:36Z</time></trkpt><trkpt lat="42.307008382747725" lon="19.54852857859197"><ele>502.0</ele><time>2026-05-01T15:48:38Z</time></trkpt><trkpt lat="42.306964184229784" lon="19.548420152546353"><ele>502.00000000000006</ele><time>2026-05-01T15:48:40Z</time></trkpt><trkpt lat="42.30694619412221" lon="19.5483205897208"><ele>502.0</ele><time>2026-05-01T15:48:42Z</time></trkpt><trkpt lat="42.306907024184056" lon="19.548167736676817"><ele>502.0</ele><time>2026-05-01T15:48:44Z</time></trkpt><trkpt lat="42.306881930157815" lon="19.54807770544897"><ele>502.0</ele><time>2026-05-01T15:48:45Z</time></trkpt><trkpt lat="42.3068223623093" lon="19.548016344351062"><ele>502.00000000000006</ele><time>2026-05-01T15:48:46Z</time></trkpt><trkpt lat="42.30680725511972" lon="19.547931612584943"><ele>502.0</ele><time>2026-05-01T15:48:47Z</time></trkpt><trkpt lat="42.306773630275444" lon="19.547850047994068"><ele>501.83333333333337</ele><time>2026-05-01T15:48:48Z</time></trkpt><trkpt lat="42.306747501658194" lon="19.547761781459876"><ele>501.6666666666667</ele><time>2026-05-01T15:48:49Z</time></trkpt><trkpt lat="42.3067058290443" lon="19.547676371889036"><ele>501.5</ele><time>2026-05-01T15:48:50Z</time></trkpt><trkpt lat="42.30665587432036" lon="19.547595880143604"><ele>501.33333333333337</ele><time>2026-05-01T15:48:51Z</time></trkpt><trkpt lat="42.30659371288476" lon="19.54753637819232"><ele>501.1666666666667</ele><time>2026-05-01T15:48:52Z</time></trkpt><trkpt lat="42.30652468242771" lon="19.54747957556505"><ele>501.0</ele><time>2026-05-01T15:48:53Z</time></trkpt><trkpt lat="42.30646774255087" lon="19.5473967925349"><ele>501.1666666666667</ele><time>2026-05-01T15:48:54Z</time></trkpt><trkpt lat="42.30639824071857" lon="19.547331676078255"><ele>501.33333333333337</ele><time>2026-05-01T15:48:55Z</time></trkpt><trkpt lat="42.30632581687052" lon="19.547270067839644"><ele>501.5</ele><time>2026-05-01T15:48:56Z</time></trkpt><trkpt lat="42.30624782219047" lon="19.54720319917751"><ele>501.6666666666667</ele><time>2026-05-01T15:48:57Z</time></trkpt><trkpt lat="42.30618136211744" lon="19.547146890800057"><ele>501.83333333333337</ele><time>2026-05-01T15:48:58Z</time></trkpt><trkpt lat="42.30611376661618" lon="19.54708913572371"><ele>502.0</ele><time>2026-05-01T15:48:59Z</time></trkpt><trkpt lat="42.306040192436335" lon="19.547027674519995"><ele>502.00000000000006</ele><time>2026-05-01T15:49:00Z</time></trkpt><trkpt lat="42.30597308768303" lon="19.546999871183832"><ele>502.0</ele><time>2026-05-01T15:49:01Z</time></trkpt><trkpt lat="42.30587181140645" lon="19.546930026861354"><ele>502.0</ele><time>2026-05-01T15:49:03Z</time></trkpt><trkpt lat="42.30580805189182" lon="19.546895653823917"><ele>502.0</ele><time>2026-05-01T15:49:04Z</time></trkpt><trkpt lat="42.30574020033236" lon="19.54684082406694"><ele>502.00000000000006</ele><time>2026-05-01T15:49:05Z</time></trkpt><trkpt lat="42.30567528363198" lon="19.546779744104224"><ele>502.0</ele><time>2026-05-01T15:49:06Z</time></trkpt><trkpt lat="42.30560137070366" lon="19.54673677476164"><ele>501.8571428571428</ele><time>2026-05-01T15:49:07Z</time></trkpt><trkpt lat="42.305551932244896" lon="19.546628938557195"><ele>501.71428571428567</ele><time>2026-05-01T15:49:08Z</time></trkpt><trkpt lat="42.3054873304239" lon="19.546583316751292"><ele>501.57142857142856</ele><time>2026-05-01T15:49:09Z</time></trkpt><trkpt lat="42.30544589018342" lon="19.546510174426682"><ele>501.4285714285714</ele><time>2026-05-01T15:49:10Z</time></trkpt><trkpt lat="42.305376298427156" lon="19.54648092794826"><ele>501.2857142857142</ele><time>2026-05-01T15:49:11Z</time></trkpt><trkpt lat="42.30531412125893" lon="19.546445173943333"><ele>501.14285714285717</ele><time>2026-05-01T15:49:12Z</time></trkpt><trkpt lat="42.30524665574882" lon="19.546417012400056"><ele>501.0</ele><time>2026-05-01T15:49:13Z</time></trkpt><trkpt lat="42.30515140298795" lon="19.546344216376554"><ele>501.0</ele><time>2026-05-01T15:49:15Z</time></trkpt><trkpt lat="42.30509482184786" lon="19.546246913326065"><ele>501.0</ele><time>2026-05-01T15:49:17Z</time></trkpt><trkpt lat="42.30503988420203" lon="19.546079229864674"><ele>501.0</ele><time>2026-05-01T15:49:19Z</time></trkpt><trkpt lat="42.305009380379616" lon="19.545992514872047"><ele>501.0</ele><time>2026-05-01T15:49:20Z</time></trkpt><trkpt lat="42.30497704457836" lon="19.54590170162503"><ele>501.0</ele><time>2026-05-01T15:49:21Z</time></trkpt><trkpt lat="42.304938599454964" lon="19.54581301644667"><ele>501.0</ele><time>2026-05-01T15:49:22Z</time></trkpt><trkpt lat="42.304899904071725" lon="19.545733108398895"><ele>500.3333333333333</ele><time>2026-05-01T15:49:23Z</time></trkpt><trkpt lat="42.30487074085937" lon="19.5456327073094"><ele>499.66666666666663</ele><time>2026-05-01T15:49:24Z</time></trkpt><trkpt lat="42.30484328861646" lon="19.545540335295495"><ele>499.0</ele><time>2026-05-01T15:49:25Z</time></trkpt><trkpt lat="42.3048163364976" lon="19.54543968045394"><ele>498.3333333333333</ele><time>2026-05-01T15:49:26Z</time></trkpt><trkpt lat="42.30477420024317" lon="19.545343029417644"><ele>497.66666666666663</ele><time>2026-05-01T15:49:27Z</time></trkpt><trkpt lat="42.30475790775719" lon="19.545239116999046"><ele>497.0</ele><time>2026-05-01T15:49:28Z</time></trkpt><trkpt lat="42.304727333040255" lon="19.545152123230935"><ele>496.8333333333333</ele><time>2026-05-01T15:49:29Z</time></trkpt><trkpt lat="42.30468465087829" lon="19.545077987223657"><ele>496.66666666666663</ele><time>2026-05-01T15:49:30Z</time></trkpt><trkpt lat="42.30462694674511" lon="19.545015453445536"><ele>496.5</ele><time>2026-05-01T15:49:31Z</time></trkpt><trkpt lat="42.304566615546506" lon="19.544942603926028"><ele>496.33333333333337</ele><time>2026-05-01T15:49:32Z</time></trkpt><trkpt lat="42.30451917839288" lon="19.54486084783919"><ele>496.1666666666667</ele><time>2026-05-01T15:49:33Z</time></trkpt><trkpt lat="42.30447546125215" lon="19.544788643384834"><ele>496.0</ele><time>2026-05-01T15:49:34Z</time></trkpt><trkpt lat="42.30437999028067" lon="19.544755294590583"><ele>496.00000000000006</ele><time>2026-05-01T15:49:36Z</time></trkpt><trkpt lat="42.30431002328799" lon="19.544799540526313"><ele>496.0</ele><time>2026-05-01T15:49:38Z</time></trkpt><trkpt lat="42.30420341743253" lon="19.54489866500301"><ele>496.0</ele><time>2026-05-01T15:49:40Z</time></trkpt><trkpt lat="42.304138866740225" lon="19.544942595794957"><ele>496.0</ele><time>2026-05-01T15:49:41Z</time></trkpt><trkpt lat="42.30406774316948" lon="19.544974234909926"><ele>496.00000000000006</ele><time>2026-05-01T15:49:42Z</time></trkpt><trkpt lat="42.30400495512492" lon="19.54499433705742"><ele>496.0</ele><time>2026-05-01T15:49:43Z</time></trkpt><trkpt lat="42.303926493912094" lon="19.54496134367582"><ele>497.20000000000005</ele><time>2026-05-01T15:49:45Z</time></trkpt><trkpt lat="42.30386422199813" lon="19.544834686208663"><ele>498.40000000000003</ele><time>2026-05-01T15:49:47Z</time></trkpt><trkpt lat="42.30379276450193" lon="19.544792090297488"><ele>499.6</ele><time>2026-05-01T15:49:48Z</time></trkpt><trkpt lat="42.303717371264824" lon="19.5447369725227"><ele>500.8</ele><time>2026-05-01T15:49:49Z</time></trkpt><trkpt lat="42.30363826192117" lon="19.544672427092394"><ele>502.0</ele><time>2026-05-01T15:49:50Z</time></trkpt><trkpt lat="42.30356435420725" lon="19.54460128517838"><ele>500.6666666666667</ele><time>2026-05-01T15:49:51Z</time></trkpt><trkpt lat="42.303513339693" lon="19.544535380146286"><ele>499.33333333333337</ele><time>2026-05-01T15:49:52Z</time></trkpt><trkpt lat="42.303420330428565" lon="19.544444832950468"><ele>498.0</ele><time>2026-05-01T15:49:54Z</time></trkpt><trkpt lat="42.30333843923312" lon="19.544427382106534"><ele>496.66666666666663</ele><time>2026-05-01T15:49:56Z</time></trkpt><trkpt lat="42.30323404403375" lon="19.54438472379869"><ele>495.3333333333333</ele><time>2026-05-01T15:49:58.999Z</time></trkpt><trkpt lat="42.30317342368399" lon="19.544351328167956"><ele>494.0</ele><time>2026-05-01T15:49:59.999Z</time></trkpt><trkpt lat="42.303082544459876" lon="19.544235134997432"><ele>495.42857142857144</ele><time>2026-05-01T15:50:01.999Z</time></trkpt><trkpt lat="42.30303389763682" lon="19.5441560378648"><ele>496.85714285714283</ele><time>2026-05-01T15:50:02.999Z</time></trkpt><trkpt lat="42.302978984935756" lon="19.544078933816376"><ele>498.2857142857143</ele><time>2026-05-01T15:50:03.999Z</time></trkpt><trkpt lat="42.302927234401096" lon="19.544025131649143"><ele>499.7142857142857</ele><time>2026-05-01T15:50:04.999Z</time></trkpt><trkpt lat="42.30287243260853" lon="19.54398316664756"><ele>501.1428571428571</ele><time>2026-05-01T15:50:05.999Z</time></trkpt><trkpt lat="42.30281278249623" lon="19.543949605213182"><ele>502.57142857142856</ele><time>2026-05-01T15:50:06.999Z</time></trkpt><trkpt lat="42.302749973143975" lon="19.543910955214642"><ele>504.0</ele><time>2026-05-01T15:50:07.999Z</time></trkpt><trkpt lat="42.30268753133567" lon="19.543850840095477"><ele>504.0</ele><time>2026-05-01T15:50:08.999Z</time></trkpt><trkpt lat="42.302610309911884" lon="19.543844196716783"><ele>504.0</ele><time>2026-05-01T15:50:09.999Z</time></trkpt><trkpt lat="42.30253852015337" lon="19.543829319466443"><ele>504.0</ele><time>2026-05-01T15:50:10.999Z</time></trkpt><trkpt lat="42.30245867747077" lon="19.54381028075123"><ele>504.0</ele><time>2026-05-01T15:50:11.999Z</time></trkpt><trkpt lat="42.302375357612775" lon="19.54379590661867"><ele>504.0</ele><time>2026-05-01T15:50:12.999Z</time></trkpt><trkpt lat="42.30231044296306" lon="19.543781075319988"><ele>504.0</ele><time>2026-05-01T15:50:13.999Z</time></trkpt><trkpt lat="42.30226286882891" lon="19.54367670901868"><ele>503.6666666666667</ele><time>2026-05-01T15:50:15.999Z</time></trkpt><trkpt lat="42.30217417947491" lon="19.543604596499026"><ele>503.33333333333337</ele><time>2026-05-01T15:50:18Z</time></trkpt><trkpt lat="42.30206719999061" lon="19.54357185753784"><ele>503.0</ele><time>2026-05-01T15:50:20Z</time></trkpt><trkpt lat="42.301994803153384" lon="19.5435505542113"><ele>502.6666666666667</ele><time>2026-05-01T15:50:21Z</time></trkpt><trkpt lat="42.30191398341096" lon="19.54354760645511"><ele>502.33333333333337</ele><time>2026-05-01T15:50:22Z</time></trkpt><trkpt lat="42.3018480009054" lon="19.54350219541157"><ele>502.0</ele><time>2026-05-01T15:50:23Z</time></trkpt><trkpt lat="42.30174633254576" lon="19.543439084659166"><ele>502.00000000000006</ele><time>2026-05-01T15:50:25Z</time></trkpt><trkpt lat="42.301690261719536" lon="19.54339179908008"><ele>502.0</ele><time>2026-05-01T15:50:26Z</time></trkpt><trkpt lat="42.301634538180394" lon="19.54334284296316"><ele>502.0</ele><time>2026-05-01T15:50:27Z</time></trkpt><trkpt lat="42.301563045252436" lon="19.5433468263458"><ele>502.0</ele><time>2026-05-01T15:50:28Z</time></trkpt><trkpt lat="42.301496775325084" lon="19.543336205526483"><ele>502.00000000000006</ele><time>2026-05-01T15:50:29Z</time></trkpt><trkpt lat="42.30140970460868" lon="19.54335737238105"><ele>502.0</ele><time>2026-05-01T15:50:31Z</time></trkpt><trkpt lat="42.30129604630786" lon="19.543393584505942"><ele>502.83333333333337</ele><time>2026-05-01T15:50:33Z</time></trkpt><trkpt lat="42.301189875549305" lon="19.543377811978477"><ele>503.6666666666667</ele><time>2026-05-01T15:50:35Z</time></trkpt><trkpt lat="42.30108162948995" lon="19.54338525386901"><ele>504.5</ele><time>2026-05-01T15:50:37Z</time></trkpt><trkpt lat="42.3010196339719" lon="19.54340590241957"><ele>505.33333333333337</ele><time>2026-05-01T15:50:38Z</time></trkpt><trkpt lat="42.300948833362725" lon="19.54340561721258"><ele>506.1666666666667</ele><time>2026-05-01T15:50:39Z</time></trkpt><trkpt lat="42.3008702532847" lon="19.543398539908576"><ele>507.0</ele><time>2026-05-01T15:50:40Z</time></trkpt><trkpt lat="42.30078890541339" lon="19.543394954027686"><ele>507.0</ele><time>2026-05-01T15:50:41Z</time></trkpt><trkpt lat="42.300674169226646" lon="19.543354783319806"><ele>507.00000000000006</ele><time>2026-05-01T15:50:43Z</time></trkpt><trkpt lat="42.300554380014226" lon="19.543283158774027"><ele>507.00000000000006</ele><time>2026-05-01T15:50:45Z</time></trkpt><trkpt lat="42.30049375895083" lon="19.543248988902423"><ele>507.0</ele><time>2026-05-01T15:50:46Z</time></trkpt><trkpt lat="42.30042934303265" lon="19.54322212834628"><ele>507.0</ele><time>2026-05-01T15:50:47Z</time></trkpt><trkpt lat="42.300356415633544" lon="19.54318750236609"><ele>509.6</ele><time>2026-05-01T15:50:48Z</time></trkpt><trkpt lat="42.3002761355448" lon="19.54315110099078"><ele>512.2</ele><time>2026-05-01T15:50:49Z</time></trkpt><trkpt lat="42.30018717697859" lon="19.543099749300314"><ele>514.8</ele><time>2026-05-01T15:50:50Z</time></trkpt><trkpt lat="42.30007693399565" lon="19.543028295178214"><ele>517.4</ele><time>2026-05-01T15:50:51Z</time></trkpt><trkpt lat="42.299984279974886" lon="19.542966261693913"><ele>520.0</ele><time>2026-05-01T15:50:52Z</time></trkpt><trkpt lat="42.299902862482604" lon="19.542915837518045"><ele>519.5</ele><time>2026-05-01T15:50:53Z</time></trkpt><trkpt lat="42.29981464986881" lon="19.54286839862478"><ele>519.0</ele><time>2026-05-01T15:50:54Z</time></trkpt><trkpt lat="42.29973402074752" lon="19.542829704239523"><ele>518.5</ele><time>2026-05-01T15:50:55Z</time></trkpt><trkpt lat="42.29965448671398" lon="19.542791773259566"><ele>518.0</ele><time>2026-05-01T15:50:56Z</time></trkpt><trkpt lat="42.29958757818889" lon="19.542753784353295"><ele>517.5</ele><time>2026-05-01T15:50:57Z</time></trkpt><trkpt lat="42.29950643719119" lon="19.542716608157903"><ele>517.0</ele><time>2026-05-01T15:50:58Z</time></trkpt><trkpt lat="42.29941340257653" lon="19.542689770365545"><ele>517.0</ele><time>2026-05-01T15:50:59Z</time></trkpt><trkpt lat="42.29934174778959" lon="19.542666477312476"><ele>517.0</ele><time>2026-05-01T15:51:00Z</time></trkpt><trkpt lat="42.299273692583135" lon="19.542643900823716"><ele>517.0</ele><time>2026-05-01T15:51:01Z</time></trkpt><trkpt lat="42.29915357553369" lon="19.54262373481909"><ele>517.0</ele><time>2026-05-01T15:51:03Z</time></trkpt><trkpt lat="42.29908269848496" lon="19.542615663050466"><ele>517.0</ele><time>2026-05-01T15:51:04Z</time></trkpt><trkpt lat="42.29902557215575" lon="19.54256686535686"><ele>517.0</ele><time>2026-05-01T15:51:05Z</time></trkpt><trkpt lat="42.29896815603784" lon="19.54252951102148"><ele>517.3333333333334</ele><time>2026-05-01T15:51:06Z</time></trkpt><trkpt lat="42.29889903584089" lon="19.542510406934067"><ele>517.6666666666667</ele><time>2026-05-01T15:51:07Z</time></trkpt><trkpt lat="42.29883819224778" lon="19.542462947311595"><ele>518.0</ele><time>2026-05-01T15:51:08Z</time></trkpt><trkpt lat="42.298746817000335" lon="19.542424560757304"><ele>518.3333333333334</ele><time>2026-05-01T15:51:10Z</time></trkpt><trkpt lat="42.29867191037915" lon="19.54241415478849"><ele>518.6666666666666</ele><time>2026-05-01T15:51:12Z</time></trkpt><trkpt lat="42.29857953322156" lon="19.54239745176857"><ele>519.0</ele><time>2026-05-01T15:51:14Z</time></trkpt><trkpt lat="42.29851555544694" lon="19.542382472095785"><ele>519.0</ele><time>2026-05-01T15:51:16Z</time></trkpt><trkpt lat="42.298416513257685" lon="19.542360497901644"><ele>519.0</ele><time>2026-05-01T15:51:21Z</time></trkpt><trkpt lat="42.298339734505255" lon="19.54235766663815"><ele>519.0</ele><time>2026-05-01T15:51:23Z</time></trkpt><trkpt lat="42.29827229117085" lon="19.54235766664172"><ele>519.0</ele><time>2026-05-01T15:51:41Z</time></trkpt><trkpt lat="42.29820661877253" lon="19.54239099054989"><ele>519.0</ele><time>2026-05-01T15:51:50Z</time></trkpt><trkpt lat="42.298138296092276" lon="19.54241948909474"><ele>519.0</ele><time>2026-05-01T15:51:55Z</time></trkpt><trkpt lat="42.298068807329784" lon="19.542473453029274"><ele>518.8571428571429</ele><time>2026-05-01T15:51:59Z</time></trkpt><trkpt lat="42.298001981846674" lon="19.54249968787011"><ele>518.7142857142857</ele><time>2026-05-01T15:52:01Z</time></trkpt><trkpt lat="42.29793191946988" lon="19.54253834733294"><ele>518.5714285714286</ele><time>2026-05-01T15:52:04Z</time></trkpt><trkpt lat="42.297861590986244" lon="19.54257856509205"><ele>518.4285714285714</ele><time>2026-05-01T15:52:06.999Z</time></trkpt><trkpt lat="42.297798374543845" lon="19.542623908324185"><ele>518.2857142857142</ele><time>2026-05-01T15:52:11.999Z</time></trkpt><trkpt lat="42.297736133757525" lon="19.542685560983266"><ele>518.1428571428571</ele><time>2026-05-01T15:52:17.999Z</time></trkpt><trkpt lat="42.297666852336626" lon="19.542730572716668"><ele>518.0</ele><time>2026-05-01T15:52:19.999Z</time></trkpt><trkpt lat="42.2975829010183" lon="19.542752805757324"><ele>518.0</ele><time>2026-05-01T15:52:23Z</time></trkpt><trkpt lat="42.29752468527351" lon="19.542792673223616"><ele>518.0</ele><time>2026-05-01T15:54:45Z</time></trkpt><trkpt lat="42.29746060564219" lon="19.542792796036668"><ele>518.0</ele><time>2026-05-01T15:57:39Z</time></trkpt><trkpt lat="42.29738526395273" lon="19.542793812803108"><ele>518.0</ele><time>2026-05-01T15:57:42Z</time></trkpt><trkpt lat="42.297321008093085" lon="19.54279455034682"><ele>518.0</ele><time>2026-05-01T15:57:54Z</time></trkpt><trkpt lat="42.29725388820726" lon="19.54278098315967"><ele>518.0</ele><time>2026-05-01T15:58:12Z</time></trkpt><trkpt lat="42.29719035373951" lon="19.542762687682213"><ele>518.0</ele><time>2026-05-01T15:58:17Z</time></trkpt><trkpt lat="42.297118037211284" lon="19.54271532944883"><ele>519.0</ele><time>2026-05-01T15:58:20Z</time></trkpt><trkpt lat="42.297046956883406" lon="19.542669717719757"><ele>520.0</ele><time>2026-05-01T16:01:29Z</time></trkpt><trkpt lat="42.296986283846564" lon="19.5425849441862"><ele>521.0</ele><time>2026-05-01T16:01:32Z</time></trkpt><trkpt lat="42.296930476728846" lon="19.542530441370356"><ele>522.0</ele><time>2026-05-01T16:01:34Z</time></trkpt><trkpt lat="42.29687538632036" lon="19.54248679514761"><ele>523.0</ele><time>2026-05-01T16:01:36Z</time></trkpt><trkpt lat="42.29683222000094" lon="19.54242385606431"><ele>524.0</ele><time>2026-05-01T16:01:38Z</time></trkpt><trkpt lat="42.296809717266754" lon="19.542304859234523"><ele>524.0</ele><time>2026-05-01T16:01:40Z</time></trkpt><trkpt lat="42.29675199993613" lon="19.542216093896226"><ele>524.0</ele><time>2026-05-01T16:01:43Z</time></trkpt><trkpt lat="42.296692675069835" lon="19.542114220786345"><ele>524.0</ele><time>2026-05-01T16:01:46Z</time></trkpt><trkpt lat="42.29663742695059" lon="19.542055392728898"><ele>524.0</ele><time>2026-05-01T16:01:48Z</time></trkpt><trkpt lat="42.296542866642426" lon="19.542008865770097"><ele>524.0</ele><time>2026-05-01T16:01:50Z</time></trkpt><trkpt lat="42.29646782271161" lon="19.54200930215864"><ele>524.0</ele><time>2026-05-01T16:01:52Z</time></trkpt><trkpt lat="42.296377596495525" lon="19.54199675275823"><ele>523.3333333333333</ele><time>2026-05-01T16:01:54Z</time></trkpt><trkpt lat="42.2963123456378" lon="19.54200039289921"><ele>522.6666666666666</ele><time>2026-05-01T16:01:56Z</time></trkpt><trkpt lat="42.296217336924514" lon="19.5420187051289"><ele>522.0</ele><time>2026-05-01T16:01:58Z</time></trkpt><trkpt lat="42.29610346118222" lon="19.54208706465778"><ele>521.3333333333334</ele><time>2026-05-01T16:02:00Z</time></trkpt><trkpt lat="42.29604616778388" lon="19.542131368995904"><ele>520.6666666666667</ele><time>2026-05-01T16:02:02Z</time></trkpt><trkpt lat="42.29597379326853" lon="19.542176341729025"><ele>520.0</ele><time>2026-05-01T16:02:05Z</time></trkpt><trkpt lat="42.29591574252418" lon="19.54211941179409"><ele>518.8</ele><time>2026-05-01T16:02:10Z</time></trkpt><trkpt lat="42.29585845941661" lon="19.54199010981747"><ele>517.6</ele><time>2026-05-01T16:02:12Z</time></trkpt><trkpt lat="42.29583485424079" lon="19.54187937568795"><ele>516.4</ele><time>2026-05-01T16:02:14Z</time></trkpt><trkpt lat="42.29579527256641" lon="19.54177890378232"><ele>515.2</ele><time>2026-05-01T16:02:16Z</time></trkpt><trkpt lat="42.29578178750385" lon="19.541647746558443"><ele>514.0</ele><time>2026-05-01T16:02:18Z</time></trkpt><trkpt lat="42.295760218497286" lon="19.54148861728366"><ele>514.0</ele><time>2026-05-01T16:02:20Z</time></trkpt><trkpt lat="42.29572631245502" lon="19.54135001518729"><ele>514.0</ele><time>2026-05-01T16:02:22Z</time></trkpt><trkpt lat="42.29569535970037" lon="19.54126485561501"><ele>514.0</ele><time>2026-05-01T16:02:23Z</time></trkpt><trkpt lat="42.2956467320804" lon="19.541170153628542"><ele>514.0</ele><time>2026-05-01T16:02:24Z</time></trkpt><trkpt lat="42.2955873305764" lon="19.541077921112215"><ele>514.0</ele><time>2026-05-01T16:02:25Z</time></trkpt><trkpt lat="42.29554467595391" lon="19.541008480432076"><ele>514.0</ele><time>2026-05-01T16:02:26Z</time></trkpt><trkpt lat="42.29550181207411" lon="19.54093409052789"><ele>511.4</ele><time>2026-05-01T16:02:27Z</time></trkpt><trkpt lat="42.295426744771234" lon="19.540808747889315"><ele>508.79999999999995</ele><time>2026-05-01T16:02:29Z</time></trkpt><trkpt lat="42.295358743609725" lon="19.54067422248128"><ele>506.20000000000005</ele><time>2026-05-01T16:02:31Z</time></trkpt><trkpt lat="42.29531898467494" lon="19.54060299940343"><ele>503.6</ele><time>2026-05-01T16:02:31.999Z</time></trkpt><trkpt lat="42.295256142663405" lon="19.540461499716912"><ele>501.0</ele><time>2026-05-01T16:02:33.999Z</time></trkpt><trkpt lat="42.29520719520684" lon="19.540325847894803"><ele>499.4</ele><time>2026-05-01T16:02:35.999Z</time></trkpt><trkpt lat="42.29518030521537" lon="19.54019735083728"><ele>497.8</ele><time>2026-05-01T16:02:37.999Z</time></trkpt><trkpt lat="42.295147806184914" lon="19.540074233560528"><ele>496.19999999999993</ele><time>2026-05-01T16:02:39.999Z</time></trkpt><trkpt lat="42.29511425363722" lon="19.53995109227132"><ele>494.59999999999997</ele><time>2026-05-01T16:02:41.999Z</time></trkpt><trkpt lat="42.29506849619314" lon="19.539799165223503"><ele>493.0</ele><time>2026-05-01T16:02:43.999Z</time></trkpt><trkpt lat="42.295043056676256" lon="19.539714700139406"><ele>493.0</ele><time>2026-05-01T16:02:44.999Z</time></trkpt><trkpt lat="42.2950390803146" lon="19.539577852556118"><ele>493.0</ele><time>2026-05-01T16:02:46.999Z</time></trkpt><trkpt lat="42.295064208995505" lon="19.53941052228903"><ele>493.0</ele><time>2026-05-01T16:02:48.999Z</time></trkpt><trkpt lat="42.29506110718624" lon="19.539254916850712"><ele>493.0</ele><time>2026-05-01T16:02:50.999Z</time></trkpt><trkpt lat="42.294995930178416" lon="19.53911123087998"><ele>491.79999999999995</ele><time>2026-05-01T16:02:53Z</time></trkpt><trkpt lat="42.29493540048933" lon="19.53900312393319"><ele>490.59999999999997</ele><time>2026-05-01T16:02:55Z</time></trkpt><trkpt lat="42.29495949385443" lon="19.53889155278638"><ele>489.40000000000003</ele><time>2026-05-01T16:02:57Z</time></trkpt><trkpt lat="42.295037725788944" lon="19.538838404384133"><ele>488.20000000000005</ele><time>2026-05-01T16:02:59Z</time></trkpt><trkpt lat="42.29516739472531" lon="19.538841047284386"><ele>487.0</ele><time>2026-05-01T16:03:01Z</time></trkpt><trkpt lat="42.29525683938856" lon="19.538830451399004"><ele>487.0</ele><time>2026-05-01T16:03:02Z</time></trkpt><trkpt lat="42.29533870334573" lon="19.538804862953697"><ele>487.00000000000006</ele><time>2026-05-01T16:03:03Z</time></trkpt><trkpt lat="42.295405429353636" lon="19.538809318238204"><ele>487.00000000000006</ele><time>2026-05-01T16:03:04Z</time></trkpt><trkpt lat="42.29551417656825" lon="19.538821265448536"><ele>487.0</ele><time>2026-05-01T16:03:06Z</time></trkpt><trkpt lat="42.295588647834755" lon="19.53871313674093"><ele>487.0</ele><time>2026-05-01T16:03:08Z</time></trkpt><trkpt lat="42.2956111562164" lon="19.538602423759446"><ele>486.0</ele><time>2026-05-01T16:03:10Z</time></trkpt><trkpt lat="42.29560025228803" lon="19.538457130312345"><ele>485.00000000000006</ele><time>2026-05-01T16:03:12Z</time></trkpt><trkpt lat="42.2955746633516" lon="19.53831331742926"><ele>484.00000000000006</ele><time>2026-05-01T16:03:14Z</time></trkpt><trkpt lat="42.29556271155468" lon="19.53820651709819"><ele>483.0</ele><time>2026-05-01T16:03:16Z</time></trkpt><trkpt lat="42.29555598588913" lon="19.538095264195892"><ele>482.0</ele><time>2026-05-01T16:03:18Z</time></trkpt><trkpt lat="42.29554941233699" lon="19.537987026631132"><ele>481.99999999999994</ele><time>2026-05-01T16:03:20Z</time></trkpt><trkpt lat="42.29554425072222" lon="19.53790203745237"><ele>482.0</ele><time>2026-05-01T16:03:23Z</time></trkpt><trkpt lat="42.295450996753175" lon="19.53780644729616"><ele>482.0</ele><time>2026-05-01T16:03:35Z</time></trkpt><trkpt lat="42.29537971884736" lon="19.537713433198647"><ele>482.0</ele><time>2026-05-01T16:03:36Z</time></trkpt><trkpt lat="42.29534035150768" lon="19.53762831126002"><ele>481.99999999999994</ele><time>2026-05-01T16:03:37Z</time></trkpt><trkpt lat="42.29530210434831" lon="19.537539858279697"><ele>482.0</ele><time>2026-05-01T16:03:38Z</time></trkpt><trkpt lat="42.29525357408612" lon="19.537431594733352"><ele>481.3333333333333</ele><time>2026-05-01T16:03:39Z</time></trkpt><trkpt lat="42.295195347573895" lon="19.537302329601616"><ele>480.66666666666663</ele><time>2026-05-01T16:03:40Z</time></trkpt><trkpt lat="42.29514930658645" lon="19.537202217494432"><ele>480.0</ele><time>2026-05-01T16:03:41Z</time></trkpt><trkpt lat="42.29508521914638" lon="19.53714735754731"><ele>479.33333333333337</ele><time>2026-05-01T16:03:42Z</time></trkpt><trkpt lat="42.29504724316837" lon="19.537064054542487"><ele>478.6666666666667</ele><time>2026-05-01T16:03:43Z</time></trkpt><trkpt lat="42.29498208091244" lon="19.53699928697637"><ele>478.0</ele><time>2026-05-01T16:03:44Z</time></trkpt><trkpt lat="42.29490839533895" lon="19.536957439225148"><ele>477.83333333333337</ele><time>2026-05-01T16:03:45Z</time></trkpt><trkpt lat="42.29484763710946" lon="19.53687526484685"><ele>477.6666666666667</ele><time>2026-05-01T16:03:46Z</time></trkpt><trkpt lat="42.294755510193234" lon="19.536849095184635"><ele>477.5</ele><time>2026-05-01T16:03:47Z</time></trkpt><trkpt lat="42.29469603180393" lon="19.536798930493937"><ele>477.33333333333337</ele><time>2026-05-01T16:03:48Z</time></trkpt><trkpt lat="42.29462816420236" lon="19.536769990005894"><ele>477.1666666666667</ele><time>2026-05-01T16:03:49Z</time></trkpt><trkpt lat="42.29455344421848" lon="19.53675661909041"><ele>477.0</ele><time>2026-05-01T16:03:50Z</time></trkpt><trkpt lat="42.29449280691176" lon="19.53670194122926"><ele>477.0</ele><time>2026-05-01T16:03:51Z</time></trkpt><trkpt lat="42.294427832540705" lon="19.536662487585694"><ele>477.0</ele><time>2026-05-01T16:03:52Z</time></trkpt><trkpt lat="42.294358738881215" lon="19.53662053273726"><ele>477.0</ele><time>2026-05-01T16:03:53Z</time></trkpt><trkpt lat="42.29429314718391" lon="19.536566059856955"><ele>477.0</ele><time>2026-05-01T16:03:54Z</time></trkpt><trkpt lat="42.29422161414183" lon="19.536507558159293"><ele>477.0</ele><time>2026-05-01T16:03:55Z</time></trkpt><trkpt lat="42.294138107562084" lon="19.536463646822813"><ele>477.0</ele><time>2026-05-01T16:03:56Z</time></trkpt><trkpt lat="42.29406893249564" lon="19.53638218630791"><ele>477.0</ele><time>2026-05-01T16:03:57Z</time></trkpt><trkpt lat="42.29397668278481" lon="19.53634118461694"><ele>477.0</ele><time>2026-05-01T16:03:58Z</time></trkpt><trkpt lat="42.29390801975814" lon="19.536299283129203"><ele>477.0</ele><time>2026-05-01T16:03:59Z</time></trkpt><trkpt lat="42.29384225903777" lon="19.536259152677236"><ele>477.0</ele><time>2026-05-01T16:04:00Z</time></trkpt><trkpt lat="42.293779346066664" lon="19.536220760103017"><ele>477.0</ele><time>2026-05-01T16:04:01Z</time></trkpt><trkpt lat="42.29367073861347" lon="19.536154482527056"><ele>477.0</ele><time>2026-05-01T16:04:03Z</time></trkpt><trkpt lat="42.293605233097004" lon="19.536116530001266"><ele>475.6</ele><time>2026-05-01T16:04:04Z</time></trkpt><trkpt lat="42.2935121574906" lon="19.53607185488645"><ele>474.20000000000005</ele><time>2026-05-01T16:04:05Z</time></trkpt><trkpt lat="42.29340309124577" lon="19.536008955377028"><ele>472.8</ele><time>2026-05-01T16:04:06Z</time></trkpt><trkpt lat="42.293318813303266" lon="19.535954873904014"><ele>471.4</ele><time>2026-05-01T16:04:07Z</time></trkpt><trkpt lat="42.2932503313401" lon="19.53590955521651"><ele>470.0</ele><time>2026-05-01T16:04:08Z</time></trkpt><trkpt lat="42.293181469619284" lon="19.535842716813473"><ele>469.99999999999994</ele><time>2026-05-01T16:04:10Z</time></trkpt><trkpt lat="42.29310758259575" lon="19.53594122614941"><ele>470.0</ele><time>2026-05-01T16:04:13Z</time></trkpt><trkpt lat="42.293091499133254" lon="19.53602752155745"><ele>470.0</ele><time>2026-05-01T16:04:14Z</time></trkpt><trkpt lat="42.293058302359675" lon="19.53611703749162"><ele>470.0</ele><time>2026-05-01T16:04:15Z</time></trkpt><trkpt lat="42.293030118001724" lon="19.536225459686374"><ele>469.99999999999994</ele><time>2026-05-01T16:04:16Z</time></trkpt><trkpt lat="42.29299962079425" lon="19.53634401443672"><ele>470.0</ele><time>2026-05-01T16:04:17Z</time></trkpt><trkpt lat="42.29296568166806" lon="19.53647604731477"><ele>470.3333333333333</ele><time>2026-05-01T16:04:18Z</time></trkpt><trkpt lat="42.29293713736831" lon="19.53658586609337"><ele>470.66666666666663</ele><time>2026-05-01T16:04:19Z</time></trkpt><trkpt lat="42.29291485099461" lon="19.536675419234143"><ele>471.0</ele><time>2026-05-01T16:04:20Z</time></trkpt><trkpt lat="42.29290173123903" lon="19.53675947530336"><ele>471.33333333333337</ele><time>2026-05-01T16:04:22Z</time></trkpt><trkpt lat="42.2928376291187" lon="19.53676256704471"><ele>471.6666666666667</ele><time>2026-05-01T16:04:23Z</time></trkpt><trkpt lat="42.29276680304411" lon="19.536761535320395"><ele>472.0</ele><time>2026-05-01T16:04:24Z</time></trkpt><trkpt lat="42.29266110570408" lon="19.536776125907366"><ele>472.00000000000006</ele><time>2026-05-01T16:04:26Z</time></trkpt><trkpt lat="42.29257864865467" lon="19.536799414624525"><ele>472.0</ele><time>2026-05-01T16:04:28Z</time></trkpt><trkpt lat="42.2925476829503" lon="19.536724041893436"><ele>472.0</ele><time>2026-05-01T16:04:29Z</time></trkpt><trkpt lat="42.29245739979359" lon="19.536634808010483"><ele>472.0</ele><time>2026-05-01T16:04:31Z</time></trkpt><trkpt lat="42.29238859342412" lon="19.53657685551612"><ele>472.00000000000006</ele><time>2026-05-01T16:04:32Z</time></trkpt><trkpt lat="42.2923058733643" lon="19.536507025451154"><ele>472.0</ele><time>2026-05-01T16:04:33Z</time></trkpt><trkpt lat="42.292218761055224" lon="19.53643515695661"><ele>471.0</ele><time>2026-05-01T16:04:34Z</time></trkpt><trkpt lat="42.29212742678701" lon="19.536365006126967"><ele>470.00000000000006</ele><time>2026-05-01T16:04:35Z</time></trkpt><trkpt lat="42.292034091616735" lon="19.536293993567597"><ele>469.00000000000006</ele><time>2026-05-01T16:04:36Z</time></trkpt><trkpt lat="42.29195544661705" lon="19.536234514634863"><ele>468.0</ele><time>2026-05-01T16:04:37Z</time></trkpt><trkpt lat="42.291873681223585" lon="19.5361869200767"><ele>467.0</ele><time>2026-05-01T16:04:38Z</time></trkpt><trkpt lat="42.29179129047051" lon="19.536117207034"><ele>466.8</ele><time>2026-05-01T16:04:38.999Z</time></trkpt><trkpt lat="42.291718088551015" lon="19.536027151378175"><ele>466.6</ele><time>2026-05-01T16:04:39.999Z</time></trkpt><trkpt lat="42.291643280581845" lon="19.535958399213932"><ele>466.40000000000003</ele><time>2026-05-01T16:04:40.999Z</time></trkpt><trkpt lat="42.291561112923034" lon="19.53588357578295"><ele>466.20000000000005</ele><time>2026-05-01T16:04:41.999Z</time></trkpt><trkpt lat="42.29147223989883" lon="19.535802611888283"><ele>466.0</ele><time>2026-05-01T16:04:42.999Z</time></trkpt><trkpt lat="42.291383847839775" lon="19.535719862444303"><ele>465.4</ele><time>2026-05-01T16:04:43.999Z</time></trkpt><trkpt lat="42.29129992380861" lon="19.53563671354224"><ele>464.8</ele><time>2026-05-01T16:04:44.999Z</time></trkpt><trkpt lat="42.29122184999515" lon="19.535544841841336"><ele>464.19999999999993</ele><time>2026-05-01T16:04:45.999Z</time></trkpt><trkpt lat="42.291139684609256" lon="19.535446559528996"><ele>463.59999999999997</ele><time>2026-05-01T16:04:46.999Z</time></trkpt><trkpt lat="42.291057835717965" lon="19.535349969780686"><ele>463.0</ele><time>2026-05-01T16:04:47.999Z</time></trkpt><trkpt lat="42.29098388330335" lon="19.53527390543825"><ele>463.00000000000006</ele><time>2026-05-01T16:04:48.999Z</time></trkpt><trkpt lat="42.29091455470229" lon="19.53520610319164"><ele>463.0</ele><time>2026-05-01T16:04:49.999Z</time></trkpt><trkpt lat="42.29084096742835" lon="19.53513413596924"><ele>463.0</ele><time>2026-05-01T16:04:50.999Z</time></trkpt><trkpt lat="42.29077143741168" lon="19.535067163048435"><ele>463.0</ele><time>2026-05-01T16:04:51.999Z</time></trkpt><trkpt lat="42.290716647764974" lon="19.53500563907351"><ele>463.00000000000006</ele><time>2026-05-01T16:04:52.999Z</time></trkpt><trkpt lat="42.29064798408879" lon="19.534925838896676"><ele>463.0</ele><time>2026-05-01T16:04:53.999Z</time></trkpt><trkpt lat="42.29057209302323" lon="19.534837721327225"><ele>462.2</ele><time>2026-05-01T16:04:54.999Z</time></trkpt><trkpt lat="42.29050580736443" lon="19.534770614332103"><ele>461.4</ele><time>2026-05-01T16:04:55.999Z</time></trkpt><trkpt lat="42.29042367232971" lon="19.534730506296615"><ele>460.59999999999997</ele><time>2026-05-01T16:04:56.999Z</time></trkpt><trkpt lat="42.29033120164962" lon="19.534710814721638"><ele>459.79999999999995</ele><time>2026-05-01T16:04:58Z</time></trkpt><trkpt lat="42.29022935319506" lon="19.53468895531027"><ele>459.0</ele><time>2026-05-01T16:04:59Z</time></trkpt><trkpt lat="42.29011172849652" lon="19.534663817039934"><ele>459.0</ele><time>2026-05-01T16:05:00Z</time></trkpt><trkpt lat="42.290000333175115" lon="19.534640018589"><ele>459.0</ele><time>2026-05-01T16:05:01Z</time></trkpt><trkpt lat="42.28989916560078" lon="19.53461895601465"><ele>459.0</ele><time>2026-05-01T16:05:02Z</time></trkpt><trkpt lat="42.2898166707128" lon="19.53460175996308"><ele>459.0</ele><time>2026-05-01T16:05:03Z</time></trkpt><trkpt lat="42.289737065481965" lon="19.534584823233892"><ele>459.0</ele><time>2026-05-01T16:05:04Z</time></trkpt><trkpt lat="42.28966341123372" lon="19.53456839520364"><ele>458.8333333333333</ele><time>2026-05-01T16:05:05Z</time></trkpt><trkpt lat="42.289582561151704" lon="19.534551502443303"><ele>458.66666666666663</ele><time>2026-05-01T16:05:06Z</time></trkpt><trkpt lat="42.289506448631705" lon="19.534524025846892"><ele>458.5</ele><time>2026-05-01T16:05:07Z</time></trkpt><trkpt lat="42.28942419189918" lon="19.534494722438858"><ele>458.3333333333333</ele><time>2026-05-01T16:05:08Z</time></trkpt><trkpt lat="42.289357917852115" lon="19.53442821074047"><ele>458.16666666666663</ele><time>2026-05-01T16:05:09Z</time></trkpt><trkpt lat="42.28926293829116" lon="19.534360755484336"><ele>458.0</ele><time>2026-05-01T16:05:10Z</time></trkpt><trkpt lat="42.289162746934444" lon="19.534311733279797"><ele>458.0</ele><time>2026-05-01T16:05:11Z</time></trkpt><trkpt lat="42.289055805474085" lon="19.534259408357116"><ele>457.99999999999994</ele><time>2026-05-01T16:05:12Z</time></trkpt><trkpt lat="42.28895650267707" lon="19.534195140338493"><ele>457.99999999999994</ele><time>2026-05-01T16:05:13Z</time></trkpt><trkpt lat="42.28886619540363" lon="19.534132124413404"><ele>458.0</ele><time>2026-05-01T16:05:14Z</time></trkpt><trkpt lat="42.28880603723988" lon="19.534052147728243"><ele>458.0</ele><time>2026-05-01T16:05:15Z</time></trkpt><trkpt lat="42.28873801947773" lon="19.533979224378523"><ele>457.4</ele><time>2026-05-01T16:05:16Z</time></trkpt><trkpt lat="42.28868278958184" lon="19.53387685326843"><ele>456.79999999999995</ele><time>2026-05-01T16:05:17Z</time></trkpt><trkpt lat="42.28861857232595" lon="19.533772957685965"><ele>456.2</ele><time>2026-05-01T16:05:18Z</time></trkpt><trkpt lat="42.288547576329414" lon="19.53367388675684"><ele>455.6</ele><time>2026-05-01T16:05:19Z</time></trkpt><trkpt lat="42.28847165483439" lon="19.533576420632752"><ele>455.0</ele><time>2026-05-01T16:05:20Z</time></trkpt><trkpt lat="42.28843032502296" lon="19.533442888818218"><ele>454.99999999999994</ele><time>2026-05-01T16:05:21Z</time></trkpt><trkpt lat="42.28836658353826" lon="19.533342628082714"><ele>455.0</ele><time>2026-05-01T16:05:22Z</time></trkpt><trkpt lat="42.28832487172735" lon="19.5332537741838"><ele>455.0</ele><time>2026-05-01T16:05:23Z</time></trkpt><trkpt lat="42.28831153761751" lon="19.533159555600992"><ele>455.0</ele><time>2026-05-01T16:05:24Z</time></trkpt><trkpt lat="42.28831393318226" lon="19.533047104791724"><ele>454.99999999999994</ele><time>2026-05-01T16:05:25Z</time></trkpt><trkpt lat="42.28834033921784" lon="19.53293574543899"><ele>455.0</ele><time>2026-05-01T16:05:26Z</time></trkpt><trkpt lat="42.28832446123001" lon="19.53279989436206"><ele>455.0</ele><time>2026-05-01T16:05:27Z</time></trkpt><trkpt lat="42.28828653754969" lon="19.532682298132755"><ele>455.0</ele><time>2026-05-01T16:05:28Z</time></trkpt><trkpt lat="42.28823567722154" lon="19.5325731375159"><ele>455.0</ele><time>2026-05-01T16:05:29Z</time></trkpt><trkpt lat="42.28818744143963" lon="19.532471596301058"><ele>455.0</ele><time>2026-05-01T16:05:30Z</time></trkpt><trkpt lat="42.28814420867248" lon="19.532380586232936"><ele>455.0</ele><time>2026-05-01T16:05:31Z</time></trkpt><trkpt lat="42.28809825510212" lon="19.5322556634162"><ele>455.0</ele><time>2026-05-01T16:05:33Z</time></trkpt><trkpt lat="42.28814591882237" lon="19.53217429577345"><ele>455.0</ele><time>2026-05-01T16:05:35Z</time></trkpt><trkpt lat="42.28822437243386" lon="19.532035980182584"><ele>455.0</ele><time>2026-05-01T16:05:37Z</time></trkpt><trkpt lat="42.28827527771088" lon="19.531941664921113"><ele>455.0</ele><time>2026-05-01T16:05:38Z</time></trkpt><trkpt lat="42.288346302609405" lon="19.531810072556414"><ele>455.0</ele><time>2026-05-01T16:05:39Z</time></trkpt><trkpt lat="42.288418389685255" lon="19.531676512245294"><ele>455.0</ele><time>2026-05-01T16:05:40Z</time></trkpt><trkpt lat="42.28846688918485" lon="19.531586657797376"><ele>455.0</ele><time>2026-05-01T16:05:41Z</time></trkpt><trkpt lat="42.28856262235678" lon="19.531410549113332"><ele>455.0</ele><time>2026-05-01T16:05:43Z</time></trkpt><trkpt lat="42.28864595627105" lon="19.531256516257987"><ele>455.0</ele><time>2026-05-01T16:05:44Z</time></trkpt><trkpt lat="42.28875947334463" lon="19.53104657358475"><ele>454.66666666666663</ele><time>2026-05-01T16:05:45Z</time></trkpt><trkpt lat="42.2888896492722" lon="19.530805209027346"><ele>454.33333333333337</ele><time>2026-05-01T16:05:46Z</time></trkpt><trkpt lat="42.28900630372964" lon="19.530588915164852"><ele>454.0</ele><time>2026-05-01T16:05:47Z</time></trkpt><trkpt lat="42.28909191951527" lon="19.530430391614953"><ele>453.83333333333337</ele><time>2026-05-01T16:05:48Z</time></trkpt><trkpt lat="42.28915870178148" lon="19.530307312087178"><ele>453.6666666666667</ele><time>2026-05-01T16:05:49Z</time></trkpt><trkpt lat="42.28921065683697" lon="19.530211300998637"><ele>453.5</ele><time>2026-05-01T16:05:50Z</time></trkpt><trkpt lat="42.289247968890336" lon="19.530142170122645"><ele>453.33333333333337</ele><time>2026-05-01T16:05:51Z</time></trkpt><trkpt lat="42.28929236990976" lon="19.530059903394523"><ele>453.1666666666667</ele><time>2026-05-01T16:05:53Z</time></trkpt><trkpt lat="42.28933100876646" lon="19.529988311144745"><ele>453.0</ele><time>2026-05-01T16:05:56Z</time></trkpt><trkpt lat="42.28919548455999" lon="19.529928455470543"><ele>453.0</ele><time>2026-05-01T16:05:58Z</time></trkpt><trkpt lat="42.28909556239776" lon="19.529871816783707"><ele>452.99999999999994</ele><time>2026-05-01T16:06:00Z</time></trkpt><trkpt lat="42.28903055509397" lon="19.529842312247172"><ele>452.99999999999994</ele><time>2026-05-01T16:06:01Z</time></trkpt><trkpt lat="42.288964520747186" lon="19.529801317267847"><ele>453.0</ele><time>2026-05-01T16:06:02Z</time></trkpt><trkpt lat="42.28887985752994" lon="19.529750518479336"><ele>453.0</ele><time>2026-05-01T16:06:03Z</time></trkpt><trkpt lat="42.288774590047815" lon="19.52965860944203"><ele>451.66666666666663</ele><time>2026-05-01T16:06:04Z</time></trkpt><trkpt lat="42.28862135939963" lon="19.529532609864766"><ele>450.3333333333333</ele><time>2026-05-01T16:06:05Z</time></trkpt><trkpt lat="42.288427252681664" lon="19.529372998454868"><ele>449.0</ele><time>2026-05-01T16:06:06Z</time></trkpt><trkpt lat="42.288215239325" lon="19.52919886152483"><ele>448.5</ele><time>2026-05-01T16:06:07Z</time></trkpt><trkpt lat="42.288008958096434" lon="19.529028027895126"><ele>448.0</ele><time>2026-05-01T16:06:08Z</time></trkpt><trkpt lat="42.28782052765525" lon="19.528871127870456"><ele>447.6666666666667</ele><time>2026-05-01T16:06:09Z</time></trkpt><trkpt lat="42.28764631125024" lon="19.528726096029054"><ele>447.33333333333337</ele><time>2026-05-01T16:06:10Z</time></trkpt><trkpt lat="42.28749922113374" lon="19.52860324843161"><ele>447.0</ele><time>2026-05-01T16:06:11Z</time></trkpt><trkpt lat="42.287384780092246" lon="19.528506969974128"><ele>447.0</ele><time>2026-05-01T16:06:12Z</time></trkpt><trkpt lat="42.28730379512052" lon="19.528438836559012"><ele>447.00000000000006</ele><time>2026-05-01T16:06:13Z</time></trkpt><trkpt lat="42.287198830539346" lon="19.52835185305877"><ele>447.00000000000006</ele><time>2026-05-01T16:06:15Z</time></trkpt><trkpt lat="42.28713954859553" lon="19.52830254600031"><ele>447.0</ele><time>2026-05-01T16:06:16Z</time></trkpt><trkpt lat="42.28706661092292" lon="19.5282418810651"><ele>447.0</ele><time>2026-05-01T16:06:17Z</time></trkpt><trkpt lat="42.28698160469374" lon="19.528171178147364"><ele>446.5</ele><time>2026-05-01T16:06:18Z</time></trkpt><trkpt lat="42.28688987848956" lon="19.528094867095444"><ele>446.0</ele><time>2026-05-01T16:06:19Z</time></trkpt><trkpt lat="42.28678983890826" lon="19.52801143850289"><ele>445.5</ele><time>2026-05-01T16:06:20Z</time></trkpt><trkpt lat="42.28668534396358" lon="19.527924128913725"><ele>445.0</ele><time>2026-05-01T16:06:21Z</time></trkpt><trkpt lat="42.28659187439504" lon="19.52784588411093"><ele>444.8</ele><time>2026-05-01T16:06:22Z</time></trkpt><trkpt lat="42.28650515005351" lon="19.527798092111507"><ele>444.6</ele><time>2026-05-01T16:06:23Z</time></trkpt><trkpt lat="42.28643488444434" lon="19.527714466747174"><ele>444.4</ele><time>2026-05-01T16:06:25Z</time></trkpt><trkpt lat="42.28635814958045" lon="19.527841956101128"><ele>444.2</ele><time>2026-05-01T16:06:28Z</time></trkpt><trkpt lat="42.28628031972819" lon="19.527970653937047"><ele>444.0</ele><time>2026-05-01T16:06:30Z</time></trkpt><trkpt lat="42.28623478963859" lon="19.52807554339993"><ele>444.0</ele><time>2026-05-01T16:06:31Z</time></trkpt><trkpt lat="42.286187399348826" lon="19.52813671084875"><ele>444.0</ele><time>2026-05-01T16:06:32Z</time></trkpt><trkpt lat="42.28614872753643" lon="19.52820674784168"><ele>444.0</ele><time>2026-05-01T16:06:33Z</time></trkpt><trkpt lat="42.286109726465604" lon="19.528277381159285"><ele>444.0</ele><time>2026-05-01T16:06:34Z</time></trkpt><trkpt lat="42.286040936819354" lon="19.528401962345434"><ele>444.0</ele><time>2026-05-01T16:06:36Z</time></trkpt><trkpt lat="42.285999708487836" lon="19.528511917961755"><ele>444.0</ele><time>2026-05-01T16:06:38Z</time></trkpt><trkpt lat="42.28586802415556" lon="19.528503532260267"><ele>444.0</ele><time>2026-05-01T16:06:40.999Z</time></trkpt><trkpt lat="42.285760269526506" lon="19.52847804938522"><ele>444.0</ele><time>2026-05-01T16:06:42.999Z</time></trkpt><trkpt lat="42.28569078745772" lon="19.528471083851308"><ele>444.0</ele><time>2026-05-01T16:06:43.999Z</time></trkpt><trkpt lat="42.28561667066561" lon="19.528463653697138"><ele>444.0</ele><time>2026-05-01T16:06:44.999Z</time></trkpt><trkpt lat="42.28553408672214" lon="19.52845537470504"><ele>444.0</ele><time>2026-05-01T16:06:45.999Z</time></trkpt><trkpt lat="42.28545070471526" lon="19.52844175407109"><ele>444.0</ele><time>2026-05-01T16:06:46.999Z</time></trkpt><trkpt lat="42.285368637795195" lon="19.528424671788986"><ele>443.5</ele><time>2026-05-01T16:06:47.999Z</time></trkpt><trkpt lat="42.28528982086529" lon="19.528408039528525"><ele>443.0</ele><time>2026-05-01T16:06:48.999Z</time></trkpt><trkpt lat="42.28521726708327" lon="19.52839272896974"><ele>442.5</ele><time>2026-05-01T16:06:49.999Z</time></trkpt><trkpt lat="42.285142591608036" lon="19.52837741377261"><ele>442.0</ele><time>2026-05-01T16:06:50.999Z</time></trkpt><trkpt lat="42.28507175520681" lon="19.528363196842914"><ele>441.5</ele><time>2026-05-01T16:06:51.999Z</time></trkpt><trkpt lat="42.284947352421106" lon="19.528337135550778"><ele>441.0</ele><time>2026-05-01T16:06:53.999Z</time></trkpt><trkpt lat="42.28488223807143" lon="19.528323493061077"><ele>441.0</ele><time>2026-05-01T16:06:54.999Z</time></trkpt><trkpt lat="42.28480622536315" lon="19.528307567191877"><ele>441.0</ele><time>2026-05-01T16:06:55.999Z</time></trkpt><trkpt lat="42.28472569082015" lon="19.52829069396448"><ele>441.0</ele><time>2026-05-01T16:06:56.999Z</time></trkpt><trkpt lat="42.28464879511913" lon="19.528274583095687"><ele>441.0</ele><time>2026-05-01T16:06:57.999Z</time></trkpt><trkpt lat="42.28458281738128" lon="19.528260759726763"><ele>441.0</ele><time>2026-05-01T16:06:58.999Z</time></trkpt><trkpt lat="42.284516564514895" lon="19.52824687871547"><ele>441.0</ele><time>2026-05-01T16:06:59.999Z</time></trkpt><trkpt lat="42.284437997793084" lon="19.528234756353292"><ele>441.0</ele><time>2026-05-01T16:07:00.999Z</time></trkpt><trkpt lat="42.28436185070681" lon="19.52822624765995"><ele>440.1666666666667</ele><time>2026-05-01T16:07:01.999Z</time></trkpt><trkpt lat="42.28427677559606" lon="19.528216741349226"><ele>439.33333333333337</ele><time>2026-05-01T16:07:02.999Z</time></trkpt><trkpt lat="42.2841929705936" lon="19.528210348236602"><ele>438.5</ele><time>2026-05-01T16:07:04Z</time></trkpt><trkpt lat="42.28410715631133" lon="19.52821179004282"><ele>437.6666666666667</ele><time>2026-05-01T16:07:05Z</time></trkpt><trkpt lat="42.284027198881326" lon="19.528210715718707"><ele>436.83333333333337</ele><time>2026-05-01T16:07:06Z</time></trkpt><trkpt lat="42.283944804739136" lon="19.52820677816094"><ele>436.0</ele><time>2026-05-01T16:07:07Z</time></trkpt><trkpt lat="42.28386479990965" lon="19.528203208574542"><ele>435.50000000000006</ele><time>2026-05-01T16:07:08Z</time></trkpt><trkpt lat="42.283779880281934" lon="19.52819941970494"><ele>435.0</ele><time>2026-05-01T16:07:09Z</time></trkpt><trkpt lat="42.28369446821105" lon="19.52819920138632"><ele>434.5</ele><time>2026-05-01T16:07:10Z</time></trkpt><trkpt lat="42.28361677672147" lon="19.528202155261045"><ele>434.0</ele><time>2026-05-01T16:07:11Z</time></trkpt><trkpt lat="42.28354128048149" lon="19.528201520137024"><ele>433.50000000000006</ele><time>2026-05-01T16:07:12Z</time></trkpt><trkpt lat="42.283475518516205" lon="19.528209183869212"><ele>433.0</ele><time>2026-05-01T16:07:13Z</time></trkpt><trkpt lat="42.28339622995216" lon="19.528193331672547"><ele>433.00000000000006</ele><time>2026-05-01T16:07:14Z</time></trkpt><trkpt lat="42.28331134938441" lon="19.528198245426452"><ele>433.0</ele><time>2026-05-01T16:07:15Z</time></trkpt><trkpt lat="42.283229125780885" lon="19.52820300550497"><ele>433.0</ele><time>2026-05-01T16:07:16Z</time></trkpt><trkpt lat="42.28315503714977" lon="19.528172582840902"><ele>433.0</ele><time>2026-05-01T16:07:17Z</time></trkpt><trkpt lat="42.28307006497519" lon="19.528152103302208"><ele>433.00000000000006</ele><time>2026-05-01T16:07:18Z</time></trkpt><trkpt lat="42.282979316740175" lon="19.528130231642326"><ele>433.0</ele><time>2026-05-01T16:07:19Z</time></trkpt><trkpt lat="42.282881329989145" lon="19.528106716055255"><ele>432.2</ele><time>2026-05-01T16:07:20Z</time></trkpt><trkpt lat="42.28278158252449" lon="19.52808282119748"><ele>431.4</ele><time>2026-05-01T16:07:21Z</time></trkpt><trkpt lat="42.282688510066805" lon="19.528060525335103"><ele>430.59999999999997</ele><time>2026-05-01T16:07:22Z</time></trkpt><trkpt lat="42.28260567393962" lon="19.52804041416602"><ele>429.79999999999995</ele><time>2026-05-01T16:07:23Z</time></trkpt><trkpt lat="42.28253413396898" lon="19.52802266060107"><ele>429.0</ele><time>2026-05-01T16:07:24Z</time></trkpt><trkpt lat="42.28241999579165" lon="19.528013243005073"><ele>429.0</ele><time>2026-05-01T16:07:26Z</time></trkpt><trkpt lat="42.28236346104941" lon="19.5280733753944"><ele>429.0</ele><time>2026-05-01T16:07:27Z</time></trkpt><trkpt lat="42.28230416822473" lon="19.528117210652454"><ele>429.0</ele><time>2026-05-01T16:07:28Z</time></trkpt><trkpt lat="42.28223238738916" lon="19.528149085367176"><ele>429.0</ele><time>2026-05-01T16:07:29Z</time></trkpt><trkpt lat="42.28215980818873" lon="19.52819409523533"><ele>429.0</ele><time>2026-05-01T16:07:30Z</time></trkpt><trkpt lat="42.282083783873276" lon="19.5282410571145"><ele>429.0</ele><time>2026-05-01T16:07:31Z</time></trkpt><trkpt lat="42.28202966329397" lon="19.528296036739253"><ele>429.0</ele><time>2026-05-01T16:07:32Z</time></trkpt><trkpt lat="42.28190903775903" lon="19.52833795637794"><ele>428.5</ele><time>2026-05-01T16:07:34Z</time></trkpt><trkpt lat="42.28183763687583" lon="19.528343756024007"><ele>428.0</ele><time>2026-05-01T16:07:35Z</time></trkpt><trkpt lat="42.28177849462641" lon="19.52828391070718"><ele>427.5</ele><time>2026-05-01T16:07:36Z</time></trkpt><trkpt lat="42.28169765798623" lon="19.528249537599844"><ele>427.0</ele><time>2026-05-01T16:07:37Z</time></trkpt><trkpt lat="42.28161046933501" lon="19.528209141061886"><ele>426.5</ele><time>2026-05-01T16:07:38Z</time></trkpt><trkpt lat="42.281518733086216" lon="19.528166637642002"><ele>426.0</ele><time>2026-05-01T16:07:39Z</time></trkpt><trkpt lat="42.28144245788573" lon="19.528133564100973"><ele>425.5</ele><time>2026-05-01T16:07:40Z</time></trkpt><trkpt lat="42.28136965980689" lon="19.528096006697986"><ele>425.0</ele><time>2026-05-01T16:07:41Z</time></trkpt><trkpt lat="42.28129284007313" lon="19.52807490470069"><ele>424.5</ele><time>2026-05-01T16:07:42Z</time></trkpt><trkpt lat="42.28121172069042" lon="19.52804171662609"><ele>424.0</ele><time>2026-05-01T16:07:43Z</time></trkpt><trkpt lat="42.28113783051859" lon="19.52800981065053"><ele>423.5</ele><time>2026-05-01T16:07:44Z</time></trkpt><trkpt lat="42.281069786656225" lon="19.527962615037637"><ele>423.0</ele><time>2026-05-01T16:07:45Z</time></trkpt><trkpt lat="42.28101482018687" lon="19.527913112257313"><ele>423.0</ele><time>2026-05-01T16:07:46Z</time></trkpt><trkpt lat="42.28095641264394" lon="19.527881176502422"><ele>423.0</ele><time>2026-05-01T16:07:47Z</time></trkpt><trkpt lat="42.280891035971926" lon="19.527870776881706"><ele>423.0</ele><time>2026-05-01T16:07:48Z</time></trkpt><trkpt lat="42.28082646105866" lon="19.527887284646265"><ele>423.0</ele><time>2026-05-01T16:07:49Z</time></trkpt><trkpt lat="42.28075040168596" lon="19.527894195065283"><ele>423.0</ele><time>2026-05-01T16:07:50Z</time></trkpt><trkpt lat="42.2806515496589" lon="19.52791815738999"><ele>423.0</ele><time>2026-05-01T16:07:51Z</time></trkpt><trkpt lat="42.28057095398538" lon="19.527969957350077"><ele>422.8333333333333</ele><time>2026-05-01T16:07:52Z</time></trkpt><trkpt lat="42.280498747349064" lon="19.528014420233834"><ele>422.66666666666663</ele><time>2026-05-01T16:07:53Z</time></trkpt><trkpt lat="42.28042695274855" lon="19.52805887027487"><ele>422.5</ele><time>2026-05-01T16:07:54Z</time></trkpt><trkpt lat="42.28034452112794" lon="19.52807452086543"><ele>422.3333333333333</ele><time>2026-05-01T16:07:55Z</time></trkpt><trkpt lat="42.28024494684061" lon="19.528096041663666"><ele>422.16666666666663</ele><time>2026-05-01T16:07:56Z</time></trkpt><trkpt lat="42.28016320010633" lon="19.528084165607424"><ele>422.0</ele><time>2026-05-01T16:07:57Z</time></trkpt><trkpt lat="42.280078226869094" lon="19.528077685028713"><ele>422.0</ele><time>2026-05-01T16:07:58Z</time></trkpt><trkpt lat="42.27994155126009" lon="19.527976582456905"><ele>422.0</ele><time>2026-05-01T16:08:00Z</time></trkpt><trkpt lat="42.279851970602785" lon="19.527916786917917"><ele>422.0</ele><time>2026-05-01T16:08:01Z</time></trkpt><trkpt lat="42.27977430084766" lon="19.5278388603794"><ele>422.0</ele><time>2026-05-01T16:08:02Z</time></trkpt><trkpt lat="42.27969468027818" lon="19.527760290386745"><ele>421.49999999999994</ele><time>2026-05-01T16:08:03Z</time></trkpt><trkpt lat="42.27961669024305" lon="19.527683329377354"><ele>421.0</ele><time>2026-05-01T16:08:04Z</time></trkpt><trkpt lat="42.27956015729033" lon="19.527602737698203"><ele>420.5</ele><time>2026-05-01T16:08:05Z</time></trkpt><trkpt lat="42.27950131899035" lon="19.52751460616628"><ele>420.0</ele><time>2026-05-01T16:08:06Z</time></trkpt><trkpt lat="42.27944775730113" lon="19.527434706918562"><ele>419.49999999999994</ele><time>2026-05-01T16:08:07Z</time></trkpt><trkpt lat="42.27939370960968" lon="19.527359063982615"><ele>419.0</ele><time>2026-05-01T16:08:08Z</time></trkpt><trkpt lat="42.27933125172243" lon="19.527278374493008"><ele>419.0</ele><time>2026-05-01T16:08:09Z</time></trkpt><trkpt lat="42.27926557890057" lon="19.527201340677365"><ele>419.0</ele><time>2026-05-01T16:08:10Z</time></trkpt><trkpt lat="42.27916469376979" lon="19.527164337948893"><ele>419.0</ele><time>2026-05-01T16:08:11Z</time></trkpt><trkpt lat="42.27908518990306" lon="19.52712422809804"><ele>419.0</ele><time>2026-05-01T16:08:12Z</time></trkpt><trkpt lat="42.278987791110566" lon="19.5271423790509"><ele>419.0</ele><time>2026-05-01T16:08:13Z</time></trkpt><trkpt lat="42.27889822851401" lon="19.527130169683073"><ele>418.2</ele><time>2026-05-01T16:08:14Z</time></trkpt><trkpt lat="42.278798845671645" lon="19.52711662154617"><ele>417.4</ele><time>2026-05-01T16:08:15Z</time></trkpt><trkpt lat="42.27869204764949" lon="19.52710206252993"><ele>416.6</ele><time>2026-05-01T16:08:16Z</time></trkpt><trkpt lat="42.27857852325119" lon="19.52708687379265"><ele>415.8</ele><time>2026-05-01T16:08:17Z</time></trkpt><trkpt lat="42.278462013857414" lon="19.527071591490294"><ele>415.0</ele><time>2026-05-01T16:08:18Z</time></trkpt><trkpt lat="42.278354887317064" lon="19.527057539911407"><ele>415.00000000000006</ele><time>2026-05-01T16:08:19Z</time></trkpt><trkpt lat="42.27825818042047" lon="19.527044855061455"><ele>415.0</ele><time>2026-05-01T16:08:20Z</time></trkpt><trkpt lat="42.27816911093178" lon="19.52703317198447"><ele>415.0</ele><time>2026-05-01T16:08:21Z</time></trkpt><trkpt lat="42.27810065340366" lon="19.52701731050608"><ele>415.0</ele><time>2026-05-01T16:08:22Z</time></trkpt><trkpt lat="42.278037180536266" lon="19.52700089978939"><ele>415.00000000000006</ele><time>2026-05-01T16:08:23Z</time></trkpt><trkpt lat="42.27796337260345" lon="19.526918086466004"><ele>415.0</ele><time>2026-05-01T16:08:25Z</time></trkpt><trkpt lat="42.277919688420404" lon="19.526855818217626"><ele>414.50000000000006</ele><time>2026-05-01T16:08:26Z</time></trkpt><trkpt lat="42.277902245652285" lon="19.52677330771232"><ele>414.0</ele><time>2026-05-01T16:08:27Z</time></trkpt><trkpt lat="42.277874674237154" lon="19.52669671173104"><ele>413.5</ele><time>2026-05-01T16:08:28Z</time></trkpt><trkpt lat="42.27780097790416" lon="19.526641342891743"><ele>413.0</ele><time>2026-05-01T16:08:29Z</time></trkpt><trkpt lat="42.277722697372084" lon="19.526603877448295"><ele>412.50000000000006</ele><time>2026-05-01T16:08:30Z</time></trkpt><trkpt lat="42.277636907558346" lon="19.526580220137937"><ele>412.0</ele><time>2026-05-01T16:08:31Z</time></trkpt><trkpt lat="42.27754361347031" lon="19.52654526913999"><ele>412.00000000000006</ele><time>2026-05-01T16:08:32Z</time></trkpt><trkpt lat="42.277447997653084" lon="19.52650938016846"><ele>412.0</ele><time>2026-05-01T16:08:33Z</time></trkpt><trkpt lat="42.277362279866956" lon="19.526477387855472"><ele>412.0</ele><time>2026-05-01T16:08:34Z</time></trkpt><trkpt lat="42.27728424602527" lon="19.526448164061538"><ele>412.0</ele><time>2026-05-01T16:08:35Z</time></trkpt><trkpt lat="42.27720054392237" lon="19.526416637485383"><ele>412.00000000000006</ele><time>2026-05-01T16:08:36Z</time></trkpt><trkpt lat="42.27712391652404" lon="19.526387776041922"><ele>412.0</ele><time>2026-05-01T16:08:37Z</time></trkpt><trkpt lat="42.277046450721535" lon="19.526371471098305"><ele>411.50000000000006</ele><time>2026-05-01T16:08:38Z</time></trkpt><trkpt lat="42.27698382353373" lon="19.526357437694216"><ele>411.0</ele><time>2026-05-01T16:08:39Z</time></trkpt><trkpt lat="42.27691347514951" lon="19.526341673964197"><ele>410.5</ele><time>2026-05-01T16:08:40Z</time></trkpt><trkpt lat="42.276826390788045" lon="19.526338564999296"><ele>410.0</ele><time>2026-05-01T16:08:41Z</time></trkpt><trkpt lat="42.27674292781358" lon="19.52633368674814"><ele>409.50000000000006</ele><time>2026-05-01T16:08:42Z</time></trkpt><trkpt lat="42.276666976791965" lon="19.526345922578614"><ele>409.0</ele><time>2026-05-01T16:08:43Z</time></trkpt><trkpt lat="42.2765905090103" lon="19.526324778043236"><ele>409.0</ele><time>2026-05-01T16:08:44Z</time></trkpt><trkpt lat="42.27652282237945" lon="19.526376210319143"><ele>409.0</ele><time>2026-05-01T16:08:45Z</time></trkpt><trkpt lat="42.27645609348099" lon="19.526410642349962"><ele>409.0</ele><time>2026-05-01T16:08:45.999Z</time></trkpt><trkpt lat="42.27638537063115" lon="19.52640034478662"><ele>409.0</ele><time>2026-05-01T16:08:46.999Z</time></trkpt><trkpt lat="42.2763229118831" lon="19.526378925247965"><ele>409.0</ele><time>2026-05-01T16:08:47.999Z</time></trkpt><trkpt lat="42.27625000471846" lon="19.52636882573227"><ele>409.0</ele><time>2026-05-01T16:08:48.999Z</time></trkpt><trkpt lat="42.276163642222656" lon="19.52635677359411"><ele>409.0</ele><time>2026-05-01T16:08:49.999Z</time></trkpt><trkpt lat="42.27607460223862" lon="19.52634452980174"><ele>408.2</ele><time>2026-05-01T16:08:50.999Z</time></trkpt><trkpt lat="42.27599786916126" lon="19.526334001121405"><ele>407.4</ele><time>2026-05-01T16:08:51.999Z</time></trkpt><trkpt lat="42.27593090699151" lon="19.5263248131543"><ele>406.6</ele><time>2026-05-01T16:08:52.999Z</time></trkpt><trkpt lat="42.27580736136868" lon="19.526280837325093"><ele>405.8</ele><time>2026-05-01T16:08:54.999Z</time></trkpt><trkpt lat="42.27569886944841" lon="19.526216271991935"><ele>405.0</ele><time>2026-05-01T16:08:56.999Z</time></trkpt><trkpt lat="42.275571230785005" lon="19.526196962280313"><ele>404.6666666666667</ele><time>2026-05-01T16:08:58.999Z</time></trkpt><trkpt lat="42.27549636670854" lon="19.526190482589318"><ele>404.33333333333337</ele><time>2026-05-01T16:08:59.999Z</time></trkpt><trkpt lat="42.27542400395518" lon="19.526198968867106"><ele>404.0</ele><time>2026-05-01T16:09:00.999Z</time></trkpt><trkpt lat="42.275362589631726" lon="19.52623326577515"><ele>403.6666666666667</ele><time>2026-05-01T16:09:01.999Z</time></trkpt><trkpt lat="42.27527670020604" lon="19.52635252336734"><ele>403.33333333333337</ele><time>2026-05-01T16:09:03.999Z</time></trkpt><trkpt lat="42.275245568018306" lon="19.526434560423386"><ele>403.0</ele><time>2026-05-01T16:09:04.999Z</time></trkpt><trkpt lat="42.27521919641669" lon="19.526532333285804"><ele>403.00000000000006</ele><time>2026-05-01T16:09:05.999Z</time></trkpt><trkpt lat="42.275191364854514" lon="19.526639532058898"><ele>403.0</ele><time>2026-05-01T16:09:06.999Z</time></trkpt><trkpt lat="42.27516218701332" lon="19.526737758677207"><ele>403.0</ele><time>2026-05-01T16:09:07.999Z</time></trkpt><trkpt lat="42.27514625945957" lon="19.526833183152434"><ele>403.0</ele><time>2026-05-01T16:09:08.999Z</time></trkpt><trkpt lat="42.275143973089136" lon="19.52692049874189"><ele>403.00000000000006</ele><time>2026-05-01T16:09:10Z</time></trkpt><trkpt lat="42.2751025032808" lon="19.527043672558257"><ele>403.0</ele><time>2026-05-01T16:09:12Z</time></trkpt><trkpt lat="42.27498569342145" lon="19.52703891056104"><ele>403.0</ele><time>2026-05-01T16:09:14Z</time></trkpt><trkpt lat="42.274904626587904" lon="19.527057070001202"><ele>403.0</ele><time>2026-05-01T16:09:15Z</time></trkpt><trkpt lat="42.27481306996311" lon="19.527078068024355"><ele>403.0</ele><time>2026-05-01T16:09:16Z</time></trkpt><trkpt lat="42.27471000590868" lon="19.527101961744602"><ele>403.0</ele><time>2026-05-01T16:09:17Z</time></trkpt><trkpt lat="42.27461254296167" lon="19.527124556701217"><ele>403.0</ele><time>2026-05-01T16:09:18Z</time></trkpt><trkpt lat="42.27451836247515" lon="19.527213529781818"><ele>402.25</ele><time>2026-05-01T16:09:19Z</time></trkpt><trkpt lat="42.274406169957835" lon="19.527260572521755"><ele>401.5</ele><time>2026-05-01T16:09:20Z</time></trkpt><trkpt lat="42.27429766138104" lon="19.527313693595698"><ele>400.75</ele><time>2026-05-01T16:09:21Z</time></trkpt><trkpt lat="42.27418794434385" lon="19.52736562214076"><ele>400.0</ele><time>2026-05-01T16:09:22Z</time></trkpt><trkpt lat="42.27407845325143" lon="19.5274160919285"><ele>400.0</ele><time>2026-05-01T16:09:23Z</time></trkpt><trkpt lat="42.2739754330497" lon="19.5274569947136"><ele>400.0</ele><time>2026-05-01T16:09:24Z</time></trkpt><trkpt lat="42.273884783296246" lon="19.527492985862633"><ele>400.0</ele><time>2026-05-01T16:09:25Z</time></trkpt><trkpt lat="42.273788461608575" lon="19.527516117188704"><ele>400.0</ele><time>2026-05-01T16:09:26Z</time></trkpt><trkpt lat="42.273681812808825" lon="19.527540214533776"><ele>400.0</ele><time>2026-05-01T16:09:27Z</time></trkpt><trkpt lat="42.27356993975082" lon="19.527560207063843"><ele>399.2</ele><time>2026-05-01T16:09:28Z</time></trkpt><trkpt lat="42.27347091547965" lon="19.52757235837403"><ele>398.4</ele><time>2026-05-01T16:09:29Z</time></trkpt><trkpt lat="42.27338250389484" lon="19.527578249227833"><ele>397.6</ele><time>2026-05-01T16:09:30Z</time></trkpt><trkpt lat="42.27331205962969" lon="19.527583637382133"><ele>396.8</ele><time>2026-05-01T16:09:31Z</time></trkpt><trkpt lat="42.27317816094093" lon="19.527598914792367"><ele>396.0</ele><time>2026-05-01T16:09:33Z</time></trkpt><trkpt lat="42.27307547584121" lon="19.527644001597167"><ele>395.20000000000005</ele><time>2026-05-01T16:09:34Z</time></trkpt><trkpt lat="42.27298693389927" lon="19.5276989538903"><ele>394.40000000000003</ele><time>2026-05-01T16:09:35Z</time></trkpt><trkpt lat="42.272873968157334" lon="19.527744921271736"><ele>393.6</ele><time>2026-05-01T16:09:36Z</time></trkpt><trkpt lat="42.272780838111416" lon="19.52777714481125"><ele>392.8</ele><time>2026-05-01T16:09:37Z</time></trkpt><trkpt lat="42.272692783295064" lon="19.5278036219132"><ele>392.0</ele><time>2026-05-01T16:09:38Z</time></trkpt><trkpt lat="42.272607642817626" lon="19.52782838211461"><ele>392.0</ele><time>2026-05-01T16:09:39Z</time></trkpt><trkpt lat="42.272512392958554" lon="19.527864543204736"><ele>392.0</ele><time>2026-05-01T16:09:40Z</time></trkpt><trkpt lat="42.27242180092363" lon="19.52790515206308"><ele>392.0</ele><time>2026-05-01T16:09:41Z</time></trkpt><trkpt lat="42.27233586940379" lon="19.52794358082852"><ele>392.0</ele><time>2026-05-01T16:09:42Z</time></trkpt><trkpt lat="42.27223985472343" lon="19.52798670131269"><ele>392.0</ele><time>2026-05-01T16:09:43Z</time></trkpt><trkpt lat="42.27213435014061" lon="19.528034083859847"><ele>391.6</ele><time>2026-05-01T16:09:44Z</time></trkpt><trkpt lat="42.272037488927815" lon="19.52807751407472"><ele>391.20000000000005</ele><time>2026-05-01T16:09:45Z</time></trkpt><trkpt lat="42.271951941343204" lon="19.528115472809315"><ele>390.8</ele><time>2026-05-01T16:09:46Z</time></trkpt><trkpt lat="42.27186470436134" lon="19.52815550157271"><ele>390.4</ele><time>2026-05-01T16:09:47Z</time></trkpt><trkpt lat="42.27176813668193" lon="19.528196410273274"><ele>390.0</ele><time>2026-05-01T16:09:48Z</time></trkpt><trkpt lat="42.27166869972008" lon="19.52823887720899"><ele>390.0</ele><time>2026-05-01T16:09:49Z</time></trkpt><trkpt lat="42.2715763980447" lon="19.52825965299479"><ele>390.0</ele><time>2026-05-01T16:09:50Z</time></trkpt><trkpt lat="42.271494822850606" lon="19.52828083776476"><ele>390.0</ele><time>2026-05-01T16:09:51Z</time></trkpt><trkpt lat="42.27142360470503" lon="19.528252190067505"><ele>390.0</ele><time>2026-05-01T16:09:52Z</time></trkpt><trkpt lat="42.271344791125834" lon="19.528239707310618"><ele>390.0</ele><time>2026-05-01T16:09:53Z</time></trkpt><trkpt lat="42.271289007841716" lon="19.528195802670236"><ele>390.0</ele><time>2026-05-01T16:09:54Z</time></trkpt><trkpt lat="42.271218925333315" lon="19.52815948441782"><ele>389.5</ele><time>2026-05-01T16:09:55Z</time></trkpt><trkpt lat="42.27114187521407" lon="19.528116139494216"><ele>389.0</ele><time>2026-05-01T16:09:56Z</time></trkpt><trkpt lat="42.27105404566151" lon="19.528096473087892"><ele>388.5</ele><time>2026-05-01T16:09:57Z</time></trkpt><trkpt lat="42.27097845966904" lon="19.52813115478594"><ele>388.0</ele><time>2026-05-01T16:09:58Z</time></trkpt><trkpt lat="42.270912300405215" lon="19.528115004668273"><ele>387.5</ele><time>2026-05-01T16:09:59Z</time></trkpt><trkpt lat="42.27085375998009" lon="19.528168971779742"><ele>387.0</ele><time>2026-05-01T16:10:00Z</time></trkpt><trkpt lat="42.27074880985527" lon="19.528201161387084"><ele>387.0</ele><time>2026-05-01T16:10:02Z</time></trkpt><trkpt lat="42.270624841262745" lon="19.52822509508151"><ele>387.0</ele><time>2026-05-01T16:10:04Z</time></trkpt><trkpt lat="42.27050485199754" lon="19.52828454730356"><ele>387.0</ele><time>2026-05-01T16:10:06Z</time></trkpt><trkpt lat="42.270390581648634" lon="19.528346286820998"><ele>387.0</ele><time>2026-05-01T16:10:08Z</time></trkpt><trkpt lat="42.27033129090833" lon="19.528413158979955"><ele>386.8333333333333</ele><time>2026-05-01T16:10:09Z</time></trkpt><trkpt lat="42.27027946561946" lon="19.528473868651194"><ele>386.66666666666663</ele><time>2026-05-01T16:10:10Z</time></trkpt><trkpt lat="42.2702211550194" lon="19.528543758809004"><ele>386.5</ele><time>2026-05-01T16:10:11Z</time></trkpt><trkpt lat="42.270150179071074" lon="19.52860294748203"><ele>386.3333333333333</ele><time>2026-05-01T16:10:12Z</time></trkpt><trkpt lat="42.27006563607414" lon="19.528673178634822"><ele>386.16666666666663</ele><time>2026-05-01T16:10:13Z</time></trkpt><trkpt lat="42.26998540999479" lon="19.528724935308844"><ele>386.0</ele><time>2026-05-01T16:10:14Z</time></trkpt><trkpt lat="42.26990907672008" lon="19.52874267121573"><ele>385.99999999999994</ele><time>2026-05-01T16:10:15Z</time></trkpt><trkpt lat="42.26983592534637" lon="19.528766990776738"><ele>386.0</ele><time>2026-05-01T16:10:16Z</time></trkpt><trkpt lat="42.26976732595493" lon="19.528789797085707"><ele>386.0</ele><time>2026-05-01T16:10:17Z</time></trkpt><trkpt lat="42.26967585739923" lon="19.528877970242746"><ele>386.0</ele><time>2026-05-01T16:10:19Z</time></trkpt><trkpt lat="42.26960042418625" lon="19.52898033091152"><ele>385.99999999999994</ele><time>2026-05-01T16:10:21Z</time></trkpt><trkpt lat="42.269564576120956" lon="19.529054991966234"><ele>386.0</ele><time>2026-05-01T16:10:22Z</time></trkpt><trkpt lat="42.26952268589424" lon="19.529141824184386"><ele>385.3333333333333</ele><time>2026-05-01T16:10:23Z</time></trkpt><trkpt lat="42.26948927219325" lon="19.529217741716767"><ele>384.66666666666663</ele><time>2026-05-01T16:10:24Z</time></trkpt><trkpt lat="42.26938883286108" lon="19.529312730509474"><ele>384.0</ele><time>2026-05-01T16:10:26Z</time></trkpt><trkpt lat="42.269337152915156" lon="19.52936841527118"><ele>383.3333333333333</ele><time>2026-05-01T16:10:27Z</time></trkpt><trkpt lat="42.26922861073148" lon="19.529443331610505"><ele>382.66666666666663</ele><time>2026-05-01T16:10:29Z</time></trkpt><trkpt lat="42.26916120946284" lon="19.52947178981362"><ele>382.0</ele><time>2026-05-01T16:10:30Z</time></trkpt><trkpt lat="42.26910173422031" lon="19.529502950743456"><ele>382.0</ele><time>2026-05-01T16:10:31Z</time></trkpt><trkpt lat="42.26902223337452" lon="19.52962511388562"><ele>382.0</ele><time>2026-05-01T16:10:33Z</time></trkpt><trkpt lat="42.26897910416853" lon="19.52971133354523"><ele>382.0</ele><time>2026-05-01T16:10:34Z</time></trkpt><trkpt lat="42.268910708024734" lon="19.529770182331355"><ele>382.0</ele><time>2026-05-01T16:10:35Z</time></trkpt><trkpt lat="42.26884532371134" lon="19.52983805674365"><ele>382.0</ele><time>2026-05-01T16:10:36Z</time></trkpt><trkpt lat="42.268783520488185" lon="19.529902213637545"><ele>382.0</ele><time>2026-05-01T16:10:37Z</time></trkpt><trkpt lat="42.268722968542086" lon="19.52996322477803"><ele>382.0</ele><time>2026-05-01T16:10:38Z</time></trkpt><trkpt lat="42.268644690032396" lon="19.530017840092146"><ele>382.0</ele><time>2026-05-01T16:10:39Z</time></trkpt><trkpt lat="42.26856716366988" lon="19.53008127753344"><ele>382.0</ele><time>2026-05-01T16:10:40Z</time></trkpt><trkpt lat="42.268491031747686" lon="19.530150869516135"><ele>382.0</ele><time>2026-05-01T16:10:41Z</time></trkpt><trkpt lat="42.268401062550105" lon="19.530224581745003"><ele>382.0</ele><time>2026-05-01T16:10:42Z</time></trkpt><trkpt lat="42.26831797642058" lon="19.530282837629183"><ele>382.0</ele><time>2026-05-01T16:10:43Z</time></trkpt><trkpt lat="42.268246432831866" lon="19.530329508673244"><ele>382.0</ele><time>2026-05-01T16:10:44Z</time></trkpt><trkpt lat="42.268154094727635" lon="19.53040130887029"><ele>382.0</ele><time>2026-05-01T16:10:45Z</time></trkpt><trkpt lat="42.26806795438655" lon="19.530488315879495"><ele>382.0</ele><time>2026-05-01T16:10:46Z</time></trkpt><trkpt lat="42.267992228685905" lon="19.530526134502576"><ele>382.0</ele><time>2026-05-01T16:10:47Z</time></trkpt><trkpt lat="42.267923751281465" lon="19.53057210330182"><ele>382.66666666666663</ele><time>2026-05-01T16:10:48Z</time></trkpt><trkpt lat="42.26784722153515" lon="19.53062347777335"><ele>383.3333333333333</ele><time>2026-05-01T16:10:49Z</time></trkpt><trkpt lat="42.26777053436039" lon="19.530674997101915"><ele>384.0</ele><time>2026-05-01T16:10:50Z</time></trkpt><trkpt lat="42.267695482671655" lon="19.53072551367523"><ele>384.66666666666663</ele><time>2026-05-01T16:10:51Z</time></trkpt><trkpt lat="42.26762981301644" lon="19.530769715346807"><ele>385.3333333333333</ele><time>2026-05-01T16:10:52Z</time></trkpt><trkpt lat="42.26757430992691" lon="19.530815953188785"><ele>386.0</ele><time>2026-05-01T16:10:52.999Z</time></trkpt><trkpt lat="42.2675181590468" lon="19.530856181276423"><ele>385.99999999999994</ele><time>2026-05-01T16:10:53.999Z</time></trkpt><trkpt lat="42.26745121599789" lon="19.530901585615645"><ele>386.0</ele><time>2026-05-01T16:10:54.999Z</time></trkpt><trkpt lat="42.267384978231796" lon="19.53095326406797"><ele>386.0</ele><time>2026-05-01T16:10:55.999Z</time></trkpt><trkpt lat="42.26730430289237" lon="19.5310026254566"><ele>386.0</ele><time>2026-05-01T16:10:56.999Z</time></trkpt><trkpt lat="42.26722874808294" lon="19.531035504103173"><ele>385.99999999999994</ele><time>2026-05-01T16:10:57.999Z</time></trkpt><trkpt lat="42.267150351032754" lon="19.531036363263965"><ele>386.0</ele><time>2026-05-01T16:10:58.999Z</time></trkpt><trkpt lat="42.267076098042146" lon="19.53105599987602"><ele>386.6</ele><time>2026-05-01T16:10:59.999Z</time></trkpt><trkpt lat="42.26697547308291" lon="19.531129897146332"><ele>387.20000000000005</ele><time>2026-05-01T16:11:01.999Z</time></trkpt><trkpt lat="42.26687627783914" lon="19.53115529561222"><ele>387.79999999999995</ele><time>2026-05-01T16:11:03.999Z</time></trkpt><trkpt lat="42.266806457440914" lon="19.53123717995236"><ele>388.4</ele><time>2026-05-01T16:11:05.999Z</time></trkpt><trkpt lat="42.266755753756186" lon="19.531301083888437"><ele>389.0</ele><time>2026-05-01T16:11:06.999Z</time></trkpt><trkpt lat="42.26665977967816" lon="19.531405918050883"><ele>389.0</ele><time>2026-05-01T16:11:08.999Z</time></trkpt><trkpt lat="42.266606294208025" lon="19.531462293313943"><ele>389.0</ele><time>2026-05-01T16:11:09.999Z</time></trkpt><trkpt lat="42.266523006500975" lon="19.531561534008624"><ele>389.0</ele><time>2026-05-01T16:11:11.999Z</time></trkpt><trkpt lat="42.26641317610175" lon="19.53165389845353"><ele>389.0</ele><time>2026-05-01T16:11:13.999Z</time></trkpt><trkpt lat="42.26634842884451" lon="19.53171453018436"><ele>389.0</ele><time>2026-05-01T16:11:14.999Z</time></trkpt><trkpt lat="42.266301128746825" lon="19.53177109439334"><ele>387.99999999999994</ele><time>2026-05-01T16:11:16Z</time></trkpt><trkpt lat="42.266249208852614" lon="19.531879863198508"><ele>387.0</ele><time>2026-05-01T16:11:18Z</time></trkpt><trkpt lat="42.266206006471876" lon="19.531951564447542"><ele>386.0</ele><time>2026-05-01T16:11:20Z</time></trkpt><trkpt lat="42.26615040073401" lon="19.531993880850447"><ele>385.0</ele><time>2026-05-01T16:11:21Z</time></trkpt><trkpt lat="42.26607941263744" lon="19.532034003392347"><ele>384.0</ele><time>2026-05-01T16:11:22Z</time></trkpt><trkpt lat="42.265999763458545" lon="19.53207252226757"><ele>383.0</ele><time>2026-05-01T16:11:23Z</time></trkpt><trkpt lat="42.265908800930845" lon="19.532094561069762"><ele>383.0</ele><time>2026-05-01T16:11:24Z</time></trkpt><trkpt lat="42.26583607117318" lon="19.532128528568858"><ele>383.0</ele><time>2026-05-01T16:11:25Z</time></trkpt><trkpt lat="42.26576918559075" lon="19.532159766580012"><ele>383.0</ele><time>2026-05-01T16:11:26Z</time></trkpt><trkpt lat="42.26571063723876" lon="19.532196736255372"><ele>383.0</ele><time>2026-05-01T16:11:27Z</time></trkpt><trkpt lat="42.26564300170034" lon="19.53220150196392"><ele>383.0</ele><time>2026-05-01T16:11:28Z</time></trkpt><trkpt lat="42.26557592170927" lon="19.53221149337145"><ele>383.0</ele><time>2026-05-01T16:11:29Z</time></trkpt><trkpt lat="42.265454307521885" lon="19.53222341265732"><ele>382.0</ele><time>2026-05-01T16:11:31Z</time></trkpt><trkpt lat="42.265341858971134" lon="19.532254992907543"><ele>381.0</ele><time>2026-05-01T16:11:33Z</time></trkpt><trkpt lat="42.26522900093714" lon="19.53223237727381"><ele>380.0</ele><time>2026-05-01T16:11:35Z</time></trkpt><trkpt lat="42.265180333964516" lon="19.532165494665215"><ele>379.0</ele><time>2026-05-01T16:11:36Z</time></trkpt><trkpt lat="42.265123206258814" lon="19.532116598282684"><ele>378.0</ele><time>2026-05-01T16:11:37Z</time></trkpt><trkpt lat="42.26506700410265" lon="19.532067646315884"><ele>377.0</ele><time>2026-05-01T16:11:38Z</time></trkpt><trkpt lat="42.26500330961407" lon="19.5320381384102"><ele>376.5</ele><time>2026-05-01T16:11:39Z</time></trkpt><trkpt lat="42.26494314904092" lon="19.532009978971182"><ele>376.0</ele><time>2026-05-01T16:11:40Z</time></trkpt><trkpt lat="42.264828712279474" lon="19.531959184820607"><ele>375.5</ele><time>2026-05-01T16:11:42Z</time></trkpt><trkpt lat="42.26475851254626" lon="19.531905537758554"><ele>375.0</ele><time>2026-05-01T16:11:44Z</time></trkpt><trkpt lat="42.26470628430434" lon="19.531765500537425"><ele>374.5</ele><time>2026-05-01T16:11:46Z</time></trkpt><trkpt lat="42.26467738116504" lon="19.53168179562676"><ele>374.0</ele><time>2026-05-01T16:11:47Z</time></trkpt><trkpt lat="42.26464599839871" lon="19.531590909484724"><ele>374.0</ele><time>2026-05-01T16:11:48Z</time></trkpt><trkpt lat="42.26461268566913" lon="19.531494434375933"><ele>374.0</ele><time>2026-05-01T16:11:49Z</time></trkpt><trkpt lat="42.264580956405766" lon="19.531394658491745"><ele>374.0</ele><time>2026-05-01T16:11:50Z</time></trkpt><trkpt lat="42.2645455360764" lon="19.53128410847003"><ele>374.0</ele><time>2026-05-01T16:11:51Z</time></trkpt><trkpt lat="42.26450805468552" lon="19.531164630513643"><ele>374.0</ele><time>2026-05-01T16:11:52Z</time></trkpt><trkpt lat="42.26450234159666" lon="19.531042495975417"><ele>374.0</ele><time>2026-05-01T16:11:53Z</time></trkpt><trkpt lat="42.26449749161852" lon="19.530938644419766"><ele>373.6666666666667</ele><time>2026-05-01T16:11:54Z</time></trkpt><trkpt lat="42.264515131063796" lon="19.53075283011647"><ele>373.33333333333337</ele><time>2026-05-01T16:11:56Z</time></trkpt><trkpt lat="42.26452435351709" lon="19.530651739117488"><ele>373.0</ele><time>2026-05-01T16:11:57Z</time></trkpt><trkpt lat="42.26456123869772" lon="19.530569849811314"><ele>372.6666666666667</ele><time>2026-05-01T16:11:58Z</time></trkpt><trkpt lat="42.2645917343014" lon="19.530473280486554"><ele>372.3333333333333</ele><time>2026-05-01T16:11:59Z</time></trkpt><trkpt lat="42.264623091767795" lon="19.53037574739273"><ele>372.0</ele><time>2026-05-01T16:12:00Z</time></trkpt><trkpt lat="42.26465656571514" lon="19.530271799185606"><ele>371.6</ele><time>2026-05-01T16:12:01Z</time></trkpt><trkpt lat="42.264668451099894" lon="19.53013783224353"><ele>371.20000000000005</ele><time>2026-05-01T16:12:02Z</time></trkpt><trkpt lat="42.264676724829286" lon="19.530005708883035"><ele>370.8</ele><time>2026-05-01T16:12:03Z</time></trkpt><trkpt lat="42.264680791790305" lon="19.529876058034983"><ele>370.4</ele><time>2026-05-01T16:12:04Z</time></trkpt><trkpt lat="42.264689235303315" lon="19.529741259813242"><ele>370.0</ele><time>2026-05-01T16:12:05Z</time></trkpt><trkpt lat="42.264748538336114" lon="19.52962971291429"><ele>369.2</ele><time>2026-05-01T16:12:06Z</time></trkpt><trkpt lat="42.26481133790998" lon="19.5295315493941"><ele>368.4</ele><time>2026-05-01T16:12:07Z</time></trkpt><trkpt lat="42.26487372607263" lon="19.52940523092156"><ele>367.6</ele><time>2026-05-01T16:12:08Z</time></trkpt><trkpt lat="42.26491668842666" lon="19.5293152824396"><ele>366.8</ele><time>2026-05-01T16:12:09Z</time></trkpt><trkpt lat="42.26496283817814" lon="19.529218661188196"><ele>366.0</ele><time>2026-05-01T16:12:10Z</time></trkpt><trkpt lat="42.26498970822905" lon="19.52909991749373"><ele>366.0</ele><time>2026-05-01T16:12:11Z</time></trkpt><trkpt lat="42.265032273432176" lon="19.52899107287067"><ele>366.0</ele><time>2026-05-01T16:12:12Z</time></trkpt><trkpt lat="42.26503000898705" lon="19.528852697854298"><ele>366.0</ele><time>2026-05-01T16:12:13Z</time></trkpt><trkpt lat="42.2650380157134" lon="19.528709804520563"><ele>366.0</ele><time>2026-05-01T16:12:14Z</time></trkpt><trkpt lat="42.2650474137838" lon="19.528564526984816"><ele>366.0</ele><time>2026-05-01T16:12:15Z</time></trkpt><trkpt lat="42.26503618812806" lon="19.528431295272124"><ele>366.20000000000005</ele><time>2026-05-01T16:12:16Z</time></trkpt><trkpt lat="42.26504325504438" lon="19.528290974457246"><ele>366.40000000000003</ele><time>2026-05-01T16:12:17Z</time></trkpt><trkpt lat="42.26505665945846" lon="19.5281716537036"><ele>366.6</ele><time>2026-05-01T16:12:18Z</time></trkpt><trkpt lat="42.26507034401923" lon="19.52804983954441"><ele>366.8</ele><time>2026-05-01T16:12:19Z</time></trkpt><trkpt lat="42.2650840430244" lon="19.52792789604959"><ele>367.0</ele><time>2026-05-01T16:12:20Z</time></trkpt><trkpt lat="42.265098585904866" lon="19.527801355947943"><ele>366.5</ele><time>2026-05-01T16:12:21Z</time></trkpt><trkpt lat="42.26510037904439" lon="19.527666360239895"><ele>366.0</ele><time>2026-05-01T16:12:22Z</time></trkpt><trkpt lat="42.26512302761489" lon="19.527545073815386"><ele>365.5</ele><time>2026-05-01T16:12:23Z</time></trkpt><trkpt lat="42.26512692443634" lon="19.527426690292234"><ele>365.0</ele><time>2026-05-01T16:12:24Z</time></trkpt><trkpt lat="42.26510652601675" lon="19.527312271095255"><ele>364.5</ele><time>2026-05-01T16:12:25Z</time></trkpt><trkpt lat="42.265075163030815" lon="19.52721979619759"><ele>364.0</ele><time>2026-05-01T16:12:26Z</time></trkpt><trkpt lat="42.265036701824926" lon="19.527129531979902"><ele>363.3333333333333</ele><time>2026-05-01T16:12:27Z</time></trkpt><trkpt lat="42.26500363502619" lon="19.527039313430986"><ele>362.66666666666663</ele><time>2026-05-01T16:12:28Z</time></trkpt><trkpt lat="42.26497302093031" lon="19.52693579147253"><ele>362.0</ele><time>2026-05-01T16:12:29Z</time></trkpt><trkpt lat="42.26495684616999" lon="19.52682924714249"><ele>361.3333333333333</ele><time>2026-05-01T16:12:30Z</time></trkpt><trkpt lat="42.26494311481148" lon="19.52672077642452"><ele>360.6666666666667</ele><time>2026-05-01T16:12:31Z</time></trkpt><trkpt lat="42.26494695394821" lon="19.52661461082229"><ele>360.0</ele><time>2026-05-01T16:12:32Z</time></trkpt><trkpt lat="42.264946953950215" lon="19.526493665017405"><ele>360.0</ele><time>2026-05-01T16:12:33Z</time></trkpt><trkpt lat="42.264941677865394" lon="19.526357208462315"><ele>360.0</ele><time>2026-05-01T16:12:34Z</time></trkpt><trkpt lat="42.26492376018612" lon="19.52621257360531"><ele>360.0</ele><time>2026-05-01T16:12:35Z</time></trkpt><trkpt lat="42.2649005646499" lon="19.526093697534815"><ele>360.0</ele><time>2026-05-01T16:12:36Z</time></trkpt><trkpt lat="42.26486350760509" lon="19.525985248127796"><ele>360.0</ele><time>2026-05-01T16:12:37Z</time></trkpt><trkpt lat="42.264834987164335" lon="19.52589198941718"><ele>360.0</ele><time>2026-05-01T16:12:38Z</time></trkpt><trkpt lat="42.26478452294694" lon="19.525796264042835"><ele>360.0</ele><time>2026-05-01T16:12:39Z</time></trkpt><trkpt lat="42.26474409607846" lon="19.525709144989495"><ele>360.0</ele><time>2026-05-01T16:12:40Z</time></trkpt><trkpt lat="42.26471259329408" lon="19.5256196138132"><ele>360.0</ele><time>2026-05-01T16:12:41Z</time></trkpt><trkpt lat="42.26468428263091" lon="19.525524952393837"><ele>360.0</ele><time>2026-05-01T16:12:42Z</time></trkpt><trkpt lat="42.2646559920711" lon="19.525430358064813"><ele>360.0</ele><time>2026-05-01T16:12:43Z</time></trkpt><trkpt lat="42.264639909015735" lon="19.525327315590005"><ele>359.5</ele><time>2026-05-01T16:12:44Z</time></trkpt><trkpt lat="42.26462059163956" lon="19.52519761297098"><ele>359.0</ele><time>2026-05-01T16:12:45Z</time></trkpt><trkpt lat="42.26459866200294" lon="19.525050371393682"><ele>358.5</ele><time>2026-05-01T16:12:46Z</time></trkpt><trkpt lat="42.26457508783499" lon="19.524892087535427"><ele>358.0</ele><time>2026-05-01T16:12:47Z</time></trkpt><trkpt lat="42.26454996160454" lon="19.524726957851897"><ele>357.25</ele><time>2026-05-01T16:12:48Z</time></trkpt><trkpt lat="42.26452308372046" lon="19.52455349109927"><ele>356.5</ele><time>2026-05-01T16:12:49Z</time></trkpt><trkpt lat="42.264494758415076" lon="19.524372649887116"><ele>355.75</ele><time>2026-05-01T16:12:50Z</time></trkpt><trkpt lat="42.26446770980526" lon="19.52419744530536"><ele>355.0</ele><time>2026-05-01T16:12:51Z</time></trkpt><trkpt lat="42.264429688254225" lon="19.5240321871203"><ele>355.0</ele><time>2026-05-01T16:12:52Z</time></trkpt><trkpt lat="42.26438871991797" lon="19.523876012646735"><ele>355.0</ele><time>2026-05-01T16:12:53Z</time></trkpt><trkpt lat="42.26434630575527" lon="19.52370951302568"><ele>355.0</ele><time>2026-05-01T16:12:54Z</time></trkpt><trkpt lat="42.264276105601056" lon="19.52355659490373"><ele>355.0</ele><time>2026-05-01T16:12:55Z</time></trkpt><trkpt lat="42.2642002314246" lon="19.523405869132517"><ele>355.0</ele><time>2026-05-01T16:12:56Z</time></trkpt><trkpt lat="42.264143521739584" lon="19.523237996476517"><ele>355.0</ele><time>2026-05-01T16:12:57Z</time></trkpt><trkpt lat="42.26407550697026" lon="19.523076315397404"><ele>355.0</ele><time>2026-05-01T16:12:58Z</time></trkpt><trkpt lat="42.26400249003296" lon="19.522902967051575"><ele>355.0</ele><time>2026-05-01T16:12:59Z</time></trkpt><trkpt lat="42.26392707051666" lon="19.522723914890047"><ele>353.75</ele><time>2026-05-01T16:13:00Z</time></trkpt><trkpt lat="42.26385609261861" lon="19.522555734469105"><ele>352.5</ele><time>2026-05-01T16:13:01Z</time></trkpt><trkpt lat="42.263790598274774" lon="19.522402587199064"><ele>351.25</ele><time>2026-05-01T16:13:02Z</time></trkpt><trkpt lat="42.26372572919482" lon="19.52225219460219"><ele>350.0</ele><time>2026-05-01T16:13:03Z</time></trkpt><trkpt lat="42.26365360382723" lon="19.522098494510526"><ele>350.0</ele><time>2026-05-01T16:13:04Z</time></trkpt><trkpt lat="42.2635727419078" lon="19.52194971877672"><ele>350.0</ele><time>2026-05-01T16:13:05Z</time></trkpt><trkpt lat="42.263488368926346" lon="19.521793476251162"><ele>350.0</ele><time>2026-05-01T16:13:06Z</time></trkpt><trkpt lat="42.26340845426039" lon="19.521645535053462"><ele>350.0</ele><time>2026-05-01T16:13:07Z</time></trkpt><trkpt lat="42.26333464433879" lon="19.521511838861656"><ele>350.0</ele><time>2026-05-01T16:13:08Z</time></trkpt><trkpt lat="42.26326049442315" lon="19.52137790096952"><ele>350.0</ele><time>2026-05-01T16:13:09Z</time></trkpt><trkpt lat="42.263181558749295" lon="19.52123545390452"><ele>350.0</ele><time>2026-05-01T16:13:09.999Z</time></trkpt><trkpt lat="42.26309632253099" lon="19.521088871561318"><ele>350.0</ele><time>2026-05-01T16:13:10.999Z</time></trkpt><trkpt lat="42.26300082158165" lon="19.52093939840149"><ele>347.75</ele><time>2026-05-01T16:13:11.999Z</time></trkpt><trkpt lat="42.26290306099292" lon="19.52080409005844"><ele>345.5</ele><time>2026-05-01T16:13:12.999Z</time></trkpt><trkpt lat="42.2628138745929" lon="19.520679737316293"><ele>343.25</ele><time>2026-05-01T16:13:13.999Z</time></trkpt><trkpt lat="42.2627284180755" lon="19.520559619305946"><ele>341.0</ele><time>2026-05-01T16:13:14.999Z</time></trkpt><trkpt lat="42.262642205053524" lon="19.520440974921215"><ele>341.0</ele><time>2026-05-01T16:13:15.999Z</time></trkpt><trkpt lat="42.26255792532781" lon="19.520323577884202"><ele>341.0</ele><time>2026-05-01T16:13:16.999Z</time></trkpt><trkpt lat="42.262452310443706" lon="19.520213548696994"><ele>341.0</ele><time>2026-05-01T16:13:17.999Z</time></trkpt><trkpt lat="42.262339482267116" lon="19.5200536751704"><ele>341.0</ele><time>2026-05-01T16:13:18.999Z</time></trkpt><trkpt lat="42.26220320792606" lon="19.51989752560403"><ele>340.75</ele><time>2026-05-01T16:13:19.999Z</time></trkpt><trkpt lat="42.262092807491904" lon="19.51974400354695"><ele>340.5</ele><time>2026-05-01T16:13:20.999Z</time></trkpt><trkpt lat="42.26194558389199" lon="19.51971402164912"><ele>340.25</ele><time>2026-05-01T16:13:22Z</time></trkpt><trkpt lat="42.261839795410616" lon="19.519676500694477"><ele>340.0</ele><time>2026-05-01T16:13:23Z</time></trkpt><trkpt lat="42.261745203059" lon="19.519621687017032"><ele>339.6</ele><time>2026-05-01T16:13:24Z</time></trkpt><trkpt lat="42.26163667109308" lon="19.519563437976682"><ele>339.2</ele><time>2026-05-01T16:13:25Z</time></trkpt><trkpt lat="42.261539100902226" lon="19.519521183382874"><ele>338.79999999999995</ele><time>2026-05-01T16:13:26Z</time></trkpt><trkpt lat="42.261446799095204" lon="19.51950343675484"><ele>338.4</ele><time>2026-05-01T16:13:27Z</time></trkpt><trkpt lat="42.261368722256776" lon="19.519451290526312"><ele>338.0</ele><time>2026-05-01T16:13:28Z</time></trkpt><trkpt lat="42.26128334008381" lon="19.51945752524475"><ele>338.0</ele><time>2026-05-01T16:13:29Z</time></trkpt><trkpt lat="42.261204664420035" lon="19.519456551613406"><ele>338.0</ele><time>2026-05-01T16:13:30Z</time></trkpt><trkpt lat="42.261120300928695" lon="19.519428792974512"><ele>338.0</ele><time>2026-05-01T16:13:31Z</time></trkpt><trkpt lat="42.26102218782022" lon="19.519417607618372"><ele>338.0</ele><time>2026-05-01T16:13:32Z</time></trkpt><trkpt lat="42.26091671456412" lon="19.519405077895478"><ele>338.0</ele><time>2026-05-01T16:13:33Z</time></trkpt><trkpt lat="42.260814652884115" lon="19.5193927614665"><ele>338.0</ele><time>2026-05-01T16:13:34Z</time></trkpt><trkpt lat="42.26072399877161" lon="19.51938113111807"><ele>338.0</ele><time>2026-05-01T16:13:35Z</time></trkpt><trkpt lat="42.26063683211743" lon="19.519365730953762"><ele>338.0</ele><time>2026-05-01T16:13:36Z</time></trkpt><trkpt lat="42.26055451770135" lon="19.519351187997376"><ele>338.0</ele><time>2026-05-01T16:13:37Z</time></trkpt><trkpt lat="42.260471876517386" lon="19.519336556875945"><ele>338.0</ele><time>2026-05-01T16:13:38Z</time></trkpt><trkpt lat="42.260399366054116" lon="19.519313695219125"><ele>338.0</ele><time>2026-05-01T16:13:39Z</time></trkpt><trkpt lat="42.260330251121076" lon="19.519282567598147"><ele>337.33333333333337</ele><time>2026-05-01T16:13:40Z</time></trkpt><trkpt lat="42.260263955323495" lon="19.519252711326587"><ele>336.6666666666667</ele><time>2026-05-01T16:13:41Z</time></trkpt><trkpt lat="42.26013987913461" lon="19.519196830929793"><ele>336.0</ele><time>2026-05-01T16:13:43Z</time></trkpt><trkpt lat="42.26008361780476" lon="19.5191492357"><ele>335.3333333333333</ele><time>2026-05-01T16:13:44Z</time></trkpt><trkpt lat="42.260019229025716" lon="19.519103249682534"><ele>334.66666666666663</ele><time>2026-05-01T16:13:45Z</time></trkpt><trkpt lat="42.259953449292496" lon="19.519056287086247"><ele>334.0</ele><time>2026-05-01T16:13:46Z</time></trkpt><trkpt lat="42.25988958465651" lon="19.51901069171328"><ele>334.0</ele><time>2026-05-01T16:13:47Z</time></trkpt><trkpt lat="42.25982842143243" lon="19.518986749879492"><ele>334.0</ele><time>2026-05-01T16:13:48Z</time></trkpt><trkpt lat="42.25976383467151" lon="19.518885889754607"><ele>334.0</ele><time>2026-05-01T16:13:50Z</time></trkpt><trkpt lat="42.25970618877596" lon="19.518832891611964"><ele>334.0</ele><time>2026-05-01T16:13:52Z</time></trkpt><trkpt lat="42.259766545222845" lon="19.518902593772395"><ele>334.0</ele><time>2026-05-01T16:14:02Z</time></trkpt><trkpt lat="42.25978552852885" lon="19.519008485988522"><ele>334.0</ele><time>2026-05-01T16:14:03Z</time></trkpt><trkpt lat="42.25985842819124" lon="19.51903401785784"><ele>334.0</ele><time>2026-05-01T16:14:04Z</time></trkpt><trkpt lat="42.25994784895418" lon="19.5191007368087"><ele>334.0</ele><time>2026-05-01T16:14:05Z</time></trkpt><trkpt lat="42.26008966364835" lon="19.519195467785064"><ele>334.0</ele><time>2026-05-01T16:14:06Z</time></trkpt><trkpt lat="42.2602489541159" lon="19.51929053429554"><ele>334.0</ele><time>2026-05-01T16:14:07Z</time></trkpt><trkpt lat="42.26037493380697" lon="19.519347363421932"><ele>334.0</ele><time>2026-05-01T16:14:08Z</time></trkpt><trkpt lat="42.260478442452445" lon="19.519379033031758"><ele>334.0</ele><time>2026-05-01T16:14:09Z</time></trkpt><trkpt lat="42.260570904004524" lon="19.51939612654086"><ele>334.0</ele><time>2026-05-01T16:14:10Z</time></trkpt><trkpt lat="42.260662030100214" lon="19.51941026312421"><ele>334.0</ele><time>2026-05-01T16:14:11Z</time></trkpt><trkpt lat="42.26074254826656" lon="19.51942049465844"><ele>334.0</ele><time>2026-05-01T16:14:12Z</time></trkpt><trkpt lat="42.260826934720086" lon="19.519430561493962"><ele>334.66666666666663</ele><time>2026-05-01T16:14:13Z</time></trkpt><trkpt lat="42.26090688007019" lon="19.51943806335649"><ele>335.3333333333333</ele><time>2026-05-01T16:14:14Z</time></trkpt><trkpt lat="42.26098186836402" lon="19.519452759361858"><ele>336.0</ele><time>2026-05-01T16:14:15Z</time></trkpt><trkpt lat="42.26105628285712" lon="19.51946178356008"><ele>336.6666666666667</ele><time>2026-05-01T16:14:16Z</time></trkpt><trkpt lat="42.26114409755237" lon="19.519468338662524"><ele>337.33333333333337</ele><time>2026-05-01T16:14:17Z</time></trkpt><trkpt lat="42.261238244054184" lon="19.519481148786745"><ele>338.0</ele><time>2026-05-01T16:14:18Z</time></trkpt><trkpt lat="42.26134565416351" lon="19.519500770470604"><ele>338.4</ele><time>2026-05-01T16:14:19Z</time></trkpt><trkpt lat="42.261456674365625" lon="19.51952887781633"><ele>338.79999999999995</ele><time>2026-05-01T16:14:20Z</time></trkpt><trkpt lat="42.26155027806205" lon="19.51956146050607"><ele>339.2</ele><time>2026-05-01T16:14:21Z</time></trkpt><trkpt lat="42.26162304855253" lon="19.519600683236916"><ele>339.6</ele><time>2026-05-01T16:14:22Z</time></trkpt><trkpt lat="42.261717853379444" lon="19.519657002088522"><ele>340.0</ele><time>2026-05-01T16:14:24Z</time></trkpt><trkpt lat="42.261779517474" lon="19.51968240856062"><ele>340.0</ele><time>2026-05-01T16:14:38Z</time></trkpt><trkpt lat="42.26184913743445" lon="19.51971750751865"><ele>340.0</ele><time>2026-05-01T16:14:41Z</time></trkpt><trkpt lat="42.26197118904041" lon="19.519749185814824"><ele>340.0</ele><time>2026-05-01T16:14:43Z</time></trkpt><trkpt lat="42.26204305528372" lon="19.519795109876284"><ele>340.0</ele><time>2026-05-01T16:14:44Z</time></trkpt><trkpt lat="42.26211511837943" lon="19.519853532292466"><ele>340.0</ele><time>2026-05-01T16:14:45Z</time></trkpt><trkpt lat="42.26217457159324" lon="19.519908172081905"><ele>340.0</ele><time>2026-05-01T16:14:46Z</time></trkpt><trkpt lat="42.262239119615394" lon="19.51996331023855"><ele>340.16666666666663</ele><time>2026-05-01T16:14:47Z</time></trkpt><trkpt lat="42.26229263722624" lon="19.520019931908227"><ele>340.3333333333333</ele><time>2026-05-01T16:14:48Z</time></trkpt><trkpt lat="42.26233561358046" lon="19.52008358064786"><ele>340.5</ele><time>2026-05-01T16:14:49Z</time></trkpt><trkpt lat="42.26238842759858" lon="19.520139906484562"><ele>340.6666666666667</ele><time>2026-05-01T16:14:50Z</time></trkpt><trkpt lat="42.26244087726542" lon="19.520209169474928"><ele>340.83333333333337</ele><time>2026-05-01T16:14:51Z</time></trkpt><trkpt lat="42.26249855438546" lon="19.52029657955747"><ele>341.0</ele><time>2026-05-01T16:14:52Z</time></trkpt><trkpt lat="42.26256989359072" lon="19.52040370542346"><ele>341.0</ele><time>2026-05-01T16:14:53Z</time></trkpt><trkpt lat="42.26264785378012" lon="19.52051118722302"><ele>341.0</ele><time>2026-05-01T16:14:54Z</time></trkpt><trkpt lat="42.26276234000736" lon="19.520670117392434"><ele>341.0</ele><time>2026-05-01T16:14:55Z</time></trkpt><trkpt lat="42.262890547367775" lon="19.520851375193754"><ele>341.0</ele><time>2026-05-01T16:14:56Z</time></trkpt><trkpt lat="42.262963320265406" lon="19.520952077634057"><ele>341.0</ele><time>2026-05-01T16:14:57Z</time></trkpt><trkpt lat="42.26301329073358" lon="19.52102169846078"><ele>341.0</ele><time>2026-05-01T16:14:58Z</time></trkpt><trkpt lat="42.26303902362865" lon="19.52110646972793"><ele>341.0</ele><time>2026-05-01T16:15:00Z</time></trkpt><trkpt lat="42.263002932312375" lon="19.521033235592263"><ele>341.0</ele><time>2026-05-01T16:15:36Z</time></trkpt><trkpt lat="42.262957916210915" lon="19.52096915178165"><ele>341.0</ele><time>2026-05-01T16:15:43Z</time></trkpt><trkpt lat="42.263009798916435" lon="19.52102719483759"><ele>341.0</ele><time>2026-05-01T16:16:10Z</time></trkpt><trkpt lat="42.26296094448324" lon="19.52095306964685"><ele>341.0</ele><time>2026-05-01T16:16:52Z</time></trkpt><trkpt lat="42.26300549042605" lon="19.521022127543617"><ele>341.0</ele><time>2026-05-01T16:18:49Z</time></trkpt><trkpt lat="42.26303649725963" lon="19.521098512335"><ele>341.0</ele><time>2026-05-01T16:18:54Z</time></trkpt><trkpt lat="42.2630409451585" lon="19.521004599583904"><ele>341.0</ele><time>2026-05-01T16:19:36.999Z</time></trkpt><trkpt lat="42.26297926822589" lon="19.520921444504097"><ele>341.0</ele><time>2026-05-01T16:19:39Z</time></trkpt><trkpt lat="42.26289401548735" lon="19.52081567011439"><ele>341.0</ele><time>2026-05-01T16:19:41Z</time></trkpt><trkpt lat="42.262843810936616" lon="19.520745385535477"><ele>341.0</ele><time>2026-05-01T16:19:43Z</time></trkpt><trkpt lat="42.26276343640834" lon="19.520640463653002"><ele>341.0</ele><time>2026-05-01T16:19:46Z</time></trkpt><trkpt lat="42.26268449100355" lon="19.520537173030103"><ele>341.0</ele><time>2026-05-01T16:19:48Z</time></trkpt><trkpt lat="42.26260309754241" lon="19.52042338207579"><ele>341.0</ele><time>2026-05-01T16:19:50Z</time></trkpt><trkpt lat="42.26256144844944" lon="19.52035913536225"><ele>341.0</ele><time>2026-05-01T16:19:51Z</time></trkpt><trkpt lat="42.262511575182366" lon="19.520286305257198"><ele>341.0</ele><time>2026-05-01T16:19:52Z</time></trkpt><trkpt lat="42.2624496959667" lon="19.520198673560486"><ele>341.0</ele><time>2026-05-01T16:19:53Z</time></trkpt><trkpt lat="42.26237140761111" lon="19.5201069453785"><ele>341.0</ele><time>2026-05-01T16:19:54Z</time></trkpt><trkpt lat="42.26227468245624" lon="19.51996147199201"><ele>341.0</ele><time>2026-05-01T16:19:55Z</time></trkpt><trkpt lat="42.26217677641695" lon="19.519844405414997"><ele>340.8</ele><time>2026-05-01T16:19:56Z</time></trkpt><trkpt lat="42.26212335655613" lon="19.519780531284976"><ele>340.6</ele><time>2026-05-01T16:19:57Z</time></trkpt><trkpt lat="42.262047258133315" lon="19.519746721100734"><ele>340.4</ele><time>2026-05-01T16:19:58Z</time></trkpt><trkpt lat="42.2619735003172" lon="19.519704386369586"><ele>340.2</ele><time>2026-05-01T16:19:59Z</time></trkpt><trkpt lat="42.26183935411039" lon="19.519667526396077"><ele>340.0</ele><time>2026-05-01T16:20:00Z</time></trkpt><trkpt lat="42.26168053199846" lon="19.51958685940106"><ele>340.0</ele><time>2026-05-01T16:20:01Z</time></trkpt><trkpt lat="42.26155889360429" lon="19.519530085395036"><ele>340.0</ele><time>2026-05-01T16:20:02Z</time></trkpt><trkpt lat="42.26149116139299" lon="19.519518883645343"><ele>340.0</ele><time>2026-05-01T16:20:03Z</time></trkpt><trkpt lat="42.261422225600136" lon="19.519483726427612"><ele>340.0</ele><time>2026-05-01T16:20:05Z</time></trkpt><trkpt lat="42.261502940133155" lon="19.519506900703497"><ele>340.0</ele><time>2026-05-01T16:20:42Z</time></trkpt><trkpt lat="42.26157797812276" lon="19.519538737465858"><ele>340.0</ele><time>2026-05-01T16:20:45Z</time></trkpt><trkpt lat="42.26165812014876" lon="19.519572466642266"><ele>340.0</ele><time>2026-05-01T16:20:47Z</time></trkpt><trkpt lat="42.26176117800853" lon="19.5196302919797"><ele>340.0</ele><time>2026-05-01T16:20:49Z</time></trkpt><trkpt lat="42.2618440228298" lon="19.519669218336187"><ele>340.0</ele><time>2026-05-01T16:20:51Z</time></trkpt><trkpt lat="42.26202209187938" lon="19.519778885810354"><ele>340.0</ele><time>2026-05-01T16:20:53Z</time></trkpt><trkpt lat="42.26211222514824" lon="19.519843824914744"><ele>340.0</ele><time>2026-05-01T16:20:54Z</time></trkpt><trkpt lat="42.262207018033465" lon="19.51993370477797"><ele>340.0</ele><time>2026-05-01T16:20:55Z</time></trkpt><trkpt lat="42.26230760650976" lon="19.520044282876693"><ele>340.0</ele><time>2026-05-01T16:20:56Z</time></trkpt><trkpt lat="42.262412820193866" lon="19.520170474299842"><ele>340.0</ele><time>2026-05-01T16:20:57Z</time></trkpt><trkpt lat="42.26249874685872" lon="19.520290195689373"><ele>340.25</ele><time>2026-05-01T16:20:58Z</time></trkpt><trkpt lat="42.26257708594765" lon="19.520392278612473"><ele>340.5</ele><time>2026-05-01T16:20:59Z</time></trkpt><trkpt lat="42.2626808218065" lon="19.520502912476143"><ele>340.75</ele><time>2026-05-01T16:21:00Z</time></trkpt><trkpt lat="42.26278002162262" lon="19.520689380568204"><ele>341.0</ele><time>2026-05-01T16:21:01Z</time></trkpt><trkpt lat="42.26291589776204" lon="19.520877238647937"><ele>341.0</ele><time>2026-05-01T16:21:02Z</time></trkpt><trkpt lat="42.26300929525961" lon="19.521007784031237"><ele>341.0</ele><time>2026-05-01T16:21:03Z</time></trkpt><trkpt lat="42.26306783231177" lon="19.521109627211057"><ele>341.0</ele><time>2026-05-01T16:21:04Z</time></trkpt><trkpt lat="42.26312169015347" lon="19.52121814738016"><ele>341.0</ele><time>2026-05-01T16:21:05Z</time></trkpt><trkpt lat="42.26318544505602" lon="19.521339605644588"><ele>341.0</ele><time>2026-05-01T16:21:06Z</time></trkpt><trkpt lat="42.26324168227802" lon="19.521451001935894"><ele>342.8</ele><time>2026-05-01T16:21:07Z</time></trkpt><trkpt lat="42.26328462077883" lon="19.52153395982683"><ele>344.6</ele><time>2026-05-01T16:21:08Z</time></trkpt><trkpt lat="42.26334564505734" lon="19.521639700468977"><ele>346.4</ele><time>2026-05-01T16:21:10Z</time></trkpt><trkpt lat="42.263395182267615" lon="19.521711811698125"><ele>348.2</ele><time>2026-05-01T16:21:12.999Z</time></trkpt><trkpt lat="42.263434807688796" lon="19.52154793332291"><ele>350.0</ele><time>2026-05-01T16:21:17.999Z</time></trkpt><trkpt lat="42.263335083046194" lon="19.521471601699776"><ele>350.0</ele><time>2026-05-01T16:21:19.999Z</time></trkpt><trkpt lat="42.263265207796564" lon="19.52141902503448"><ele>350.0</ele><time>2026-05-01T16:21:20.999Z</time></trkpt><trkpt lat="42.2631867843253" lon="19.521368330967757"><ele>350.0</ele><time>2026-05-01T16:21:21.999Z</time></trkpt><trkpt lat="42.263121593792576" lon="19.52130819991253"><ele>350.0</ele><time>2026-05-01T16:21:22.999Z</time></trkpt><trkpt lat="42.26308415578558" lon="19.521229468516967"><ele>350.0</ele><time>2026-05-01T16:21:23.999Z</time></trkpt><trkpt lat="42.26303958046545" lon="19.52110620408607"><ele>350.0</ele><time>2026-05-01T16:21:24.999Z</time></trkpt><trkpt lat="42.26299550163634" lon="19.52100598218269"><ele>348.2</ele><time>2026-05-01T16:21:25.999Z</time></trkpt><trkpt lat="42.262970394807276" lon="19.52089726596366"><ele>346.4</ele><time>2026-05-01T16:21:26.999Z</time></trkpt><trkpt lat="42.262919550519285" lon="19.520827086536595"><ele>344.6</ele><time>2026-05-01T16:21:27.999Z</time></trkpt><trkpt lat="42.262858324664684" lon="19.520740951475187"><ele>342.8</ele><time>2026-05-01T16:21:28.999Z</time></trkpt><trkpt lat="42.262782599687114" lon="19.52063595368819"><ele>341.0</ele><time>2026-05-01T16:21:29.999Z</time></trkpt><trkpt lat="42.26270955619782" lon="19.520533338806036"><ele>341.0</ele><time>2026-05-01T16:21:30.999Z</time></trkpt><trkpt lat="42.26264127918266" lon="19.520439706367046"><ele>341.0</ele><time>2026-05-01T16:21:31.999Z</time></trkpt><trkpt lat="42.26257593331548" lon="19.52034924159918"><ele>341.0</ele><time>2026-05-01T16:21:32.999Z</time></trkpt><trkpt lat="42.26249296668384" lon="19.52026935333626"><ele>341.0</ele><time>2026-05-01T16:21:33.999Z</time></trkpt><trkpt lat="42.26242278302828" lon="19.520158518452163"><ele>341.0</ele><time>2026-05-01T16:21:34.999Z</time></trkpt><trkpt lat="42.26233845277985" lon="19.520056877176334"><ele>340.75</ele><time>2026-05-01T16:21:35.999Z</time></trkpt><trkpt lat="42.262247194836064" lon="19.519954925276487"><ele>340.5</ele><time>2026-05-01T16:21:36.999Z</time></trkpt><trkpt lat="42.26216825418506" lon="19.519834215310567"><ele>340.25</ele><time>2026-05-01T16:21:37.999Z</time></trkpt><trkpt lat="42.262050426146594" lon="19.519748539456007"><ele>340.0</ele><time>2026-05-01T16:21:38.999Z</time></trkpt><trkpt lat="42.261917126655035" lon="19.51969548105484"><ele>340.0</ele><time>2026-05-01T16:21:39.999Z</time></trkpt><trkpt lat="42.261739066384564" lon="19.51961838364897"><ele>340.0</ele><time>2026-05-01T16:21:40.999Z</time></trkpt><trkpt lat="42.261551157900755" lon="19.519526606960923"><ele>340.0</ele><time>2026-05-01T16:21:41.999Z</time></trkpt><trkpt lat="42.26142561841213" lon="19.519474865487123"><ele>339.66666666666663</ele><time>2026-05-01T16:21:42.999Z</time></trkpt><trkpt lat="42.26132181992705" lon="19.519472616814877"><ele>339.3333333333333</ele><time>2026-05-01T16:21:43.999Z</time></trkpt><trkpt lat="42.26123283209106" lon="19.51945812500609"><ele>339.0</ele><time>2026-05-01T16:21:45Z</time></trkpt><trkpt lat="42.26114584475359" lon="19.519431839224897"><ele>338.6666666666667</ele><time>2026-05-01T16:21:46Z</time></trkpt><trkpt lat="42.26107087096279" lon="19.519423081395384"><ele>338.33333333333337</ele><time>2026-05-01T16:21:47Z</time></trkpt><trkpt lat="42.26100586542558" lon="19.519434554019753"><ele>338.0</ele><time>2026-05-01T16:21:48Z</time></trkpt><trkpt lat="42.26088620251192" lon="19.51941683885814"><ele>338.0</ele><time>2026-05-01T16:21:50Z</time></trkpt><trkpt lat="42.26077272644692" lon="19.519402863924476"><ele>338.0</ele><time>2026-05-01T16:21:52Z</time></trkpt><trkpt lat="42.2606858230945" lon="19.519380729624928"><ele>338.0</ele><time>2026-05-01T16:21:54Z</time></trkpt><trkpt lat="42.26077968341252" lon="19.51939209666285"><ele>338.0</ele><time>2026-05-01T16:22:11Z</time></trkpt><trkpt lat="42.260859581133396" lon="19.51942109910437"><ele>338.0</ele><time>2026-05-01T16:22:12Z</time></trkpt><trkpt lat="42.260940330904" lon="19.51943390609489"><ele>338.0</ele><time>2026-05-01T16:22:13Z</time></trkpt><trkpt lat="42.26102837470778" lon="19.51945407239636"><ele>338.0</ele><time>2026-05-01T16:22:14Z</time></trkpt><trkpt lat="42.26112118896101" lon="19.51946617463122"><ele>338.0</ele><time>2026-05-01T16:22:15Z</time></trkpt><trkpt lat="42.26121902551032" lon="19.519477350167364"><ele>338.0</ele><time>2026-05-01T16:22:16Z</time></trkpt><trkpt lat="42.26131772360416" lon="19.5194953439619"><ele>338.0</ele><time>2026-05-01T16:22:17Z</time></trkpt><trkpt lat="42.26140554047105" lon="19.519517819352394"><ele>338.4</ele><time>2026-05-01T16:22:18Z</time></trkpt><trkpt lat="42.26147033069505" lon="19.519537913849245"><ele>338.79999999999995</ele><time>2026-05-01T16:22:19Z</time></trkpt><trkpt lat="42.26157521996144" lon="19.51957296591118"><ele>339.2</ele><time>2026-05-01T16:22:21Z</time></trkpt><trkpt lat="42.26166934761596" lon="19.51962051651179"><ele>339.6</ele><time>2026-05-01T16:22:23Z</time></trkpt><trkpt lat="42.26177112003619" lon="19.51966126131847"><ele>340.0</ele><time>2026-05-01T16:22:25Z</time></trkpt><trkpt lat="42.261890761519" lon="19.51971098419452"><ele>340.0</ele><time>2026-05-01T16:22:27Z</time></trkpt><trkpt lat="42.26196830526786" lon="19.51974856929532"><ele>340.0</ele><time>2026-05-01T16:22:28Z</time></trkpt><trkpt lat="42.262056895038214" lon="19.51979153535885"><ele>340.0</ele><time>2026-05-01T16:22:29Z</time></trkpt><trkpt lat="42.262141022506036" lon="19.51986015520657"><ele>340.0</ele><time>2026-05-01T16:22:30Z</time></trkpt><trkpt lat="42.262224701538294" lon="19.519952520281272"><ele>340.0</ele><time>2026-05-01T16:22:31Z</time></trkpt><trkpt lat="42.262308287441606" lon="19.52005143447678"><ele>340.2</ele><time>2026-05-01T16:22:32Z</time></trkpt><trkpt lat="42.262382632902145" lon="19.5201436863708"><ele>340.4</ele><time>2026-05-01T16:22:33Z</time></trkpt><trkpt lat="42.262444935577605" lon="19.520232784842587"><ele>340.6</ele><time>2026-05-01T16:22:34Z</time></trkpt><trkpt lat="42.26250224328064" lon="19.52031554829099"><ele>340.8</ele><time>2026-05-01T16:22:35Z</time></trkpt><trkpt lat="42.26256457352298" lon="19.520406477726333"><ele>341.0</ele><time>2026-05-01T16:22:36Z</time></trkpt><trkpt lat="42.26264271372436" lon="19.520514288932507"><ele>341.0</ele><time>2026-05-01T16:22:37Z</time></trkpt><trkpt lat="42.26274916181129" lon="19.520656577824727"><ele>341.0</ele><time>2026-05-01T16:22:38Z</time></trkpt><trkpt lat="42.26287900002126" lon="19.520828443065103"><ele>341.0</ele><time>2026-05-01T16:22:39Z</time></trkpt><trkpt lat="42.26299902480805" lon="19.520987288712128"><ele>341.0</ele><time>2026-05-01T16:22:40Z</time></trkpt><trkpt lat="42.26307442813631" lon="19.52110948650649"><ele>341.0</ele><time>2026-05-01T16:22:41Z</time></trkpt><trkpt lat="42.263128202564666" lon="19.521230415424974"><ele>341.0</ele><time>2026-05-01T16:22:42Z</time></trkpt><trkpt lat="42.26322061146988" lon="19.521404675968196"><ele>341.0</ele><time>2026-05-01T16:22:43Z</time></trkpt><trkpt lat="42.26333909521738" lon="19.521611396703285"><ele>342.8</ele><time>2026-05-01T16:22:44Z</time></trkpt><trkpt lat="42.26340681478842" lon="19.521734976413597"><ele>344.6</ele><time>2026-05-01T16:22:45Z</time></trkpt><trkpt lat="42.26345981087409" lon="19.521798123555797"><ele>346.4</ele><time>2026-05-01T16:22:49Z</time></trkpt><trkpt lat="42.26339913695471" lon="19.521753305719795"><ele>348.2</ele><time>2026-05-01T16:23:00Z</time></trkpt><trkpt lat="42.263313190548395" lon="19.52160793194675"><ele>350.0</ele><time>2026-05-01T16:23:02Z</time></trkpt><trkpt lat="42.263268968553454" lon="19.52149254674564"><ele>350.0</ele><time>2026-05-01T16:23:03Z</time></trkpt><trkpt lat="42.26321784716917" lon="19.52140347396712"><ele>350.0</ele><time>2026-05-01T16:23:04Z</time></trkpt><trkpt lat="42.26316461441384" lon="19.521307322999057"><ele>350.0</ele><time>2026-05-01T16:23:05Z</time></trkpt><trkpt lat="42.263149908113085" lon="19.52117840380444"><ele>350.0</ele><time>2026-05-01T16:23:06Z</time></trkpt><trkpt lat="42.26310152118752" lon="19.52109700920299"><ele>350.0</ele><time>2026-05-01T16:23:07Z</time></trkpt><trkpt lat="42.26305826999093" lon="19.521029314772363"><ele>350.0</ele><time>2026-05-01T16:23:08Z</time></trkpt><trkpt lat="42.26297416760176" lon="19.52090247351746"><ele>348.2</ele><time>2026-05-01T16:23:10Z</time></trkpt><trkpt lat="42.26292066889767" lon="19.52082863020509"><ele>346.4</ele><time>2026-05-01T16:23:11Z</time></trkpt><trkpt lat="42.26285568949551" lon="19.520737330505206"><ele>344.6</ele><time>2026-05-01T16:23:12Z</time></trkpt><trkpt lat="42.26278263982461" lon="19.520636009893806"><ele>342.8</ele><time>2026-05-01T16:23:13Z</time></trkpt><trkpt lat="42.26271083857633" lon="19.520535097416445"><ele>341.0</ele><time>2026-05-01T16:23:14Z</time></trkpt><trkpt lat="42.26264178654409" lon="19.520440402166784"><ele>341.0</ele><time>2026-05-01T16:23:15Z</time></trkpt><trkpt lat="42.262570369120105" lon="19.52034131223941"><ele>341.0</ele><time>2026-05-01T16:23:16Z</time></trkpt><trkpt lat="42.26249546746841" lon="19.520243697954378"><ele>341.0</ele><time>2026-05-01T16:23:17Z</time></trkpt><trkpt lat="42.26241115818346" lon="19.520156572551322"><ele>341.0</ele><time>2026-05-01T16:23:18Z</time></trkpt><trkpt lat="42.2623337485119" lon="19.520037333128933"><ele>341.0</ele><time>2026-05-01T16:23:19Z</time></trkpt><trkpt lat="42.26226217998637" lon="19.519946522864274"><ele>340.83333333333337</ele><time>2026-05-01T16:23:19.999Z</time></trkpt><trkpt lat="42.262208258874985" lon="19.519882049182065"><ele>340.6666666666667</ele><time>2026-05-01T16:23:20.999Z</time></trkpt><trkpt lat="42.26215498527071" lon="19.519818349611466"><ele>340.5</ele><time>2026-05-01T16:23:21.999Z</time></trkpt><trkpt lat="42.2620747540504" lon="19.519762503065582"><ele>340.3333333333333</ele><time>2026-05-01T16:23:22.999Z</time></trkpt><trkpt lat="42.26198901636937" lon="19.51971329205857"><ele>340.16666666666663</ele><time>2026-05-01T16:23:23.999Z</time></trkpt><trkpt lat="42.261872293021916" lon="19.519679463726945"><ele>340.0</ele><time>2026-05-01T16:23:24.999Z</time></trkpt><trkpt lat="42.261717089119955" lon="19.51960654759499"><ele>339.3333333333333</ele><time>2026-05-01T16:23:25.999Z</time></trkpt><trkpt lat="42.26152975468294" lon="19.519517859697157"><ele>338.6666666666667</ele><time>2026-05-01T16:23:26.999Z</time></trkpt><trkpt lat="42.261376697403215" lon="19.51945459712934"><ele>338.0</ele><time>2026-05-01T16:23:27.999Z</time></trkpt><trkpt lat="42.2612645398313" lon="19.51946763273157"><ele>338.0</ele><time>2026-05-01T16:23:28.999Z</time></trkpt><trkpt lat="42.261192611505216" lon="19.519437413416387"><ele>338.0</ele><time>2026-05-01T16:23:29.999Z</time></trkpt><trkpt lat="42.2610705483459" lon="19.519423044445524"><ele>338.0</ele><time>2026-05-01T16:23:31.999Z</time></trkpt><trkpt lat="42.26100601812412" lon="19.519415816352915"><ele>338.0</ele><time>2026-05-01T16:23:32.999Z</time></trkpt><trkpt lat="42.26093802674802" lon="19.519407651436282"><ele>338.0</ele><time>2026-05-01T16:23:33.999Z</time></trkpt><trkpt lat="42.260866532150416" lon="19.51939902371403"><ele>338.0</ele><time>2026-05-01T16:23:34.999Z</time></trkpt><trkpt lat="42.26079350338629" lon="19.519390210841067"><ele>338.0</ele><time>2026-05-01T16:23:35.999Z</time></trkpt><trkpt lat="42.2607194862031" lon="19.519400572077494"><ele>338.0</ele><time>2026-05-01T16:23:36.999Z</time></trkpt><trkpt lat="42.26064717866417" lon="19.51936756059215"><ele>338.0</ele><time>2026-05-01T16:23:37.999Z</time></trkpt><trkpt lat="42.26057265415702" lon="19.5193543939254"><ele>338.0</ele><time>2026-05-01T16:23:38.999Z</time></trkpt><trkpt lat="42.26049833347892" lon="19.519341263258784"><ele>338.0</ele><time>2026-05-01T16:23:39.999Z</time></trkpt><trkpt lat="42.26042566731321" lon="19.519328185057127"><ele>338.0</ele><time>2026-05-01T16:23:40.999Z</time></trkpt><trkpt lat="42.26036245342821" lon="19.51929707222644"><ele>338.0</ele><time>2026-05-01T16:24:07Z</time></trkpt><trkpt lat="42.260276886988876" lon="19.519258535414345"><ele>337.2</ele><time>2026-05-01T16:25:04Z</time></trkpt><trkpt lat="42.260202547068495" lon="19.51922505468308"><ele>336.4</ele><time>2026-05-01T16:25:06Z</time></trkpt><trkpt lat="42.26012477549561" lon="19.519178344820535"><ele>335.59999999999997</ele><time>2026-05-01T16:25:08Z</time></trkpt><trkpt lat="42.26003880187001" lon="19.519117223484436"><ele>334.79999999999995</ele><time>2026-05-01T16:25:10Z</time></trkpt><trkpt lat="42.25995286877219" lon="19.51905587260976"><ele>334.0</ele><time>2026-05-01T16:25:12Z</time></trkpt><trkpt lat="42.259862011682294" lon="19.518991006339526"><ele>334.0</ele><time>2026-05-01T16:25:14Z</time></trkpt><trkpt lat="42.2597646300107" lon="19.518896978876253"><ele>334.0</ele><time>2026-05-01T16:25:16Z</time></trkpt><trkpt lat="42.25971158443109" lon="19.518842227199578"><ele>334.0</ele><time>2026-05-01T16:25:17Z</time></trkpt><trkpt lat="42.25961808936843" lon="19.518744249381495"><ele>334.0</ele><time>2026-05-01T16:25:19Z</time></trkpt><trkpt lat="42.259532846931165" lon="19.518651866095382"><ele>334.0</ele><time>2026-05-01T16:25:21Z</time></trkpt><trkpt lat="42.25943836352825" lon="19.518544637925736"><ele>333.5</ele><time>2026-05-01T16:25:23Z</time></trkpt><trkpt lat="42.259348882114175" lon="19.518442934206323"><ele>333.0</ele><time>2026-05-01T16:25:25Z</time></trkpt><trkpt lat="42.25925721286766" lon="19.518345906158746"><ele>332.5</ele><time>2026-05-01T16:25:27Z</time></trkpt><trkpt lat="42.25916563393677" lon="19.518253093316602"><ele>332.0</ele><time>2026-05-01T16:25:29Z</time></trkpt><trkpt lat="42.25907551360661" lon="19.518161819796685"><ele>332.0</ele><time>2026-05-01T16:25:31Z</time></trkpt><trkpt lat="42.25898346279936" lon="19.518074761114615"><ele>332.0</ele><time>2026-05-01T16:25:33Z</time></trkpt><trkpt lat="42.258895965826234" lon="19.517993517454116"><ele>332.0</ele><time>2026-05-01T16:25:35Z</time></trkpt><trkpt lat="42.258806793454234" lon="19.517918418997198"><ele>332.0</ele><time>2026-05-01T16:25:37Z</time></trkpt><trkpt lat="42.25869799121959" lon="19.51782498929668"><ele>331.57142857142856</ele><time>2026-05-01T16:25:39Z</time></trkpt><trkpt lat="42.25863127475322" lon="19.51778332043315"><ele>331.14285714285717</ele><time>2026-05-01T16:25:39.999Z</time></trkpt><trkpt lat="42.25858129664272" lon="19.517708525199208"><ele>330.7142857142857</ele><time>2026-05-01T16:25:40.999Z</time></trkpt><trkpt lat="42.25852478040331" lon="19.51764647393027"><ele>330.2857142857143</ele><time>2026-05-01T16:25:41.999Z</time></trkpt><trkpt lat="42.258468554522864" lon="19.517581345620002"><ele>329.8571428571429</ele><time>2026-05-01T16:25:42.999Z</time></trkpt><trkpt lat="42.258411523729556" lon="19.517515724503287"><ele>329.42857142857144</ele><time>2026-05-01T16:25:43.999Z</time></trkpt><trkpt lat="42.2583446458728" lon="19.517468496056203"><ele>329.0</ele><time>2026-05-01T16:25:44.999Z</time></trkpt><trkpt lat="42.258273433453844" lon="19.51743207862642"><ele>329.0</ele><time>2026-05-01T16:25:45.999Z</time></trkpt><trkpt lat="42.258209573979876" lon="19.517375603291764"><ele>329.0</ele><time>2026-05-01T16:25:46.999Z</time></trkpt><trkpt lat="42.25812907605786" lon="19.517366290325718"><ele>329.0</ele><time>2026-05-01T16:25:47.999Z</time></trkpt><trkpt lat="42.25804584042572" lon="19.517340702492643"><ele>329.0</ele><time>2026-05-01T16:25:48.999Z</time></trkpt><trkpt lat="42.25795818655396" lon="19.517319049513876"><ele>329.0</ele><time>2026-05-01T16:25:49.999Z</time></trkpt><trkpt lat="42.25787482736741" lon="19.517300303941735"><ele>329.0</ele><time>2026-05-01T16:25:50.999Z</time></trkpt><trkpt lat="42.257796442858925" lon="19.51728525970394"><ele>329.6</ele><time>2026-05-01T16:25:51.999Z</time></trkpt><trkpt lat="42.25771894018721" lon="19.51727292800253"><ele>330.2</ele><time>2026-05-01T16:25:52.999Z</time></trkpt><trkpt lat="42.25763373695289" lon="19.517253041535778"><ele>330.8</ele><time>2026-05-01T16:25:53.999Z</time></trkpt><trkpt lat="42.257543463101484" lon="19.517259670246464"><ele>331.40000000000003</ele><time>2026-05-01T16:25:54.999Z</time></trkpt><trkpt lat="42.25744811268536" lon="19.517266671737204"><ele>332.0</ele><time>2026-05-01T16:25:56Z</time></trkpt><trkpt lat="42.257330248877" lon="19.5172754902805"><ele>331.0</ele><time>2026-05-01T16:25:57Z</time></trkpt><trkpt lat="42.2571923583531" lon="19.51728836499121"><ele>330.0</ele><time>2026-05-01T16:25:58Z</time></trkpt><trkpt lat="42.257036836373885" lon="19.517302885928242"><ele>329.0</ele><time>2026-05-01T16:25:59Z</time></trkpt><trkpt lat="42.2569100156487" lon="19.517336816418176"><ele>328.0</ele><time>2026-05-01T16:26:00Z</time></trkpt><trkpt lat="42.256796586896556" lon="19.517325317791457"><ele>328.0</ele><time>2026-05-01T16:26:01Z</time></trkpt><trkpt lat="42.25669706963799" lon="19.517334609621766"><ele>328.0</ele><time>2026-05-01T16:26:02Z</time></trkpt><trkpt lat="42.256611039035626" lon="19.517342642219962"><ele>328.0</ele><time>2026-05-01T16:26:03Z</time></trkpt><trkpt lat="42.25653616721699" lon="19.51737378073434"><ele>328.0</ele><time>2026-05-01T16:26:04Z</time></trkpt><trkpt lat="42.256465307870755" lon="19.517379666318764"><ele>328.0</ele><time>2026-05-01T16:26:05Z</time></trkpt><trkpt lat="42.25635503914652" lon="19.51742976655472"><ele>327.16666666666663</ele><time>2026-05-01T16:26:07Z</time></trkpt><trkpt lat="42.25628813743058" lon="19.517449913556757"><ele>326.3333333333333</ele><time>2026-05-01T16:26:11Z</time></trkpt><trkpt lat="42.256187448364024" lon="19.517483264955583"><ele>325.5</ele><time>2026-05-01T16:26:19Z</time></trkpt><trkpt lat="42.256116807933374" lon="19.517513634509744"><ele>324.6666666666667</ele><time>2026-05-01T16:26:20Z</time></trkpt><trkpt lat="42.256027310694456" lon="19.517524719059985"><ele>323.83333333333337</ele><time>2026-05-01T16:26:21Z</time></trkpt><trkpt lat="42.25592900065689" lon="19.51755954539478"><ele>323.0</ele><time>2026-05-01T16:26:22Z</time></trkpt><trkpt lat="42.255846335559326" lon="19.517589676441258"><ele>323.0</ele><time>2026-05-01T16:26:23Z</time></trkpt><trkpt lat="42.255742365697806" lon="19.51765655775158"><ele>323.0</ele><time>2026-05-01T16:26:24Z</time></trkpt><trkpt lat="42.25562872429173" lon="19.51770149141861"><ele>323.0</ele><time>2026-05-01T16:26:25Z</time></trkpt><trkpt lat="42.25552870626057" lon="19.517742646009623"><ele>323.0</ele><time>2026-05-01T16:26:26Z</time></trkpt><trkpt lat="42.255441534370135" lon="19.51777549251485"><ele>323.0</ele><time>2026-05-01T16:26:27Z</time></trkpt><trkpt lat="42.2553505996043" lon="19.51781572782193"><ele>322.59999999999997</ele><time>2026-05-01T16:26:28Z</time></trkpt><trkpt lat="42.25525806707017" lon="19.517859545705207"><ele>322.2</ele><time>2026-05-01T16:26:29Z</time></trkpt><trkpt lat="42.25517195455505" lon="19.517894548877802"><ele>321.8</ele><time>2026-05-01T16:26:30Z</time></trkpt><trkpt lat="42.25508334872187" lon="19.517931319885925"><ele>321.4</ele><time>2026-05-01T16:26:31Z</time></trkpt><trkpt lat="42.25498648484993" lon="19.517970129201924"><ele>321.0</ele><time>2026-05-01T16:26:32Z</time></trkpt><trkpt lat="42.25488416449241" lon="19.518009641356258"><ele>320.0</ele><time>2026-05-01T16:26:33Z</time></trkpt><trkpt lat="42.25476394745137" lon="19.518059835225312"><ele>319.0</ele><time>2026-05-01T16:26:34Z</time></trkpt><trkpt lat="42.25463734794205" lon="19.518111838590432"><ele>318.0</ele><time>2026-05-01T16:26:35Z</time></trkpt><trkpt lat="42.25449748589447" lon="19.518168095729017"><ele>317.0</ele><time>2026-05-01T16:26:36Z</time></trkpt><trkpt lat="42.25435183684409" lon="19.51822914778206"><ele>317.0</ele><time>2026-05-01T16:26:37Z</time></trkpt><trkpt lat="42.254198906166216" lon="19.51826256770993"><ele>317.0</ele><time>2026-05-01T16:26:38Z</time></trkpt><trkpt lat="42.254063990000375" lon="19.51831243350212"><ele>317.0</ele><time>2026-05-01T16:26:39Z</time></trkpt><trkpt lat="42.253943080288806" lon="19.518357122469737"><ele>317.0</ele><time>2026-05-01T16:26:40Z</time></trkpt><trkpt lat="42.25384934434218" lon="19.518391767849977"><ele>316.42857142857144</ele><time>2026-05-01T16:26:41Z</time></trkpt><trkpt lat="42.253782232902076" lon="19.518422565962272"><ele>315.85714285714283</ele><time>2026-05-01T16:26:43Z</time></trkpt><trkpt lat="42.253696163069954" lon="19.51842064545594"><ele>315.2857142857143</ele><time>2026-05-01T16:26:46Z</time></trkpt><trkpt lat="42.25361288316997" lon="19.518421482049927"><ele>314.7142857142857</ele><time>2026-05-01T16:26:48Z</time></trkpt><trkpt lat="42.25354607057966" lon="19.51841169451554"><ele>314.14285714285717</ele><time>2026-05-01T16:26:49Z</time></trkpt><trkpt lat="42.25347605945505" lon="19.518399416453793"><ele>313.57142857142856</ele><time>2026-05-01T16:26:50Z</time></trkpt><trkpt lat="42.25340606649697" lon="19.51838710892679"><ele>313.0</ele><time>2026-05-01T16:26:51Z</time></trkpt><trkpt lat="42.253341873403656" lon="19.51837579313798"><ele>313.0</ele><time>2026-05-01T16:26:52Z</time></trkpt><trkpt lat="42.2532201034747" lon="19.518354327864024"><ele>313.0</ele><time>2026-05-01T16:26:54Z</time></trkpt><trkpt lat="42.25314756014046" lon="19.518344982041658"><ele>313.0</ele><time>2026-05-01T16:26:55Z</time></trkpt><trkpt lat="42.25305710160801" lon="19.518344982042798"><ele>313.0</ele><time>2026-05-01T16:26:57Z</time></trkpt><trkpt lat="42.25299061885307" lon="19.518344982042333"><ele>313.0</ele><time>2026-05-01T16:26:59Z</time></trkpt><trkpt lat="42.2529176880379" lon="19.518359679895628"><ele>313.0</ele><time>2026-05-01T16:27:01Z</time></trkpt><trkpt lat="42.25283536775675" lon="19.518343678167536"><ele>312.5</ele><time>2026-05-01T16:27:04Z</time></trkpt><trkpt lat="42.25275216906752" lon="19.51835999547253"><ele>312.0</ele><time>2026-05-01T16:27:08Z</time></trkpt><trkpt lat="42.25266893470462" lon="19.518327366719593"><ele>311.5</ele><time>2026-05-01T16:27:11Z</time></trkpt><trkpt lat="42.25259580549648" lon="19.518266191255353"><ele>311.0</ele><time>2026-05-01T16:27:13Z</time></trkpt><trkpt lat="42.25251128649291" lon="19.51825931283987"><ele>310.5</ele><time>2026-05-01T16:27:15Z</time></trkpt><trkpt lat="42.25240577266369" lon="19.51825957149654"><ele>310.0</ele><time>2026-05-01T16:27:17Z</time></trkpt><trkpt lat="42.252285615847974" lon="19.518286593388275"><ele>309.0</ele><time>2026-05-01T16:27:19Z</time></trkpt><trkpt lat="42.252169963866066" lon="19.518340523252018"><ele>308.0</ele><time>2026-05-01T16:27:21Z</time></trkpt><trkpt lat="42.25211680724641" lon="19.518392242736976"><ele>307.0</ele><time>2026-05-01T16:27:22Z</time></trkpt><trkpt lat="42.25205165568823" lon="19.518403392035935"><ele>306.0</ele><time>2026-05-01T16:27:23Z</time></trkpt><trkpt lat="42.251931746177576" lon="19.51841253643495"><ele>305.0</ele><time>2026-05-01T16:27:25Z</time></trkpt><trkpt lat="42.25180805189583" lon="19.51837897783197"><ele>305.0</ele><time>2026-05-01T16:27:27Z</time></trkpt><trkpt lat="42.25173190242067" lon="19.518350467984387"><ele>305.0</ele><time>2026-05-01T16:27:28Z</time></trkpt><trkpt lat="42.25165115605473" lon="19.518327358271975"><ele>305.0</ele><time>2026-05-01T16:27:29Z</time></trkpt><trkpt lat="42.25158218172975" lon="19.51830750875362"><ele>305.0</ele><time>2026-05-01T16:27:30Z</time></trkpt><trkpt lat="42.25151895988414" lon="19.518293579395404"><ele>305.0</ele><time>2026-05-01T16:27:31Z</time></trkpt><trkpt lat="42.25140151994582" lon="19.51827877837821"><ele>305.0</ele><time>2026-05-01T16:27:33Z</time></trkpt><trkpt lat="42.25127820276852" lon="19.518305726329345"><ele>304.2</ele><time>2026-05-01T16:27:35Z</time></trkpt><trkpt lat="42.25117380149733" lon="19.518292142483116"><ele>303.4</ele><time>2026-05-01T16:27:37Z</time></trkpt><trkpt lat="42.25109313916438" lon="19.518332510950696"><ele>302.6</ele><time>2026-05-01T16:27:39Z</time></trkpt><trkpt lat="42.25102093339682" lon="19.518356950225236"><ele>301.8</ele><time>2026-05-01T16:27:41Z</time></trkpt><trkpt lat="42.250946734949125" lon="19.51834788861748"><ele>301.0</ele><time>2026-05-01T16:27:43.999Z</time></trkpt><trkpt lat="42.25083626315332" lon="19.518382736950766"><ele>301.0</ele><time>2026-05-01T16:27:58.999Z</time></trkpt><trkpt lat="42.25071520706751" lon="19.518420924449586"><ele>301.0</ele><time>2026-05-01T16:28:00.999Z</time></trkpt><trkpt lat="42.25065744379664" lon="19.51848868620352"><ele>301.0</ele><time>2026-05-01T16:28:02Z</time></trkpt><trkpt lat="42.25055483848135" lon="19.518580324246418"><ele>301.0</ele><time>2026-05-01T16:28:04Z</time></trkpt><trkpt lat="42.250497619779914" lon="19.518627642631863"><ele>301.0</ele><time>2026-05-01T16:28:05Z</time></trkpt><trkpt lat="42.25043394945697" lon="19.518680296369645"><ele>300.66666666666663</ele><time>2026-05-01T16:28:06Z</time></trkpt><trkpt lat="42.25036644418631" lon="19.51874096743238"><ele>300.3333333333333</ele><time>2026-05-01T16:28:07Z</time></trkpt><trkpt lat="42.25031096868526" lon="19.518796729230505"><ele>300.0</ele><time>2026-05-01T16:28:08Z</time></trkpt><trkpt lat="42.2502045907346" lon="19.51890955526548"><ele>299.6666666666667</ele><time>2026-05-01T16:28:10Z</time></trkpt><trkpt lat="42.25017847617336" lon="19.51899228042712"><ele>299.33333333333337</ele><time>2026-05-01T16:28:11Z</time></trkpt><trkpt lat="42.25014000096787" lon="19.519060634039317"><ele>299.0</ele><time>2026-05-01T16:28:12Z</time></trkpt><trkpt lat="42.250102679944376" lon="19.519136745194352"><ele>299.0</ele><time>2026-05-01T16:28:13Z</time></trkpt><trkpt lat="42.25002550566066" lon="19.519222858160923"><ele>299.0</ele><time>2026-05-01T16:28:15Z</time></trkpt><trkpt lat="42.24995088113669" lon="19.51929473849131"><ele>299.0</ele><time>2026-05-01T16:28:17Z</time></trkpt><trkpt lat="42.24985418219109" lon="19.519347025079725"><ele>299.0</ele><time>2026-05-01T16:28:19Z</time></trkpt><trkpt lat="42.24978654278282" lon="19.51939643084583"><ele>299.0</ele><time>2026-05-01T16:28:20Z</time></trkpt><trkpt lat="42.24972580681097" lon="19.51945922508403"><ele>299.0</ele><time>2026-05-01T16:28:21Z</time></trkpt><trkpt lat="42.249648021878684" lon="19.519508480632254"><ele>297.8</ele><time>2026-05-01T16:28:22Z</time></trkpt><trkpt lat="42.24956822291189" lon="19.519584199430657"><ele>296.59999999999997</ele><time>2026-05-01T16:28:24Z</time></trkpt><trkpt lat="42.249488811246565" lon="19.519667576115854"><ele>295.4</ele><time>2026-05-01T16:28:26Z</time></trkpt><trkpt lat="42.24937957004728" lon="19.51973387633671"><ele>294.2</ele><time>2026-05-01T16:28:28Z</time></trkpt><trkpt lat="42.24932035395114" lon="19.519785196549144"><ele>293.0</ele><time>2026-05-01T16:28:29Z</time></trkpt><trkpt lat="42.249250850592276" lon="19.519812235655667"><ele>293.0</ele><time>2026-05-01T16:28:30Z</time></trkpt><trkpt lat="42.249184548206564" lon="19.519848568925283"><ele>293.0</ele><time>2026-05-01T16:28:31Z</time></trkpt><trkpt lat="42.24912373013339" lon="19.519893002649543"><ele>293.0</ele><time>2026-05-01T16:28:32Z</time></trkpt><trkpt lat="42.24905593191494" lon="19.51991124720157"><ele>293.0</ele><time>2026-05-01T16:28:33Z</time></trkpt><trkpt lat="42.24899651914168" lon="19.519942857418073"><ele>293.0</ele><time>2026-05-01T16:28:34Z</time></trkpt><trkpt lat="42.24890095515746" lon="19.519999349502736"><ele>293.0</ele><time>2026-05-01T16:28:36Z</time></trkpt><trkpt lat="42.24882491302753" lon="19.520096556093563"><ele>292.5</ele><time>2026-05-01T16:28:38Z</time></trkpt><trkpt lat="42.24876699735139" lon="19.520133423998733"><ele>292.0</ele><time>2026-05-01T16:28:42Z</time></trkpt><trkpt lat="42.248669032849506" lon="19.52022388801964"><ele>291.5</ele><time>2026-05-01T16:28:55Z</time></trkpt><trkpt lat="42.24862252028862" lon="19.520290674213268"><ele>291.0</ele><time>2026-05-01T16:28:56Z</time></trkpt><trkpt lat="42.24854986196058" lon="19.52035267683195"><ele>290.5</ele><time>2026-05-01T16:28:57Z</time></trkpt><trkpt lat="42.24847656416003" lon="19.520388743716207"><ele>290.0</ele><time>2026-05-01T16:28:58Z</time></trkpt><trkpt lat="42.24841784013102" lon="19.52043270099613"><ele>290.0</ele><time>2026-05-01T16:28:59Z</time></trkpt><trkpt lat="42.24831366232606" lon="19.520499155859994"><ele>290.0</ele><time>2026-05-01T16:29:01Z</time></trkpt><trkpt lat="42.248225076717326" lon="19.52052780050075"><ele>290.0</ele><time>2026-05-01T16:29:03Z</time></trkpt><trkpt lat="42.24815578226354" lon="19.520558712439332"><ele>290.0</ele><time>2026-05-01T16:29:04Z</time></trkpt><trkpt lat="42.24807095356842" lon="19.52059052093585"><ele>290.0</ele><time>2026-05-01T16:29:05Z</time></trkpt><trkpt lat="42.24797709418538" lon="19.520633170623817"><ele>289.1666666666667</ele><time>2026-05-01T16:29:06Z</time></trkpt><trkpt lat="42.24789354391119" lon="19.52066749683076"><ele>288.33333333333337</ele><time>2026-05-01T16:29:07Z</time></trkpt><trkpt lat="42.247807587410925" lon="19.52069879853358"><ele>287.5</ele><time>2026-05-01T16:29:08Z</time></trkpt><trkpt lat="42.24772279721671" lon="19.52068712657484"><ele>286.6666666666667</ele><time>2026-05-01T16:29:09Z</time></trkpt><trkpt lat="42.24763964064846" lon="19.520696127350845"><ele>285.8333333333333</ele><time>2026-05-01T16:29:10Z</time></trkpt><trkpt lat="42.247564259901935" lon="19.520704286402804"><ele>285.0</ele><time>2026-05-01T16:29:11Z</time></trkpt><trkpt lat="42.24748567404919" lon="19.520685400009203"><ele>285.0</ele><time>2026-05-01T16:29:12Z</time></trkpt><trkpt lat="42.24740726252435" lon="19.520691196441334"><ele>285.0</ele><time>2026-05-01T16:29:13Z</time></trkpt><trkpt lat="42.24732802273143" lon="19.520697054122486"><ele>285.0</ele><time>2026-05-01T16:29:14Z</time></trkpt><trkpt lat="42.24725915792018" lon="19.520712206231593"><ele>285.0</ele><time>2026-05-01T16:29:15Z</time></trkpt><trkpt lat="42.24708605394423" lon="19.5207239193365"><ele>285.0</ele><time>2026-05-01T16:29:17Z</time></trkpt><trkpt lat="42.24697827007515" lon="19.52074094155261"><ele>284.5</ele><time>2026-05-01T16:29:19Z</time></trkpt><trkpt lat="42.24688782968068" lon="19.520766469917973"><ele>284.0</ele><time>2026-05-01T16:29:21Z</time></trkpt><trkpt lat="42.246816076316314" lon="19.52078672354294"><ele>283.5</ele><time>2026-05-01T16:29:23Z</time></trkpt><trkpt lat="42.24675127977352" lon="19.520805013346635"><ele>283.0</ele><time>2026-05-01T16:29:25Z</time></trkpt><trkpt lat="42.24667706424916" lon="19.52079855138358"><ele>282.5</ele><time>2026-05-01T16:29:29Z</time></trkpt><trkpt lat="42.246589564117166" lon="19.520805910394277"><ele>282.0</ele><time>2026-05-01T16:29:31Z</time></trkpt><trkpt lat="42.246507723418055" lon="19.52081383131884"><ele>281.5</ele><time>2026-05-01T16:29:33Z</time></trkpt><trkpt lat="42.24642395317128" lon="19.520821939001316"><ele>281.0</ele><time>2026-05-01T16:29:35Z</time></trkpt><trkpt lat="42.24634124571041" lon="19.520829943830936"><ele>280.5</ele><time>2026-05-01T16:29:36.999Z</time></trkpt><trkpt lat="42.24630448177522" lon="19.520961734513378"><ele>280.0</ele><time>2026-05-01T16:29:37.999Z</time></trkpt><trkpt lat="42.24622573263965" lon="19.52086150099862"><ele>279.5</ele><time>2026-05-01T16:29:39.999Z</time></trkpt><trkpt lat="42.24618412995925" lon="19.520786722205845"><ele>279.0</ele><time>2026-05-01T16:29:40.999Z</time></trkpt><trkpt lat="42.246092264667666" lon="19.520695966135676"><ele>279.0</ele><time>2026-05-01T16:29:42.999Z</time></trkpt><trkpt lat="42.24600294966494" lon="19.520636015942152"><ele>279.0</ele><time>2026-05-01T16:29:44.999Z</time></trkpt><trkpt lat="42.245938424388264" lon="19.520595575343012"><ele>279.0</ele><time>2026-05-01T16:29:46.999Z</time></trkpt><trkpt lat="42.24587769729358" lon="19.520563740613742"><ele>279.0</ele><time>2026-05-01T16:29:49.999Z</time></trkpt><trkpt lat="42.24581302998054" lon="19.5206485404949"><ele>279.0</ele><time>2026-05-01T16:29:53.999Z</time></trkpt><trkpt lat="42.245768979451384" lon="19.520753875481724"><ele>279.0</ele><time>2026-05-01T16:29:56.999Z</time></trkpt><trkpt lat="42.24572242844519" lon="19.520845505713876"><ele>279.0</ele><time>2026-05-01T16:29:58.999Z</time></trkpt><trkpt lat="42.24568323504148" lon="19.520919413219545"><ele>279.0</ele><time>2026-05-01T16:30:00.999Z</time></trkpt><trkpt lat="42.245630861958524" lon="19.52101552682849"><ele>279.0</ele><time>2026-05-01T16:30:02.999Z</time></trkpt><trkpt lat="42.24556214792116" lon="19.521110974289748"><ele>279.0</ele><time>2026-05-01T16:30:04.999Z</time></trkpt><trkpt lat="42.2455057068038" lon="19.52121772333206"><ele>279.0</ele><time>2026-05-01T16:30:06.999Z</time></trkpt><trkpt lat="42.245456022145746" lon="19.521311693659737"><ele>279.0</ele><time>2026-05-01T16:30:09Z</time></trkpt><trkpt lat="42.245414988338204" lon="19.521411155288867"><ele>278.6666666666667</ele><time>2026-05-01T16:30:11Z</time></trkpt><trkpt lat="42.245362441700756" lon="19.52151471127073"><ele>278.3333333333333</ele><time>2026-05-01T16:30:14Z</time></trkpt><trkpt lat="42.24532180636465" lon="19.52159379837328"><ele>278.0</ele><time>2026-05-01T16:30:18Z</time></trkpt><trkpt lat="42.24528430946847" lon="19.52166766923491"><ele>277.66666666666663</ele><time>2026-05-01T16:30:25Z</time></trkpt><trkpt lat="42.245238336683" lon="19.521760122288637"><ele>277.3333333333333</ele><time>2026-05-01T16:30:37Z</time></trkpt><trkpt lat="42.24518190067255" lon="19.521829068963306"><ele>277.0</ele><time>2026-05-01T16:30:40Z</time></trkpt><trkpt lat="42.2451400202492" lon="19.521908810604494"><ele>277.0</ele><time>2026-05-01T16:30:43Z</time></trkpt><trkpt lat="42.24510156203868" lon="19.521983054373376"><ele>277.0</ele><time>2026-05-01T16:30:57Z</time></trkpt><trkpt lat="42.24506423600755" lon="19.522055112457867"><ele>277.0</ele><time>2026-05-01T16:30:59Z</time></trkpt><trkpt lat="42.24501167880396" lon="19.522156574397783"><ele>277.0</ele><time>2026-05-01T16:31:01Z</time></trkpt><trkpt lat="42.24494140829961" lon="19.522292231946043"><ele>277.0</ele><time>2026-05-01T16:31:03Z</time></trkpt><trkpt lat="42.24488282826388" lon="19.522405320998462"><ele>277.0</ele><time>2026-05-01T16:31:05Z</time></trkpt><trkpt lat="42.24481853625694" lon="19.522551532827563"><ele>276.16666666666663</ele><time>2026-05-01T16:31:07Z</time></trkpt><trkpt lat="42.244781247744925" lon="19.52262538573912"><ele>275.3333333333333</ele><time>2026-05-01T16:31:08Z</time></trkpt><trkpt lat="42.244712968723604" lon="19.52275611685078"><ele>274.5</ele><time>2026-05-01T16:31:10Z</time></trkpt><trkpt lat="42.244665828934714" lon="19.52284759525053"><ele>273.6666666666667</ele><time>2026-05-01T16:31:11Z</time></trkpt><trkpt lat="42.24461257749927" lon="19.52294204637897"><ele>272.83333333333337</ele><time>2026-05-01T16:31:12Z</time></trkpt><trkpt lat="42.244565494748215" lon="19.523030164913045"><ele>272.0</ele><time>2026-05-01T16:31:13Z</time></trkpt><trkpt lat="42.244526442147084" lon="19.523101908457626"><ele>271.83333333333337</ele><time>2026-05-01T16:31:14Z</time></trkpt><trkpt lat="42.24448891042886" lon="19.523171035331096"><ele>271.6666666666667</ele><time>2026-05-01T16:31:15Z</time></trkpt><trkpt lat="42.24444323101638" lon="19.523253508415497"><ele>271.5</ele><time>2026-05-01T16:31:16Z</time></trkpt><trkpt lat="42.24439456416576" lon="19.523347917714833"><ele>271.3333333333333</ele><time>2026-05-01T16:31:17Z</time></trkpt><trkpt lat="42.24434644202046" lon="19.523439828665598"><ele>271.16666666666663</ele><time>2026-05-01T16:31:18Z</time></trkpt><trkpt lat="42.244294048839066" lon="19.52352993666236"><ele>271.0</ele><time>2026-05-01T16:31:19Z</time></trkpt><trkpt lat="42.24425412234592" lon="19.523602153357327"><ele>271.0</ele><time>2026-05-01T16:31:20Z</time></trkpt><trkpt lat="42.244184782792495" lon="19.52372132817114"><ele>271.0</ele><time>2026-05-01T16:31:22Z</time></trkpt><trkpt lat="42.244116981465275" lon="19.523807020707327"><ele>271.0</ele><time>2026-05-01T16:31:24Z</time></trkpt><trkpt lat="42.24405807540312" lon="19.52387402782906"><ele>271.0</ele><time>2026-05-01T16:31:26Z</time></trkpt><trkpt lat="42.24398433468546" lon="19.523941538424328"><ele>271.0</ele><time>2026-05-01T16:31:28Z</time></trkpt><trkpt lat="42.243914045980425" lon="19.52405559402385"><ele>270.40000000000003</ele><time>2026-05-01T16:31:30Z</time></trkpt><trkpt lat="42.24383005663357" lon="19.52418180844717"><ele>269.8</ele><time>2026-05-01T16:31:32Z</time></trkpt><trkpt lat="42.24377447128093" lon="19.52425304935826"><ele>269.20000000000005</ele><time>2026-05-01T16:31:33Z</time></trkpt><trkpt lat="42.24369906332957" lon="19.524302764291264"><ele>268.6</ele><time>2026-05-01T16:31:34Z</time></trkpt><trkpt lat="42.243623636809225" lon="19.524365066745574"><ele>268.0</ele><time>2026-05-01T16:31:35Z</time></trkpt><trkpt lat="42.24354832391197" lon="19.52442727534511"><ele>268.0</ele><time>2026-05-01T16:31:36Z</time></trkpt><trkpt lat="42.243469958634186" lon="19.524491637624124"><ele>268.0</ele><time>2026-05-01T16:31:37Z</time></trkpt><trkpt lat="42.24339380348458" lon="19.524553660765868"><ele>268.0</ele><time>2026-05-01T16:31:38Z</time></trkpt><trkpt lat="42.24334556568542" lon="19.524628430357154"><ele>268.0</ele><time>2026-05-01T16:31:39Z</time></trkpt><trkpt lat="42.24327350870165" lon="19.524723496047997"><ele>268.0</ele><time>2026-05-01T16:31:41Z</time></trkpt><trkpt lat="42.243222105084186" lon="19.524791313395518"><ele>268.0</ele><time>2026-05-01T16:31:44.999Z</time></trkpt><trkpt lat="42.24315778379698" lon="19.524839856980346"><ele>267.4</ele><time>2026-05-01T16:31:47.999Z</time></trkpt><trkpt lat="42.24308158012832" lon="19.52490451251343"><ele>266.8</ele><time>2026-05-01T16:31:49.999Z</time></trkpt><trkpt lat="42.24303662837079" lon="19.524998670119167"><ele>266.2</ele><time>2026-05-01T16:31:51.999Z</time></trkpt><trkpt lat="42.24297857480657" lon="19.525081605575128"><ele>265.6</ele><time>2026-05-01T16:31:53.999Z</time></trkpt><trkpt lat="42.24289976660772" lon="19.525183216276105"><ele>265.0</ele><time>2026-05-01T16:31:55.999Z</time></trkpt><trkpt lat="42.24282438202315" lon="19.525316079180726"><ele>265.3333333333333</ele><time>2026-05-01T16:31:57.999Z</time></trkpt><trkpt lat="42.242753227974674" lon="19.52542144808813"><ele>265.66666666666663</ele><time>2026-05-01T16:31:59.999Z</time></trkpt><trkpt lat="42.242662474265096" lon="19.525491245939197"><ele>266.0</ele><time>2026-05-01T16:32:01.999Z</time></trkpt><trkpt lat="42.24259784740311" lon="19.525534982173177"><ele>266.3333333333333</ele><time>2026-05-01T16:32:02.999Z</time></trkpt><trkpt lat="42.24252574282616" lon="19.525555999064398"><ele>266.6666666666667</ele><time>2026-05-01T16:32:03.999Z</time></trkpt><trkpt lat="42.242444690188385" lon="19.525597306025468"><ele>267.0</ele><time>2026-05-01T16:32:04.999Z</time></trkpt><trkpt lat="42.2423758335826" lon="19.525632397507064"><ele>267.00000000000006</ele><time>2026-05-01T16:32:05.999Z</time></trkpt><trkpt lat="42.24230812614189" lon="19.52568247834183"><ele>267.0</ele><time>2026-05-01T16:32:06.999Z</time></trkpt><trkpt lat="42.242246984960154" lon="19.525733447161645"><ele>267.0</ele><time>2026-05-01T16:32:07.999Z</time></trkpt><trkpt lat="42.242185925266455" lon="19.525784348067663"><ele>267.0</ele><time>2026-05-01T16:32:08.999Z</time></trkpt><trkpt lat="42.24212611696902" lon="19.525834205747355"><ele>267.0</ele><time>2026-05-01T16:32:09.999Z</time></trkpt><trkpt lat="42.24206406574021" lon="19.525885380902437"><ele>267.00000000000006</ele><time>2026-05-01T16:32:10.999Z</time></trkpt><trkpt lat="42.2419977621039" lon="19.52594056126979"><ele>267.0</ele><time>2026-05-01T16:32:11.999Z</time></trkpt><trkpt lat="42.24192005255008" lon="19.526017329467628"><ele>266.6666666666667</ele><time>2026-05-01T16:32:12.999Z</time></trkpt><trkpt lat="42.24184498735517" lon="19.52610959124651"><ele>266.3333333333333</ele><time>2026-05-01T16:32:14Z</time></trkpt><trkpt lat="42.2417732359224" lon="19.526197780151534"><ele>266.0</ele><time>2026-05-01T16:32:15Z</time></trkpt><trkpt lat="42.24171154084451" lon="19.52626642198047"><ele>265.66666666666663</ele><time>2026-05-01T16:32:16Z</time></trkpt><trkpt lat="42.24165180605233" lon="19.526331152877702"><ele>265.3333333333333</ele><time>2026-05-01T16:32:17Z</time></trkpt><trkpt lat="42.24158776691257" lon="19.52640054811465"><ele>265.0</ele><time>2026-05-01T16:32:18Z</time></trkpt><trkpt lat="42.2415157134027" lon="19.52647862798861"><ele>264.16666666666663</ele><time>2026-05-01T16:32:19Z</time></trkpt><trkpt lat="42.24146112001635" lon="19.52652606878606"><ele>263.3333333333333</ele><time>2026-05-01T16:32:20Z</time></trkpt><trkpt lat="42.24139581596853" lon="19.526582821937257"><ele>262.5</ele><time>2026-05-01T16:32:21Z</time></trkpt><trkpt lat="42.24137265756519" lon="19.526711061185352"><ele>261.6666666666667</ele><time>2026-05-01T16:32:22Z</time></trkpt><trkpt lat="42.24132791282525" lon="19.526797077424487"><ele>260.83333333333337</ele><time>2026-05-01T16:32:23Z</time></trkpt><trkpt lat="42.241291936437214" lon="19.526884676594037"><ele>260.0</ele><time>2026-05-01T16:32:24Z</time></trkpt><trkpt lat="42.241244589437166" lon="19.527028689102977"><ele>260.1666666666667</ele><time>2026-05-01T16:32:26Z</time></trkpt><trkpt lat="42.24121794118462" lon="19.527115573829054"><ele>260.33333333333337</ele><time>2026-05-01T16:32:27Z</time></trkpt><trkpt lat="42.24118301513927" lon="19.527199872099366"><ele>260.5</ele><time>2026-05-01T16:32:28Z</time></trkpt><trkpt lat="42.24115458727027" lon="19.527276287669704"><ele>260.6666666666667</ele><time>2026-05-01T16:32:29Z</time></trkpt><trkpt lat="42.24108774132162" lon="19.527382649817557"><ele>260.8333333333333</ele><time>2026-05-01T16:32:31Z</time></trkpt><trkpt lat="42.24100138377326" lon="19.527462935064904"><ele>261.0</ele><time>2026-05-01T16:32:33Z</time></trkpt><trkpt lat="42.240933554904046" lon="19.527492556729957"><ele>261.0</ele><time>2026-05-01T16:32:34Z</time></trkpt><trkpt lat="42.24084865646172" lon="19.527545265783598"><ele>261.0</ele><time>2026-05-01T16:32:35Z</time></trkpt><trkpt lat="42.24077473283876" lon="19.527602333731824"><ele>261.0</ele><time>2026-05-01T16:32:36Z</time></trkpt><trkpt lat="42.24072738486181" lon="19.5276686251101"><ele>261.0</ele><time>2026-05-01T16:32:37Z</time></trkpt><trkpt lat="42.2406342514582" lon="19.527760210038895"><ele>261.0</ele><time>2026-05-01T16:32:39Z</time></trkpt><trkpt lat="42.240584745615415" lon="19.527821970539012"><ele>261.0</ele><time>2026-05-01T16:32:40Z</time></trkpt><trkpt lat="42.240527270934486" lon="19.527888510255153"><ele>261.2</ele><time>2026-05-01T16:32:41Z</time></trkpt><trkpt lat="42.2404656084242" lon="19.52794813239345"><ele>261.40000000000003</ele><time>2026-05-01T16:32:42Z</time></trkpt><trkpt lat="42.2403680391374" lon="19.528028632633816"><ele>261.6</ele><time>2026-05-01T16:32:44Z</time></trkpt><trkpt lat="42.24025574219006" lon="19.528037049913163"><ele>261.8</ele><time>2026-05-01T16:32:46Z</time></trkpt><trkpt lat="42.24020444905596" lon="19.528092254088254"><ele>262.0</ele><time>2026-05-01T16:32:47Z</time></trkpt><trkpt lat="42.24010182466867" lon="19.52815283339692"><ele>262.0</ele><time>2026-05-01T16:32:49Z</time></trkpt><trkpt lat="42.240015034160955" lon="19.528215599441122"><ele>262.0</ele><time>2026-05-01T16:32:51Z</time></trkpt><trkpt lat="42.239933085257924" lon="19.528286898301985"><ele>262.0</ele><time>2026-05-01T16:32:59Z</time></trkpt><trkpt lat="42.23986275635099" lon="19.528324127664305"><ele>262.0</ele><time>2026-05-01T16:33:00Z</time></trkpt><trkpt lat="42.239802457890086" lon="19.52837312447109"><ele>262.0</ele><time>2026-05-01T16:33:01Z</time></trkpt><trkpt lat="42.23973200965781" lon="19.528430368699137"><ele>262.0</ele><time>2026-05-01T16:33:02Z</time></trkpt><trkpt lat="42.239672568282884" lon="19.528478661645945"><ele>261.5</ele><time>2026-05-01T16:33:03Z</time></trkpt><trkpt lat="42.2396074426572" lon="19.528531249386127"><ele>261.0</ele><time>2026-05-01T16:33:04Z</time></trkpt><trkpt lat="42.23954622202922" lon="19.528580684074853"><ele>260.5</ele><time>2026-05-01T16:33:05Z</time></trkpt><trkpt lat="42.239496390388574" lon="19.528646707706994"><ele>260.0</ele><time>2026-05-01T16:33:06Z</time></trkpt><trkpt lat="42.239431177656925" lon="19.528694350211232"><ele>259.5</ele><time>2026-05-01T16:33:07Z</time></trkpt><trkpt lat="42.23936097412015" lon="19.528744757054152"><ele>259.0</ele><time>2026-05-01T16:33:08Z</time></trkpt><trkpt lat="42.23927990781283" lon="19.52877156894224"><ele>258.8333333333333</ele><time>2026-05-01T16:33:09Z</time></trkpt><trkpt lat="42.239196102509396" lon="19.528819989017915"><ele>258.66666666666663</ele><time>2026-05-01T16:33:10Z</time></trkpt><trkpt lat="42.23911231225201" lon="19.52886947229373"><ele>258.5</ele><time>2026-05-01T16:33:11Z</time></trkpt><trkpt lat="42.23903129962695" lon="19.52891731519157"><ele>258.3333333333333</ele><time>2026-05-01T16:33:12Z</time></trkpt><trkpt lat="42.238963355833356" lon="19.5289574401649"><ele>258.1666666666667</ele><time>2026-05-01T16:33:13Z</time></trkpt><trkpt lat="42.23889068648231" lon="19.529000355874796"><ele>258.0</ele><time>2026-05-01T16:33:14Z</time></trkpt><trkpt lat="42.23880841524768" lon="19.529056827937325"><ele>257.8</ele><time>2026-05-01T16:33:15Z</time></trkpt><trkpt lat="42.23872631773614" lon="19.529120560495837"><ele>257.6</ele><time>2026-05-01T16:33:16Z</time></trkpt><trkpt lat="42.23865107428613" lon="19.529199007871494"><ele>257.4</ele><time>2026-05-01T16:33:17Z</time></trkpt><trkpt lat="42.238569373668376" lon="19.52925560941179"><ele>257.2</ele><time>2026-05-01T16:33:18Z</time></trkpt><trkpt lat="42.23848225845382" lon="19.529320592903332"><ele>257.0</ele><time>2026-05-01T16:33:19Z</time></trkpt><trkpt lat="42.238386135949526" lon="19.52939420899248"><ele>257.0</ele><time>2026-05-01T16:33:20Z</time></trkpt><trkpt lat="42.23828642872198" lon="19.52947741652008"><ele>257.0</ele><time>2026-05-01T16:33:21Z</time></trkpt><trkpt lat="42.23818969850819" lon="19.52956129471971"><ele>257.0</ele><time>2026-05-01T16:33:22Z</time></trkpt><trkpt lat="42.238094390407205" lon="19.529649400185384"><ele>257.0</ele><time>2026-05-01T16:33:23Z</time></trkpt><trkpt lat="42.238012222863304" lon="19.529728367635993"><ele>257.0</ele><time>2026-05-01T16:33:24Z</time></trkpt><trkpt lat="42.23794461278992" lon="19.529791034940487"><ele>258.0</ele><time>2026-05-01T16:33:25Z</time></trkpt><trkpt lat="42.23785113335175" lon="19.529869137315703"><ele>259.0</ele><time>2026-05-01T16:33:27Z</time></trkpt><trkpt lat="42.23778318796601" lon="19.52991009485295"><ele>260.0</ele><time>2026-05-01T16:33:29Z</time></trkpt><trkpt lat="42.237742991733114" lon="19.529994568979312"><ele>261.0</ele><time>2026-05-01T16:33:30Z</time></trkpt><trkpt lat="42.23766920143268" lon="19.530085021576703"><ele>262.0</ele><time>2026-05-01T16:33:31Z</time></trkpt><trkpt lat="42.23760153233068" lon="19.53017589268534"><ele>262.0</ele><time>2026-05-01T16:33:32Z</time></trkpt><trkpt lat="42.23755151849897" lon="19.5302460431897"><ele>262.0</ele><time>2026-05-01T16:33:33Z</time></trkpt><trkpt lat="42.23749794259409" lon="19.53032267747714"><ele>262.0</ele><time>2026-05-01T16:33:34Z</time></trkpt><trkpt lat="42.23743739666012" lon="19.530384495794095"><ele>262.0</ele><time>2026-05-01T16:33:35Z</time></trkpt><trkpt lat="42.23737211506021" lon="19.53048407348175"><ele>262.0</ele><time>2026-05-01T16:33:37Z</time></trkpt><trkpt lat="42.23732786273189" lon="19.53055403304385"><ele>262.0</ele><time>2026-05-01T16:33:39Z</time></trkpt><trkpt lat="42.23726768931182" lon="19.530620267500083"><ele>261.8</ele><time>2026-05-01T16:33:41Z</time></trkpt><trkpt lat="42.23720348899193" lon="19.530680888359537"><ele>261.6</ele><time>2026-05-01T16:33:44Z</time></trkpt><trkpt lat="42.23714134449123" lon="19.530743032846612"><ele>261.40000000000003</ele><time>2026-05-01T16:33:46Z</time></trkpt><trkpt lat="42.23705427019617" lon="19.530809904848695"><ele>261.2</ele><time>2026-05-01T16:33:48Z</time></trkpt><trkpt lat="42.23694070846124" lon="19.53087818042332"><ele>261.0</ele><time>2026-05-01T16:33:50Z</time></trkpt><trkpt lat="42.236862947720724" lon="19.53095853975763"><ele>261.0</ele><time>2026-05-01T16:33:51.999Z</time></trkpt><trkpt lat="42.236794182418045" lon="19.531063819361954"><ele>261.0</ele><time>2026-05-01T16:33:53.999Z</time></trkpt><trkpt lat="42.2367359452749" lon="19.53116387951795"><ele>261.0</ele><time>2026-05-01T16:33:55.999Z</time></trkpt><trkpt lat="42.236688949876985" lon="19.531248068014577"><ele>261.0</ele><time>2026-05-01T16:33:57.999Z</time></trkpt><trkpt lat="42.23665532872644" lon="19.531342794753524"><ele>261.0</ele><time>2026-05-01T16:33:59.999Z</time></trkpt><trkpt lat="42.236598418616495" lon="19.531428762886357"><ele>261.0</ele><time>2026-05-01T16:34:01.999Z</time></trkpt><trkpt lat="42.23655275138729" lon="19.531495417274822"><ele>261.1666666666667</ele><time>2026-05-01T16:34:03.999Z</time></trkpt><trkpt lat="42.23650101744411" lon="19.53157278885067"><ele>261.3333333333333</ele><time>2026-05-01T16:34:05.999Z</time></trkpt><trkpt lat="42.23642941527406" lon="19.531645301534216"><ele>261.5</ele><time>2026-05-01T16:34:07.999Z</time></trkpt><trkpt lat="42.23637050152517" lon="19.53174193642105"><ele>261.66666666666663</ele><time>2026-05-01T16:34:09.999Z</time></trkpt><trkpt lat="42.236309870497124" lon="19.53184114309296"><ele>261.8333333333333</ele><time>2026-05-01T16:34:11.999Z</time></trkpt><trkpt lat="42.236245410402226" lon="19.531929855822046"><ele>262.0</ele><time>2026-05-01T16:34:13.999Z</time></trkpt><trkpt lat="42.23619025918397" lon="19.531993842395686"><ele>262.0</ele><time>2026-05-01T16:34:15.999Z</time></trkpt><trkpt lat="42.23612341130677" lon="19.532065434635896"><ele>262.0</ele><time>2026-05-01T16:34:17.999Z</time></trkpt><trkpt lat="42.23604059896735" lon="19.532140257159234"><ele>262.0</ele><time>2026-05-01T16:34:20Z</time></trkpt><trkpt lat="42.23595208837847" lon="19.532219583022354"><ele>262.0</ele><time>2026-05-01T16:34:22Z</time></trkpt><trkpt lat="42.235864810237786" lon="19.532296793890602"><ele>262.0</ele><time>2026-05-01T16:34:24Z</time></trkpt><trkpt lat="42.235777626736706" lon="19.532373920823908"><ele>262.0</ele><time>2026-05-01T16:34:26Z</time></trkpt><trkpt lat="42.23572897416373" lon="19.532433583085016"><ele>262.0</ele><time>2026-05-01T16:34:27Z</time></trkpt><trkpt lat="42.23565853348548" lon="19.532546855679037"><ele>262.0</ele><time>2026-05-01T16:34:29Z</time></trkpt><trkpt lat="42.235575059163516" lon="19.53264013636853"><ele>262.0</ele><time>2026-05-01T16:34:31Z</time></trkpt><trkpt lat="42.23549004880813" lon="19.53272311940104"><ele>262.0</ele><time>2026-05-01T16:34:33Z</time></trkpt><trkpt lat="42.235451057559644" lon="19.532801194651437"><ele>262.6</ele><time>2026-05-01T16:34:35Z</time></trkpt><trkpt lat="42.23538511800872" lon="19.532878904757784"><ele>263.2</ele><time>2026-05-01T16:34:38Z</time></trkpt><trkpt lat="42.235303681053615" lon="19.53295906602462"><ele>263.8</ele><time>2026-05-01T16:34:41Z</time></trkpt><trkpt lat="42.235219204805524" lon="19.533069090177737"><ele>264.4</ele><time>2026-05-01T16:34:43Z</time></trkpt><trkpt lat="42.235164383156025" lon="19.5331418870578"><ele>265.0</ele><time>2026-05-01T16:34:44Z</time></trkpt><trkpt lat="42.235104130508965" lon="19.533210127200775"><ele>264.8</ele><time>2026-05-01T16:34:45Z</time></trkpt><trkpt lat="42.23501468206273" lon="19.533338103812635"><ele>264.6</ele><time>2026-05-01T16:34:47Z</time></trkpt><trkpt lat="42.23492946417091" lon="19.533386740537825"><ele>264.4</ele><time>2026-05-01T16:34:49Z</time></trkpt><trkpt lat="42.234843472272" lon="19.533445323177308"><ele>264.2</ele><time>2026-05-01T16:34:52Z</time></trkpt><trkpt lat="42.23478132645844" lon="19.533568771941436"><ele>264.0</ele><time>2026-05-01T16:34:55Z</time></trkpt><trkpt lat="42.23473179359391" lon="19.53370092119273"><ele>264.59999999999997</ele><time>2026-05-01T16:34:57Z</time></trkpt><trkpt lat="42.23466688793707" lon="19.533854422800086"><ele>265.2</ele><time>2026-05-01T16:34:59Z</time></trkpt><trkpt lat="42.23463245153812" lon="19.53393544294701"><ele>265.79999999999995</ele><time>2026-05-01T16:35:00Z</time></trkpt><trkpt lat="42.23453633075594" lon="19.53403201270401"><ele>266.4</ele><time>2026-05-01T16:35:02Z</time></trkpt><trkpt lat="42.2344603898714" lon="19.534053818001595"><ele>267.0</ele><time>2026-05-01T16:35:03Z</time></trkpt><trkpt lat="42.23437627713544" lon="19.534089908777087"><ele>267.0</ele><time>2026-05-01T16:35:04Z</time></trkpt><trkpt lat="42.234265402699876" lon="19.53413482137332"><ele>267.0</ele><time>2026-05-01T16:35:05Z</time></trkpt><trkpt lat="42.2341455081887" lon="19.534181018330678"><ele>267.0</ele><time>2026-05-01T16:35:06Z</time></trkpt><trkpt lat="42.23403543890253" lon="19.534222282818945"><ele>267.0</ele><time>2026-05-01T16:35:07Z</time></trkpt><trkpt lat="42.23391394039501" lon="19.53424255371825"><ele>268.0</ele><time>2026-05-01T16:35:08Z</time></trkpt><trkpt lat="42.23379332919377" lon="19.534306104336668"><ele>269.0</ele><time>2026-05-01T16:35:09Z</time></trkpt><trkpt lat="42.23367697097072" lon="19.534335916597588"><ele>270.0</ele><time>2026-05-01T16:35:10Z</time></trkpt><trkpt lat="42.23356603043675" lon="19.534365918848366"><ele>271.0</ele><time>2026-05-01T16:35:11Z</time></trkpt><trkpt lat="42.23346109613716" lon="19.534419583964038"><ele>271.0</ele><time>2026-05-01T16:35:12Z</time></trkpt><trkpt lat="42.233350087435745" lon="19.534455516164353"><ele>271.0</ele><time>2026-05-01T16:35:13Z</time></trkpt><trkpt lat="42.23323450043596" lon="19.5345100905205"><ele>271.0</ele><time>2026-05-01T16:35:14Z</time></trkpt><trkpt lat="42.23311958256421" lon="19.53458033379506"><ele>271.0</ele><time>2026-05-01T16:35:15Z</time></trkpt><trkpt lat="42.233006407261" lon="19.534662095597756"><ele>272.25</ele><time>2026-05-01T16:35:16Z</time></trkpt><trkpt lat="42.23289438364943" lon="19.53474425015227"><ele>273.5</ele><time>2026-05-01T16:35:17Z</time></trkpt><trkpt lat="42.23278918110004" lon="19.534848477420045"><ele>274.75</ele><time>2026-05-01T16:35:18Z</time></trkpt><trkpt lat="42.23271305721749" lon="19.534961144995254"><ele>276.0</ele><time>2026-05-01T16:35:19Z</time></trkpt><trkpt lat="42.2326215398027" lon="19.53503606647043"><ele>276.0</ele><time>2026-05-01T16:35:20Z</time></trkpt><trkpt lat="42.232522572418034" lon="19.535081736112943"><ele>276.0</ele><time>2026-05-01T16:35:21Z</time></trkpt><trkpt lat="42.23243661744273" lon="19.535059387653178"><ele>276.0</ele><time>2026-05-01T16:35:22Z</time></trkpt><trkpt lat="42.23236136247629" lon="19.53506823693013"><ele>276.0</ele><time>2026-05-01T16:35:23Z</time></trkpt><trkpt lat="42.23229169488772" lon="19.53508168901235"><ele>276.0</ele><time>2026-05-01T16:35:24Z</time></trkpt><trkpt lat="42.23222880344831" lon="19.535094881054047"><ele>276.0</ele><time>2026-05-01T16:35:25Z</time></trkpt><trkpt lat="42.232161050708115" lon="19.535100352113297"><ele>277.0</ele><time>2026-05-01T16:35:26Z</time></trkpt><trkpt lat="42.232083918441745" lon="19.535109210313724"><ele>278.0</ele><time>2026-05-01T16:35:27Z</time></trkpt><trkpt lat="42.23200436568503" lon="19.53514771932399"><ele>279.0</ele><time>2026-05-01T16:35:28Z</time></trkpt><trkpt lat="42.23190286048005" lon="19.535159124312823"><ele>280.0</ele><time>2026-05-01T16:35:29Z</time></trkpt><trkpt lat="42.231791958490156" lon="19.535164428270452"><ele>281.0</ele><time>2026-05-01T16:35:30Z</time></trkpt><trkpt lat="42.231674765535175" lon="19.535186078058224"><ele>281.0</ele><time>2026-05-01T16:35:31Z</time></trkpt><trkpt lat="42.23155688653262" lon="19.535210370281447"><ele>281.0</ele><time>2026-05-01T16:35:32Z</time></trkpt><trkpt lat="42.231436692924945" lon="19.535233881727283"><ele>281.0</ele><time>2026-05-01T16:35:33Z</time></trkpt><trkpt lat="42.23133919187506" lon="19.535260125116398"><ele>281.0</ele><time>2026-05-01T16:35:34Z</time></trkpt><trkpt lat="42.231249149352706" lon="19.535313696670855"><ele>281.0</ele><time>2026-05-01T16:35:35Z</time></trkpt><trkpt lat="42.23115209445952" lon="19.535377528054514"><ele>282.40000000000003</ele><time>2026-05-01T16:35:36Z</time></trkpt><trkpt lat="42.231056164248585" lon="19.535448474209762"><ele>283.8</ele><time>2026-05-01T16:35:37Z</time></trkpt><trkpt lat="42.23095845517076" lon="19.535524286699722"><ele>285.20000000000005</ele><time>2026-05-01T16:35:38Z</time></trkpt><trkpt lat="42.23085973880604" lon="19.53560041065602"><ele>286.6</ele><time>2026-05-01T16:35:39Z</time></trkpt><trkpt lat="42.2307651177435" lon="19.535681979680035"><ele>288.0</ele><time>2026-05-01T16:35:40Z</time></trkpt><trkpt lat="42.23066001792468" lon="19.535732886379243"><ele>286.25</ele><time>2026-05-01T16:35:41Z</time></trkpt><trkpt lat="42.23055980547929" lon="19.535778268276548"><ele>284.5</ele><time>2026-05-01T16:35:42Z</time></trkpt><trkpt lat="42.23044364115652" lon="19.535823028225156"><ele>282.75</ele><time>2026-05-01T16:35:43Z</time></trkpt><trkpt lat="42.23032296647437" lon="19.535868277553742"><ele>281.0</ele><time>2026-05-01T16:35:44Z</time></trkpt><trkpt lat="42.23022974551297" lon="19.535938013440685"><ele>281.0</ele><time>2026-05-01T16:35:45Z</time></trkpt><trkpt lat="42.23016095773722" lon="19.536034952772457"><ele>281.0</ele><time>2026-05-01T16:35:46Z</time></trkpt><trkpt lat="42.23009591443981" lon="19.5361213739317"><ele>281.0</ele><time>2026-05-01T16:35:47Z</time></trkpt><trkpt lat="42.23001443383384" lon="19.536211703717388"><ele>281.0</ele><time>2026-05-01T16:35:48Z</time></trkpt><trkpt lat="42.2299305508136" lon="19.53629551314545"><ele>281.0</ele><time>2026-05-01T16:35:49Z</time></trkpt><trkpt lat="42.229837266981676" lon="19.536379356087537"><ele>283.0</ele><time>2026-05-01T16:35:50Z</time></trkpt><trkpt lat="42.22972442310083" lon="19.53643385601993"><ele>285.0</ele><time>2026-05-01T16:35:51Z</time></trkpt><trkpt lat="42.22961795407288" lon="19.536521366443147"><ele>287.0</ele><time>2026-05-01T16:35:52Z</time></trkpt><trkpt lat="42.22950944988733" lon="19.53660636208109"><ele>289.0</ele><time>2026-05-01T16:35:53Z</time></trkpt><trkpt lat="42.22941697512542" lon="19.536716295493882"><ele>289.0</ele><time>2026-05-01T16:35:54Z</time></trkpt><trkpt lat="42.22932929091617" lon="19.536837705107974"><ele>289.0</ele><time>2026-05-01T16:35:55Z</time></trkpt><trkpt lat="42.22924390307662" lon="19.536956786325998"><ele>289.0</ele><time>2026-05-01T16:35:56Z</time></trkpt><trkpt lat="42.229161239603314" lon="19.537079396522042"><ele>289.0</ele><time>2026-05-01T16:35:57Z</time></trkpt><trkpt lat="42.22908236177034" lon="19.537192292459956"><ele>289.8</ele><time>2026-05-01T16:35:58Z</time></trkpt><trkpt lat="42.22899134844312" lon="19.537244906834868"><ele>290.59999999999997</ele><time>2026-05-01T16:35:59Z</time></trkpt><trkpt lat="42.22891195762107" lon="19.53733505080201"><ele>291.4</ele><time>2026-05-01T16:36:00Z</time></trkpt><trkpt lat="42.22882174051797" lon="19.537411336259666"><ele>292.2</ele><time>2026-05-01T16:36:01Z</time></trkpt><trkpt lat="42.22875265593375" lon="19.537500709863846"><ele>293.0</ele><time>2026-05-01T16:36:02Z</time></trkpt><trkpt lat="42.228691420844605" lon="19.537615251956947"><ele>293.0</ele><time>2026-05-01T16:36:03Z</time></trkpt><trkpt lat="42.22862895853503" lon="19.53774856163154"><ele>293.0</ele><time>2026-05-01T16:36:04Z</time></trkpt><trkpt lat="42.22855614388698" lon="19.537877452869626"><ele>293.0</ele><time>2026-05-01T16:36:05Z</time></trkpt><trkpt lat="42.228461186075606" lon="19.53796865128239"><ele>293.0</ele><time>2026-05-01T16:36:06Z</time></trkpt><trkpt lat="42.2284042837247" lon="19.53805720879818"><ele>293.0</ele><time>2026-05-01T16:36:07Z</time></trkpt><trkpt lat="42.22837201044102" lon="19.53816719683885"><ele>294.8</ele><time>2026-05-01T16:36:08Z</time></trkpt><trkpt lat="42.22833555084004" lon="19.538281757563272"><ele>296.6</ele><time>2026-05-01T16:36:09Z</time></trkpt><trkpt lat="42.228305114210016" lon="19.53840467985785"><ele>298.4</ele><time>2026-05-01T16:36:10Z</time></trkpt><trkpt lat="42.22826638023936" lon="19.538523956056682"><ele>300.2</ele><time>2026-05-01T16:36:11Z</time></trkpt><trkpt lat="42.22824852024396" lon="19.53867729177473"><ele>302.0</ele><time>2026-05-01T16:36:12Z</time></trkpt><trkpt lat="42.22822954474273" lon="19.53884368830577"><ele>303.0</ele><time>2026-05-01T16:36:13Z</time></trkpt><trkpt lat="42.22821486670251" lon="19.53901242407948"><ele>304.0</ele><time>2026-05-01T16:36:14Z</time></trkpt><trkpt lat="42.228200739210656" lon="19.539163757774947"><ele>305.0</ele><time>2026-05-01T16:36:15Z</time></trkpt><trkpt lat="42.22818888260076" lon="19.539297735098952"><ele>306.0</ele><time>2026-05-01T16:36:16Z</time></trkpt><trkpt lat="42.22816505647961" lon="19.539427512173184"><ele>307.0</ele><time>2026-05-01T16:36:17Z</time></trkpt><trkpt lat="42.22813976270839" lon="19.539550053376395"><ele>308.4</ele><time>2026-05-01T16:36:18Z</time></trkpt><trkpt lat="42.22813233602391" lon="19.539670312714073"><ele>309.79999999999995</ele><time>2026-05-01T16:36:19Z</time></trkpt><trkpt lat="42.228085623357636" lon="19.53978477280264"><ele>311.2</ele><time>2026-05-01T16:36:20Z</time></trkpt><trkpt lat="42.22805824693461" lon="19.539930523810572"><ele>312.59999999999997</ele><time>2026-05-01T16:36:21Z</time></trkpt><trkpt lat="42.22803557644489" lon="19.540057765407234"><ele>314.0</ele><time>2026-05-01T16:36:21.999Z</time></trkpt><trkpt lat="42.22801833462127" lon="19.54015851438718"><ele>314.0</ele><time>2026-05-01T16:36:23.999Z</time></trkpt><trkpt lat="42.22796290987078" lon="19.540224522800596"><ele>314.0</ele><time>2026-05-01T16:36:26Z</time></trkpt><trkpt lat="42.22791672442124" lon="19.54028505757204"><ele>314.0</ele><time>2026-05-01T16:36:27Z</time></trkpt><trkpt lat="42.22786243564106" lon="19.540355086972408"><ele>314.0</ele><time>2026-05-01T16:36:28Z</time></trkpt><trkpt lat="42.227784918993244" lon="19.54041605107704"><ele>314.0</ele><time>2026-05-01T16:36:29Z</time></trkpt><trkpt lat="42.22770938273317" lon="19.540515113464892"><ele>314.0</ele><time>2026-05-01T16:36:30Z</time></trkpt><trkpt lat="42.22760636334985" lon="19.540601324597095"><ele>315.0</ele><time>2026-05-01T16:36:31Z</time></trkpt><trkpt lat="42.227501249213624" lon="19.54067076726928"><ele>316.0</ele><time>2026-05-01T16:36:32Z</time></trkpt><trkpt lat="42.227400461028864" lon="19.540693960475746"><ele>317.0</ele><time>2026-05-01T16:36:33Z</time></trkpt><trkpt lat="42.22734097118488" lon="19.540743950151185"><ele>318.0</ele><time>2026-05-01T16:36:34Z</time></trkpt><trkpt lat="42.227239314679544" lon="19.540800624873828"><ele>319.0</ele><time>2026-05-01T16:36:36Z</time></trkpt><trkpt lat="42.22714786340154" lon="19.54086534916393"><ele>319.0</ele><time>2026-05-01T16:36:38Z</time></trkpt><trkpt lat="42.227060273244085" lon="19.540963399177816"><ele>319.0</ele><time>2026-05-01T16:36:40Z</time></trkpt><trkpt lat="42.22697509077733" lon="19.541079591168835"><ele>319.0</ele><time>2026-05-01T16:36:42Z</time></trkpt><trkpt lat="42.22691285727175" lon="19.541130802863737"><ele>319.0</ele><time>2026-05-01T16:36:43Z</time></trkpt><trkpt lat="42.22682052868379" lon="19.541182551072353"><ele>319.0</ele><time>2026-05-01T16:36:45Z</time></trkpt><trkpt lat="42.226768883039725" lon="19.541237668210595"><ele>316.3333333333333</ele><time>2026-05-01T16:36:48Z</time></trkpt><trkpt lat="42.22671298107108" lon="19.541288964392717"><ele>313.66666666666663</ele><time>2026-05-01T16:36:51Z</time></trkpt><trkpt lat="42.226659424713866" lon="19.54134700360596"><ele>311.0</ele><time>2026-05-01T16:36:53Z</time></trkpt><trkpt lat="42.22657785516931" lon="19.541399408170303"><ele>308.3333333333333</ele><time>2026-05-01T16:36:55Z</time></trkpt><trkpt lat="42.22649480726066" lon="19.541411859880352"><ele>305.6666666666667</ele><time>2026-05-01T16:36:57Z</time></trkpt><trkpt lat="42.226394666605415" lon="19.54141182112597"><ele>303.0</ele><time>2026-05-01T16:36:59Z</time></trkpt><trkpt lat="42.226324472114655" lon="19.54141322137759"><ele>303.0</ele><time>2026-05-01T16:37:00Z</time></trkpt><trkpt lat="42.22624699446744" lon="19.541412220300757"><ele>303.0</ele><time>2026-05-01T16:37:01Z</time></trkpt><trkpt lat="42.22616170322873" lon="19.54141211817637"><ele>303.0</ele><time>2026-05-01T16:37:02Z</time></trkpt><trkpt lat="42.226062586481284" lon="19.541420860396986"><ele>303.0</ele><time>2026-05-01T16:37:03Z</time></trkpt><trkpt lat="42.22595246024798" lon="19.541423886885866"><ele>303.0</ele><time>2026-05-01T16:37:04Z</time></trkpt><trkpt lat="42.22583832486044" lon="19.541424961362697"><ele>303.0</ele><time>2026-05-01T16:37:05Z</time></trkpt><trkpt lat="42.22570324426424" lon="19.541428276864394"><ele>303.0</ele><time>2026-05-01T16:37:06Z</time></trkpt><trkpt lat="42.22552008513757" lon="19.54144179237865"><ele>303.0</ele><time>2026-05-01T16:37:07Z</time></trkpt><trkpt lat="42.225358442800584" lon="19.541453681933458"><ele>303.4</ele><time>2026-05-01T16:37:08Z</time></trkpt><trkpt lat="42.22524182114974" lon="19.54147233594839"><ele>303.8</ele><time>2026-05-01T16:37:09Z</time></trkpt><trkpt lat="42.22513705785652" lon="19.541471256290734"><ele>304.2</ele><time>2026-05-01T16:37:10Z</time></trkpt><trkpt lat="42.22503198227144" lon="19.541486404156412"><ele>304.6</ele><time>2026-05-01T16:37:11Z</time></trkpt><trkpt lat="42.22491779939276" lon="19.54153081771727"><ele>305.0</ele><time>2026-05-01T16:37:12Z</time></trkpt><trkpt lat="42.22481297702358" lon="19.541579211255456"><ele>304.6666666666667</ele><time>2026-05-01T16:37:13Z</time></trkpt><trkpt lat="42.22473574637303" lon="19.541600914715662"><ele>304.33333333333337</ele><time>2026-05-01T16:37:14Z</time></trkpt><trkpt lat="42.22465811068162" lon="19.541604600136775"><ele>304.0</ele><time>2026-05-01T16:37:15Z</time></trkpt><trkpt lat="42.22457409167267" lon="19.541600926877503"><ele>303.6666666666667</ele><time>2026-05-01T16:37:16Z</time></trkpt><trkpt lat="42.22449619903071" lon="19.541578102624676"><ele>303.3333333333333</ele><time>2026-05-01T16:37:17Z</time></trkpt><trkpt lat="42.22438107391412" lon="19.5415554689816"><ele>303.0</ele><time>2026-05-01T16:37:19Z</time></trkpt><trkpt lat="42.22426652787956" lon="19.5415447979598"><ele>303.0</ele><time>2026-05-01T16:37:21Z</time></trkpt><trkpt lat="42.224198872242276" lon="19.541542780305832"><ele>303.0</ele><time>2026-05-01T16:37:22Z</time></trkpt><trkpt lat="42.22413216305714" lon="19.541537414490392"><ele>303.0</ele><time>2026-05-01T16:37:23Z</time></trkpt><trkpt lat="42.224066336360046" lon="19.54152507645841"><ele>303.0</ele><time>2026-05-01T16:37:24Z</time></trkpt><trkpt lat="42.223943406776485" lon="19.541488582233452"><ele>303.0</ele><time>2026-05-01T16:37:26Z</time></trkpt><trkpt lat="42.22381991967549" lon="19.54147112046406"><ele>302.6666666666667</ele><time>2026-05-01T16:37:28Z</time></trkpt><trkpt lat="42.22370159423215" lon="19.541474670096527"><ele>302.3333333333333</ele><time>2026-05-01T16:37:30Z</time></trkpt><trkpt lat="42.22361576680259" lon="19.54149509045286"><ele>302.0</ele><time>2026-05-01T16:37:32Z</time></trkpt><trkpt lat="42.22355012278112" lon="19.54152866863193"><ele>301.66666666666663</ele><time>2026-05-01T16:37:35Z</time></trkpt><trkpt lat="42.22346967699677" lon="19.541482598232406"><ele>301.3333333333333</ele><time>2026-05-01T16:37:47Z</time></trkpt><trkpt lat="42.22345166703882" lon="19.54156941823775"><ele>301.0</ele><time>2026-05-01T16:37:51Z</time></trkpt><trkpt lat="42.223580909090515" lon="19.541490664994413"><ele>301.0</ele><time>2026-05-01T16:37:55Z</time></trkpt><trkpt lat="42.22371000405142" lon="19.541474777052567"><ele>301.0</ele><time>2026-05-01T16:37:56Z</time></trkpt><trkpt lat="42.22383271861193" lon="19.541464518186753"><ele>301.0</ele><time>2026-05-01T16:37:57Z</time></trkpt><trkpt lat="42.22399886545664" lon="19.541501219320615"><ele>301.0</ele><time>2026-05-01T16:37:58Z</time></trkpt><trkpt lat="42.22416895319881" lon="19.541534917555097"><ele>301.5</ele><time>2026-05-01T16:37:59Z</time></trkpt><trkpt lat="42.224301591042" lon="19.54159038323422"><ele>302.0</ele><time>2026-05-01T16:38:00Z</time></trkpt><trkpt lat="42.22442692503403" lon="19.541600526480924"><ele>302.5</ele><time>2026-05-01T16:38:01Z</time></trkpt><trkpt lat="42.22454124038079" lon="19.54163515879962"><ele>303.0</ele><time>2026-05-01T16:38:02Z</time></trkpt><trkpt lat="42.22464621715266" lon="19.541636254757528"><ele>303.0</ele><time>2026-05-01T16:38:03Z</time></trkpt><trkpt lat="42.224748379713816" lon="19.5416287333432"><ele>303.0</ele><time>2026-05-01T16:38:04Z</time></trkpt><trkpt lat="42.22484973130967" lon="19.541607005058392"><ele>303.0</ele><time>2026-05-01T16:38:05Z</time></trkpt><trkpt lat="42.22494567891307" lon="19.54157777546203"><ele>303.0</ele><time>2026-05-01T16:38:06Z</time></trkpt><trkpt lat="42.22505359900193" lon="19.541530549750764"><ele>303.0</ele><time>2026-05-01T16:38:07Z</time></trkpt><trkpt lat="42.225169118278885" lon="19.54151472121714"><ele>303.0</ele><time>2026-05-01T16:38:08Z</time></trkpt><trkpt lat="42.225308494174385" lon="19.54151302214618"><ele>303.0</ele><time>2026-05-01T16:38:09Z</time></trkpt><trkpt lat="42.2254588498536" lon="19.541500435679414"><ele>303.0</ele><time>2026-05-01T16:38:10Z</time></trkpt><trkpt lat="42.22558691222823" lon="19.541488994545965"><ele>303.0</ele><time>2026-05-01T16:38:11Z</time></trkpt><trkpt lat="42.22571234358179" lon="19.541477696597976"><ele>303.0</ele><time>2026-05-01T16:38:12Z</time></trkpt><trkpt lat="42.22582876602677" lon="19.54147440700039"><ele>303.0</ele><time>2026-05-01T16:38:13Z</time></trkpt><trkpt lat="42.22595405319341" lon="19.541474406999725"><ele>303.0</ele><time>2026-05-01T16:38:14Z</time></trkpt><trkpt lat="42.22606946520092" lon="19.541474407001164"><ele>303.0</ele><time>2026-05-01T16:38:15Z</time></trkpt><trkpt lat="42.22616988011595" lon="19.541482684989436"><ele>303.0</ele><time>2026-05-01T16:38:16Z</time></trkpt><trkpt lat="42.226263048682675" lon="19.541493387842284"><ele>303.0</ele><time>2026-05-01T16:38:17Z</time></trkpt><trkpt lat="42.2263526513024" lon="19.54150387749911"><ele>303.0</ele><time>2026-05-01T16:38:18Z</time></trkpt><trkpt lat="42.22645281700899" lon="19.54148086885388"><ele>303.0</ele><time>2026-05-01T16:38:19Z</time></trkpt><trkpt lat="42.22653548379481" lon="19.5414686596755"><ele>303.0</ele><time>2026-05-01T16:38:19.999Z</time></trkpt><trkpt lat="42.226612294452416" lon="19.5414555305634"><ele>303.0</ele><time>2026-05-01T16:38:20.999Z</time></trkpt><trkpt lat="42.22668734506686" lon="19.541336935082622"><ele>303.0</ele><time>2026-05-01T16:38:21.999Z</time></trkpt><trkpt lat="42.22678136550233" lon="19.541279505857705"><ele>303.0</ele><time>2026-05-01T16:38:22.999Z</time></trkpt><trkpt lat="42.22687260386045" lon="19.541199067407486"><ele>303.0</ele><time>2026-05-01T16:38:23.999Z</time></trkpt><trkpt lat="42.22696973715144" lon="19.541115252637777"><ele>303.0</ele><time>2026-05-01T16:38:24.999Z</time></trkpt><trkpt lat="42.22706949902988" lon="19.541012092960788"><ele>302.6</ele><time>2026-05-01T16:38:25.999Z</time></trkpt><trkpt lat="42.22715131770377" lon="19.54089960674774"><ele>302.20000000000005</ele><time>2026-05-01T16:38:26.999Z</time></trkpt><trkpt lat="42.22724786118057" lon="19.54083230201259"><ele>301.8</ele><time>2026-05-01T16:38:27.999Z</time></trkpt><trkpt lat="42.227335354719344" lon="19.540766795934253"><ele>301.40000000000003</ele><time>2026-05-01T16:38:28.999Z</time></trkpt><trkpt lat="42.22742095010206" lon="19.540731510249262"><ele>301.0</ele><time>2026-05-01T16:38:29.999Z</time></trkpt><trkpt lat="42.22751243545026" lon="19.54068932170435"><ele>301.0</ele><time>2026-05-01T16:38:31Z</time></trkpt><trkpt lat="42.227598757694906" lon="19.540613074267362"><ele>301.0</ele><time>2026-05-01T16:38:32Z</time></trkpt><trkpt lat="42.22768912463695" lon="19.54053800648037"><ele>301.0</ele><time>2026-05-01T16:38:33Z</time></trkpt><trkpt lat="42.22776990059586" lon="19.540466307329066"><ele>301.0</ele><time>2026-05-01T16:38:34Z</time></trkpt><trkpt lat="42.227836338908915" lon="19.54039080132759"><ele>301.0</ele><time>2026-05-01T16:38:35Z</time></trkpt><trkpt lat="42.22790124377418" lon="19.540348226697013"><ele>303.6</ele><time>2026-05-01T16:38:36Z</time></trkpt><trkpt lat="42.22799627635483" lon="19.540236595509395"><ele>306.20000000000005</ele><time>2026-05-01T16:38:38Z</time></trkpt><trkpt lat="42.22806747898889" lon="19.540139332793785"><ele>308.79999999999995</ele><time>2026-05-01T16:38:40Z</time></trkpt><trkpt lat="42.22808672375993" lon="19.540018988357918"><ele>311.4</ele><time>2026-05-01T16:38:42Z</time></trkpt><trkpt lat="42.228110182847644" lon="19.539883912845056"><ele>314.0</ele><time>2026-05-01T16:38:44Z</time></trkpt><trkpt lat="42.228112456588505" lon="19.539786956327145"><ele>314.0</ele><time>2026-05-01T16:38:46Z</time></trkpt><trkpt lat="42.228135657440035" lon="19.539706338511138"><ele>314.0</ele><time>2026-05-01T16:38:48Z</time></trkpt><trkpt lat="42.22816650618277" lon="19.53961937729514"><ele>314.0</ele><time>2026-05-01T16:39:02Z</time></trkpt><trkpt lat="42.228230449622764" lon="19.539600685116074"><ele>314.0</ele><time>2026-05-01T16:39:05Z</time></trkpt><trkpt lat="42.228165012653484" lon="19.53973451788935"><ele>314.0</ele><time>2026-05-01T16:39:08Z</time></trkpt><trkpt lat="42.22824530471343" lon="19.539704735879177"><ele>314.0</ele><time>2026-05-01T16:46:52.999Z</time></trkpt><trkpt lat="42.228240236307165" lon="19.539803088420836"><ele>314.0</ele><time>2026-05-01T16:51:07Z</time></trkpt><trkpt lat="42.22827874514102" lon="19.539721311044623"><ele>314.0</ele><time>2026-05-01T16:51:15Z</time></trkpt><trkpt lat="42.22822608207711" lon="19.539639055315032"><ele>314.0</ele><time>2026-05-01T16:51:29Z</time></trkpt><trkpt lat="42.22815024421765" lon="19.539623271804746"><ele>314.0</ele><time>2026-05-01T16:51:32Z</time></trkpt><trkpt lat="42.22811093053603" lon="19.53971322311423"><ele>314.0</ele><time>2026-05-01T16:51:34Z</time></trkpt><trkpt lat="42.228077075830036" lon="19.539821678622015"><ele>314.0</ele><time>2026-05-01T16:51:37Z</time></trkpt><trkpt lat="42.228058869489324" lon="19.539924920841113"><ele>314.0</ele><time>2026-05-01T16:51:39Z</time></trkpt><trkpt lat="42.22803473708544" lon="19.540061638190696"><ele>314.0</ele><time>2026-05-01T16:51:41Z</time></trkpt><trkpt lat="42.22799200267556" lon="19.54019309155081"><ele>314.0</ele><time>2026-05-01T16:51:43Z</time></trkpt><trkpt lat="42.22794548946546" lon="19.54025784942571"><ele>314.0</ele><time>2026-05-01T16:51:44Z</time></trkpt><trkpt lat="42.22788489847677" lon="19.54032403654"><ele>314.0</ele><time>2026-05-01T16:51:45Z</time></trkpt><trkpt lat="42.22781939433644" lon="19.540394662230515"><ele>314.0</ele><time>2026-05-01T16:51:46Z</time></trkpt><trkpt lat="42.22776317604959" lon="19.540460476688935"><ele>311.4</ele><time>2026-05-01T16:51:47Z</time></trkpt><trkpt lat="42.22769643183006" lon="19.5405111083608"><ele>308.79999999999995</ele><time>2026-05-01T16:51:48Z</time></trkpt><trkpt lat="42.22763678400138" lon="19.54057465646308"><ele>306.20000000000005</ele><time>2026-05-01T16:51:49Z</time></trkpt><trkpt lat="42.2275693467524" lon="19.54062881457092"><ele>303.6</ele><time>2026-05-01T16:51:50Z</time></trkpt><trkpt lat="42.22746067018682" lon="19.540665987309502"><ele>301.0</ele><time>2026-05-01T16:51:52Z</time></trkpt><trkpt lat="42.227333091757224" lon="19.54074705301982"><ele>304.0</ele><time>2026-05-01T16:51:54Z</time></trkpt><trkpt lat="42.22725601089238" lon="19.540791120181424"><ele>307.0</ele><time>2026-05-01T16:51:55Z</time></trkpt><trkpt lat="42.227182531392316" lon="19.54084055360714"><ele>310.0</ele><time>2026-05-01T16:51:56Z</time></trkpt><trkpt lat="42.227129459977114" lon="19.54089300880999"><ele>313.0</ele><time>2026-05-01T16:51:57Z</time></trkpt><trkpt lat="42.227075156053424" lon="19.54095638275818"><ele>316.0</ele><time>2026-05-01T16:51:58Z</time></trkpt><trkpt lat="42.22701596646315" lon="19.54102858370131"><ele>319.0</ele><time>2026-05-01T16:51:59Z</time></trkpt><trkpt lat="42.22694544436799" lon="19.54109012106386"><ele>319.0</ele><time>2026-05-01T16:52:00Z</time></trkpt><trkpt lat="42.22686089577237" lon="19.541151568796554"><ele>319.0</ele><time>2026-05-01T16:52:01Z</time></trkpt><trkpt lat="42.22679272709922" lon="19.54120338950236"><ele>319.0</ele><time>2026-05-01T16:52:02Z</time></trkpt><trkpt lat="42.22673171520117" lon="19.541257650099123"><ele>319.0</ele><time>2026-05-01T16:52:03Z</time></trkpt><trkpt lat="42.22666723638692" lon="19.54131888451575"><ele>319.0</ele><time>2026-05-01T16:52:04Z</time></trkpt><trkpt lat="42.2266101193465" lon="19.54136856673377"><ele>319.0</ele><time>2026-05-01T16:52:05Z</time></trkpt><trkpt lat="42.226548995516445" lon="19.54140851443079"><ele>316.3333333333333</ele><time>2026-05-01T16:52:06Z</time></trkpt><trkpt lat="42.22646953063878" lon="19.54142934108624"><ele>313.66666666666663</ele><time>2026-05-01T16:52:07Z</time></trkpt><trkpt lat="42.22638318514409" lon="19.54142009795741"><ele>311.0</ele><time>2026-05-01T16:52:08Z</time></trkpt><trkpt lat="42.22628515090694" lon="19.541415678339977"><ele>308.3333333333333</ele><time>2026-05-01T16:52:09Z</time></trkpt><trkpt lat="42.22618775722716" lon="19.541414801628942"><ele>305.6666666666667</ele><time>2026-05-01T16:52:10Z</time></trkpt><trkpt lat="42.22610496498426" lon="19.54140763998453"><ele>303.0</ele><time>2026-05-01T16:52:11Z</time></trkpt><trkpt lat="42.226020020041666" lon="19.541414750477635"><ele>303.0</ele><time>2026-05-01T16:52:12Z</time></trkpt><trkpt lat="42.22595138463971" lon="19.541413244905527"><ele>303.0</ele><time>2026-05-01T16:52:13Z</time></trkpt><trkpt lat="42.225886536009824" lon="19.541414426168263"><ele>303.0</ele><time>2026-05-01T16:52:14Z</time></trkpt><trkpt lat="42.225818147791706" lon="19.541416144377294"><ele>303.0</ele><time>2026-05-01T16:52:15Z</time></trkpt><trkpt lat="42.225748809589554" lon="19.54142030864191"><ele>303.0</ele><time>2026-05-01T16:52:16Z</time></trkpt><trkpt lat="42.22566365541061" lon="19.54141967460173"><ele>303.0</ele><time>2026-05-01T16:52:17Z</time></trkpt><trkpt lat="42.22557519916402" lon="19.54142406126265"><ele>303.0</ele><time>2026-05-01T16:52:18Z</time></trkpt><trkpt lat="42.225481940982796" lon="19.54143682627326"><ele>303.3333333333333</ele><time>2026-05-01T16:52:19Z</time></trkpt><trkpt lat="42.22540231759324" lon="19.541449036366217"><ele>303.6666666666667</ele><time>2026-05-01T16:52:20Z</time></trkpt><trkpt lat="42.22532861646315" lon="19.541457479147308"><ele>304.0</ele><time>2026-05-01T16:52:21Z</time></trkpt><trkpt lat="42.2252371894671" lon="19.54146280851076"><ele>304.33333333333337</ele><time>2026-05-01T16:52:22Z</time></trkpt><trkpt lat="42.225140028072396" lon="19.541458910708965"><ele>304.6666666666667</ele><time>2026-05-01T16:52:23Z</time></trkpt><trkpt lat="42.225043280932454" lon="19.541473647806377"><ele>305.0</ele><time>2026-05-01T16:52:24Z</time></trkpt><trkpt lat="42.224963385188765" lon="19.541503331409743"><ele>305.0</ele><time>2026-05-01T16:52:25Z</time></trkpt><trkpt lat="42.22488474827165" lon="19.5415450319837"><ele>305.0</ele><time>2026-05-01T16:52:26Z</time></trkpt><trkpt lat="42.224806769104724" lon="19.541576216759598"><ele>305.0</ele><time>2026-05-01T16:52:27Z</time></trkpt><trkpt lat="42.224730644224515" lon="19.541591421080277"><ele>305.0</ele><time>2026-05-01T16:52:28Z</time></trkpt><trkpt lat="42.224646621569185" lon="19.541594892831963"><ele>305.0</ele><time>2026-05-01T16:52:29Z</time></trkpt><trkpt lat="42.22456462135557" lon="19.54158371405662"><ele>305.0</ele><time>2026-05-01T16:52:30Z</time></trkpt><trkpt lat="42.2244886387453" lon="19.54155489657191"><ele>304.6666666666667</ele><time>2026-05-01T16:52:31Z</time></trkpt><trkpt lat="42.22441558217605" lon="19.541540359268218"><ele>304.33333333333337</ele><time>2026-05-01T16:52:32Z</time></trkpt><trkpt lat="42.224337372800655" lon="19.54153535146049"><ele>304.0</ele><time>2026-05-01T16:52:33Z</time></trkpt><trkpt lat="42.22424883619602" lon="19.5415339440817"><ele>303.6666666666667</ele><time>2026-05-01T16:52:34Z</time></trkpt><trkpt lat="42.22414800468479" lon="19.541531802585123"><ele>303.3333333333333</ele><time>2026-05-01T16:52:35Z</time></trkpt><trkpt lat="42.22404752501727" lon="19.541513032591876"><ele>303.0</ele><time>2026-05-01T16:52:36Z</time></trkpt><trkpt lat="42.22395499733113" lon="19.541492230157466"><ele>302.6666666666667</ele><time>2026-05-01T16:52:37Z</time></trkpt><trkpt lat="42.22385995449489" lon="19.541469966634324"><ele>302.3333333333333</ele><time>2026-05-01T16:52:38Z</time></trkpt><trkpt lat="42.22376842858159" lon="19.541458778750656"><ele>302.0</ele><time>2026-05-01T16:52:39Z</time></trkpt><trkpt lat="42.223685152806034" lon="19.541461512951575"><ele>301.66666666666663</ele><time>2026-05-01T16:52:40Z</time></trkpt><trkpt lat="42.223603382428436" lon="19.541484965384136"><ele>301.3333333333333</ele><time>2026-05-01T16:52:41Z</time></trkpt><trkpt lat="42.22352179464456" lon="19.541533329825832"><ele>301.0</ele><time>2026-05-01T16:52:41.999Z</time></trkpt><trkpt lat="42.22344668253689" lon="19.54160423302516"><ele>301.0</ele><time>2026-05-01T16:52:42.999Z</time></trkpt><trkpt lat="42.22337872220998" lon="19.541682381427066"><ele>301.0</ele><time>2026-05-01T16:52:43.999Z</time></trkpt><trkpt lat="42.223314093658466" lon="19.541754575501994"><ele>301.0</ele><time>2026-05-01T16:52:44.999Z</time></trkpt><trkpt lat="42.22324511139561" lon="19.54182987064894"><ele>301.0</ele><time>2026-05-01T16:52:45.999Z</time></trkpt><trkpt lat="42.22317366747891" lon="19.541904427126347"><ele>301.0</ele><time>2026-05-01T16:52:46.999Z</time></trkpt><trkpt lat="42.223103370070895" lon="19.541987201433187"><ele>301.0</ele><time>2026-05-01T16:52:47.999Z</time></trkpt><trkpt lat="42.22302271743741" lon="19.54205804281251"><ele>300.8</ele><time>2026-05-01T16:52:48.999Z</time></trkpt><trkpt lat="42.22296127528636" lon="19.542169768801987"><ele>300.6</ele><time>2026-05-01T16:52:49.999Z</time></trkpt><trkpt lat="42.22292095777952" lon="19.542297779452554"><ele>300.4</ele><time>2026-05-01T16:52:50.999Z</time></trkpt><trkpt lat="42.22286657249879" lon="19.542407444750236"><ele>300.2</ele><time>2026-05-01T16:52:51.999Z</time></trkpt><trkpt lat="42.22282493173803" lon="19.542516062058453"><ele>300.0</ele><time>2026-05-01T16:52:52.999Z</time></trkpt><trkpt lat="42.22276693808662" lon="19.542609429005307"><ele>300.0</ele><time>2026-05-01T16:52:53.999Z</time></trkpt><trkpt lat="42.22272599019374" lon="19.542715186169996"><ele>300.0</ele><time>2026-05-01T16:52:54.999Z</time></trkpt><trkpt lat="42.22268420920749" lon="19.542825444592403"><ele>300.0</ele><time>2026-05-01T16:52:55.999Z</time></trkpt><trkpt lat="42.222641542777055" lon="19.542938039625767"><ele>300.0</ele><time>2026-05-01T16:52:56.999Z</time></trkpt><trkpt lat="42.222609086397625" lon="19.543066862863697"><ele>300.0</ele><time>2026-05-01T16:52:57.999Z</time></trkpt><trkpt lat="42.222559598309225" lon="19.543182090927225"><ele>300.1666666666667</ele><time>2026-05-01T16:52:58.999Z</time></trkpt><trkpt lat="42.222487021438354" lon="19.54327463284095"><ele>300.3333333333333</ele><time>2026-05-01T16:52:59.999Z</time></trkpt><trkpt lat="42.22242987330603" lon="19.543344308174206"><ele>300.5</ele><time>2026-05-01T16:53:00.999Z</time></trkpt><trkpt lat="42.2223692323596" lon="19.543415764028115"><ele>300.66666666666663</ele><time>2026-05-01T16:53:01.999Z</time></trkpt><trkpt lat="42.222320266270685" lon="19.543522656426802"><ele>300.8333333333333</ele><time>2026-05-01T16:53:02.999Z</time></trkpt><trkpt lat="42.2222774537305" lon="19.543623292856154"><ele>301.0</ele><time>2026-05-01T16:53:03.999Z</time></trkpt><trkpt lat="42.222250208154655" lon="19.543706470034525"><ele>302.40000000000003</ele><time>2026-05-01T16:53:04.999Z</time></trkpt><trkpt lat="42.22215156400958" lon="19.543724812180294"><ele>303.8</ele><time>2026-05-01T16:53:06.999Z</time></trkpt><trkpt lat="42.22209312220134" lon="19.543692976634958"><ele>305.20000000000005</ele><time>2026-05-01T16:53:07.999Z</time></trkpt><trkpt lat="42.2220185029301" lon="19.54364672114049"><ele>306.6</ele><time>2026-05-01T16:53:08.999Z</time></trkpt><trkpt lat="42.221921566340846" lon="19.54363047185159"><ele>308.0</ele><time>2026-05-01T16:53:09.999Z</time></trkpt><trkpt lat="42.22182285478432" lon="19.543568142449725"><ele>308.0</ele><time>2026-05-01T16:53:10.999Z</time></trkpt><trkpt lat="42.22173448963307" lon="19.543544032762085"><ele>308.0</ele><time>2026-05-01T16:53:11.999Z</time></trkpt><trkpt lat="42.22165528817937" lon="19.543506437555365"><ele>308.0</ele><time>2026-05-01T16:53:13Z</time></trkpt><trkpt lat="42.22156466329319" lon="19.54348148444697"><ele>308.0</ele><time>2026-05-01T16:53:14Z</time></trkpt><trkpt lat="42.22146751559885" lon="19.54343861554023"><ele>308.0</ele><time>2026-05-01T16:53:15Z</time></trkpt><trkpt lat="42.22138867286894" lon="19.543389093233728"><ele>309.0</ele><time>2026-05-01T16:53:16Z</time></trkpt><trkpt lat="42.22132248030627" lon="19.543347466747402"><ele>310.0</ele><time>2026-05-01T16:53:17Z</time></trkpt><trkpt lat="42.221248668598385" lon="19.543289758968882"><ele>311.0</ele><time>2026-05-01T16:53:18Z</time></trkpt><trkpt lat="42.22118920881635" lon="19.543228260807663"><ele>312.0</ele><time>2026-05-01T16:53:19Z</time></trkpt><trkpt lat="42.22120818225641" lon="19.543056725837875"><ele>313.0</ele><time>2026-05-01T16:53:20Z</time></trkpt><trkpt lat="42.22119662143626" lon="19.542948729450345"><ele>314.0</ele><time>2026-05-01T16:53:21Z</time></trkpt><trkpt lat="42.221154827923655" lon="19.54284437714802"><ele>314.0</ele><time>2026-05-01T16:53:22Z</time></trkpt><trkpt lat="42.22108970844481" lon="19.542744785764977"><ele>314.0</ele><time>2026-05-01T16:53:23Z</time></trkpt><trkpt lat="42.22102167727277" lon="19.542679560982325"><ele>314.0</ele><time>2026-05-01T16:53:24Z</time></trkpt><trkpt lat="42.220939831964316" lon="19.54262912103889"><ele>314.0</ele><time>2026-05-01T16:53:25Z</time></trkpt><trkpt lat="42.220843699407055" lon="19.542588393627582"><ele>314.0</ele><time>2026-05-01T16:53:26Z</time></trkpt><trkpt lat="42.22074368557611" lon="19.54255972749601"><ele>313.99999999999994</ele><time>2026-05-01T16:53:27Z</time></trkpt><trkpt lat="42.22065699745425" lon="19.542539663277452"><ele>314.0</ele><time>2026-05-01T16:53:28Z</time></trkpt><trkpt lat="42.220577975328084" lon="19.542519306424552"><ele>314.0</ele><time>2026-05-01T16:53:29Z</time></trkpt><trkpt lat="42.22051340087587" lon="19.542480574237235"><ele>314.0</ele><time>2026-05-01T16:53:30Z</time></trkpt><trkpt lat="42.22046817119423" lon="19.542418617305984"><ele>314.0</ele><time>2026-05-01T16:53:31Z</time></trkpt><trkpt lat="42.220439898931446" lon="19.542335242155268"><ele>313.99999999999994</ele><time>2026-05-01T16:53:32Z</time></trkpt><trkpt lat="42.22042112506316" lon="19.542247614952544"><ele>314.0</ele><time>2026-05-01T16:53:33Z</time></trkpt><trkpt lat="42.220375956414046" lon="19.54218408406944"><ele>315.0</ele><time>2026-05-01T16:53:34Z</time></trkpt><trkpt lat="42.220314389301855" lon="19.54215360475455"><ele>316.0</ele><time>2026-05-01T16:53:35Z</time></trkpt><trkpt lat="42.22023505362257" lon="19.542146808494312"><ele>317.0</ele><time>2026-05-01T16:53:36Z</time></trkpt><trkpt lat="42.220148545368765" lon="19.542182831173754"><ele>318.0</ele><time>2026-05-01T16:53:37Z</time></trkpt><trkpt lat="42.22005947315226" lon="19.54218420609562"><ele>319.0</ele><time>2026-05-01T16:53:38Z</time></trkpt><trkpt lat="42.21996793446413" lon="19.542204910055585"><ele>320.0</ele><time>2026-05-01T16:53:39Z</time></trkpt><trkpt lat="42.21986748462405" lon="19.542222226007233"><ele>320.8</ele><time>2026-05-01T16:53:40Z</time></trkpt><trkpt lat="42.21977346807374" lon="19.542240526853856"><ele>321.6</ele><time>2026-05-01T16:53:41Z</time></trkpt><trkpt lat="42.21968077350162" lon="19.54225483771497"><ele>322.4</ele><time>2026-05-01T16:53:42Z</time></trkpt><trkpt lat="42.219579384521396" lon="19.54226464105999"><ele>323.2</ele><time>2026-05-01T16:53:43Z</time></trkpt><trkpt lat="42.2194696968539" lon="19.5422716154502"><ele>324.0</ele><time>2026-05-01T16:53:44Z</time></trkpt><trkpt lat="42.21935875445578" lon="19.542280664256303"><ele>324.0</ele><time>2026-05-01T16:53:45Z</time></trkpt><trkpt lat="42.219247169297816" lon="19.542283888592024"><ele>324.0</ele><time>2026-05-01T16:53:46Z</time></trkpt><trkpt lat="42.21913422887962" lon="19.54228229086063"><ele>324.0</ele><time>2026-05-01T16:53:47Z</time></trkpt><trkpt lat="42.2190382337355" lon="19.542274199568663"><ele>324.0</ele><time>2026-05-01T16:53:48Z</time></trkpt><trkpt lat="42.21894474880299" lon="19.54225872125491"><ele>324.0</ele><time>2026-05-01T16:53:49Z</time></trkpt><trkpt lat="42.218846862262644" lon="19.542220109184047"><ele>323.6</ele><time>2026-05-01T16:53:50Z</time></trkpt><trkpt lat="42.21875329972654" lon="19.542158952142938"><ele>323.2</ele><time>2026-05-01T16:53:51Z</time></trkpt><trkpt lat="42.21867024810772" lon="19.542094618601453"><ele>322.8</ele><time>2026-05-01T16:53:52Z</time></trkpt><trkpt lat="42.21858591770403" lon="19.542035021729262"><ele>322.40000000000003</ele><time>2026-05-01T16:53:53Z</time></trkpt><trkpt lat="42.21850046928625" lon="19.541976400039605"><ele>322.0</ele><time>2026-05-01T16:53:54Z</time></trkpt><trkpt lat="42.21840956801665" lon="19.54192392455725"><ele>322.40000000000003</ele><time>2026-05-01T16:53:55Z</time></trkpt><trkpt lat="42.21830954937999" lon="19.541890181309387"><ele>322.8</ele><time>2026-05-01T16:53:56Z</time></trkpt><trkpt lat="42.21820656001335" lon="19.541872171423076"><ele>323.2</ele><time>2026-05-01T16:53:57Z</time></trkpt><trkpt lat="42.21811519661292" lon="19.5418403291976"><ele>323.6</ele><time>2026-05-01T16:53:58Z</time></trkpt><trkpt lat="42.21803350561203" lon="19.541785593569205"><ele>324.0</ele><time>2026-05-01T16:53:59Z</time></trkpt><trkpt lat="42.21796026286521" lon="19.541695455892988"><ele>324.0</ele><time>2026-05-01T16:54:00Z</time></trkpt><trkpt lat="42.21790467817181" lon="19.54158673804615"><ele>324.0</ele><time>2026-05-01T16:54:01Z</time></trkpt><trkpt lat="42.21786900610431" lon="19.54146405041556"><ele>324.0</ele><time>2026-05-01T16:54:02Z</time></trkpt><trkpt lat="42.21783423950643" lon="19.541331186422543"><ele>324.0</ele><time>2026-05-01T16:54:03Z</time></trkpt><trkpt lat="42.21777950170125" lon="19.541199929393663"><ele>324.0</ele><time>2026-05-01T16:54:04Z</time></trkpt><trkpt lat="42.21770989458679" lon="19.541073398374838"><ele>325.2</ele><time>2026-05-01T16:54:05Z</time></trkpt><trkpt lat="42.217640373423826" lon="19.540967014818"><ele>326.4</ele><time>2026-05-01T16:54:06Z</time></trkpt><trkpt lat="42.21756834132125" lon="19.540863409373888"><ele>327.6</ele><time>2026-05-01T16:54:07Z</time></trkpt><trkpt lat="42.21749068356824" lon="19.540753545178614"><ele>328.8</ele><time>2026-05-01T16:54:08Z</time></trkpt><trkpt lat="42.21741230625442" lon="19.540642292723767"><ele>330.0</ele><time>2026-05-01T16:54:09Z</time></trkpt><trkpt lat="42.217343043446576" lon="19.540538741976007"><ele>330.6</ele><time>2026-05-01T16:54:10Z</time></trkpt><trkpt lat="42.21729011501279" lon="19.540453681744783"><ele>331.2</ele><time>2026-05-01T16:54:11Z</time></trkpt><trkpt lat="42.21724142103189" lon="19.540363936779112"><ele>331.79999999999995</ele><time>2026-05-01T16:54:12Z</time></trkpt><trkpt lat="42.217188907299374" lon="19.540271791675096"><ele>332.4</ele><time>2026-05-01T16:54:13Z</time></trkpt><trkpt lat="42.217117308768046" lon="19.540170010477873"><ele>333.0</ele><time>2026-05-01T16:54:14Z</time></trkpt><trkpt lat="42.21701969543018" lon="19.540103218956578"><ele>333.0</ele><time>2026-05-01T16:54:15Z</time></trkpt><trkpt lat="42.216932873048066" lon="19.53999718491556"><ele>333.0</ele><time>2026-05-01T16:54:16Z</time></trkpt><trkpt lat="42.216804543195565" lon="19.539951405960146"><ele>333.0</ele><time>2026-05-01T16:54:17Z</time></trkpt><trkpt lat="42.21670178979589" lon="19.53985590507777"><ele>333.0</ele><time>2026-05-01T16:54:18Z</time></trkpt><trkpt lat="42.21659650980468" lon="19.539771056384147"><ele>333.0</ele><time>2026-05-01T16:54:19Z</time></trkpt><trkpt lat="42.216504418162145" lon="19.539698582788336"><ele>333.0</ele><time>2026-05-01T16:54:20Z</time></trkpt><trkpt lat="42.216416714066135" lon="19.53965205509097"><ele>333.0</ele><time>2026-05-01T16:54:21Z</time></trkpt><trkpt lat="42.216325295592405" lon="19.539612508064906"><ele>333.0</ele><time>2026-05-01T16:54:22Z</time></trkpt><trkpt lat="42.21623870646089" lon="19.539550971638437"><ele>333.0</ele><time>2026-05-01T16:54:23Z</time></trkpt><trkpt lat="42.21615496784053" lon="19.539462850664986"><ele>329.75</ele><time>2026-05-01T16:54:24Z</time></trkpt><trkpt lat="42.21604100487372" lon="19.53941808230619"><ele>326.5</ele><time>2026-05-01T16:54:25Z</time></trkpt><trkpt lat="42.215917590104794" lon="19.539433957997943"><ele>323.25</ele><time>2026-05-01T16:54:26Z</time></trkpt><trkpt lat="42.21580741830175" lon="19.53941680430483"><ele>320.0</ele><time>2026-05-01T16:54:27Z</time></trkpt><trkpt lat="42.215695015479376" lon="19.53940209497647"><ele>317.75</ele><time>2026-05-01T16:54:28Z</time></trkpt><trkpt lat="42.21560801518002" lon="19.539357874161087"><ele>315.5</ele><time>2026-05-01T16:54:29Z</time></trkpt><trkpt lat="42.21548740853312" lon="19.53935230335766"><ele>313.25</ele><time>2026-05-01T16:54:30Z</time></trkpt><trkpt lat="42.2153657002171" lon="19.53935860858701"><ele>311.0</ele><time>2026-05-01T16:54:31Z</time></trkpt><trkpt lat="42.21525025934825" lon="19.539367490118497"><ele>311.0</ele><time>2026-05-01T16:54:32Z</time></trkpt><trkpt lat="42.21513990191181" lon="19.539390442259055"><ele>311.0</ele><time>2026-05-01T16:54:33Z</time></trkpt><trkpt lat="42.21503007005738" lon="19.539433907396262"><ele>311.0</ele><time>2026-05-01T16:54:34Z</time></trkpt><trkpt lat="42.214927563729496" lon="19.53948006410433"><ele>311.0</ele><time>2026-05-01T16:54:35Z</time></trkpt><trkpt lat="42.214830662237176" lon="19.539522636601188"><ele>311.0</ele><time>2026-05-01T16:54:36Z</time></trkpt><trkpt lat="42.21474317854928" lon="19.539553758375757"><ele>311.6666666666667</ele><time>2026-05-01T16:54:37Z</time></trkpt><trkpt lat="42.21465807903562" lon="19.539585346675153"><ele>312.33333333333337</ele><time>2026-05-01T16:54:38Z</time></trkpt><trkpt lat="42.21457169912852" lon="19.539620873724182"><ele>313.0</ele><time>2026-05-01T16:54:39Z</time></trkpt><trkpt lat="42.21449551268194" lon="19.539655201109756"><ele>313.6666666666667</ele><time>2026-05-01T16:54:40Z</time></trkpt><trkpt lat="42.2144287978463" lon="19.53969109495632"><ele>314.3333333333333</ele><time>2026-05-01T16:54:41Z</time></trkpt><trkpt lat="42.214359267250096" lon="19.539731291838923"><ele>315.0</ele><time>2026-05-01T16:54:42Z</time></trkpt><trkpt lat="42.21428804418501" lon="19.53977357172091"><ele>315.0</ele><time>2026-05-01T16:54:43Z</time></trkpt><trkpt lat="42.21422921613103" lon="19.539805744030488"><ele>315.0</ele><time>2026-05-01T16:54:44Z</time></trkpt><trkpt lat="42.21416121790051" lon="19.539837271244835"><ele>315.0</ele><time>2026-05-01T16:54:46Z</time></trkpt><trkpt lat="42.21409067045808" lon="19.53984957273087"><ele>315.0</ele><time>2026-05-01T16:54:50Z</time></trkpt><trkpt lat="42.21399217808818" lon="19.539874395915884"><ele>315.0</ele><time>2026-05-01T16:54:53.999Z</time></trkpt><trkpt lat="42.213921843282016" lon="19.53989120376824"><ele>315.0</ele><time>2026-05-01T16:54:55.999Z</time></trkpt><trkpt lat="42.2138285001818" lon="19.539918073211386"><ele>313.6666666666667</ele><time>2026-05-01T16:54:57.999Z</time></trkpt><trkpt lat="42.21375996912508" lon="19.539921479837137"><ele>312.3333333333333</ele><time>2026-05-01T16:54:58.999Z</time></trkpt><trkpt lat="42.21368402102001" lon="19.539916322277502"><ele>311.0</ele><time>2026-05-01T16:54:59.999Z</time></trkpt><trkpt lat="42.21359808053457" lon="19.539897664681348"><ele>309.66666666666663</ele><time>2026-05-01T16:55:00.999Z</time></trkpt><trkpt lat="42.213512333811124" lon="19.539862320043422"><ele>308.3333333333333</ele><time>2026-05-01T16:55:01.999Z</time></trkpt><trkpt lat="42.21342470842723" lon="19.539816416190163"><ele>307.0</ele><time>2026-05-01T16:55:02.999Z</time></trkpt><trkpt lat="42.213333305179795" lon="19.539759703505993"><ele>307.0</ele><time>2026-05-01T16:55:03.999Z</time></trkpt><trkpt lat="42.21323449921396" lon="19.53969604593243"><ele>307.0</ele><time>2026-05-01T16:55:04.999Z</time></trkpt><trkpt lat="42.2131251529639" lon="19.539644093598824"><ele>307.0</ele><time>2026-05-01T16:55:05.999Z</time></trkpt><trkpt lat="42.21301157907056" lon="19.53959964688266"><ele>307.0</ele><time>2026-05-01T16:55:06.999Z</time></trkpt><trkpt lat="42.21289447486435" lon="19.539561580824266"><ele>303.25</ele><time>2026-05-01T16:55:07.999Z</time></trkpt><trkpt lat="42.21277666405133" lon="19.539500828778817"><ele>299.5</ele><time>2026-05-01T16:55:08.999Z</time></trkpt><trkpt lat="42.212657672078294" lon="19.539476124665523"><ele>295.75</ele><time>2026-05-01T16:55:09.999Z</time></trkpt><trkpt lat="42.21253984520776" lon="19.5394804819478"><ele>292.0</ele><time>2026-05-01T16:55:10.999Z</time></trkpt><trkpt lat="42.21244073787274" lon="19.539467330430735"><ele>292.0</ele><time>2026-05-01T16:55:11.999Z</time></trkpt><trkpt lat="42.21234726887469" lon="19.539442309553074"><ele>292.0</ele><time>2026-05-01T16:55:12.999Z</time></trkpt><trkpt lat="42.21224729574134" lon="19.539456101370945"><ele>292.0</ele><time>2026-05-01T16:55:13.999Z</time></trkpt><trkpt lat="42.2121422061122" lon="19.539443188589406"><ele>292.0</ele><time>2026-05-01T16:55:14.999Z</time></trkpt><trkpt lat="42.21203524217936" lon="19.539437237299776"><ele>292.0</ele><time>2026-05-01T16:55:15.999Z</time></trkpt><trkpt lat="42.21193721441771" lon="19.539425273857514"><ele>293.2</ele><time>2026-05-01T16:55:16.999Z</time></trkpt><trkpt lat="42.2118501324103" lon="19.53941295993519"><ele>294.4</ele><time>2026-05-01T16:55:17.999Z</time></trkpt><trkpt lat="42.21176636312385" lon="19.539386005947577"><ele>295.6</ele><time>2026-05-01T16:55:19Z</time></trkpt><trkpt lat="42.211684474792875" lon="19.53933885499325"><ele>296.8</ele><time>2026-05-01T16:55:20Z</time></trkpt><trkpt lat="42.211597833840315" lon="19.539285330317625"><ele>298.0</ele><time>2026-05-01T16:55:21Z</time></trkpt><trkpt lat="42.211504627794596" lon="19.539240390395268"><ele>297.8</ele><time>2026-05-01T16:55:22Z</time></trkpt><trkpt lat="42.21140551515622" lon="19.539209692223366"><ele>297.6</ele><time>2026-05-01T16:55:23Z</time></trkpt><trkpt lat="42.21130396535024" lon="19.53919263533055"><ele>297.4</ele><time>2026-05-01T16:55:24Z</time></trkpt><trkpt lat="42.21120063047542" lon="19.539178268233105"><ele>297.2</ele><time>2026-05-01T16:55:25Z</time></trkpt><trkpt lat="42.21110184056735" lon="19.539165418888686"><ele>297.0</ele><time>2026-05-01T16:55:26Z</time></trkpt><trkpt lat="42.211014388657226" lon="19.53914539791224"><ele>297.0</ele><time>2026-05-01T16:55:27Z</time></trkpt><trkpt lat="42.21092694953334" lon="19.539115876288502"><ele>297.0</ele><time>2026-05-01T16:55:28Z</time></trkpt><trkpt lat="42.21083745869019" lon="19.539072557047515"><ele>297.0</ele><time>2026-05-01T16:55:29Z</time></trkpt><trkpt lat="42.210756546931805" lon="19.53901912527446"><ele>297.0</ele><time>2026-05-01T16:55:30Z</time></trkpt><trkpt lat="42.210692562184434" lon="19.53896373752723"><ele>297.0</ele><time>2026-05-01T16:55:31Z</time></trkpt><trkpt lat="42.21066064205073" lon="19.538881006802157"><ele>297.0</ele><time>2026-05-01T16:55:32Z</time></trkpt><trkpt lat="42.21058000829787" lon="19.538837950905037"><ele>297.0</ele><time>2026-05-01T16:55:34Z</time></trkpt><trkpt lat="42.210487268052454" lon="19.538887485957247"><ele>297.0</ele><time>2026-05-01T16:55:36Z</time></trkpt><trkpt lat="42.21044397888504" lon="19.538964911337548"><ele>297.0</ele><time>2026-05-01T16:55:37Z</time></trkpt><trkpt lat="42.21038598580219" lon="19.539017677433257"><ele>297.0</ele><time>2026-05-01T16:55:38Z</time></trkpt><trkpt lat="42.210264822604536" lon="19.539055898049526"><ele>297.0</ele><time>2026-05-01T16:55:40Z</time></trkpt><trkpt lat="42.2101836893835" lon="19.539062459303345"><ele>297.0</ele><time>2026-05-01T16:55:41Z</time></trkpt><trkpt lat="42.210108803817754" lon="19.539076356659418"><ele>297.0</ele><time>2026-05-01T16:55:42Z</time></trkpt><trkpt lat="42.21004142495836" lon="19.539096044370552"><ele>297.0</ele><time>2026-05-01T16:55:43Z</time></trkpt><trkpt lat="42.2099826224461" lon="19.53913000531556"><ele>297.0</ele><time>2026-05-01T16:55:44Z</time></trkpt><trkpt lat="42.209896480874335" lon="19.53922342956483"><ele>297.0</ele><time>2026-05-01T16:55:46Z</time></trkpt><trkpt lat="42.20984191576409" lon="19.539288392533784"><ele>297.0</ele><time>2026-05-01T16:55:47Z</time></trkpt><trkpt lat="42.20979382278549" lon="19.53935665941651"><ele>297.0</ele><time>2026-05-01T16:55:48Z</time></trkpt><trkpt lat="42.20971433827062" lon="19.53945678506204"><ele>296.6</ele><time>2026-05-01T16:55:50Z</time></trkpt><trkpt lat="42.20962426198357" lon="19.539480946545787"><ele>296.2</ele><time>2026-05-01T16:55:52Z</time></trkpt><trkpt lat="42.20954118315808" lon="19.539404337525422"><ele>295.8</ele><time>2026-05-01T16:55:54Z</time></trkpt><trkpt lat="42.20944665100417" lon="19.53928059790397"><ele>295.4</ele><time>2026-05-01T16:55:56Z</time></trkpt><trkpt lat="42.209389008574405" lon="19.53919850601827"><ele>295.0</ele><time>2026-05-01T16:55:57Z</time></trkpt><trkpt lat="42.20931585225393" lon="19.539116181003077"><ele>295.0</ele><time>2026-05-01T16:55:58Z</time></trkpt><trkpt lat="42.209230132556975" lon="19.539039828082217"><ele>295.0</ele><time>2026-05-01T16:55:59Z</time></trkpt><trkpt lat="42.20915288079239" lon="19.53897201349975"><ele>295.0</ele><time>2026-05-01T16:56:00Z</time></trkpt><trkpt lat="42.20908520528214" lon="19.538918940044258"><ele>295.0</ele><time>2026-05-01T16:56:01Z</time></trkpt><trkpt lat="42.20901481525708" lon="19.53886749774559"><ele>295.0</ele><time>2026-05-01T16:56:02Z</time></trkpt><trkpt lat="42.2089501468681" lon="19.538813827442088"><ele>295.0</ele><time>2026-05-01T16:56:03Z</time></trkpt><trkpt lat="42.20889149485554" lon="19.538771424734914"><ele>294.66666666666663</ele><time>2026-05-01T16:56:04Z</time></trkpt><trkpt lat="42.2088339897247" lon="19.53872945988463"><ele>294.3333333333333</ele><time>2026-05-01T16:56:05Z</time></trkpt><trkpt lat="42.20878189071457" lon="19.53867660758718"><ele>294.0</ele><time>2026-05-01T16:56:06Z</time></trkpt><trkpt lat="42.208717941645546" lon="19.538612803584577"><ele>293.6666666666667</ele><time>2026-05-01T16:56:07Z</time></trkpt><trkpt lat="42.20864100983916" lon="19.538546782647604"><ele>293.33333333333337</ele><time>2026-05-01T16:56:08Z</time></trkpt><trkpt lat="42.20855663750221" lon="19.53847972205473"><ele>293.0</ele><time>2026-05-01T16:56:09Z</time></trkpt><trkpt lat="42.20849305974145" lon="19.538423477488703"><ele>292.83333333333337</ele><time>2026-05-01T16:56:10Z</time></trkpt><trkpt lat="42.20842651635465" lon="19.538364716334094"><ele>292.6666666666667</ele><time>2026-05-01T16:56:11Z</time></trkpt><trkpt lat="42.208356298863485" lon="19.538299100627015"><ele>292.5</ele><time>2026-05-01T16:56:12Z</time></trkpt><trkpt lat="42.20827999646713" lon="19.53822985379838"><ele>292.3333333333333</ele><time>2026-05-01T16:56:13Z</time></trkpt><trkpt lat="42.20819497518655" lon="19.53817587307499"><ele>292.16666666666663</ele><time>2026-05-01T16:56:14Z</time></trkpt><trkpt lat="42.2081046423579" lon="19.538147047146804"><ele>292.0</ele><time>2026-05-01T16:56:15Z</time></trkpt><trkpt lat="42.208028457937935" lon="19.538123317902365"><ele>292.0</ele><time>2026-05-01T16:56:16Z</time></trkpt><trkpt lat="42.20796721532994" lon="19.538055963691484"><ele>292.0</ele><time>2026-05-01T16:56:17Z</time></trkpt><trkpt lat="42.20788947452174" lon="19.538024955922918"><ele>292.0</ele><time>2026-05-01T16:56:18Z</time></trkpt><trkpt lat="42.20781878630046" lon="19.53796784451943"><ele>292.0</ele><time>2026-05-01T16:56:19Z</time></trkpt><trkpt lat="42.20773999167578" lon="19.537913707546068"><ele>292.0</ele><time>2026-05-01T16:56:20Z</time></trkpt><trkpt lat="42.207659094287564" lon="19.537861187715222"><ele>292.0</ele><time>2026-05-01T16:56:21Z</time></trkpt><trkpt lat="42.20757456517801" lon="19.537819499604527"><ele>292.16666666666663</ele><time>2026-05-01T16:56:22Z</time></trkpt><trkpt lat="42.20749867532749" lon="19.537790182488557"><ele>292.3333333333333</ele><time>2026-05-01T16:56:23Z</time></trkpt><trkpt lat="42.20743287794122" lon="19.537766153664823"><ele>292.5</ele><time>2026-05-01T16:56:24Z</time></trkpt><trkpt lat="42.20736999040986" lon="19.537720434918803"><ele>292.6666666666667</ele><time>2026-05-01T16:56:25Z</time></trkpt><trkpt lat="42.20730249440655" lon="19.537673306116307"><ele>292.83333333333337</ele><time>2026-05-01T16:56:26Z</time></trkpt><trkpt lat="42.20722835959574" lon="19.537614977010165"><ele>293.0</ele><time>2026-05-01T16:56:27Z</time></trkpt><trkpt lat="42.20714991816842" lon="19.53754761366279"><ele>292.2857142857143</ele><time>2026-05-01T16:56:28Z</time></trkpt><trkpt lat="42.20708575679126" lon="19.53749778611843"><ele>291.57142857142856</ele><time>2026-05-01T16:56:29Z</time></trkpt><trkpt lat="42.207021692313575" lon="19.537445303419254"><ele>290.8571428571429</ele><time>2026-05-01T16:56:30Z</time></trkpt><trkpt lat="42.20695375531405" lon="19.537386250254336"><ele>290.1428571428571</ele><time>2026-05-01T16:56:31Z</time></trkpt><trkpt lat="42.20689280804996" lon="19.537322785115418"><ele>289.42857142857144</ele><time>2026-05-01T16:56:32Z</time></trkpt><trkpt lat="42.20684260074294" lon="19.537268015769467"><ele>288.7142857142857</ele><time>2026-05-01T16:56:33Z</time></trkpt><trkpt lat="42.20679510780062" lon="19.537211495816987"><ele>288.0</ele><time>2026-05-01T16:56:34Z</time></trkpt><trkpt lat="42.20672164351013" lon="19.537151905891168"><ele>288.0</ele><time>2026-05-01T16:56:35Z</time></trkpt><trkpt lat="42.206646777535525" lon="19.537112316772276"><ele>288.0</ele><time>2026-05-01T16:56:36Z</time></trkpt><trkpt lat="42.20655237760496" lon="19.53705211222214"><ele>288.0</ele><time>2026-05-01T16:56:37Z</time></trkpt><trkpt lat="42.20645891405156" lon="19.536986216629305"><ele>288.0</ele><time>2026-05-01T16:56:38Z</time></trkpt><trkpt lat="42.20636622385028" lon="19.536934461738756"><ele>288.0</ele><time>2026-05-01T16:56:39Z</time></trkpt><trkpt lat="42.20627520359704" lon="19.536892994083974"><ele>286.4</ele><time>2026-05-01T16:56:40Z</time></trkpt><trkpt lat="42.206185318903806" lon="19.536854042934632"><ele>284.8</ele><time>2026-05-01T16:56:41Z</time></trkpt><trkpt lat="42.20610355946148" lon="19.536820598769335"><ele>283.2</ele><time>2026-05-01T16:56:42Z</time></trkpt><trkpt lat="42.20603404808777" lon="19.53679954415683"><ele>281.6</ele><time>2026-05-01T16:56:43Z</time></trkpt><trkpt lat="42.205953636242135" lon="19.536786634585503"><ele>280.0</ele><time>2026-05-01T16:56:44Z</time></trkpt><trkpt lat="42.20581984788602" lon="19.53678726573115"><ele>280.0</ele><time>2026-05-01T16:56:46Z</time></trkpt><trkpt lat="42.20569253273596" lon="19.536748922672754"><ele>280.0</ele><time>2026-05-01T16:56:48Z</time></trkpt><trkpt lat="42.20562723988265" lon="19.53669210143938"><ele>280.0</ele><time>2026-05-01T16:56:49Z</time></trkpt><trkpt lat="42.20554531643124" lon="19.53655276440123"><ele>280.0</ele><time>2026-05-01T16:56:51Z</time></trkpt><trkpt lat="42.20550026348721" lon="19.536469152421997"><ele>280.0</ele><time>2026-05-01T16:56:52Z</time></trkpt><trkpt lat="42.20545677005347" lon="19.5363900928833"><ele>279.0</ele><time>2026-05-01T16:56:53Z</time></trkpt><trkpt lat="42.20541251909395" lon="19.536320013368254"><ele>278.0</ele><time>2026-05-01T16:56:54Z</time></trkpt><trkpt lat="42.2053679732813" lon="19.53625143290394"><ele>277.0</ele><time>2026-05-01T16:56:55Z</time></trkpt><trkpt lat="42.20526145111797" lon="19.53617430677279"><ele>276.0</ele><time>2026-05-01T16:56:56.999Z</time></trkpt><trkpt lat="42.20519132433089" lon="19.536164611968925"><ele>275.0</ele><time>2026-05-01T16:56:57.999Z</time></trkpt><trkpt lat="42.205119676475064" lon="19.536163142790443"><ele>274.0</ele><time>2026-05-01T16:56:58.999Z</time></trkpt><trkpt lat="42.205034686047576" lon="19.53615207163208"><ele>274.0</ele><time>2026-05-01T16:56:59.999Z</time></trkpt><trkpt lat="42.20496294484815" lon="19.536125240044253"><ele>274.0</ele><time>2026-05-01T16:57:00.999Z</time></trkpt><trkpt lat="42.20489634497374" lon="19.536084917514593"><ele>274.0</ele><time>2026-05-01T16:57:01.999Z</time></trkpt><trkpt lat="42.20479845461017" lon="19.53598500586347"><ele>274.0</ele><time>2026-05-01T16:57:03.999Z</time></trkpt><trkpt lat="42.20473067703827" lon="19.535928377923895"><ele>274.0</ele><time>2026-05-01T16:57:04.999Z</time></trkpt><trkpt lat="42.20465960097229" lon="19.53586763524348"><ele>274.0</ele><time>2026-05-01T16:57:05.999Z</time></trkpt><trkpt lat="42.2046039976598" lon="19.53581643745551"><ele>272.8</ele><time>2026-05-01T16:57:06.999Z</time></trkpt><trkpt lat="42.20450623462357" lon="19.535703538222528"><ele>271.59999999999997</ele><time>2026-05-01T16:57:08.999Z</time></trkpt><trkpt lat="42.204444235079315" lon="19.535624515132856"><ele>270.4</ele><time>2026-05-01T16:57:09.999Z</time></trkpt><trkpt lat="42.204380849679346" lon="19.535574343093135"><ele>269.2</ele><time>2026-05-01T16:57:10.999Z</time></trkpt><trkpt lat="42.20429646193581" lon="19.535528989601524"><ele>268.0</ele><time>2026-05-01T16:57:11.999Z</time></trkpt><trkpt lat="42.20421075857028" lon="19.53548834995397"><ele>268.0</ele><time>2026-05-01T16:57:12.999Z</time></trkpt><trkpt lat="42.20414112946293" lon="19.535461748213798"><ele>268.0</ele><time>2026-05-01T16:57:13.999Z</time></trkpt><trkpt lat="42.20407480594624" lon="19.53544793740586"><ele>268.0</ele><time>2026-05-01T16:57:14.999Z</time></trkpt><trkpt lat="42.20399603025235" lon="19.535413525548964"><ele>268.0</ele><time>2026-05-01T16:57:15.999Z</time></trkpt><trkpt lat="42.20392490318746" lon="19.53538569029615"><ele>268.0</ele><time>2026-05-01T16:57:16.999Z</time></trkpt><trkpt lat="42.20385463312941" lon="19.535385225047047"><ele>268.0</ele><time>2026-05-01T16:57:17.999Z</time></trkpt><trkpt lat="42.2037894114071" lon="19.535379088896004"><ele>268.0</ele><time>2026-05-01T16:57:18.999Z</time></trkpt><trkpt lat="42.203710371904236" lon="19.535354206458546"><ele>267.42857142857144</ele><time>2026-05-01T16:57:19.999Z</time></trkpt><trkpt lat="42.203648667536925" lon="19.53531616459435"><ele>266.85714285714283</ele><time>2026-05-01T16:57:20.999Z</time></trkpt><trkpt lat="42.203587415742376" lon="19.535260656279064"><ele>266.2857142857143</ele><time>2026-05-01T16:57:21.999Z</time></trkpt><trkpt lat="42.20353488726316" lon="19.535199876962864"><ele>265.7142857142857</ele><time>2026-05-01T16:57:22.999Z</time></trkpt><trkpt lat="42.20347733526955" lon="19.535124258801023"><ele>265.14285714285717</ele><time>2026-05-01T16:57:24Z</time></trkpt><trkpt lat="42.203417007366255" lon="19.535058435742965"><ele>264.57142857142856</ele><time>2026-05-01T16:57:25Z</time></trkpt><trkpt lat="42.20335942356428" lon="19.53501274679452"><ele>264.0</ele><time>2026-05-01T16:57:26Z</time></trkpt><trkpt lat="42.203252489024536" lon="19.534895165545755"><ele>264.0</ele><time>2026-05-01T16:57:28Z</time></trkpt><trkpt lat="42.203195720098556" lon="19.53482572833818"><ele>264.0</ele><time>2026-05-01T16:57:29Z</time></trkpt><trkpt lat="42.203139935525" lon="19.53477911993379"><ele>264.0</ele><time>2026-05-01T16:57:30Z</time></trkpt><trkpt lat="42.20307557679555" lon="19.534737896626766"><ele>264.0</ele><time>2026-05-01T16:57:31Z</time></trkpt><trkpt lat="42.20299560638637" lon="19.5346453776259"><ele>264.0</ele><time>2026-05-01T16:57:33Z</time></trkpt><trkpt lat="42.20295670438796" lon="19.534502917125288"><ele>264.0</ele><time>2026-05-01T16:57:35Z</time></trkpt><trkpt lat="42.20293251950631" lon="19.534411675604208"><ele>262.6666666666667</ele><time>2026-05-01T16:57:36Z</time></trkpt><trkpt lat="42.20290637323326" lon="19.534325004522984"><ele>261.3333333333333</ele><time>2026-05-01T16:57:37Z</time></trkpt><trkpt lat="42.202874289900215" lon="19.534237924461085"><ele>260.0</ele><time>2026-05-01T16:57:38Z</time></trkpt><trkpt lat="42.20283314725726" lon="19.53415019183647"><ele>258.66666666666663</ele><time>2026-05-01T16:57:39Z</time></trkpt><trkpt lat="42.20278724634839" lon="19.534070929732653"><ele>257.3333333333333</ele><time>2026-05-01T16:57:40Z</time></trkpt><trkpt lat="42.2027345696004" lon="19.533952973745993"><ele>256.0</ele><time>2026-05-01T16:57:42Z</time></trkpt><trkpt lat="42.202716468585365" lon="19.533859924161042"><ele>255.99999999999997</ele><time>2026-05-01T16:57:43Z</time></trkpt><trkpt lat="42.20272063436242" lon="19.533753119435545"><ele>256.0</ele><time>2026-05-01T16:57:44Z</time></trkpt><trkpt lat="42.20270964499682" lon="19.533665564957502"><ele>256.0</ele><time>2026-05-01T16:57:45Z</time></trkpt><trkpt lat="42.20270826926208" lon="19.533564263974746"><ele>256.0</ele><time>2026-05-01T16:57:46Z</time></trkpt><trkpt lat="42.20267168059153" lon="19.533415563046642"><ele>255.99999999999997</ele><time>2026-05-01T16:57:48Z</time></trkpt><trkpt lat="42.20260637061424" lon="19.533368893539304"><ele>256.0</ele><time>2026-05-01T16:57:49Z</time></trkpt><trkpt lat="42.202519477906215" lon="19.533206532270075"><ele>255.66666666666666</ele><time>2026-05-01T16:57:51Z</time></trkpt><trkpt lat="42.20246501662095" lon="19.533135817609114"><ele>255.33333333333331</ele><time>2026-05-01T16:57:52Z</time></trkpt><trkpt lat="42.20240387436193" lon="19.53307892687054"><ele>255.0</ele><time>2026-05-01T16:57:53Z</time></trkpt><trkpt lat="42.20237434963189" lon="19.533001723325246"><ele>254.66666666666669</ele><time>2026-05-01T16:57:54Z</time></trkpt><trkpt lat="42.20234206682187" lon="19.532928161673713"><ele>254.33333333333334</ele><time>2026-05-01T16:57:55Z</time></trkpt><trkpt lat="42.20224175869962" lon="19.532828377389468"><ele>254.0</ele><time>2026-05-01T16:57:57Z</time></trkpt><trkpt lat="42.20215730302713" lon="19.532720930120096"><ele>252.79999999999998</ele><time>2026-05-01T16:57:59Z</time></trkpt><trkpt lat="42.202123483129526" lon="19.53258217496914"><ele>251.59999999999997</ele><time>2026-05-01T16:58:01Z</time></trkpt><trkpt lat="42.20211830253536" lon="19.532485737556296"><ele>250.4</ele><time>2026-05-01T16:58:02Z</time></trkpt><trkpt lat="42.20209843449708" lon="19.53236348346824"><ele>249.2</ele><time>2026-05-01T16:58:03Z</time></trkpt><trkpt lat="42.202061873172845" lon="19.532238711945915"><ele>248.0</ele><time>2026-05-01T16:58:04Z</time></trkpt><trkpt lat="42.20204440110605" lon="19.53213349525174"><ele>246.8</ele><time>2026-05-01T16:58:05Z</time></trkpt><trkpt lat="42.20204132134175" lon="19.532015275756144"><ele>245.60000000000002</ele><time>2026-05-01T16:58:06Z</time></trkpt><trkpt lat="42.202012029054565" lon="19.531929221155874"><ele>244.39999999999998</ele><time>2026-05-01T16:58:07Z</time></trkpt><trkpt lat="42.201980121365835" lon="19.53177544104934"><ele>243.2</ele><time>2026-05-01T16:58:09Z</time></trkpt><trkpt lat="42.20192796524861" lon="19.531630907168314"><ele>242.0</ele><time>2026-05-01T16:58:11Z</time></trkpt><trkpt lat="42.20185981996274" lon="19.531572708109614"><ele>242.0</ele><time>2026-05-01T16:58:12Z</time></trkpt><trkpt lat="42.20176024444426" lon="19.531495884735914"><ele>242.0</ele><time>2026-05-01T16:58:14Z</time></trkpt><trkpt lat="42.20170731485208" lon="19.531382169898237"><ele>242.0</ele><time>2026-05-01T16:58:16Z</time></trkpt><trkpt lat="42.20163081543028" lon="19.531228289708192"><ele>242.0</ele><time>2026-05-01T16:58:18Z</time></trkpt><trkpt lat="42.20158661309557" lon="19.53111281149492"><ele>242.0</ele><time>2026-05-01T16:58:19Z</time></trkpt><trkpt lat="42.20155179696136" lon="19.531027786124678"><ele>242.0</ele><time>2026-05-01T16:58:20Z</time></trkpt><trkpt lat="42.20151696187661" lon="19.530947916975865"><ele>241.99999999999997</ele><time>2026-05-01T16:58:21Z</time></trkpt><trkpt lat="42.201484872206784" lon="19.530847675980006"><ele>242.0</ele><time>2026-05-01T16:58:22Z</time></trkpt><trkpt lat="42.20146062772958" lon="19.530747255157948"><ele>242.0</ele><time>2026-05-01T16:58:23Z</time></trkpt><trkpt lat="42.20144557010754" lon="19.530664361345433"><ele>241.99999999999997</ele><time>2026-05-01T16:58:24Z</time></trkpt><trkpt lat="42.201429568797124" lon="19.530579599810117"><ele>242.0</ele><time>2026-05-01T16:58:25Z</time></trkpt><trkpt lat="42.201421469485" lon="19.530491458059174"><ele>242.0</ele><time>2026-05-01T16:58:26Z</time></trkpt><trkpt lat="42.201411396995546" lon="19.53040492693361"><ele>240.00000000000003</ele><time>2026-05-01T16:58:27Z</time></trkpt><trkpt lat="42.201403824761016" lon="19.53031785037279"><ele>238.0</ele><time>2026-05-01T16:58:28Z</time></trkpt><trkpt lat="42.20139097072004" lon="19.530184450656467"><ele>236.0</ele><time>2026-05-01T16:58:30Z</time></trkpt><trkpt lat="42.201300488055104" lon="19.53009674581073"><ele>234.0</ele><time>2026-05-01T16:58:32Z</time></trkpt><trkpt lat="42.20124396434261" lon="19.53003593015674"><ele>232.00000000000003</ele><time>2026-05-01T16:58:33Z</time></trkpt><trkpt lat="42.20118504775835" lon="19.529975702482528"><ele>230.0</ele><time>2026-05-01T16:58:34Z</time></trkpt><trkpt lat="42.20107996358976" lon="19.529870607231814"><ele>230.00000000000003</ele><time>2026-05-01T16:58:36Z</time></trkpt><trkpt lat="42.201028115296886" lon="19.52981860959192"><ele>230.0</ele><time>2026-05-01T16:58:37Z</time></trkpt><trkpt lat="42.20097137822959" lon="19.529761658918158"><ele>230.0</ele><time>2026-05-01T16:58:39Z</time></trkpt><trkpt lat="42.20088676843981" lon="19.529872101114396"><ele>230.0</ele><time>2026-05-01T16:58:44Z</time></trkpt><trkpt lat="42.20086424630035" lon="19.52996715388914"><ele>230.00000000000003</ele><time>2026-05-01T16:58:45Z</time></trkpt><trkpt lat="42.20085087000322" lon="19.53009546961166"><ele>230.0</ele><time>2026-05-01T16:58:46Z</time></trkpt><trkpt lat="42.200822507155785" lon="19.530195763946644"><ele>230.0</ele><time>2026-05-01T16:58:47Z</time></trkpt><trkpt lat="42.200791983321764" lon="19.53027084172698"><ele>230.0</ele><time>2026-05-01T16:58:48Z</time></trkpt><trkpt lat="42.200719133683656" lon="19.530448241203185"><ele>230.0</ele><time>2026-05-01T16:58:50Z</time></trkpt><trkpt lat="42.20067929606408" lon="19.530550135783333"><ele>230.0</ele><time>2026-05-01T16:58:51Z</time></trkpt><trkpt lat="42.200635683485515" lon="19.530644677092557"><ele>230.0</ele><time>2026-05-01T16:58:52Z</time></trkpt><trkpt lat="42.20059300057254" lon="19.53079144156011"><ele>230.16666666666669</ele><time>2026-05-01T16:58:54Z</time></trkpt><trkpt lat="42.20053949925431" lon="19.530857323599207"><ele>230.33333333333334</ele><time>2026-05-01T16:58:55Z</time></trkpt><trkpt lat="42.20049364089403" lon="19.530927046746935"><ele>230.5</ele><time>2026-05-01T16:58:56Z</time></trkpt><trkpt lat="42.20043606078307" lon="19.531005567604858"><ele>230.66666666666669</ele><time>2026-05-01T16:58:57Z</time></trkpt><trkpt lat="42.20039256857956" lon="19.531080671917593"><ele>230.83333333333334</ele><time>2026-05-01T16:58:58Z</time></trkpt><trkpt lat="42.20031688517182" lon="19.531150961472584"><ele>231.0</ele><time>2026-05-01T16:58:59Z</time></trkpt><trkpt lat="42.20022892210641" lon="19.531201315140915"><ele>231.66666666666666</ele><time>2026-05-01T16:59:00Z</time></trkpt><trkpt lat="42.20015020053934" lon="19.53125782768773"><ele>232.33333333333331</ele><time>2026-05-01T16:59:00.999Z</time></trkpt><trkpt lat="42.20008781129893" lon="19.531298655389868"><ele>233.0</ele><time>2026-05-01T16:59:01.999Z</time></trkpt><trkpt lat="42.1999742136873" lon="19.531374359144056"><ele>233.66666666666666</ele><time>2026-05-01T16:59:03.999Z</time></trkpt><trkpt lat="42.199896991190364" lon="19.53140891362537"><ele>234.33333333333331</ele><time>2026-05-01T16:59:04.999Z</time></trkpt><trkpt lat="42.19982403068322" lon="19.53137879160056"><ele>235.0</ele><time>2026-05-01T16:59:05.999Z</time></trkpt><trkpt lat="42.19972261817422" lon="19.53142354026682"><ele>234.99999999999997</ele><time>2026-05-01T16:59:07.999Z</time></trkpt><trkpt lat="42.19962320182145" lon="19.531465650391368"><ele>235.0</ele><time>2026-05-01T16:59:09.999Z</time></trkpt><trkpt lat="42.19955092067623" lon="19.53150645093555"><ele>235.0</ele><time>2026-05-01T16:59:10.999Z</time></trkpt><trkpt lat="42.19946858594128" lon="19.531522698535504"><ele>235.0</ele><time>2026-05-01T16:59:11.999Z</time></trkpt><trkpt lat="42.199393448181965" lon="19.53157453967462"><ele>234.99999999999997</ele><time>2026-05-01T16:59:12.999Z</time></trkpt><trkpt lat="42.19931200203405" lon="19.531609528345385"><ele>235.0</ele><time>2026-05-01T16:59:13.999Z</time></trkpt><trkpt lat="42.199240881330184" lon="19.531651202915885"><ele>235.0</ele><time>2026-05-01T16:59:14.999Z</time></trkpt><trkpt lat="42.199175354860394" lon="19.531631075964878"><ele>235.0</ele><time>2026-05-01T16:59:15.999Z</time></trkpt><trkpt lat="42.199064457634044" lon="19.531590527124603"><ele>235.0</ele><time>2026-05-01T16:59:17.999Z</time></trkpt><trkpt lat="42.19896229832789" lon="19.53147649159378"><ele>235.0</ele><time>2026-05-01T16:59:19.999Z</time></trkpt><trkpt lat="42.19889289907832" lon="19.531414078933523"><ele>235.0</ele><time>2026-05-01T16:59:20.999Z</time></trkpt><trkpt lat="42.198810740923335" lon="19.53135485333927"><ele>234.4</ele><time>2026-05-01T16:59:21.999Z</time></trkpt><trkpt lat="42.19871337811363" lon="19.53128473907023"><ele>233.8</ele><time>2026-05-01T16:59:23.999Z</time></trkpt><trkpt lat="42.19862065302674" lon="19.53127718329809"><ele>233.2</ele><time>2026-05-01T16:59:25.999Z</time></trkpt><trkpt lat="42.19850210503648" lon="19.531341278992453"><ele>232.6</ele><time>2026-05-01T16:59:27.999Z</time></trkpt><trkpt lat="42.19843386412753" lon="19.53139034221856"><ele>232.0</ele><time>2026-05-01T16:59:28.999Z</time></trkpt><trkpt lat="42.19837837588189" lon="19.531452684281874"><ele>231.99999999999997</ele><time>2026-05-01T16:59:30Z</time></trkpt><trkpt lat="42.198326776695254" lon="19.531503952364876"><ele>232.0</ele><time>2026-05-01T16:59:31Z</time></trkpt><trkpt lat="42.19823956573529" lon="19.531580378890006"><ele>232.0</ele><time>2026-05-01T16:59:33Z</time></trkpt><trkpt lat="42.19815947920729" lon="19.531545801252168"><ele>232.0</ele><time>2026-05-01T16:59:35Z</time></trkpt><trkpt lat="42.198096850321214" lon="19.531481911300283"><ele>231.99999999999997</ele><time>2026-05-01T16:59:37Z</time></trkpt><trkpt lat="42.19802763795774" lon="19.531415787999293"><ele>232.0</ele><time>2026-05-01T16:59:39Z</time></trkpt><trkpt lat="42.19795313571367" lon="19.531306531791248"><ele>231.33333333333331</ele><time>2026-05-01T16:59:41Z</time></trkpt><trkpt lat="42.197893538027444" lon="19.531187030943386"><ele>230.66666666666666</ele><time>2026-05-01T16:59:43Z</time></trkpt><trkpt lat="42.19785838796971" lon="19.531115637018008"><ele>230.0</ele><time>2026-05-01T16:59:44Z</time></trkpt><trkpt lat="42.19781793058675" lon="19.531033463205773"><ele>229.33333333333331</ele><time>2026-05-01T16:59:45Z</time></trkpt><trkpt lat="42.197777234341366" lon="19.53095652994555"><ele>228.66666666666666</ele><time>2026-05-01T16:59:46Z</time></trkpt><trkpt lat="42.19772238956457" lon="19.530891299724214"><ele>228.0</ele><time>2026-05-01T16:59:47Z</time></trkpt><trkpt lat="42.19769307142964" lon="19.5308027533505"><ele>228.0</ele><time>2026-05-01T16:59:48Z</time></trkpt><trkpt lat="42.19759033176354" lon="19.53073883232995"><ele>228.0</ele><time>2026-05-01T16:59:50Z</time></trkpt><trkpt lat="42.197479296673684" lon="19.530643752980897"><ele>228.0</ele><time>2026-05-01T16:59:52Z</time></trkpt><trkpt lat="42.19740885473685" lon="19.530603282180216"><ele>228.0</ele><time>2026-05-01T16:59:53Z</time></trkpt><trkpt lat="42.197335633332045" lon="19.530559951056667"><ele>228.0</ele><time>2026-05-01T16:59:54Z</time></trkpt><trkpt lat="42.19726190646157" lon="19.530513393008533"><ele>227.66666666666666</ele><time>2026-05-01T16:59:55Z</time></trkpt><trkpt lat="42.197194020641504" lon="19.530470239208736"><ele>227.33333333333331</ele><time>2026-05-01T16:59:56Z</time></trkpt><trkpt lat="42.19713071439787" lon="19.53043027169923"><ele>227.0</ele><time>2026-05-01T16:59:57Z</time></trkpt><trkpt lat="42.197066741644406" lon="19.53038441696902"><ele>226.66666666666666</ele><time>2026-05-01T16:59:58Z</time></trkpt><trkpt lat="42.19700362675158" lon="19.530335844844473"><ele>226.33333333333331</ele><time>2026-05-01T16:59:59Z</time></trkpt><trkpt lat="42.19688657611741" lon="19.53024745964655"><ele>226.0</ele><time>2026-05-01T17:00:01Z</time></trkpt><trkpt lat="42.19681550290359" lon="19.53019374702209"><ele>225.99999999999997</ele><time>2026-05-01T17:00:02Z</time></trkpt><trkpt lat="42.196692620379075" lon="19.530135328854612"><ele>226.0</ele><time>2026-05-01T17:00:04Z</time></trkpt><trkpt lat="42.19661854015499" lon="19.530124282838845"><ele>226.0</ele><time>2026-05-01T17:00:05Z</time></trkpt><trkpt lat="42.196545450053954" lon="19.53010956766219"><ele>226.0</ele><time>2026-05-01T17:00:06Z</time></trkpt><trkpt lat="42.19647935648954" lon="19.530095733464577"><ele>225.99999999999997</ele><time>2026-05-01T17:00:07Z</time></trkpt><trkpt lat="42.19641625132913" lon="19.53014330869302"><ele>226.0</ele><time>2026-05-01T17:00:08Z</time></trkpt><trkpt lat="42.196344889138864" lon="19.530132426921583"><ele>225.57142857142858</ele><time>2026-05-01T17:00:09Z</time></trkpt><trkpt lat="42.196261329596" lon="19.53014231425518"><ele>225.14285714285714</ele><time>2026-05-01T17:00:10Z</time></trkpt><trkpt lat="42.19619545191164" lon="19.53015010935986"><ele>224.71428571428572</ele><time>2026-05-01T17:00:11Z</time></trkpt><trkpt lat="42.196127153631856" lon="19.53015822240294"><ele>224.28571428571428</ele><time>2026-05-01T17:00:12Z</time></trkpt><trkpt lat="42.19605718122409" lon="19.530170213006"><ele>223.85714285714283</ele><time>2026-05-01T17:00:13Z</time></trkpt><trkpt lat="42.19599863727893" lon="19.530205024096844"><ele>223.42857142857142</ele><time>2026-05-01T17:00:14Z</time></trkpt><trkpt lat="42.19590230920002" lon="19.53020937274731"><ele>223.0</ele><time>2026-05-01T17:00:16Z</time></trkpt><trkpt lat="42.195805783267076" lon="19.530233283865982"><ele>223.0</ele><time>2026-05-01T17:00:18Z</time></trkpt><trkpt lat="42.19569775652765" lon="19.530238046896383"><ele>223.0</ele><time>2026-05-01T17:00:20Z</time></trkpt><trkpt lat="42.19559781592544" lon="19.53016493533481"><ele>223.0</ele><time>2026-05-01T17:00:22Z</time></trkpt><trkpt lat="42.19553361413386" lon="19.530127089023377"><ele>223.0</ele><time>2026-05-01T17:00:23Z</time></trkpt><trkpt lat="42.195437555573235" lon="19.53007046338668"><ele>223.0</ele><time>2026-05-01T17:00:25Z</time></trkpt><trkpt lat="42.195345377210664" lon="19.530011829367474"><ele>222.0</ele><time>2026-05-01T17:00:27Z</time></trkpt><trkpt lat="42.19523726344788" lon="19.529938846932513"><ele>221.0</ele><time>2026-05-01T17:00:29Z</time></trkpt><trkpt lat="42.195135443889995" lon="19.529870113323543"><ele>220.0</ele><time>2026-05-01T17:00:31Z</time></trkpt><trkpt lat="42.1950747410424" lon="19.52983355942685"><ele>219.0</ele><time>2026-05-01T17:00:32Z</time></trkpt><trkpt lat="42.194971103060105" lon="19.529722343924885"><ele>218.0</ele><time>2026-05-01T17:00:34Z</time></trkpt><trkpt lat="42.19491519913375" lon="19.529662352352076"><ele>218.0</ele><time>2026-05-01T17:00:35Z</time></trkpt><trkpt lat="42.19485809157124" lon="19.529601069246613"><ele>218.0</ele><time>2026-05-01T17:00:36Z</time></trkpt><trkpt lat="42.194799500015215" lon="19.529523042330734"><ele>218.0</ele><time>2026-05-01T17:00:37Z</time></trkpt><trkpt lat="42.194731161508884" lon="19.52941880210912"><ele>218.0</ele><time>2026-05-01T17:00:38Z</time></trkpt><trkpt lat="42.19465389052197" lon="19.52930018845867"><ele>218.0</ele><time>2026-05-01T17:00:39Z</time></trkpt><trkpt lat="42.194572754101415" lon="19.529174388909713"><ele>217.4</ele><time>2026-05-01T17:00:40Z</time></trkpt><trkpt lat="42.194492435577374" lon="19.529048597266325"><ele>216.8</ele><time>2026-05-01T17:00:41Z</time></trkpt><trkpt lat="42.194426106998925" lon="19.52894426903472"><ele>216.2</ele><time>2026-05-01T17:00:42Z</time></trkpt><trkpt lat="42.19436456430698" lon="19.528848040686917"><ele>215.6</ele><time>2026-05-01T17:00:43Z</time></trkpt><trkpt lat="42.1943072314629" lon="19.528758085053344"><ele>215.0</ele><time>2026-05-01T17:00:44Z</time></trkpt><trkpt lat="42.19426114820966" lon="19.52868534225323"><ele>215.00000000000003</ele><time>2026-05-01T17:00:45Z</time></trkpt><trkpt lat="42.19421683882272" lon="19.528614355484955"><ele>215.0</ele><time>2026-05-01T17:00:46Z</time></trkpt><trkpt lat="42.19416669224595" lon="19.528534017290557"><ele>215.0</ele><time>2026-05-01T17:00:47Z</time></trkpt><trkpt lat="42.194110468687356" lon="19.528449290893985"><ele>215.0</ele><time>2026-05-01T17:00:48Z</time></trkpt><trkpt lat="42.19406672008201" lon="19.528383983560524"><ele>215.00000000000003</ele><time>2026-05-01T17:00:49Z</time></trkpt><trkpt lat="42.19399584155308" lon="19.528333186167117"><ele>215.0</ele><time>2026-05-01T17:00:50Z</time></trkpt><trkpt lat="42.193895638085564" lon="19.52824065303232"><ele>212.0</ele><time>2026-05-01T17:00:52Z</time></trkpt><trkpt lat="42.19379952485162" lon="19.528151093539268"><ele>209.0</ele><time>2026-05-01T17:00:54Z</time></trkpt><trkpt lat="42.19376119288375" lon="19.52806498641504"><ele>206.0</ele><time>2026-05-01T17:00:56Z</time></trkpt><trkpt lat="42.1937125275702" lon="19.527941994812704"><ele>203.0</ele><time>2026-05-01T17:00:58Z</time></trkpt><trkpt lat="42.19367555815162" lon="19.527848801500728"><ele>200.0</ele><time>2026-05-01T17:01:00Z</time></trkpt><trkpt lat="42.19360359855237" lon="19.527800228840785"><ele>200.0</ele><time>2026-05-01T17:01:02Z</time></trkpt><trkpt lat="42.19352439914544" lon="19.527733752748937"><ele>200.0</ele><time>2026-05-01T17:01:05Z</time></trkpt><trkpt lat="42.193446396149625" lon="19.527668280530477"><ele>200.0</ele><time>2026-05-01T17:01:08Z</time></trkpt><trkpt lat="42.19333424584668" lon="19.527574146673768"><ele>200.0</ele><time>2026-05-01T17:01:10Z</time></trkpt><trkpt lat="42.19325733486986" lon="19.527509755176727"><ele>200.0</ele><time>2026-05-01T17:01:11Z</time></trkpt><trkpt lat="42.193175063795415" lon="19.527441364251683"><ele>198.6</ele><time>2026-05-01T17:01:11.999Z</time></trkpt><trkpt lat="42.19308206139563" lon="19.527364211156367"><ele>197.2</ele><time>2026-05-01T17:01:12.999Z</time></trkpt><trkpt lat="42.192996237537194" lon="19.5272932850359"><ele>195.8</ele><time>2026-05-01T17:01:13.999Z</time></trkpt><trkpt lat="42.19292624787709" lon="19.527233843082588"><ele>194.4</ele><time>2026-05-01T17:01:14.999Z</time></trkpt><trkpt lat="42.192861852620965" lon="19.52717741026746"><ele>193.0</ele><time>2026-05-01T17:01:15.999Z</time></trkpt><trkpt lat="42.19279444853316" lon="19.527118411937682"><ele>193.4</ele><time>2026-05-01T17:01:16.999Z</time></trkpt><trkpt lat="42.1927190288778" lon="19.527052397781738"><ele>193.8</ele><time>2026-05-01T17:01:17.999Z</time></trkpt><trkpt lat="42.192640556010055" lon="19.526983711562135"><ele>194.2</ele><time>2026-05-01T17:01:18.999Z</time></trkpt><trkpt lat="42.19254526432739" lon="19.526951315207146"><ele>194.6</ele><time>2026-05-01T17:01:19.999Z</time></trkpt><trkpt lat="42.19244965365551" lon="19.526906235314687"><ele>195.0</ele><time>2026-05-01T17:01:20.999Z</time></trkpt><trkpt lat="42.19233574360569" lon="19.526868202630276"><ele>194.0</ele><time>2026-05-01T17:01:21.999Z</time></trkpt><trkpt lat="42.19221285384899" lon="19.526826537634502"><ele>193.0</ele><time>2026-05-01T17:01:22.999Z</time></trkpt><trkpt lat="42.192109704368605" lon="19.52678959075634"><ele>192.0</ele><time>2026-05-01T17:01:23.999Z</time></trkpt><trkpt lat="42.192032968805364" lon="19.526768600897608"><ele>191.0</ele><time>2026-05-01T17:01:24.999Z</time></trkpt><trkpt lat="42.191945655213026" lon="19.526744155503877"><ele>190.0</ele><time>2026-05-01T17:01:25.999Z</time></trkpt><trkpt lat="42.19183332739372" lon="19.526707063780503"><ele>190.0</ele><time>2026-05-01T17:01:26.999Z</time></trkpt><trkpt lat="42.19173946279554" lon="19.52667363231554"><ele>190.0</ele><time>2026-05-01T17:01:27.999Z</time></trkpt><trkpt lat="42.191661017926656" lon="19.526645692887776"><ele>190.0</ele><time>2026-05-01T17:01:28.999Z</time></trkpt><trkpt lat="42.191585447272885" lon="19.526575410259397"><ele>190.0</ele><time>2026-05-01T17:01:30.999Z</time></trkpt><trkpt lat="42.19149016691808" lon="19.52648875008507"><ele>190.0</ele><time>2026-05-01T17:01:32.999Z</time></trkpt><trkpt lat="42.19148924800229" lon="19.52636474383662"><ele>189.83333333333334</ele><time>2026-05-01T17:01:35Z</time></trkpt><trkpt lat="42.19147304823956" lon="19.52627994737325"><ele>189.66666666666669</ele><time>2026-05-01T17:01:36Z</time></trkpt><trkpt lat="42.19145454856706" lon="19.526165948481076"><ele>189.5</ele><time>2026-05-01T17:01:37Z</time></trkpt><trkpt lat="42.19143948032938" lon="19.526030636980796"><ele>189.33333333333334</ele><time>2026-05-01T17:01:38Z</time></trkpt><trkpt lat="42.19142607432409" lon="19.525910252966455"><ele>189.16666666666666</ele><time>2026-05-01T17:01:39Z</time></trkpt><trkpt lat="42.19141908659375" lon="19.52581955332238"><ele>189.0</ele><time>2026-05-01T17:01:40Z</time></trkpt><trkpt lat="42.191400907581276" lon="19.5256666023338"><ele>188.16666666666666</ele><time>2026-05-01T17:01:42Z</time></trkpt><trkpt lat="42.19138100075666" lon="19.525569420359574"><ele>187.33333333333334</ele><time>2026-05-01T17:01:43Z</time></trkpt><trkpt lat="42.191360352296094" lon="19.525465297350475"><ele>186.5</ele><time>2026-05-01T17:01:44Z</time></trkpt><trkpt lat="42.191348186559814" lon="19.52536303047294"><ele>185.66666666666669</ele><time>2026-05-01T17:01:45Z</time></trkpt><trkpt lat="42.19133689071429" lon="19.525268457778484"><ele>184.83333333333334</ele><time>2026-05-01T17:01:46Z</time></trkpt><trkpt lat="42.191320129174755" lon="19.525164118793175"><ele>184.0</ele><time>2026-05-01T17:01:47Z</time></trkpt><trkpt lat="42.191303458805905" lon="19.525069912178825"><ele>183.83333333333334</ele><time>2026-05-01T17:01:48Z</time></trkpt><trkpt lat="42.191283892380106" lon="19.524959338357718"><ele>183.66666666666669</ele><time>2026-05-01T17:01:49Z</time></trkpt><trkpt lat="42.19126370387954" lon="19.524854965732636"><ele>183.5</ele><time>2026-05-01T17:01:50Z</time></trkpt><trkpt lat="42.191240833508594" lon="19.524736323051116"><ele>183.33333333333334</ele><time>2026-05-01T17:01:51Z</time></trkpt><trkpt lat="42.19122475651672" lon="19.524652919118463"><ele>183.16666666666666</ele><time>2026-05-01T17:01:52Z</time></trkpt><trkpt lat="42.191216773900884" lon="19.524479301262506"><ele>183.0</ele><time>2026-05-01T17:01:54Z</time></trkpt><trkpt lat="42.19120795861741" lon="19.524356804630266"><ele>182.5</ele><time>2026-05-01T17:01:55Z</time></trkpt><trkpt lat="42.191175179469425" lon="19.5242594369704"><ele>182.0</ele><time>2026-05-01T17:01:56Z</time></trkpt><trkpt lat="42.191159846775804" lon="19.524141829356246"><ele>181.5</ele><time>2026-05-01T17:01:57Z</time></trkpt><trkpt lat="42.191135564607904" lon="19.524032373105655"><ele>181.0</ele><time>2026-05-01T17:01:58Z</time></trkpt><trkpt lat="42.19111080773285" lon="19.52391712941777"><ele>180.5</ele><time>2026-05-01T17:01:59Z</time></trkpt><trkpt lat="42.19108875292845" lon="19.523814462775885"><ele>180.0</ele><time>2026-05-01T17:02:00Z</time></trkpt><trkpt lat="42.191079720858006" lon="19.523657985807063"><ele>179.2</ele><time>2026-05-01T17:02:02Z</time></trkpt><trkpt lat="42.19109204734073" lon="19.523531412238707"><ele>178.4</ele><time>2026-05-01T17:02:04Z</time></trkpt><trkpt lat="42.19110362451963" lon="19.52339236109826"><ele>177.60000000000002</ele><time>2026-05-01T17:02:06Z</time></trkpt><trkpt lat="42.191112820277226" lon="19.523282372025093"><ele>176.8</ele><time>2026-05-01T17:02:08Z</time></trkpt><trkpt lat="42.1911170063974" lon="19.523112574102402"><ele>176.0</ele><time>2026-05-01T17:02:10Z</time></trkpt><trkpt lat="42.19111842653335" lon="19.522985991904505"><ele>175.83333333333331</ele><time>2026-05-01T17:02:11Z</time></trkpt><trkpt lat="42.191113664963964" lon="19.52285378259553"><ele>175.66666666666666</ele><time>2026-05-01T17:02:12Z</time></trkpt><trkpt lat="42.19110629666561" lon="19.52274955067674"><ele>175.5</ele><time>2026-05-01T17:02:13Z</time></trkpt><trkpt lat="42.19109959795815" lon="19.52265392829139"><ele>175.33333333333334</ele><time>2026-05-01T17:02:14Z</time></trkpt><trkpt lat="42.19109142448182" lon="19.522536084356474"><ele>175.16666666666669</ele><time>2026-05-01T17:02:15Z</time></trkpt><trkpt lat="42.19107748103176" lon="19.52240212133199"><ele>175.0</ele><time>2026-05-01T17:02:16Z</time></trkpt><trkpt lat="42.191062645070154" lon="19.522290489928494"><ele>175.0</ele><time>2026-05-01T17:02:17Z</time></trkpt><trkpt lat="42.19105123615768" lon="19.522204643265713"><ele>175.0</ele><time>2026-05-01T17:02:18Z</time></trkpt><trkpt lat="42.19101008063455" lon="19.52208073762155"><ele>175.0</ele><time>2026-05-01T17:02:20Z</time></trkpt><trkpt lat="42.190974257585516" lon="19.52198775391091"><ele>175.0</ele><time>2026-05-01T17:02:22Z</time></trkpt><trkpt lat="42.19091445042251" lon="19.52185881320738"><ele>175.0</ele><time>2026-05-01T17:02:24Z</time></trkpt><trkpt lat="42.19086447385044" lon="19.521754269906804"><ele>175.0</ele><time>2026-05-01T17:02:26Z</time></trkpt><trkpt lat="42.19082088385167" lon="19.521664284643144"><ele>174.8</ele><time>2026-05-01T17:02:28Z</time></trkpt><trkpt lat="42.19077471281293" lon="19.521571083881952"><ele>174.6</ele><time>2026-05-01T17:02:30Z</time></trkpt><trkpt lat="42.19072312715275" lon="19.521465504554843"><ele>174.39999999999998</ele><time>2026-05-01T17:02:33Z</time></trkpt><trkpt lat="42.19069367243768" lon="19.521365368032953"><ele>174.2</ele><time>2026-05-01T17:02:35Z</time></trkpt><trkpt lat="42.19066194872582" lon="19.52124893762335"><ele>174.0</ele><time>2026-05-01T17:02:37Z</time></trkpt><trkpt lat="42.19062030209276" lon="19.521093984426127"><ele>173.2</ele><time>2026-05-01T17:02:39Z</time></trkpt><trkpt lat="42.190595619678625" lon="19.52099948162348"><ele>172.39999999999998</ele><time>2026-05-01T17:02:40Z</time></trkpt><trkpt lat="42.19056823758245" lon="19.520896390421804"><ele>171.6</ele><time>2026-05-01T17:02:41Z</time></trkpt><trkpt lat="42.19053749842476" lon="19.520780660336225"><ele>170.8</ele><time>2026-05-01T17:02:42Z</time></trkpt><trkpt lat="42.190507352185705" lon="19.52066433563242"><ele>170.0</ele><time>2026-05-01T17:02:43Z</time></trkpt><trkpt lat="42.19046927299006" lon="19.52050220674442"><ele>169.2</ele><time>2026-05-01T17:02:45Z</time></trkpt><trkpt lat="42.19044368998954" lon="19.520392644337875"><ele>168.4</ele><time>2026-05-01T17:02:46Z</time></trkpt><trkpt lat="42.190413989613475" lon="19.5202644494762"><ele>167.60000000000002</ele><time>2026-05-01T17:02:47Z</time></trkpt><trkpt lat="42.19037954453018" lon="19.520113303083665"><ele>166.8</ele><time>2026-05-01T17:02:48Z</time></trkpt><trkpt lat="42.19035067371805" lon="19.519985186050842"><ele>166.0</ele><time>2026-05-01T17:02:49Z</time></trkpt><trkpt lat="42.19032373711418" lon="19.519864387844148"><ele>166.0</ele><time>2026-05-01T17:02:50Z</time></trkpt><trkpt lat="42.190297308100554" lon="19.519756475983073"><ele>166.0</ele><time>2026-05-01T17:02:51Z</time></trkpt><trkpt lat="42.190272893825224" lon="19.519668830233677"><ele>166.0</ele><time>2026-05-01T17:02:52Z</time></trkpt><trkpt lat="42.190242533430705" lon="19.51955983822828"><ele>166.0</ele><time>2026-05-01T17:02:53Z</time></trkpt><trkpt lat="42.19020835846618" lon="19.519435844805407"><ele>166.0</ele><time>2026-05-01T17:02:54Z</time></trkpt><trkpt lat="42.19017306164624" lon="19.519335032072128"><ele>166.0</ele><time>2026-05-01T17:02:55Z</time></trkpt><trkpt lat="42.190143480003115" lon="19.519254584441118"><ele>166.20000000000002</ele><time>2026-05-01T17:02:56Z</time></trkpt><trkpt lat="42.19011071381944" lon="19.51916547810882"><ele>166.4</ele><time>2026-05-01T17:02:57Z</time></trkpt><trkpt lat="42.19002847990156" lon="19.51910592263274"><ele>166.6</ele><time>2026-05-01T17:02:58Z</time></trkpt><trkpt lat="42.1899429526932" lon="19.519045968727443"><ele>166.8</ele><time>2026-05-01T17:03:00Z</time></trkpt><trkpt lat="42.18982339337113" lon="19.51893080133573"><ele>167.0</ele><time>2026-05-01T17:03:02Z</time></trkpt><trkpt lat="42.18973621987431" lon="19.518853687926907"><ele>167.0</ele><time>2026-05-01T17:03:03Z</time></trkpt><trkpt lat="42.189634886483454" lon="19.518754151305988"><ele>167.0</ele><time>2026-05-01T17:03:04Z</time></trkpt><trkpt lat="42.1895242935196" lon="19.51861885247291"><ele>167.0</ele><time>2026-05-01T17:03:05Z</time></trkpt><trkpt lat="42.189418692141565" lon="19.518512450499728"><ele>167.0</ele><time>2026-05-01T17:03:06Z</time></trkpt><trkpt lat="42.18933374799361" lon="19.518427669449476"><ele>167.0</ele><time>2026-05-01T17:03:07Z</time></trkpt><trkpt lat="42.18923426657068" lon="19.518329053163974"><ele>167.0</ele><time>2026-05-01T17:03:08Z</time></trkpt><trkpt lat="42.189146600571725" lon="19.5182427111501"><ele>167.0</ele><time>2026-05-01T17:03:09Z</time></trkpt><trkpt lat="42.18907084186119" lon="19.51816817369738"><ele>167.0</ele><time>2026-05-01T17:03:09.999Z</time></trkpt><trkpt lat="42.18898173366266" lon="19.51810331667079"><ele>167.0</ele><time>2026-05-01T17:03:10.999Z</time></trkpt><trkpt lat="42.18891161481748" lon="19.5180404010278"><ele>166.5</ele><time>2026-05-01T17:03:11.999Z</time></trkpt><trkpt lat="42.1888559336919" lon="19.517959229679768"><ele>166.0</ele><time>2026-05-01T17:03:12.999Z</time></trkpt><trkpt lat="42.18879240003441" lon="19.51787920249537"><ele>165.5</ele><time>2026-05-01T17:03:13.999Z</time></trkpt><trkpt lat="42.188732305418206" lon="19.51780612918853"><ele>165.0</ele><time>2026-05-01T17:03:14.999Z</time></trkpt><trkpt lat="42.18867584865224" lon="19.517737421215447"><ele>164.5</ele><time>2026-05-01T17:03:15.999Z</time></trkpt><trkpt lat="42.18864790951206" lon="19.517641119241755"><ele>164.0</ele><time>2026-05-01T17:03:16.999Z</time></trkpt><trkpt lat="42.18859842181325" lon="19.517530524644798"><ele>163.5</ele><time>2026-05-01T17:03:17.999Z</time></trkpt><trkpt lat="42.18854491740053" lon="19.5173866012067"><ele>163.0</ele><time>2026-05-01T17:03:18.999Z</time></trkpt><trkpt lat="42.188497195023764" lon="19.517256194836804"><ele>162.5</ele><time>2026-05-01T17:03:19.999Z</time></trkpt><trkpt lat="42.188448950304526" lon="19.51712448241396"><ele>162.0</ele><time>2026-05-01T17:03:20.999Z</time></trkpt><trkpt lat="42.188387453374105" lon="19.516974888123876"><ele>163.0</ele><time>2026-05-01T17:03:21.999Z</time></trkpt><trkpt lat="42.188327293237144" lon="19.516856946802314"><ele>164.0</ele><time>2026-05-01T17:03:22.999Z</time></trkpt><trkpt lat="42.188260436281425" lon="19.516723296418807"><ele>165.0</ele><time>2026-05-01T17:03:23.999Z</time></trkpt><trkpt lat="42.18818273840304" lon="19.51656911827503"><ele>166.0</ele><time>2026-05-01T17:03:24.999Z</time></trkpt><trkpt lat="42.18810439392652" lon="19.51641228965631"><ele>163.75</ele><time>2026-05-01T17:03:25.999Z</time></trkpt><trkpt lat="42.18803260740972" lon="19.516266591414805"><ele>161.5</ele><time>2026-05-01T17:03:26.999Z</time></trkpt><trkpt lat="42.18796779036632" lon="19.51613435886385"><ele>159.25</ele><time>2026-05-01T17:03:27.999Z</time></trkpt><trkpt lat="42.187892954399636" lon="19.515980603307803"><ele>157.0</ele><time>2026-05-01T17:03:28.999Z</time></trkpt><trkpt lat="42.187816186267405" lon="19.5158219665128"><ele>156.79999999999998</ele><time>2026-05-01T17:03:29.999Z</time></trkpt><trkpt lat="42.18776010596887" lon="19.51570489148822"><ele>156.6</ele><time>2026-05-01T17:03:30.999Z</time></trkpt><trkpt lat="42.18771601722041" lon="19.515610925521827"><ele>156.39999999999998</ele><time>2026-05-01T17:03:31.999Z</time></trkpt><trkpt lat="42.18767556491013" lon="19.515516933428895"><ele>156.2</ele><time>2026-05-01T17:03:32.999Z</time></trkpt><trkpt lat="42.18763428313947" lon="19.515421418686156"><ele>156.0</ele><time>2026-05-01T17:03:33.999Z</time></trkpt><trkpt lat="42.1875622758635" lon="19.515288354018296"><ele>156.8</ele><time>2026-05-01T17:03:35.999Z</time></trkpt><trkpt lat="42.18749422843898" lon="19.51523172475048"><ele>157.6</ele><time>2026-05-01T17:03:36.999Z</time></trkpt><trkpt lat="42.18742665048713" lon="19.515179342007347"><ele>158.4</ele><time>2026-05-01T17:03:37.999Z</time></trkpt><trkpt lat="42.18732311648412" lon="19.51518266509017"><ele>159.2</ele><time>2026-05-01T17:03:38.999Z</time></trkpt><trkpt lat="42.187211320297905" lon="19.515155890037946"><ele>160.0</ele><time>2026-05-01T17:03:39.999Z</time></trkpt><trkpt lat="42.18710940379203" lon="19.51510213447015"><ele>158.0</ele><time>2026-05-01T17:03:41Z</time></trkpt><trkpt lat="42.187015759593514" lon="19.515072074990382"><ele>156.0</ele><time>2026-05-01T17:03:42Z</time></trkpt><trkpt lat="42.186928200302724" lon="19.515044509230773"><ele>154.0</ele><time>2026-05-01T17:03:43Z</time></trkpt><trkpt lat="42.18682621516258" lon="19.515012809772536"><ele>152.0</ele><time>2026-05-01T17:03:44Z</time></trkpt><trkpt lat="42.186719093805515" lon="19.514979513859245"><ele>150.0</ele><time>2026-05-01T17:03:45Z</time></trkpt><trkpt lat="42.186632043586314" lon="19.51495111139585"><ele>150.0</ele><time>2026-05-01T17:03:46Z</time></trkpt><trkpt lat="42.18653600106805" lon="19.51491872875818"><ele>150.0</ele><time>2026-05-01T17:03:47Z</time></trkpt><trkpt lat="42.18644353206783" lon="19.51490810592794"><ele>150.0</ele><time>2026-05-01T17:03:48Z</time></trkpt><trkpt lat="42.18635846670802" lon="19.51485795455455"><ele>150.0</ele><time>2026-05-01T17:03:49Z</time></trkpt><trkpt lat="42.1862823789522" lon="19.514831528084553"><ele>150.0</ele><time>2026-05-01T17:03:50Z</time></trkpt><trkpt lat="42.186154192725965" lon="19.514770239288712"><ele>149.0</ele><time>2026-05-01T17:03:52Z</time></trkpt><trkpt lat="42.18608619357144" lon="19.51470392682513"><ele>148.0</ele><time>2026-05-01T17:03:53Z</time></trkpt><trkpt lat="42.18599579114437" lon="19.514610527075877"><ele>147.0</ele><time>2026-05-01T17:03:54Z</time></trkpt><trkpt lat="42.18589600505033" lon="19.514511948911224"><ele>146.0</ele><time>2026-05-01T17:03:55Z</time></trkpt><trkpt lat="42.18581365701592" lon="19.514429996844942"><ele>145.0</ele><time>2026-05-01T17:03:56Z</time></trkpt><trkpt lat="42.18572147377081" lon="19.51436545466149"><ele>144.0</ele><time>2026-05-01T17:03:57Z</time></trkpt><trkpt lat="42.185635091917995" lon="19.51425058470516"><ele>143.0</ele><time>2026-05-01T17:03:58Z</time></trkpt><trkpt lat="42.18553615170462" lon="19.51414466462593"><ele>142.0</ele><time>2026-05-01T17:03:59Z</time></trkpt><trkpt lat="42.185442334146416" lon="19.51404422872286"><ele>141.0</ele><time>2026-05-01T17:04:00Z</time></trkpt><trkpt lat="42.18535961072099" lon="19.513955669546142"><ele>141.0</ele><time>2026-05-01T17:04:01Z</time></trkpt><trkpt lat="42.185289258965334" lon="19.513881116715428"><ele>141.0</ele><time>2026-05-01T17:04:02Z</time></trkpt><trkpt lat="42.18522427456954" lon="19.513815436174166"><ele>141.0</ele><time>2026-05-01T17:04:03Z</time></trkpt><trkpt lat="42.18514167597311" lon="19.513755850331513"><ele>141.0</ele><time>2026-05-01T17:04:04Z</time></trkpt><trkpt lat="42.18505934814446" lon="19.513668243797152"><ele>141.0</ele><time>2026-05-01T17:04:05Z</time></trkpt><trkpt lat="42.18496551789044" lon="19.513580456516873"><ele>140.8</ele><time>2026-05-01T17:04:06Z</time></trkpt><trkpt lat="42.184897534562865" lon="19.51348173008334"><ele>140.6</ele><time>2026-05-01T17:04:07Z</time></trkpt><trkpt lat="42.18482531226401" lon="19.513404953453676"><ele>140.4</ele><time>2026-05-01T17:04:08Z</time></trkpt><trkpt lat="42.18476292582504" lon="19.51333863292523"><ele>140.2</ele><time>2026-05-01T17:04:09Z</time></trkpt><trkpt lat="42.18468974077336" lon="19.513260834836338"><ele>140.0</ele><time>2026-05-01T17:04:10Z</time></trkpt><trkpt lat="42.18461665199359" lon="19.513184167583024"><ele>139.66666666666666</ele><time>2026-05-01T17:04:11Z</time></trkpt><trkpt lat="42.18455132204744" lon="19.51311563892154"><ele>139.33333333333331</ele><time>2026-05-01T17:04:12Z</time></trkpt><trkpt lat="42.18448658814652" lon="19.513048710357424"><ele>139.0</ele><time>2026-05-01T17:04:13Z</time></trkpt><trkpt lat="42.184407566263886" lon="19.512998679166927"><ele>138.66666666666666</ele><time>2026-05-01T17:04:14Z</time></trkpt><trkpt lat="42.184331870222586" lon="19.51294064089309"><ele>138.33333333333334</ele><time>2026-05-01T17:04:15Z</time></trkpt><trkpt lat="42.18427956705001" lon="19.5128741410672"><ele>138.0</ele><time>2026-05-01T17:04:16Z</time></trkpt><trkpt lat="42.184216118664615" lon="19.512867713917064"><ele>138.0</ele><time>2026-05-01T17:04:17Z</time></trkpt><trkpt lat="42.184137950496265" lon="19.51288663560976"><ele>138.0</ele><time>2026-05-01T17:04:18Z</time></trkpt><trkpt lat="42.18404959385937" lon="19.512862435130323"><ele>138.0</ele><time>2026-05-01T17:04:19Z</time></trkpt><trkpt lat="42.18396299237396" lon="19.512861379967745"><ele>138.0</ele><time>2026-05-01T17:04:20Z</time></trkpt><trkpt lat="42.18388049419707" lon="19.512860139780702"><ele>138.0</ele><time>2026-05-01T17:04:21Z</time></trkpt><trkpt lat="42.18380652995042" lon="19.512858330055717"><ele>138.0</ele><time>2026-05-01T17:04:22Z</time></trkpt><trkpt lat="42.18371704524585" lon="19.512871659772"><ele>137.83333333333334</ele><time>2026-05-01T17:04:23Z</time></trkpt><trkpt lat="42.183649691252924" lon="19.512868148279356"><ele>137.66666666666666</ele><time>2026-05-01T17:04:24Z</time></trkpt><trkpt lat="42.183562687696046" lon="19.51287888123325"><ele>137.5</ele><time>2026-05-01T17:04:26Z</time></trkpt><trkpt lat="42.183487119230996" lon="19.512879501033318"><ele>137.33333333333331</ele><time>2026-05-01T17:04:28Z</time></trkpt><trkpt lat="42.18336927759695" lon="19.51286801381704"><ele>137.16666666666666</ele><time>2026-05-01T17:04:30Z</time></trkpt><trkpt lat="42.18327022494974" lon="19.512869586926467"><ele>137.0</ele><time>2026-05-01T17:04:31Z</time></trkpt><trkpt lat="42.183151014744645" lon="19.512871691254052"><ele>137.0</ele><time>2026-05-01T17:04:32Z</time></trkpt><trkpt lat="42.18302696774011" lon="19.512891287262732"><ele>137.0</ele><time>2026-05-01T17:04:33Z</time></trkpt><trkpt lat="42.18290126491363" lon="19.512895643328307"><ele>137.0</ele><time>2026-05-01T17:04:34Z</time></trkpt><trkpt lat="42.182779577903204" lon="19.5128899507457"><ele>137.0</ele><time>2026-05-01T17:04:35Z</time></trkpt><trkpt lat="42.182653469182576" lon="19.5129116212749"><ele>137.0</ele><time>2026-05-01T17:04:36Z</time></trkpt><trkpt lat="42.1825240118986" lon="19.5129162277655"><ele>137.0</ele><time>2026-05-01T17:04:37Z</time></trkpt><trkpt lat="42.18241073486041" lon="19.51291692610835"><ele>137.0</ele><time>2026-05-01T17:04:38Z</time></trkpt><trkpt lat="42.182306470366484" lon="19.51293180723616"><ele>137.0</ele><time>2026-05-01T17:04:39Z</time></trkpt><trkpt lat="42.1822174985417" lon="19.512931819888546"><ele>137.0</ele><time>2026-05-01T17:04:40Z</time></trkpt><trkpt lat="42.1821406339407" lon="19.512935726417105"><ele>136.66666666666666</ele><time>2026-05-01T17:04:41Z</time></trkpt><trkpt lat="42.18206550594384" lon="19.512944158212296"><ele>136.33333333333331</ele><time>2026-05-01T17:04:42Z</time></trkpt><trkpt lat="42.18198921189341" lon="19.512948974166758"><ele>136.0</ele><time>2026-05-01T17:04:43Z</time></trkpt><trkpt lat="42.18191746943717" lon="19.512945503556367"><ele>135.66666666666666</ele><time>2026-05-01T17:04:44Z</time></trkpt><trkpt lat="42.181831673770354" lon="19.51294568622807"><ele>135.33333333333334</ele><time>2026-05-01T17:04:45Z</time></trkpt><trkpt lat="42.18177158438503" lon="19.51288475705548"><ele>135.0</ele><time>2026-05-01T17:04:46Z</time></trkpt><trkpt lat="42.181696983865116" lon="19.512846940342392"><ele>134.0</ele><time>2026-05-01T17:04:47Z</time></trkpt><trkpt lat="42.18160459653401" lon="19.512797262158575"><ele>133.0</ele><time>2026-05-01T17:04:48Z</time></trkpt><trkpt lat="42.18148108468037" lon="19.512751991379197"><ele>132.0</ele><time>2026-05-01T17:04:49Z</time></trkpt><trkpt lat="42.18137641033511" lon="19.512682455565436"><ele>131.0</ele><time>2026-05-01T17:04:50Z</time></trkpt><trkpt lat="42.18129526694453" lon="19.512642120181432"><ele>130.0</ele><time>2026-05-01T17:04:51Z</time></trkpt><trkpt lat="42.181234953058116" lon="19.512575441085982"><ele>129.83333333333334</ele><time>2026-05-01T17:04:52Z</time></trkpt><trkpt lat="42.18116900122837" lon="19.512529741347485"><ele>129.66666666666669</ele><time>2026-05-01T17:04:53Z</time></trkpt><trkpt lat="42.181098796216816" lon="19.512481058052813"><ele>129.5</ele><time>2026-05-01T17:04:54Z</time></trkpt><trkpt lat="42.181015813264814" lon="19.512435720552087"><ele>129.33333333333334</ele><time>2026-05-01T17:04:55Z</time></trkpt><trkpt lat="42.18093796983418" lon="19.512388777651495"><ele>129.16666666666666</ele><time>2026-05-01T17:04:56Z</time></trkpt><trkpt lat="42.18085184042598" lon="19.512353357318506"><ele>129.0</ele><time>2026-05-01T17:04:57Z</time></trkpt><trkpt lat="42.180775283558354" lon="19.5122518616443"><ele>129.0</ele><time>2026-05-01T17:04:58Z</time></trkpt><trkpt lat="42.18069865860569" lon="19.5121789245006"><ele>129.0</ele><time>2026-05-01T17:04:59Z</time></trkpt><trkpt lat="42.180632724104534" lon="19.51211494017022"><ele>129.0</ele><time>2026-05-01T17:05:00Z</time></trkpt><trkpt lat="42.18057152267248" lon="19.512054730052377"><ele>129.0</ele><time>2026-05-01T17:05:01Z</time></trkpt><trkpt lat="42.18051792362272" lon="19.511985150872455"><ele>129.0</ele><time>2026-05-01T17:05:02Z</time></trkpt><trkpt lat="42.180463309969326" lon="19.511906667716307"><ele>129.0</ele><time>2026-05-01T17:05:03Z</time></trkpt><trkpt lat="42.18040212275188" lon="19.51184680263451"><ele>129.2</ele><time>2026-05-01T17:05:04Z</time></trkpt><trkpt lat="42.18035692153278" lon="19.511753780973425"><ele>129.4</ele><time>2026-05-01T17:05:04.999Z</time></trkpt><trkpt lat="42.18029601989371" lon="19.511667685082084"><ele>129.6</ele><time>2026-05-01T17:05:05.999Z</time></trkpt><trkpt lat="42.18023214423598" lon="19.51156908688176"><ele>129.8</ele><time>2026-05-01T17:05:06.999Z</time></trkpt><trkpt lat="42.180190148258525" lon="19.511503901432658"><ele>130.0</ele><time>2026-05-01T17:05:07.999Z</time></trkpt><trkpt lat="42.18015604665248" lon="19.511343900287265"><ele>130.0</ele><time>2026-05-01T17:05:09.999Z</time></trkpt><trkpt lat="42.18015212377774" lon="19.511246253882277"><ele>130.0</ele><time>2026-05-01T17:05:10.999Z</time></trkpt><trkpt lat="42.180161286247255" lon="19.51111891545758"><ele>130.0</ele><time>2026-05-01T17:05:11.999Z</time></trkpt><trkpt lat="42.180181647716715" lon="19.51101128321653"><ele>130.0</ele><time>2026-05-01T17:05:12.999Z</time></trkpt><trkpt lat="42.18019868426776" lon="19.510917732987856"><ele>130.0</ele><time>2026-05-01T17:05:13.999Z</time></trkpt><trkpt lat="42.18021379466703" lon="19.51083206624335"><ele>130.0</ele><time>2026-05-01T17:05:14.999Z</time></trkpt><trkpt lat="42.18026974300805" lon="19.51074346003675"><ele>129.33333333333334</ele><time>2026-05-01T17:05:15.999Z</time></trkpt><trkpt lat="42.1803223921378" lon="19.51062395063852"><ele>128.66666666666669</ele><time>2026-05-01T17:05:16.999Z</time></trkpt><trkpt lat="42.18035642610091" lon="19.51053771556877"><ele>128.0</ele><time>2026-05-01T17:05:17.999Z</time></trkpt><trkpt lat="42.18038714737156" lon="19.5104598745922"><ele>127.33333333333334</ele><time>2026-05-01T17:05:18.999Z</time></trkpt><trkpt lat="42.18039562820504" lon="19.510358237021812"><ele>126.66666666666667</ele><time>2026-05-01T17:05:19.999Z</time></trkpt><trkpt lat="42.18039963092874" lon="19.510204538689724"><ele>126.0</ele><time>2026-05-01T17:05:21.999Z</time></trkpt><trkpt lat="42.18033870945998" lon="19.510109831805007"><ele>124.19999999999999</ele><time>2026-05-01T17:05:23.999Z</time></trkpt><trkpt lat="42.18020592494402" lon="19.51015194412832"><ele>122.39999999999999</ele><time>2026-05-01T17:05:25.999Z</time></trkpt><trkpt lat="42.1801393467313" lon="19.510196786810408"><ele>120.6</ele><time>2026-05-01T17:05:26.999Z</time></trkpt><trkpt lat="42.18005674554753" lon="19.510255807000558"><ele>118.8</ele><time>2026-05-01T17:05:28.999Z</time></trkpt><trkpt lat="42.179999615248406" lon="19.510167668805096"><ele>117.0</ele><time>2026-05-01T17:05:30.999Z</time></trkpt><trkpt lat="42.179926090712584" lon="19.51004456421915"><ele>117.0</ele><time>2026-05-01T17:05:32.999Z</time></trkpt><trkpt lat="42.17987435039496" lon="19.509957553242828"><ele>117.0</ele><time>2026-05-01T17:05:33.999Z</time></trkpt><trkpt lat="42.1798225100296" lon="19.50989310945557"><ele>117.0</ele><time>2026-05-01T17:05:34.999Z</time></trkpt><trkpt lat="42.17977361730845" lon="19.50983738892472"><ele>117.0</ele><time>2026-05-01T17:05:35.999Z</time></trkpt><trkpt lat="42.179698545821694" lon="19.50972066507157"><ele>117.0</ele><time>2026-05-01T17:05:37.999Z</time></trkpt><trkpt lat="42.179668026017765" lon="19.509645124817986"><ele>117.0</ele><time>2026-05-01T17:05:38.999Z</time></trkpt><trkpt lat="42.179625892502166" lon="19.509544440112915"><ele>116.19999999999999</ele><time>2026-05-01T17:05:39.999Z</time></trkpt><trkpt lat="42.17957920350104" lon="19.509432982165745"><ele>115.39999999999999</ele><time>2026-05-01T17:05:40.999Z</time></trkpt><trkpt lat="42.179538768014126" lon="19.509326760336855"><ele>114.60000000000001</ele><time>2026-05-01T17:05:41.999Z</time></trkpt><trkpt lat="42.17949785274585" lon="19.509215557488623"><ele>113.80000000000001</ele><time>2026-05-01T17:05:42.999Z</time></trkpt><trkpt lat="42.179466546850186" lon="19.509096141697785"><ele>113.0</ele><time>2026-05-01T17:05:43.999Z</time></trkpt><trkpt lat="42.179441738220675" lon="19.508971403891895"><ele>113.0</ele><time>2026-05-01T17:05:44.999Z</time></trkpt><trkpt lat="42.17941706309407" lon="19.508847636748236"><ele>113.00000000000001</ele><time>2026-05-01T17:05:45.999Z</time></trkpt><trkpt lat="42.17939357539501" lon="19.508730197208596"><ele>113.00000000000001</ele><time>2026-05-01T17:05:47Z</time></trkpt><trkpt lat="42.179359446206234" lon="19.508605154624135"><ele>113.0</ele><time>2026-05-01T17:05:48Z</time></trkpt><trkpt lat="42.17931738296527" lon="19.508487795254567"><ele>113.0</ele><time>2026-05-01T17:05:49Z</time></trkpt><trkpt lat="42.179268748446894" lon="19.508352101519286"><ele>112.99999999999999</ele><time>2026-05-01T17:05:50Z</time></trkpt><trkpt lat="42.17922309974796" lon="19.508224738420136"><ele>113.0</ele><time>2026-05-01T17:05:51Z</time></trkpt><trkpt lat="42.179160830950615" lon="19.508124508156797"><ele>113.0</ele><time>2026-05-01T17:05:52Z</time></trkpt><trkpt lat="42.1791348289768" lon="19.508025700490375"><ele>113.0</ele><time>2026-05-01T17:05:53Z</time></trkpt><trkpt lat="42.179098391605145" lon="19.507944304206443"><ele>112.99999999999999</ele><time>2026-05-01T17:05:54Z</time></trkpt><trkpt lat="42.17904411860015" lon="19.50784865341046"><ele>113.0</ele><time>2026-05-01T17:05:55Z</time></trkpt><trkpt lat="42.178978581462495" lon="19.50775784424897"><ele>111.60000000000001</ele><time>2026-05-01T17:05:56Z</time></trkpt><trkpt lat="42.17890658716182" lon="19.50765808794423"><ele>110.20000000000002</ele><time>2026-05-01T17:05:57Z</time></trkpt><trkpt lat="42.17884323790885" lon="19.507569485644776"><ele>108.8</ele><time>2026-05-01T17:05:58Z</time></trkpt><trkpt lat="42.178779497324435" lon="19.507479993834593"><ele>107.4</ele><time>2026-05-01T17:05:59Z</time></trkpt><trkpt lat="42.17871042871632" lon="19.50738283824639"><ele>106.0</ele><time>2026-05-01T17:06:00Z</time></trkpt><trkpt lat="42.17863361912966" lon="19.50727448949994"><ele>106.0</ele><time>2026-05-01T17:06:01Z</time></trkpt><trkpt lat="42.17857365767537" lon="19.507186412374008"><ele>106.0</ele><time>2026-05-01T17:06:02Z</time></trkpt><trkpt lat="42.17850914964431" lon="19.50711740120594"><ele>106.0</ele><time>2026-05-01T17:06:03Z</time></trkpt><trkpt lat="42.1784352052486" lon="19.50701426521459"><ele>106.0</ele><time>2026-05-01T17:06:04Z</time></trkpt><trkpt lat="42.17837571121211" lon="19.506895397922992"><ele>106.0</ele><time>2026-05-01T17:06:05Z</time></trkpt><trkpt lat="42.17831790731084" lon="19.50681024337222"><ele>105.83333333333334</ele><time>2026-05-01T17:06:06Z</time></trkpt><trkpt lat="42.1782546272464" lon="19.506716374190322"><ele>105.66666666666667</ele><time>2026-05-01T17:06:07Z</time></trkpt><trkpt lat="42.17819145235157" lon="19.50662266102887"><ele>105.5</ele><time>2026-05-01T17:06:08Z</time></trkpt><trkpt lat="42.178139530046444" lon="19.506545639836833"><ele>105.33333333333334</ele><time>2026-05-01T17:06:09Z</time></trkpt><trkpt lat="42.17809624033276" lon="19.50648142418878"><ele>105.16666666666667</ele><time>2026-05-01T17:06:10Z</time></trkpt><trkpt lat="42.178051294529254" lon="19.506414751935917"><ele>105.0</ele><time>2026-05-01T17:06:11Z</time></trkpt><trkpt lat="42.17800475969276" lon="19.506345723108197"><ele>103.83333333333333</ele><time>2026-05-01T17:06:12Z</time></trkpt><trkpt lat="42.17791651989652" lon="19.50625384347833"><ele>102.66666666666666</ele><time>2026-05-01T17:06:14Z</time></trkpt><trkpt lat="42.17786213608119" lon="19.506175545341375"><ele>101.5</ele><time>2026-05-01T17:06:16Z</time></trkpt><trkpt lat="42.17779207830073" lon="19.506235781738607"><ele>100.33333333333333</ele><time>2026-05-01T17:06:17Z</time></trkpt><trkpt lat="42.17773496427749" lon="19.50628534559164"><ele>99.16666666666666</ele><time>2026-05-01T17:06:18Z</time></trkpt><trkpt lat="42.17765326158233" lon="19.506331133539646"><ele>98.0</ele><time>2026-05-01T17:06:19Z</time></trkpt><trkpt lat="42.17756918568594" lon="19.50639542093555"><ele>97.99999999999999</ele><time>2026-05-01T17:06:20Z</time></trkpt><trkpt lat="42.17751058091246" lon="19.506461560002894"><ele>98.0</ele><time>2026-05-01T17:06:21Z</time></trkpt><trkpt lat="42.17744404386481" lon="19.506505474897832"><ele>98.0</ele><time>2026-05-01T17:06:22Z</time></trkpt><trkpt lat="42.177374267235955" lon="19.506557133302305"><ele>98.0</ele><time>2026-05-01T17:06:23Z</time></trkpt><trkpt lat="42.177299822351415" lon="19.50660205367314"><ele>97.99999999999999</ele><time>2026-05-01T17:06:24Z</time></trkpt><trkpt lat="42.17722284264989" lon="19.50663664528095"><ele>98.0</ele><time>2026-05-01T17:06:25Z</time></trkpt><trkpt lat="42.17715049409945" lon="19.506680878945705"><ele>96.33333333333333</ele><time>2026-05-01T17:06:26Z</time></trkpt><trkpt lat="42.17708463617408" lon="19.506721565443517"><ele>94.66666666666666</ele><time>2026-05-01T17:06:27Z</time></trkpt><trkpt lat="42.17698861916935" lon="19.506803286238444"><ele>93.0</ele><time>2026-05-01T17:06:29Z</time></trkpt><trkpt lat="42.176914065704196" lon="19.506800436192368"><ele>91.33333333333333</ele><time>2026-05-01T17:06:31Z</time></trkpt><trkpt lat="42.176856097123434" lon="19.506764165537742"><ele>89.66666666666666</ele><time>2026-05-01T17:06:33Z</time></trkpt><trkpt lat="42.17689293079133" lon="19.506640610684027"><ele>88.0</ele><time>2026-05-01T17:06:35Z</time></trkpt><trkpt lat="42.17691309062635" lon="19.506552551140114"><ele>88.0</ele><time>2026-05-01T17:06:36Z</time></trkpt><trkpt lat="42.17693916629751" lon="19.506430810029837"><ele>88.0</ele><time>2026-05-01T17:06:37Z</time></trkpt><trkpt lat="42.17694960411681" lon="19.506330787418996"><ele>88.0</ele><time>2026-05-01T17:06:38Z</time></trkpt><trkpt lat="42.17695535130778" lon="19.506231828354235"><ele>88.0</ele><time>2026-05-01T17:06:39Z</time></trkpt><trkpt lat="42.176958664381985" lon="19.506109965750724"><ele>88.0</ele><time>2026-05-01T17:06:40Z</time></trkpt><trkpt lat="42.176955038483875" lon="19.50597123100089"><ele>88.0</ele><time>2026-05-01T17:06:41Z</time></trkpt><trkpt lat="42.176952309407305" lon="19.50586618578145"><ele>87.0</ele><time>2026-05-01T17:06:42Z</time></trkpt><trkpt lat="42.17694986957436" lon="19.505772273805633"><ele>86.0</ele><time>2026-05-01T17:06:43Z</time></trkpt><trkpt lat="42.17694758344462" lon="19.505684277990873"><ele>85.0</ele><time>2026-05-01T17:06:44Z</time></trkpt><trkpt lat="42.17694368711086" lon="19.50553430371788"><ele>84.0</ele><time>2026-05-01T17:06:46Z</time></trkpt><trkpt lat="42.17694005228773" lon="19.50539439519302"><ele>83.0</ele><time>2026-05-01T17:06:48Z</time></trkpt><trkpt lat="42.17693770409158" lon="19.505304010892132"><ele>82.0</ele><time>2026-05-01T17:06:49Z</time></trkpt><trkpt lat="42.17690130984331" lon="19.505219814559435"><ele>81.33333333333333</ele><time>2026-05-01T17:06:50Z</time></trkpt><trkpt lat="42.1768757328911" lon="19.505139900449482"><ele>80.66666666666666</ele><time>2026-05-01T17:06:51Z</time></trkpt><trkpt lat="42.17684421779366" lon="19.50504143282644"><ele>80.0</ele><time>2026-05-01T17:06:52Z</time></trkpt><trkpt lat="42.176810500344324" lon="19.50493608408038"><ele>79.33333333333333</ele><time>2026-05-01T17:06:53Z</time></trkpt><trkpt lat="42.17677712764765" lon="19.50483181246451"><ele>78.66666666666667</ele><time>2026-05-01T17:06:54Z</time></trkpt><trkpt lat="42.17675075741827" lon="19.50474936306498"><ele>78.0</ele><time>2026-05-01T17:06:55Z</time></trkpt><trkpt lat="42.17670796388375" lon="19.504602493962704"><ele>78.4</ele><time>2026-05-01T17:06:57Z</time></trkpt><trkpt lat="42.17665584884578" lon="19.50442491180823"><ele>78.8</ele><time>2026-05-01T17:06:59Z</time></trkpt><trkpt lat="42.17662075539317" lon="19.504305314698428"><ele>79.2</ele><time>2026-05-01T17:07:00Z</time></trkpt><trkpt lat="42.176585627084066" lon="19.504187820927957"><ele>79.6</ele><time>2026-05-01T17:07:01Z</time></trkpt><trkpt lat="42.176555532371474" lon="19.50408716287539"><ele>80.0</ele><time>2026-05-01T17:07:02Z</time></trkpt><trkpt lat="42.176528845489536" lon="19.50399790293824"><ele>79.5</ele><time>2026-05-01T17:07:03Z</time></trkpt><trkpt lat="42.17650301877738" lon="19.50391185507339"><ele>79.0</ele><time>2026-05-01T17:07:04Z</time></trkpt><trkpt lat="42.176473242087816" lon="19.503813680272582"><ele>78.5</ele><time>2026-05-01T17:07:05Z</time></trkpt><trkpt lat="42.176438626660655" lon="19.503702949315585"><ele>78.0</ele><time>2026-05-01T17:07:06Z</time></trkpt><trkpt lat="42.17640682010874" lon="19.503608199946903"><ele>77.5</ele><time>2026-05-01T17:07:07Z</time></trkpt><trkpt lat="42.17638064124323" lon="19.5035302133086"><ele>77.0</ele><time>2026-05-01T17:07:08Z</time></trkpt><trkpt lat="42.17625518688883" lon="19.503419616369033"><ele>76.83333333333334</ele><time>2026-05-01T17:07:10Z</time></trkpt><trkpt lat="42.17620253822249" lon="19.50332793128063"><ele>76.66666666666667</ele><time>2026-05-01T17:07:11Z</time></trkpt><trkpt lat="42.17613300020095" lon="19.50324509352264"><ele>76.5</ele><time>2026-05-01T17:07:12Z</time></trkpt><trkpt lat="42.17607262793961" lon="19.503173173363603"><ele>76.33333333333333</ele><time>2026-05-01T17:07:13Z</time></trkpt><trkpt lat="42.17601636966408" lon="19.503106154052738"><ele>76.16666666666666</ele><time>2026-05-01T17:07:14Z</time></trkpt><trkpt lat="42.17596234351063" lon="19.503041793858788"><ele>76.0</ele><time>2026-05-01T17:07:15Z</time></trkpt><trkpt lat="42.17591510459751" lon="19.502985519173542"><ele>75.83333333333333</ele><time>2026-05-01T17:07:16Z</time></trkpt><trkpt lat="42.17584698715066" lon="19.502896923331324"><ele>75.66666666666666</ele><time>2026-05-01T17:07:17.999Z</time></trkpt><trkpt lat="42.175792315196816" lon="19.50282609155808"><ele>75.5</ele><time>2026-05-01T17:07:19.999Z</time></trkpt><trkpt lat="42.17573581073669" lon="19.502752885646302"><ele>75.33333333333333</ele><time>2026-05-01T17:07:21.999Z</time></trkpt><trkpt lat="42.17566908487911" lon="19.50266643743534"><ele>75.16666666666667</ele><time>2026-05-01T17:07:23.999Z</time></trkpt><trkpt lat="42.17562051685516" lon="19.502598365860884"><ele>75.0</ele><time>2026-05-01T17:07:24.999Z</time></trkpt><trkpt lat="42.17554945177028" lon="19.502478651880082"><ele>75.0</ele><time>2026-05-01T17:07:25.999Z</time></trkpt><trkpt lat="42.175460282334946" lon="19.502325432728654"><ele>75.0</ele><time>2026-05-01T17:07:26.999Z</time></trkpt><trkpt lat="42.17538998657468" lon="19.50220437868791"><ele>75.0</ele><time>2026-05-01T17:07:27.999Z</time></trkpt><trkpt lat="42.175336207327504" lon="19.50211175792068"><ele>75.0</ele><time>2026-05-01T17:07:28.999Z</time></trkpt><trkpt lat="42.17529080090495" lon="19.502033547749708"><ele>75.0</ele><time>2026-05-01T17:07:29.999Z</time></trkpt><trkpt lat="42.175229563563015" lon="19.501928069706214"><ele>75.0</ele><time>2026-05-01T17:07:31.999Z</time></trkpt><trkpt lat="42.17516185633436" lon="19.50181143775544"><ele>75.0</ele><time>2026-05-01T17:07:33.999Z</time></trkpt><trkpt lat="42.17512275393261" lon="19.50174369665523"><ele>75.0</ele><time>2026-05-01T17:07:34.999Z</time></trkpt><trkpt lat="42.17506668421845" lon="19.501646561338255"><ele>75.0</ele><time>2026-05-01T17:07:36.999Z</time></trkpt><trkpt lat="42.17502195879504" lon="19.501569078908872"><ele>75.0</ele><time>2026-05-01T17:07:38.999Z</time></trkpt><trkpt lat="42.174968661899435" lon="19.50147379169869"><ele>75.0</ele><time>2026-05-01T17:07:40.999Z</time></trkpt><trkpt lat="42.17489663217688" lon="19.501340059070984"><ele>75.0</ele><time>2026-05-01T17:07:42.999Z</time></trkpt><trkpt lat="42.174856350968945" lon="19.5012657589582"><ele>75.0</ele><time>2026-05-01T17:07:43.999Z</time></trkpt><trkpt lat="42.174797770087395" lon="19.501157704402914"><ele>75.0</ele><time>2026-05-01T17:07:44.999Z</time></trkpt><trkpt lat="42.174713685953826" lon="19.50100180546728"><ele>75.0</ele><time>2026-05-01T17:07:45.999Z</time></trkpt><trkpt lat="42.174613894680874" lon="19.50081244545985"><ele>75.0</ele><time>2026-05-01T17:07:46.999Z</time></trkpt><trkpt lat="42.174516708980086" lon="19.500627248987524"><ele>75.0</ele><time>2026-05-01T17:07:47.999Z</time></trkpt><trkpt lat="42.174437183531936" lon="19.500475057030485"><ele>75.0</ele><time>2026-05-01T17:07:48.999Z</time></trkpt><trkpt lat="42.174344513079575" lon="19.5003403159741"><ele>75.0</ele><time>2026-05-01T17:07:49.999Z</time></trkpt><trkpt lat="42.17424910375615" lon="19.5001906257927"><ele>75.0</ele><time>2026-05-01T17:07:50.999Z</time></trkpt><trkpt lat="42.17415145797667" lon="19.500037188253046"><ele>75.0</ele><time>2026-05-01T17:07:51.999Z</time></trkpt><trkpt lat="42.17407087695075" lon="19.49989546796134"><ele>75.0</ele><time>2026-05-01T17:07:53Z</time></trkpt><trkpt lat="42.173995330146454" lon="19.499759514590743"><ele>75.0</ele><time>2026-05-01T17:07:54Z</time></trkpt><trkpt lat="42.17392674676337" lon="19.49963609258082"><ele>74.33333333333333</ele><time>2026-05-01T17:07:55Z</time></trkpt><trkpt lat="42.173866142980685" lon="19.49952439502267"><ele>73.66666666666667</ele><time>2026-05-01T17:07:56Z</time></trkpt><trkpt lat="42.17381136626687" lon="19.499420417910255"><ele>73.0</ele><time>2026-05-01T17:07:57Z</time></trkpt><trkpt lat="42.17376138327512" lon="19.499325540232487"><ele>72.33333333333334</ele><time>2026-05-01T17:07:58Z</time></trkpt><trkpt lat="42.1737147570816" lon="19.499237087887934"><ele>71.66666666666667</ele><time>2026-05-01T17:07:59Z</time></trkpt><trkpt lat="42.17366898553321" lon="19.499154452750734"><ele>71.0</ele><time>2026-05-01T17:08:00Z</time></trkpt><trkpt lat="42.17359044954772" lon="19.499025953822496"><ele>71.0</ele><time>2026-05-01T17:08:02Z</time></trkpt><trkpt lat="42.17352343838009" lon="19.498914539220994"><ele>71.0</ele><time>2026-05-01T17:08:04Z</time></trkpt><trkpt lat="42.17346341982664" lon="19.4988146408609"><ele>71.0</ele><time>2026-05-01T17:08:06Z</time></trkpt><trkpt lat="42.17339421492022" lon="19.498698790270964"><ele>71.0</ele><time>2026-05-01T17:08:08Z</time></trkpt><trkpt lat="42.17333473266455" lon="19.49863387900517"><ele>71.0</ele><time>2026-05-01T17:08:09Z</time></trkpt><trkpt lat="42.17329078933238" lon="19.498523550159344"><ele>71.2</ele><time>2026-05-01T17:08:10Z</time></trkpt><trkpt lat="42.17322735167712" lon="19.49841483159302"><ele>71.39999999999999</ele><time>2026-05-01T17:08:11Z</time></trkpt><trkpt lat="42.17316141989003" lon="19.498301838562018"><ele>71.6</ele><time>2026-05-01T17:08:12Z</time></trkpt><trkpt lat="42.17308962295596" lon="19.49817879399451"><ele>71.8</ele><time>2026-05-01T17:08:13Z</time></trkpt><trkpt lat="42.17301434968819" lon="19.49804851913266"><ele>72.0</ele><time>2026-05-01T17:08:14Z</time></trkpt><trkpt lat="42.17294835924808" lon="19.497932500317216"><ele>71.33333333333333</ele><time>2026-05-01T17:08:15Z</time></trkpt><trkpt lat="42.1728896756237" lon="19.497829757668047"><ele>70.66666666666667</ele><time>2026-05-01T17:08:16Z</time></trkpt><trkpt lat="42.172839574918335" lon="19.497742448031783"><ele>70.0</ele><time>2026-05-01T17:08:17Z</time></trkpt><trkpt lat="42.172778417887805" lon="19.49766748025074"><ele>69.33333333333334</ele><time>2026-05-01T17:08:18Z</time></trkpt><trkpt lat="42.172696353978495" lon="19.497627967089514"><ele>68.66666666666667</ele><time>2026-05-01T17:08:19Z</time></trkpt><trkpt lat="42.172621223259156" lon="19.49762423737337"><ele>68.0</ele><time>2026-05-01T17:08:20Z</time></trkpt><trkpt lat="42.1725241993238" lon="19.497622267008275"><ele>68.0</ele><time>2026-05-01T17:08:21Z</time></trkpt><trkpt lat="42.172438937588566" lon="19.497654480366908"><ele>68.0</ele><time>2026-05-01T17:08:22Z</time></trkpt><trkpt lat="42.172339061090526" lon="19.49770899764361"><ele>68.0</ele><time>2026-05-01T17:08:24Z</time></trkpt><trkpt lat="42.172251817417276" lon="19.49776638765651"><ele>68.0</ele><time>2026-05-01T17:08:25Z</time></trkpt><trkpt lat="42.1721610429805" lon="19.49782072786271"><ele>68.0</ele><time>2026-05-01T17:08:26Z</time></trkpt><trkpt lat="42.17207900935356" lon="19.497837279606014"><ele>68.6</ele><time>2026-05-01T17:08:27Z</time></trkpt><trkpt lat="42.172007756783565" lon="19.497758315956336"><ele>69.19999999999999</ele><time>2026-05-01T17:08:29Z</time></trkpt><trkpt lat="42.17194444426659" lon="19.497672540653323"><ele>69.8</ele><time>2026-05-01T17:08:34Z</time></trkpt><trkpt lat="42.17192419533002" lon="19.497582785116972"><ele>70.39999999999999</ele><time>2026-05-01T17:08:36Z</time></trkpt><trkpt lat="42.17185506067481" lon="19.497430298012404"><ele>71.0</ele><time>2026-05-01T17:08:38Z</time></trkpt><trkpt lat="42.17181279183754" lon="19.49733080779005"><ele>71.0</ele><time>2026-05-01T17:08:39Z</time></trkpt><trkpt lat="42.1717657159683" lon="19.49722000308017"><ele>71.0</ele><time>2026-05-01T17:08:40Z</time></trkpt><trkpt lat="42.17172564449784" lon="19.497098438199828"><ele>71.0</ele><time>2026-05-01T17:08:41Z</time></trkpt><trkpt lat="42.17166908370585" lon="19.49697822503288"><ele>71.0</ele><time>2026-05-01T17:08:42Z</time></trkpt><trkpt lat="42.171662307724375" lon="19.496828238676528"><ele>71.0</ele><time>2026-05-01T17:08:43Z</time></trkpt><trkpt lat="42.17163629253391" lon="19.496678722264775"><ele>70.5</ele><time>2026-05-01T17:08:44Z</time></trkpt><trkpt lat="42.171609006222845" lon="19.49652185260325"><ele>70.0</ele><time>2026-05-01T17:08:45Z</time></trkpt><trkpt lat="42.171573831679794" lon="19.49637296782451"><ele>69.5</ele><time>2026-05-01T17:08:46Z</time></trkpt><trkpt lat="42.1715368730479" lon="19.496221049107728"><ele>69.0</ele><time>2026-05-01T17:08:47Z</time></trkpt><trkpt lat="42.17149885565402" lon="19.496068384184085"><ele>69.0</ele><time>2026-05-01T17:08:48Z</time></trkpt><trkpt lat="42.17145897604673" lon="19.49590538888626"><ele>69.0</ele><time>2026-05-01T17:08:49Z</time></trkpt><trkpt lat="42.171428168322194" lon="19.49575137397173"><ele>69.0</ele><time>2026-05-01T17:08:50Z</time></trkpt><trkpt lat="42.17140025022275" lon="19.49561603200126"><ele>69.0</ele><time>2026-05-01T17:08:51Z</time></trkpt><trkpt lat="42.17137709088202" lon="19.495492961227608"><ele>69.0</ele><time>2026-05-01T17:08:52Z</time></trkpt><trkpt lat="42.17135577872898" lon="19.495381232211965"><ele>69.0</ele><time>2026-05-01T17:08:53Z</time></trkpt><trkpt lat="42.171335586613175" lon="19.4952761512705"><ele>69.0</ele><time>2026-05-01T17:08:54Z</time></trkpt><trkpt lat="42.17133735498572" lon="19.49518525414694"><ele>69.0</ele><time>2026-05-01T17:08:55Z</time></trkpt><trkpt lat="42.171337354984786" lon="19.495083007844162"><ele>69.0</ele><time>2026-05-01T17:08:56Z</time></trkpt><trkpt lat="42.17136417857358" lon="19.494982050544063"><ele>69.0</ele><time>2026-05-01T17:08:57Z</time></trkpt><trkpt lat="42.17138598981716" lon="19.49486524114179"><ele>69.0</ele><time>2026-05-01T17:08:58Z</time></trkpt><trkpt lat="42.171408286527225" lon="19.494745511226522"><ele>69.0</ele><time>2026-05-01T17:08:59Z</time></trkpt><trkpt lat="42.171417206811014" lon="19.49460093636923"><ele>69.0</ele><time>2026-05-01T17:09:00Z</time></trkpt><trkpt lat="42.17140797008725" lon="19.49445565094088"><ele>69.0</ele><time>2026-05-01T17:09:01Z</time></trkpt><trkpt lat="42.17139290954301" lon="19.494313418177384"><ele>69.0</ele><time>2026-05-01T17:09:02Z</time></trkpt><trkpt lat="42.171349160306576" lon="19.494170323497546"><ele>69.0</ele><time>2026-05-01T17:09:03Z</time></trkpt><trkpt lat="42.1713166930279" lon="19.494025793370255"><ele>67.75</ele><time>2026-05-01T17:09:04Z</time></trkpt><trkpt lat="42.17128221531149" lon="19.4938723143425"><ele>66.5</ele><time>2026-05-01T17:09:05Z</time></trkpt><trkpt lat="42.17124686512811" lon="19.49371495105708"><ele>65.25</ele><time>2026-05-01T17:09:06Z</time></trkpt><trkpt lat="42.17121097994703" lon="19.493555206598813"><ele>64.0</ele><time>2026-05-01T17:09:07Z</time></trkpt><trkpt lat="42.17117049120353" lon="19.49339496197722"><ele>63.6</ele><time>2026-05-01T17:09:08Z</time></trkpt><trkpt lat="42.17113476584473" lon="19.493255217009366"><ele>63.2</ele><time>2026-05-01T17:09:09Z</time></trkpt><trkpt lat="42.171100805818405" lon="19.493122377466488"><ele>62.800000000000004</ele><time>2026-05-01T17:09:10Z</time></trkpt><trkpt lat="42.171067350211615" lon="19.49299151064895"><ele>62.400000000000006</ele><time>2026-05-01T17:09:11Z</time></trkpt><trkpt lat="42.17103308412383" lon="19.492857473559866"><ele>62.0</ele><time>2026-05-01T17:09:12Z</time></trkpt><trkpt lat="42.170999135942374" lon="19.492724703423345"><ele>61.8</ele><time>2026-05-01T17:09:13Z</time></trkpt><trkpt lat="42.17096344904628" lon="19.492585746913925"><ele>61.6</ele><time>2026-05-01T17:09:14Z</time></trkpt><trkpt lat="42.170926888587424" lon="19.492443626350813"><ele>61.39999999999999</ele><time>2026-05-01T17:09:15Z</time></trkpt><trkpt lat="42.17089447541125" lon="19.492307498637874"><ele>61.199999999999996</ele><time>2026-05-01T17:09:16Z</time></trkpt><trkpt lat="42.17087054803839" lon="19.492177791790937"><ele>61.0</ele><time>2026-05-01T17:09:17Z</time></trkpt><trkpt lat="42.17084896674228" lon="19.492060802680864"><ele>60.8</ele><time>2026-05-01T17:09:18Z</time></trkpt><trkpt lat="42.17082789679471" lon="19.491945143824772"><ele>60.599999999999994</ele><time>2026-05-01T17:09:19Z</time></trkpt><trkpt lat="42.17080176528539" lon="19.49182386646535"><ele>60.4</ele><time>2026-05-01T17:09:20Z</time></trkpt><trkpt lat="42.17077474912674" lon="19.491694250611864"><ele>60.2</ele><time>2026-05-01T17:09:21Z</time></trkpt><trkpt lat="42.17074662698753" lon="19.491559317668035"><ele>60.0</ele><time>2026-05-01T17:09:21.999Z</time></trkpt><trkpt lat="42.17071509208754" lon="19.49141418946008"><ele>60.25</ele><time>2026-05-01T17:09:22.999Z</time></trkpt><trkpt lat="42.17067799399709" lon="19.49126475167961"><ele>60.5</ele><time>2026-05-01T17:09:23.999Z</time></trkpt><trkpt lat="42.17063874948071" lon="19.491106667690335"><ele>60.75</ele><time>2026-05-01T17:09:24.999Z</time></trkpt><trkpt lat="42.170598849541356" lon="19.49094594351813"><ele>61.0</ele><time>2026-05-01T17:09:25.999Z</time></trkpt><trkpt lat="42.170558099261854" lon="19.490782972202926"><ele>60.5</ele><time>2026-05-01T17:09:26.999Z</time></trkpt><trkpt lat="42.17051568981486" lon="19.490613394887156"><ele>60.0</ele><time>2026-05-01T17:09:27.999Z</time></trkpt><trkpt lat="42.17047323374161" lon="19.4904436311739"><ele>59.5</ele><time>2026-05-01T17:09:28.999Z</time></trkpt><trkpt lat="42.17043009255371" lon="19.49027030670143"><ele>59.0</ele><time>2026-05-01T17:09:29.999Z</time></trkpt><trkpt lat="42.170387849923166" lon="19.49010013950216"><ele>58.5</ele><time>2026-05-01T17:09:30.999Z</time></trkpt><trkpt lat="42.170346471499805" lon="19.489935901941642"><ele>58.0</ele><time>2026-05-01T17:09:31.999Z</time></trkpt><trkpt lat="42.170306047759915" lon="19.4897754986203"><ele>57.5</ele><time>2026-05-01T17:09:32.999Z</time></trkpt><trkpt lat="42.170267368984426" lon="19.489613201078345"><ele>57.0</ele><time>2026-05-01T17:09:33.999Z</time></trkpt><trkpt lat="42.17022860164912" lon="19.489448738425423"><ele>56.5</ele><time>2026-05-01T17:09:34.999Z</time></trkpt><trkpt lat="42.17018999563312" lon="19.48928529830165"><ele>56.0</ele><time>2026-05-01T17:09:35.999Z</time></trkpt><trkpt lat="42.17015215211316" lon="19.48912508994012"><ele>55.5</ele><time>2026-05-01T17:09:36.999Z</time></trkpt><trkpt lat="42.17011338518698" lon="19.488960972397003"><ele>55.0</ele><time>2026-05-01T17:09:37.999Z</time></trkpt><trkpt lat="42.17007385531318" lon="19.488793624948432"><ele>55.0</ele><time>2026-05-01T17:09:38.999Z</time></trkpt><trkpt lat="42.17003355192801" lon="19.48862300289752"><ele>55.0</ele><time>2026-05-01T17:09:39.999Z</time></trkpt><trkpt lat="42.16999236693898" lon="19.488448648613925"><ele>55.0</ele><time>2026-05-01T17:09:40.999Z</time></trkpt><trkpt lat="42.16995147585463" lon="19.488270919297303"><ele>55.0</ele><time>2026-05-01T17:09:41.999Z</time></trkpt><trkpt lat="42.16991013623768" lon="19.488089965636266"><ele>55.0</ele><time>2026-05-01T17:09:42.999Z</time></trkpt><trkpt lat="42.16986792023802" lon="19.48790517584661"><ele>55.0</ele><time>2026-05-01T17:09:43.999Z</time></trkpt><trkpt lat="42.16982495320104" lon="19.48771709856287"><ele>55.0</ele><time>2026-05-01T17:09:44.999Z</time></trkpt><trkpt lat="42.16978363560181" lon="19.48753998858514"><ele>55.0</ele><time>2026-05-01T17:09:45.999Z</time></trkpt><trkpt lat="42.16974593664798" lon="19.48737963"><ele>55.0</ele><time>2026-05-01T17:09:46.999Z</time></trkpt><trkpt lat="42.169711652732005" lon="19.487235052000692"><ele>55.0</ele><time>2026-05-01T17:09:47.999Z</time></trkpt><trkpt lat="42.169679097845304" lon="19.487097765475543"><ele>55.0</ele><time>2026-05-01T17:09:48.999Z</time></trkpt><trkpt lat="42.16964913411915" lon="19.486971406063642"><ele>55.0</ele><time>2026-05-01T17:09:49.999Z</time></trkpt><trkpt lat="42.16961984842714" lon="19.486842491445557"><ele>55.0</ele><time>2026-05-01T17:09:50.999Z</time></trkpt><trkpt lat="42.16960307583504" lon="19.486698806347356"><ele>54.8</ele><time>2026-05-01T17:09:51.999Z</time></trkpt><trkpt lat="42.16960277892632" lon="19.48655258043711"><ele>54.6</ele><time>2026-05-01T17:09:52.999Z</time></trkpt><trkpt lat="42.169605808030866" lon="19.486422126984"><ele>54.400000000000006</ele><time>2026-05-01T17:09:53.999Z</time></trkpt><trkpt lat="42.169608320561316" lon="19.486313920654368"><ele>54.2</ele><time>2026-05-01T17:09:54.999Z</time></trkpt><trkpt lat="42.169610991594695" lon="19.486198888736574"><ele>54.0</ele><time>2026-05-01T17:09:55.999Z</time></trkpt><trkpt lat="42.16955176749502" lon="19.48604859656019"><ele>53.0</ele><time>2026-05-01T17:09:56.999Z</time></trkpt><trkpt lat="42.169501163365915" lon="19.48590555188452"><ele>52.0</ele><time>2026-05-01T17:09:58Z</time></trkpt><trkpt lat="42.16944758486509" lon="19.4857532783389"><ele>51.0</ele><time>2026-05-01T17:09:59Z</time></trkpt><trkpt lat="42.16938991978589" lon="19.485589993510736"><ele>50.0</ele><time>2026-05-01T17:10:00Z</time></trkpt><trkpt lat="42.169336024612804" lon="19.485437867144423"><ele>49.6</ele><time>2026-05-01T17:10:01Z</time></trkpt><trkpt lat="42.1692886636768" lon="19.485304184554717"><ele>49.2</ele><time>2026-05-01T17:10:02Z</time></trkpt><trkpt lat="42.16924527849875" lon="19.48517712332518"><ele>48.8</ele><time>2026-05-01T17:10:03Z</time></trkpt><trkpt lat="42.16920327709689" lon="19.485041079629283"><ele>48.4</ele><time>2026-05-01T17:10:04Z</time></trkpt><trkpt lat="42.16915873607781" lon="19.48489695623998"><ele>48.0</ele><time>2026-05-01T17:10:05Z</time></trkpt><trkpt lat="42.16910986572286" lon="19.484740877966455"><ele>47.75</ele><time>2026-05-01T17:10:06Z</time></trkpt><trkpt lat="42.169058374759345" lon="19.48457366715711"><ele>47.5</ele><time>2026-05-01T17:10:07Z</time></trkpt><trkpt lat="42.16900517170795" lon="19.484403509109388"><ele>47.25</ele><time>2026-05-01T17:10:08Z</time></trkpt><trkpt lat="42.16895926339738" lon="19.484256287341076"><ele>47.0</ele><time>2026-05-01T17:10:09Z</time></trkpt><trkpt lat="42.16891369337529" lon="19.484110115379767"><ele>47.0</ele><time>2026-05-01T17:10:10Z</time></trkpt><trkpt lat="42.16886642730206" lon="19.483957785267233"><ele>47.0</ele><time>2026-05-01T17:10:11Z</time></trkpt><trkpt lat="42.16881415276088" lon="19.48379912418587"><ele>47.0</ele><time>2026-05-01T17:10:12Z</time></trkpt><trkpt lat="42.168762260560236" lon="19.483657654100508"><ele>47.0</ele><time>2026-05-01T17:10:13Z</time></trkpt><trkpt lat="42.16870639007859" lon="19.483542089267758"><ele>47.0</ele><time>2026-05-01T17:10:14Z</time></trkpt><trkpt lat="42.16867790175706" lon="19.48343426209124"><ele>47.0</ele><time>2026-05-01T17:10:15Z</time></trkpt><trkpt lat="42.168653565932935" lon="19.48335197516244"><ele>47.0</ele><time>2026-05-01T17:10:16Z</time></trkpt><trkpt lat="42.16863648413101" lon="19.48326371777123"><ele>47.0</ele><time>2026-05-01T17:10:18Z</time></trkpt><trkpt lat="42.16853719457371" lon="19.483241946560106"><ele>47.0</ele><time>2026-05-01T17:10:22Z</time></trkpt><trkpt lat="42.16843347509736" lon="19.483335986414687"><ele>47.0</ele><time>2026-05-01T17:10:24Z</time></trkpt><trkpt lat="42.16834235984025" lon="19.483413441104616"><ele>47.0</ele><time>2026-05-01T17:10:26Z</time></trkpt><trkpt lat="42.16827462243681" lon="19.483478875041122"><ele>47.0</ele><time>2026-05-01T17:10:27Z</time></trkpt><trkpt lat="42.16814418424736" lon="19.483594806565122"><ele>47.0</ele><time>2026-05-01T17:10:28Z</time></trkpt><trkpt lat="42.167977474013185" lon="19.48374414231216"><ele>47.0</ele><time>2026-05-01T17:10:29Z</time></trkpt><trkpt lat="42.16781626387651" lon="19.483916860837812"><ele>46.75</ele><time>2026-05-01T17:10:30Z</time></trkpt><trkpt lat="42.16768120623363" lon="19.484030582767634"><ele>46.5</ele><time>2026-05-01T17:10:31Z</time></trkpt><trkpt lat="42.167568749482506" lon="19.484140332136555"><ele>46.25</ele><time>2026-05-01T17:10:32Z</time></trkpt><trkpt lat="42.167454335458004" lon="19.484249063719314"><ele>46.0</ele><time>2026-05-01T17:10:33Z</time></trkpt><trkpt lat="42.16733198888414" lon="19.48436745245591"><ele>46.0</ele><time>2026-05-01T17:10:34Z</time></trkpt><trkpt lat="42.16720558184709" lon="19.48449014478809"><ele>46.0</ele><time>2026-05-01T17:10:35Z</time></trkpt><trkpt lat="42.16709416935047" lon="19.48459639512604"><ele>46.0</ele><time>2026-05-01T17:10:36Z</time></trkpt><trkpt lat="42.1669750185683" lon="19.484709977930848"><ele>46.0</ele><time>2026-05-01T17:10:37Z</time></trkpt><trkpt lat="42.166849092127" lon="19.484827882190466"><ele>46.0</ele><time>2026-05-01T17:10:38Z</time></trkpt><trkpt lat="42.16672199329968" lon="19.484946691497193"><ele>46.0</ele><time>2026-05-01T17:10:39Z</time></trkpt><trkpt lat="42.16659983522417" lon="19.48506270056133"><ele>46.0</ele><time>2026-05-01T17:10:40Z</time></trkpt><trkpt lat="42.166494583920176" lon="19.485163562060805"><ele>46.0</ele><time>2026-05-01T17:10:41Z</time></trkpt><trkpt lat="42.16640020764411" lon="19.485254885161865"><ele>46.0</ele><time>2026-05-01T17:10:42Z</time></trkpt><trkpt lat="42.16631305893542" lon="19.485334722100323"><ele>46.0</ele><time>2026-05-01T17:10:43Z</time></trkpt><trkpt lat="42.166235746001036" lon="19.485410081270587"><ele>46.0</ele><time>2026-05-01T17:10:44Z</time></trkpt><trkpt lat="42.16616676388802" lon="19.48547986111794"><ele>46.0</ele><time>2026-05-01T17:10:45Z</time></trkpt><trkpt lat="42.16610371454145" lon="19.485540650060166"><ele>46.0</ele><time>2026-05-01T17:10:46Z</time></trkpt><trkpt lat="42.1660182440436" lon="19.485612393629435"><ele>46.0</ele><time>2026-05-01T17:10:48Z</time></trkpt><trkpt lat="42.165952754762614" lon="19.485543442310824"><ele>46.0</ele><time>2026-05-01T17:10:52Z</time></trkpt><trkpt lat="42.16587335455035" lon="19.485454493097205"><ele>46.0</ele><time>2026-05-01T17:10:54Z</time></trkpt><trkpt lat="42.16581728372789" lon="19.485390731695404"><ele>46.0</ele><time>2026-05-01T17:10:55Z</time></trkpt><trkpt lat="42.165766287386425" lon="19.485306392058543"><ele>46.0</ele><time>2026-05-01T17:10:56Z</time></trkpt><trkpt lat="42.16570796939311" lon="19.485214799525792"><ele>46.0</ele><time>2026-05-01T17:10:57Z</time></trkpt><trkpt lat="42.16566626396849" lon="19.485131693628365"><ele>45.85714285714286</ele><time>2026-05-01T17:10:58Z</time></trkpt><trkpt lat="42.16562940307143" lon="19.485051670364612"><ele>45.71428571428571</ele><time>2026-05-01T17:10:59Z</time></trkpt><trkpt lat="42.16559294762123" lon="19.484972527274714"><ele>45.57142857142857</ele><time>2026-05-01T17:11:00Z</time></trkpt><trkpt lat="42.16555649528307" lon="19.484892202202783"><ele>45.42857142857143</ele><time>2026-05-01T17:11:01Z</time></trkpt><trkpt lat="42.1655212605005" lon="19.48481026808647"><ele>45.28571428571429</ele><time>2026-05-01T17:11:02Z</time></trkpt><trkpt lat="42.165485644389676" lon="19.484727447198892"><ele>45.14285714285714</ele><time>2026-05-01T17:11:03Z</time></trkpt><trkpt lat="42.16544875089401" lon="19.484643008482195"><ele>45.0</ele><time>2026-05-01T17:11:04Z</time></trkpt><trkpt lat="42.16541221610372" lon="19.484559064496484"><ele>44.6</ele><time>2026-05-01T17:11:05Z</time></trkpt><trkpt lat="42.16536780428072" lon="19.484468934642802"><ele>44.2</ele><time>2026-05-01T17:11:06Z</time></trkpt><trkpt lat="42.165304753376724" lon="19.484383088994786"><ele>43.8</ele><time>2026-05-01T17:11:07Z</time></trkpt><trkpt lat="42.16525846593928" lon="19.4842768284564"><ele>43.4</ele><time>2026-05-01T17:11:08Z</time></trkpt><trkpt lat="42.1652013052233" lon="19.484174041975695"><ele>43.0</ele><time>2026-05-01T17:11:09Z</time></trkpt><trkpt lat="42.16515393321793" lon="19.484046106539566"><ele>43.0</ele><time>2026-05-01T17:11:10Z</time></trkpt><trkpt lat="42.16508770471918" lon="19.48391300213111"><ele>43.0</ele><time>2026-05-01T17:11:11Z</time></trkpt><trkpt lat="42.16502249139975" lon="19.48377991404389"><ele>43.0</ele><time>2026-05-01T17:11:12Z</time></trkpt><trkpt lat="42.16496691907469" lon="19.483667940027136"><ele>43.0</ele><time>2026-05-01T17:11:13Z</time></trkpt><trkpt lat="42.164916906249154" lon="19.483567243984535"><ele>43.0</ele><time>2026-05-01T17:11:14Z</time></trkpt><trkpt lat="42.16486762967495" lon="19.48346765693962"><ele>42.8</ele><time>2026-05-01T17:11:15Z</time></trkpt><trkpt lat="42.16481406989217" lon="19.483359277943944"><ele>42.599999999999994</ele><time>2026-05-01T17:11:16Z</time></trkpt><trkpt lat="42.16475850023958" lon="19.483246831945124"><ele>42.400000000000006</ele><time>2026-05-01T17:11:17Z</time></trkpt><trkpt lat="42.16470748387017" lon="19.48313194979607"><ele>42.2</ele><time>2026-05-01T17:11:18Z</time></trkpt><trkpt lat="42.16465369846441" lon="19.483002988843737"><ele>42.0</ele><time>2026-05-01T17:11:19Z</time></trkpt><trkpt lat="42.16459652405964" lon="19.482868414174966"><ele>41.6</ele><time>2026-05-01T17:11:19.999Z</time></trkpt><trkpt lat="42.16453600001272" lon="19.482725739749803"><ele>41.2</ele><time>2026-05-01T17:11:20.999Z</time></trkpt><trkpt lat="42.16447606818608" lon="19.482585345935167"><ele>40.8</ele><time>2026-05-01T17:11:21.999Z</time></trkpt><trkpt lat="42.164427848423344" lon="19.48246822934647"><ele>40.4</ele><time>2026-05-01T17:11:22.999Z</time></trkpt><trkpt lat="42.164388214898544" lon="19.482365639056486"><ele>40.0</ele><time>2026-05-01T17:11:23.999Z</time></trkpt><trkpt lat="42.16436225150918" lon="19.482253335927904"><ele>40.0</ele><time>2026-05-01T17:11:25.999Z</time></trkpt><trkpt lat="42.16438544516004" lon="19.482125018461502"><ele>40.0</ele><time>2026-05-01T17:11:28.999Z</time></trkpt><trkpt lat="42.16434217754723" lon="19.4819401144229"><ele>40.0</ele><time>2026-05-01T17:11:30.999Z</time></trkpt><trkpt lat="42.164276918445694" lon="19.481757818513643"><ele>40.0</ele><time>2026-05-01T17:11:31.999Z</time></trkpt><trkpt lat="42.164169124223356" lon="19.481522441259436"><ele>39.66666666666667</ele><time>2026-05-01T17:11:32.999Z</time></trkpt><trkpt lat="42.164057515221806" lon="19.48131144353704"><ele>39.333333333333336</ele><time>2026-05-01T17:11:33.999Z</time></trkpt><trkpt lat="42.16394889411328" lon="19.481174847342626"><ele>39.0</ele><time>2026-05-01T17:11:34.999Z</time></trkpt><trkpt lat="42.163854228633404" lon="19.481060463649165"><ele>38.5</ele><time>2026-05-01T17:11:35.999Z</time></trkpt><trkpt lat="42.16377891314072" lon="19.480951655137588"><ele>38.0</ele><time>2026-05-01T17:11:36.999Z</time></trkpt><trkpt lat="42.16370308736087" lon="19.480834068187207"><ele>37.5</ele><time>2026-05-01T17:11:37.999Z</time></trkpt><trkpt lat="42.16362232476516" lon="19.480708825502635"><ele>37.0</ele><time>2026-05-01T17:11:38.999Z</time></trkpt><trkpt lat="42.1635447086041" lon="19.48058846216996"><ele>37.0</ele><time>2026-05-01T17:11:39.999Z</time></trkpt><trkpt lat="42.16347734419664" lon="19.480483996426212"><ele>37.0</ele><time>2026-05-01T17:11:40.999Z</time></trkpt><trkpt lat="42.163445830140674" lon="19.480363779174564"><ele>37.0</ele><time>2026-05-01T17:11:41.999Z</time></trkpt><trkpt lat="42.16340280507213" lon="19.48024031110451"><ele>37.0</ele><time>2026-05-01T17:11:42.999Z</time></trkpt><trkpt lat="42.16335897899995" lon="19.480101503796455"><ele>37.0</ele><time>2026-05-01T17:11:43.999Z</time></trkpt><trkpt lat="42.16331804652328" lon="19.479971860882944"><ele>36.6</ele><time>2026-05-01T17:11:44.999Z</time></trkpt><trkpt lat="42.163310886494294" lon="19.479851144069386"><ele>36.2</ele><time>2026-05-01T17:11:45.999Z</time></trkpt><trkpt lat="42.16329560475883" lon="19.479728262601675"><ele>35.8</ele><time>2026-05-01T17:11:46.999Z</time></trkpt><trkpt lat="42.16327976342525" lon="19.479600881087887"><ele>35.4</ele><time>2026-05-01T17:11:47.999Z</time></trkpt><trkpt lat="42.16324084599039" lon="19.47945348137115"><ele>35.0</ele><time>2026-05-01T17:11:48.999Z</time></trkpt><trkpt lat="42.16316676433866" lon="19.47931011175408"><ele>34.8</ele><time>2026-05-01T17:11:49.999Z</time></trkpt><trkpt lat="42.16309907919206" lon="19.479166970840648"><ele>34.6</ele><time>2026-05-01T17:11:50.999Z</time></trkpt><trkpt lat="42.163040371272054" lon="19.479045397243993"><ele>34.4</ele><time>2026-05-01T17:11:51.999Z</time></trkpt><trkpt lat="42.162981369671776" lon="19.47893834266829"><ele>34.2</ele><time>2026-05-01T17:11:52.999Z</time></trkpt><trkpt lat="42.16290837354941" lon="19.47884242467646"><ele>34.0</ele><time>2026-05-01T17:11:53.999Z</time></trkpt><trkpt lat="42.16283821644382" lon="19.478732098133225"><ele>33.5</ele><time>2026-05-01T17:11:54.999Z</time></trkpt><trkpt lat="42.16275858032673" lon="19.478617481068177"><ele>33.0</ele><time>2026-05-01T17:11:55.999Z</time></trkpt><trkpt lat="42.162669868531786" lon="19.478504555928783"><ele>32.5</ele><time>2026-05-01T17:11:56.999Z</time></trkpt><trkpt lat="42.16258793296888" lon="19.47836304626631"><ele>32.0</ele><time>2026-05-01T17:11:57.999Z</time></trkpt><trkpt lat="42.162487563920955" lon="19.478227892512276"><ele>32.0</ele><time>2026-05-01T17:11:58.999Z</time></trkpt><trkpt lat="42.16238368962629" lon="19.47808801863769"><ele>32.0</ele><time>2026-05-01T17:11:59.999Z</time></trkpt><trkpt lat="42.16229173696402" lon="19.477964198104573"><ele>32.0</ele><time>2026-05-01T17:12:00.999Z</time></trkpt><trkpt lat="42.162209685096464" lon="19.477853709652205"><ele>32.0</ele><time>2026-05-01T17:12:01.999Z</time></trkpt><trkpt lat="42.16213595401275" lon="19.477754425714725"><ele>31.6</ele><time>2026-05-01T17:12:03Z</time></trkpt><trkpt lat="42.16205693714838" lon="19.47767765143079"><ele>31.200000000000003</ele><time>2026-05-01T17:12:04Z</time></trkpt><trkpt lat="42.16199794015099" lon="19.477589836474348"><ele>30.8</ele><time>2026-05-01T17:12:05Z</time></trkpt><trkpt lat="42.16194819662543" lon="19.4774983105387"><ele>30.4</ele><time>2026-05-01T17:12:06Z</time></trkpt><trkpt lat="42.161882805879465" lon="19.477405611809633"><ele>30.0</ele><time>2026-05-01T17:12:07Z</time></trkpt><trkpt lat="42.161805962722916" lon="19.477296677978124"><ele>30.0</ele><time>2026-05-01T17:12:08Z</time></trkpt><trkpt lat="42.16172314780869" lon="19.47717922406654"><ele>30.0</ele><time>2026-05-01T17:12:09Z</time></trkpt><trkpt lat="42.16162306851877" lon="19.477066142437632"><ele>30.0</ele><time>2026-05-01T17:12:10Z</time></trkpt><trkpt lat="42.16152850619802" lon="19.47693021083581"><ele>30.0</ele><time>2026-05-01T17:12:11Z</time></trkpt><trkpt lat="42.16142717784975" lon="19.47678625686738"><ele>30.0</ele><time>2026-05-01T17:12:12Z</time></trkpt><trkpt lat="42.161330153790516" lon="19.476621668121222"><ele>30.0</ele><time>2026-05-01T17:12:13Z</time></trkpt><trkpt lat="42.16120081471385" lon="19.476487961339977"><ele>30.0</ele><time>2026-05-01T17:12:14Z</time></trkpt><trkpt lat="42.16106751138339" lon="19.476329099041134"><ele>29.666666666666664</ele><time>2026-05-01T17:12:15Z</time></trkpt><trkpt lat="42.160925106027605" lon="19.4761620347779"><ele>29.333333333333332</ele><time>2026-05-01T17:12:16Z</time></trkpt><trkpt lat="42.16079219482743" lon="19.476007946557864"><ele>29.0</ele><time>2026-05-01T17:12:17Z</time></trkpt><trkpt lat="42.1606771173941" lon="19.475877258825584"><ele>29.0</ele><time>2026-05-01T17:12:18Z</time></trkpt><trkpt lat="42.160564955415445" lon="19.47575146624699"><ele>29.0</ele><time>2026-05-01T17:12:19Z</time></trkpt><trkpt lat="42.160460909560314" lon="19.475633667126097"><ele>29.0</ele><time>2026-05-01T17:12:20Z</time></trkpt><trkpt lat="42.16037596850847" lon="19.475508319874045"><ele>29.0</ele><time>2026-05-01T17:12:21Z</time></trkpt><trkpt lat="42.160274653472065" lon="19.47541923000926"><ele>28.25</ele><time>2026-05-01T17:12:22Z</time></trkpt><trkpt lat="42.16019396461484" lon="19.475297850153897"><ele>27.5</ele><time>2026-05-01T17:12:23Z</time></trkpt><trkpt lat="42.16009543527146" lon="19.475183802025192"><ele>26.75</ele><time>2026-05-01T17:12:24Z</time></trkpt><trkpt lat="42.159983601261" lon="19.475078769984112"><ele>26.0</ele><time>2026-05-01T17:12:25Z</time></trkpt><trkpt lat="42.15987111074529" lon="19.47495339713665"><ele>26.0</ele><time>2026-05-01T17:12:26Z</time></trkpt><trkpt lat="42.15976514950175" lon="19.474800548051117"><ele>26.0</ele><time>2026-05-01T17:12:27Z</time></trkpt><trkpt lat="42.15964722380525" lon="19.474663779405507"><ele>26.0</ele><time>2026-05-01T17:12:28Z</time></trkpt><trkpt lat="42.159513238743344" lon="19.474524175201687"><ele>26.0</ele><time>2026-05-01T17:12:29Z</time></trkpt><trkpt lat="42.159389503234124" lon="19.4743979641866"><ele>26.0</ele><time>2026-05-01T17:12:30Z</time></trkpt><trkpt lat="42.15927275626202" lon="19.47428725829954"><ele>26.0</ele><time>2026-05-01T17:12:31Z</time></trkpt><trkpt lat="42.15915851047597" lon="19.474194704194197"><ele>26.0</ele><time>2026-05-01T17:12:32Z</time></trkpt><trkpt lat="42.15904652691371" lon="19.47412608501349"><ele>25.75</ele><time>2026-05-01T17:12:33Z</time></trkpt><trkpt lat="42.158949307607664" lon="19.47403552343107"><ele>25.5</ele><time>2026-05-01T17:12:34Z</time></trkpt><trkpt lat="42.158875063259984" lon="19.473916596488312"><ele>25.25</ele><time>2026-05-01T17:12:35Z</time></trkpt><trkpt lat="42.15879626124945" lon="19.47378872719647"><ele>25.0</ele><time>2026-05-01T17:12:36Z</time></trkpt><trkpt lat="42.15873291209579" lon="19.4736624283587"><ele>24.4</ele><time>2026-05-01T17:12:37Z</time></trkpt><trkpt lat="42.15869019877265" lon="19.47356872709635"><ele>23.8</ele><time>2026-05-01T17:12:38Z</time></trkpt><trkpt lat="42.15865050818512" lon="19.473480745607"><ele>23.200000000000003</ele><time>2026-05-01T17:12:39Z</time></trkpt><trkpt lat="42.158603783330065" lon="19.473376699746815"><ele>22.6</ele><time>2026-05-01T17:12:40Z</time></trkpt><trkpt lat="42.158550845212226" lon="19.47325881836156"><ele>22.0</ele><time>2026-05-01T17:12:41Z</time></trkpt><trkpt lat="42.15849268440174" lon="19.473129307221445"><ele>22.0</ele><time>2026-05-01T17:12:42Z</time></trkpt><trkpt lat="42.1584313823903" lon="19.47299280132498"><ele>22.0</ele><time>2026-05-01T17:12:43Z</time></trkpt><trkpt lat="42.15837320513409" lon="19.47286325356442"><ele>22.0</ele><time>2026-05-01T17:12:44Z</time></trkpt><trkpt lat="42.158324688592934" lon="19.47275415363269"><ele>22.0</ele><time>2026-05-01T17:12:45Z</time></trkpt><trkpt lat="42.158280387558655" lon="19.472654880474057"><ele>22.0</ele><time>2026-05-01T17:12:46Z</time></trkpt><trkpt lat="42.15823942232874" lon="19.472563082516373"><ele>22.0</ele><time>2026-05-01T17:12:47Z</time></trkpt><trkpt lat="42.158203917000336" lon="19.472483519446612"><ele>22.0</ele><time>2026-05-01T17:12:48Z</time></trkpt><trkpt lat="42.158165538721974" lon="19.472397517624536"><ele>22.0</ele><time>2026-05-01T17:12:50Z</time></trkpt><trkpt lat="42.15794131649855" lon="19.47244171732903"><ele>22.0</ele><time>2026-05-01T17:13:22Z</time></trkpt><trkpt lat="42.15783975288761" lon="19.472491816067944"><ele>22.0</ele><time>2026-05-01T17:13:23Z</time></trkpt><trkpt lat="42.15774318849578" lon="19.47254716265212"><ele>22.0</ele><time>2026-05-01T17:13:24Z</time></trkpt><trkpt lat="42.15766830043077" lon="19.472588312207048"><ele>22.0</ele><time>2026-05-01T17:13:25Z</time></trkpt><trkpt lat="42.1575900474168" lon="19.47262814032456"><ele>22.0</ele><time>2026-05-01T17:13:26Z</time></trkpt><trkpt lat="42.15750580618821" lon="19.472670770785662"><ele>22.0</ele><time>2026-05-01T17:13:27Z</time></trkpt><trkpt lat="42.15742042539542" lon="19.472718737967835"><ele>22.0</ele><time>2026-05-01T17:13:28Z</time></trkpt><trkpt lat="42.15732921729414" lon="19.47277175324754"><ele>22.0</ele><time>2026-05-01T17:13:29Z</time></trkpt><trkpt lat="42.15723662653938" lon="19.47282607854224"><ele>22.0</ele><time>2026-05-01T17:13:30Z</time></trkpt><trkpt lat="42.15713706960934" lon="19.472880256369592"><ele>22.0</ele><time>2026-05-01T17:13:31Z</time></trkpt><trkpt lat="42.15703522053843" lon="19.47295044511417"><ele>22.0</ele><time>2026-05-01T17:13:31.999Z</time></trkpt><trkpt lat="42.15692748133464" lon="19.47300953884677"><ele>22.0</ele><time>2026-05-01T17:13:32.999Z</time></trkpt><trkpt lat="42.15681775070347" lon="19.47306756041546"><ele>22.0</ele><time>2026-05-01T17:13:33.999Z</time></trkpt><trkpt lat="42.156709804907024" lon="19.4731323509834"><ele>22.0</ele><time>2026-05-01T17:13:34.999Z</time></trkpt><trkpt lat="42.15660146285609" lon="19.473198495410674"><ele>22.0</ele><time>2026-05-01T17:13:35.999Z</time></trkpt><trkpt lat="42.156489754477676" lon="19.473264488575865"><ele>22.5</ele><time>2026-05-01T17:13:36.999Z</time></trkpt><trkpt lat="42.1563765466477" lon="19.47333091221278"><ele>23.0</ele><time>2026-05-01T17:13:37.999Z</time></trkpt><trkpt lat="42.156264285752265" lon="19.473397975372027"><ele>23.5</ele><time>2026-05-01T17:13:38.999Z</time></trkpt><trkpt lat="42.156145543747044" lon="19.473471260016183"><ele>24.0</ele><time>2026-05-01T17:13:39.999Z</time></trkpt><trkpt lat="42.15602175353895" lon="19.4735482155663"><ele>24.0</ele><time>2026-05-01T17:13:40.999Z</time></trkpt><trkpt lat="42.15590868303637" lon="19.473615321313027"><ele>24.0</ele><time>2026-05-01T17:13:41.999Z</time></trkpt><trkpt lat="42.15579474054868" lon="19.473692908654616"><ele>24.0</ele><time>2026-05-01T17:13:42.999Z</time></trkpt><trkpt lat="42.15567111084111" lon="19.4737639518582"><ele>24.0</ele><time>2026-05-01T17:13:43.999Z</time></trkpt><trkpt lat="42.15548827825362" lon="19.473875219730438"><ele>25.5</ele><time>2026-05-01T17:13:44.999Z</time></trkpt><trkpt lat="42.155265517509555" lon="19.474016891030388"><ele>27.0</ele><time>2026-05-01T17:13:45.999Z</time></trkpt><trkpt lat="42.155044178679525" lon="19.474160353851353"><ele>26.666666666666664</ele><time>2026-05-01T17:13:46.999Z</time></trkpt><trkpt lat="42.154812907072426" lon="19.474296618889472"><ele>26.333333333333332</ele><time>2026-05-01T17:13:47.999Z</time></trkpt><trkpt lat="42.15464472465058" lon="19.474423794728327"><ele>26.0</ele><time>2026-05-01T17:13:48.999Z</time></trkpt><trkpt lat="42.15448183961476" lon="19.47452880225805"><ele>26.333333333333332</ele><time>2026-05-01T17:13:49.999Z</time></trkpt><trkpt lat="42.15433585263956" lon="19.474623767693206"><ele>26.666666666666664</ele><time>2026-05-01T17:13:50.999Z</time></trkpt><trkpt lat="42.15419712278959" lon="19.474713914703674"><ele>27.0</ele><time>2026-05-01T17:13:51.999Z</time></trkpt><trkpt lat="42.15406827851194" lon="19.47479659941877"><ele>27.200000000000003</ele><time>2026-05-01T17:13:52.999Z</time></trkpt><trkpt lat="42.153949690516036" lon="19.4748686246151"><ele>27.400000000000002</ele><time>2026-05-01T17:13:53.999Z</time></trkpt><trkpt lat="42.15385347213976" lon="19.47493387501266"><ele>27.599999999999998</ele><time>2026-05-01T17:13:54.999Z</time></trkpt><trkpt lat="42.15375864834534" lon="19.474988974563935"><ele>27.799999999999997</ele><time>2026-05-01T17:13:55.999Z</time></trkpt><trkpt lat="42.15366924757319" lon="19.475046305968124"><ele>28.0</ele><time>2026-05-01T17:13:56.999Z</time></trkpt><trkpt lat="42.153585306739195" lon="19.475095797614507"><ele>28.0</ele><time>2026-05-01T17:13:57.999Z</time></trkpt><trkpt lat="42.153502346055895" lon="19.475152570707408"><ele>27.999999999999996</ele><time>2026-05-01T17:13:58.999Z</time></trkpt><trkpt lat="42.1534284801597" lon="19.47520009381744"><ele>27.999999999999996</ele><time>2026-05-01T17:13:59.999Z</time></trkpt><trkpt lat="42.15335244336292" lon="19.475248978452015"><ele>28.0</ele><time>2026-05-01T17:14:00.999Z</time></trkpt><trkpt lat="42.153263601235714" lon="19.475304796784243"><ele>28.0</ele><time>2026-05-01T17:14:01.999Z</time></trkpt><trkpt lat="42.15311620339453" lon="19.4754112226923"><ele>27.5</ele><time>2026-05-01T17:14:02.999Z</time></trkpt><trkpt lat="42.15290745776591" lon="19.475567145126924"><ele>27.0</ele><time>2026-05-01T17:14:03.999Z</time></trkpt><trkpt lat="42.152673038382844" lon="19.475754714362765"><ele>27.0</ele><time>2026-05-01T17:14:04.999Z</time></trkpt><trkpt lat="42.152407954087586" lon="19.475978176420494"><ele>27.0</ele><time>2026-05-01T17:14:05.999Z</time></trkpt><trkpt lat="42.152126264437406" lon="19.476215482012027"><ele>27.5</ele><time>2026-05-01T17:14:06.999Z</time></trkpt><trkpt lat="42.15182464505331" lon="19.476467817713385"><ele>28.0</ele><time>2026-05-01T17:14:07.999Z</time></trkpt><trkpt lat="42.151507914464524" lon="19.476719613436536"><ele>28.0</ele><time>2026-05-01T17:14:09Z</time></trkpt><trkpt lat="42.15117657380199" lon="19.476953832144087"><ele>28.0</ele><time>2026-05-01T17:14:10Z</time></trkpt><trkpt lat="42.15081982287697" lon="19.477177235597853"><ele>27.0</ele><time>2026-05-01T17:14:11Z</time></trkpt><trkpt lat="42.15045193368156" lon="19.477383705649498"><ele>26.0</ele><time>2026-05-01T17:14:12Z</time></trkpt><trkpt lat="42.15008215835512" lon="19.477581607960925"><ele>27.0</ele><time>2026-05-01T17:14:13Z</time></trkpt><trkpt lat="42.14970130661022" lon="19.47779240623439"><ele>28.0</ele><time>2026-05-01T17:14:14Z</time></trkpt><trkpt lat="42.14935419299537" lon="19.47799667789525"><ele>28.0</ele><time>2026-05-01T17:14:15Z</time></trkpt><trkpt lat="42.14907025893509" lon="19.47816467766278"><ele>28.0</ele><time>2026-05-01T17:14:16Z</time></trkpt><trkpt lat="42.14880686432521" lon="19.478322004337095"><ele>28.0</ele><time>2026-05-01T17:14:17Z</time></trkpt><trkpt lat="42.14855743137377" lon="19.478473213560694"><ele>28.0</ele><time>2026-05-01T17:14:18Z</time></trkpt><trkpt lat="42.1483280151415" lon="19.47861693579652"><ele>27.0</ele><time>2026-05-01T17:14:19Z</time></trkpt><trkpt lat="42.14811536230036" lon="19.478749046378574"><ele>26.0</ele><time>2026-05-01T17:14:20Z</time></trkpt><trkpt lat="42.14791325371826" lon="19.478880854728704"><ele>26.0</ele><time>2026-05-01T17:14:21Z</time></trkpt><trkpt lat="42.14772576556511" lon="19.479004943728086"><ele>26.0</ele><time>2026-05-01T17:14:22Z</time></trkpt><trkpt lat="42.14754956079078" lon="19.4791230418515"><ele>26.0</ele><time>2026-05-01T17:14:23Z</time></trkpt><trkpt lat="42.147384330969494" lon="19.479232703129952"><ele>26.666666666666664</ele><time>2026-05-01T17:14:24Z</time></trkpt><trkpt lat="42.14723188509594" lon="19.47933697683502"><ele>27.333333333333336</ele><time>2026-05-01T17:14:25Z</time></trkpt><trkpt lat="42.14709084675999" lon="19.479436005537277"><ele>28.0</ele><time>2026-05-01T17:14:26Z</time></trkpt><trkpt lat="42.14694992985437" lon="19.479528449000856"><ele>27.75</ele><time>2026-05-01T17:14:27Z</time></trkpt><trkpt lat="42.14682352609488" lon="19.479610453069576"><ele>27.5</ele><time>2026-05-01T17:14:28Z</time></trkpt><trkpt lat="42.14670169412727" lon="19.479697991463553"><ele>27.25</ele><time>2026-05-01T17:14:29Z</time></trkpt><trkpt lat="42.146585356440994" lon="19.47977992858188"><ele>27.0</ele><time>2026-05-01T17:14:30Z</time></trkpt><trkpt lat="42.1464843144545" lon="19.479838012615062"><ele>27.0</ele><time>2026-05-01T17:14:31Z</time></trkpt><trkpt lat="42.14639335654859" lon="19.479891371505108"><ele>27.000000000000004</ele><time>2026-05-01T17:14:32Z</time></trkpt><trkpt lat="42.14631067522396" lon="19.47994440084888"><ele>27.000000000000004</ele><time>2026-05-01T17:14:33Z</time></trkpt><trkpt lat="42.14622570084001" lon="19.480003860895636"><ele>27.0</ele><time>2026-05-01T17:14:34Z</time></trkpt><trkpt lat="42.14614828842688" lon="19.480055560061107"><ele>27.0</ele><time>2026-05-01T17:14:35Z</time></trkpt><trkpt lat="42.14607781649596" lon="19.480100901615984"><ele>27.0</ele><time>2026-05-01T17:14:36Z</time></trkpt><trkpt lat="42.146003459009584" lon="19.480148324103368"><ele>27.0</ele><time>2026-05-01T17:14:37Z</time></trkpt><trkpt lat="42.145931547590095" lon="19.480204132123255"><ele>27.0</ele><time>2026-05-01T17:14:38Z</time></trkpt><trkpt lat="42.145858153145134" lon="19.480257489175433"><ele>27.0</ele><time>2026-05-01T17:14:39Z</time></trkpt><trkpt lat="42.145781784387545" lon="19.480312164206094"><ele>27.0</ele><time>2026-05-01T17:14:40Z</time></trkpt><trkpt lat="42.145701579478846" lon="19.480358915818485"><ele>27.0</ele><time>2026-05-01T17:14:41Z</time></trkpt><trkpt lat="42.145619912845724" lon="19.480407706397337"><ele>27.0</ele><time>2026-05-01T17:14:42Z</time></trkpt><trkpt lat="42.145542151280885" lon="19.48045202517741"><ele>27.0</ele><time>2026-05-01T17:14:43Z</time></trkpt><trkpt lat="42.14546652079874" lon="19.480499394558944"><ele>27.0</ele><time>2026-05-01T17:14:44Z</time></trkpt><trkpt lat="42.14538879159244" lon="19.480558054430272"><ele>27.0</ele><time>2026-05-01T17:14:45Z</time></trkpt><trkpt lat="42.14531480743662" lon="19.480606355382246"><ele>27.0</ele><time>2026-05-01T17:14:46Z</time></trkpt><trkpt lat="42.1452356241567" lon="19.48065047802465"><ele>27.0</ele><time>2026-05-01T17:14:47Z</time></trkpt><trkpt lat="42.1451545407027" lon="19.480699410538392"><ele>27.0</ele><time>2026-05-01T17:14:48Z</time></trkpt><trkpt lat="42.1450719798111" lon="19.48075161674845"><ele>27.0</ele><time>2026-05-01T17:14:49Z</time></trkpt><trkpt lat="42.144993493903996" lon="19.480801421981404"><ele>27.0</ele><time>2026-05-01T17:14:50Z</time></trkpt><trkpt lat="42.1449134005389" lon="19.48085102854104"><ele>27.0</ele><time>2026-05-01T17:14:51Z</time></trkpt><trkpt lat="42.14483371253072" lon="19.48090105084401"><ele>27.0</ele><time>2026-05-01T17:14:52Z</time></trkpt><trkpt lat="42.144751521874014" lon="19.4809527794802"><ele>27.0</ele><time>2026-05-01T17:14:53Z</time></trkpt><trkpt lat="42.14466324813849" lon="19.48100734890343"><ele>26.8</ele><time>2026-05-01T17:14:54Z</time></trkpt><trkpt lat="42.14457533049469" lon="19.481059383234943"><ele>26.6</ele><time>2026-05-01T17:14:55Z</time></trkpt><trkpt lat="42.14449010076288" lon="19.481110676522963"><ele>26.400000000000002</ele><time>2026-05-01T17:14:56Z</time></trkpt><trkpt lat="42.14440344747085" lon="19.48116292252201"><ele>26.200000000000003</ele><time>2026-05-01T17:14:57Z</time></trkpt><trkpt lat="42.144315740592425" lon="19.481216669713426"><ele>26.0</ele><time>2026-05-01T17:14:58Z</time></trkpt><trkpt lat="42.14422850318875" lon="19.481275774943754"><ele>26.4</ele><time>2026-05-01T17:14:59Z</time></trkpt><trkpt lat="42.144137405518585" lon="19.48133532083199"><ele>26.8</ele><time>2026-05-01T17:15:00Z</time></trkpt><trkpt lat="42.144042792536496" lon="19.481389256512063"><ele>27.199999999999996</ele><time>2026-05-01T17:15:01Z</time></trkpt><trkpt lat="42.14395056653226" lon="19.481444197128692"><ele>27.599999999999998</ele><time>2026-05-01T17:15:02Z</time></trkpt><trkpt lat="42.143857442445416" lon="19.481506388214154"><ele>28.0</ele><time>2026-05-01T17:15:03Z</time></trkpt><trkpt lat="42.14375816174916" lon="19.48158002371337"><ele>28.0</ele><time>2026-05-01T17:15:04Z</time></trkpt><trkpt lat="42.14364874727036" lon="19.481642109188133"><ele>27.999999999999996</ele><time>2026-05-01T17:15:05Z</time></trkpt><trkpt lat="42.14354155245227" lon="19.481702442511462"><ele>27.999999999999996</ele><time>2026-05-01T17:15:06Z</time></trkpt><trkpt lat="42.143467249005475" lon="19.48175167127036"><ele>28.0</ele><time>2026-05-01T17:15:07Z</time></trkpt><trkpt lat="42.143378038113525" lon="19.48181715248479"><ele>28.0</ele><time>2026-05-01T17:15:08Z</time></trkpt><trkpt lat="42.14327803424959" lon="19.481881132946786"><ele>28.25</ele><time>2026-05-01T17:15:09Z</time></trkpt><trkpt lat="42.143178749810296" lon="19.481935813873715"><ele>28.5</ele><time>2026-05-01T17:15:10Z</time></trkpt><trkpt lat="42.14308375501113" lon="19.48200524170049"><ele>28.75</ele><time>2026-05-01T17:15:11Z</time></trkpt><trkpt lat="42.14298789950228" lon="19.482073545611485"><ele>29.0</ele><time>2026-05-01T17:15:12Z</time></trkpt><trkpt lat="42.14285422257222" lon="19.482162571827608"><ele>29.0</ele><time>2026-05-01T17:15:13Z</time></trkpt><trkpt lat="42.1427211331687" lon="19.482250630602284"><ele>29.0</ele><time>2026-05-01T17:15:14Z</time></trkpt><trkpt lat="42.14258838316695" lon="19.482340205549672"><ele>29.0</ele><time>2026-05-01T17:15:15Z</time></trkpt><trkpt lat="42.14245619592722" lon="19.48243398213571"><ele>29.0</ele><time>2026-05-01T17:15:16Z</time></trkpt><trkpt lat="42.14232189009027" lon="19.48252922238778"><ele>28.333333333333332</ele><time>2026-05-01T17:15:17Z</time></trkpt><trkpt lat="42.14218084674518" lon="19.482613408023806"><ele>27.666666666666664</ele><time>2026-05-01T17:15:18Z</time></trkpt><trkpt lat="42.14203598919326" lon="19.48271727049254"><ele>27.0</ele><time>2026-05-01T17:15:19Z</time></trkpt><trkpt lat="42.141892219002585" lon="19.48282085834106"><ele>27.666666666666664</ele><time>2026-05-01T17:15:20Z</time></trkpt><trkpt lat="42.1417483089937" lon="19.48293175307385"><ele>28.333333333333332</ele><time>2026-05-01T17:15:21Z</time></trkpt><trkpt lat="42.14160309324217" lon="19.48303429928733"><ele>29.0</ele><time>2026-05-01T17:15:22Z</time></trkpt><trkpt lat="42.14144379663932" lon="19.483130844614614"><ele>29.0</ele><time>2026-05-01T17:15:23Z</time></trkpt><trkpt lat="42.14129225705205" lon="19.483244877167248"><ele>29.0</ele><time>2026-05-01T17:15:24Z</time></trkpt><trkpt lat="42.14114401982449" lon="19.483360435229148"><ele>29.0</ele><time>2026-05-01T17:15:25Z</time></trkpt><trkpt lat="42.140986459675055" lon="19.483473762869767"><ele>29.0</ele><time>2026-05-01T17:15:26Z</time></trkpt><trkpt lat="42.14082665181522" lon="19.483583481905427"><ele>29.0</ele><time>2026-05-01T17:15:27Z</time></trkpt><trkpt lat="42.14067267019227" lon="19.483698138752118"><ele>29.0</ele><time>2026-05-01T17:15:28Z</time></trkpt><trkpt lat="42.140524971795074" lon="19.48380895257108"><ele>28.333333333333332</ele><time>2026-05-01T17:15:29Z</time></trkpt><trkpt lat="42.14036268146714" lon="19.483927624443176"><ele>27.666666666666664</ele><time>2026-05-01T17:15:30Z</time></trkpt><trkpt lat="42.140201531083314" lon="19.484045450356916"><ele>27.0</ele><time>2026-05-01T17:15:31Z</time></trkpt><trkpt lat="42.140045059531666" lon="19.4841623761526"><ele>27.0</ele><time>2026-05-01T17:15:32Z</time></trkpt><trkpt lat="42.13989153245714" lon="19.484282933970132"><ele>27.0</ele><time>2026-05-01T17:15:33Z</time></trkpt><trkpt lat="42.139731555523504" lon="19.484405740575035"><ele>27.0</ele><time>2026-05-01T17:15:34Z</time></trkpt><trkpt lat="42.139577990938406" lon="19.484538923928405"><ele>27.0</ele><time>2026-05-01T17:15:35Z</time></trkpt><trkpt lat="42.13942914165133" lon="19.48467879639314"><ele>27.0</ele><time>2026-05-01T17:15:36Z</time></trkpt><trkpt lat="42.13927145258458" lon="19.484822836236187"><ele>27.0</ele><time>2026-05-01T17:15:37Z</time></trkpt><trkpt lat="42.13911916057006" lon="19.484973469802927"><ele>26.333333333333336</ele><time>2026-05-01T17:15:37.999Z</time></trkpt><trkpt lat="42.1389680168091" lon="19.48512399441054"><ele>25.666666666666668</ele><time>2026-05-01T17:15:38.999Z</time></trkpt><trkpt lat="42.13881900592937" lon="19.485274685997425"><ele>25.0</ele><time>2026-05-01T17:15:39.999Z</time></trkpt><trkpt lat="42.1386716970869" lon="19.485422715856973"><ele>25.333333333333336</ele><time>2026-05-01T17:15:40.999Z</time></trkpt><trkpt lat="42.13852001287151" lon="19.48556632290671"><ele>25.666666666666664</ele><time>2026-05-01T17:15:41.999Z</time></trkpt><trkpt lat="42.13836624288767" lon="19.485702400925344"><ele>26.0</ele><time>2026-05-01T17:15:42.999Z</time></trkpt><trkpt lat="42.13820860527451" lon="19.48582375326223"><ele>26.0</ele><time>2026-05-01T17:15:43.999Z</time></trkpt><trkpt lat="42.138046679349465" lon="19.485929190258847"><ele>26.0</ele><time>2026-05-01T17:15:44.999Z</time></trkpt><trkpt lat="42.137871545316706" lon="19.486003630241605"><ele>26.0</ele><time>2026-05-01T17:15:45.999Z</time></trkpt><trkpt lat="42.13768544902264" lon="19.48607372113976"><ele>26.0</ele><time>2026-05-01T17:15:46.999Z</time></trkpt><trkpt lat="42.137493168528586" lon="19.486121814577313"><ele>26.0</ele><time>2026-05-01T17:15:47.999Z</time></trkpt><trkpt lat="42.13729906544488" lon="19.486190727139725"><ele>26.0</ele><time>2026-05-01T17:15:48.999Z</time></trkpt><trkpt lat="42.137094226878226" lon="19.48623373847898"><ele>26.0</ele><time>2026-05-01T17:15:49.999Z</time></trkpt><trkpt lat="42.136884347967225" lon="19.486279229698745"><ele>26.0</ele><time>2026-05-01T17:15:50.999Z</time></trkpt><trkpt lat="42.136670392161186" lon="19.48632933867818"><ele>26.0</ele><time>2026-05-01T17:15:51.999Z</time></trkpt><trkpt lat="42.13647009357142" lon="19.486384799338175"><ele>26.0</ele><time>2026-05-01T17:15:52.999Z</time></trkpt><trkpt lat="42.13627914691833" lon="19.486449611241433"><ele>26.0</ele><time>2026-05-01T17:15:53.999Z</time></trkpt><trkpt lat="42.136084282783024" lon="19.486533439601434"><ele>26.0</ele><time>2026-05-01T17:15:54.999Z</time></trkpt><trkpt lat="42.13588875461016" lon="19.48663544108476"><ele>25.0</ele><time>2026-05-01T17:15:55.999Z</time></trkpt><trkpt lat="42.1357065524928" lon="19.48674672104414"><ele>24.0</ele><time>2026-05-01T17:15:56.999Z</time></trkpt><trkpt lat="42.13554277160308" lon="19.486864129339008"><ele>23.0</ele><time>2026-05-01T17:15:57.999Z</time></trkpt><trkpt lat="42.13539600179442" lon="19.486987843720605"><ele>23.333333333333336</ele><time>2026-05-01T17:15:58.999Z</time></trkpt><trkpt lat="42.13525531508089" lon="19.487107697152105"><ele>23.666666666666668</ele><time>2026-05-01T17:15:59.999Z</time></trkpt><trkpt lat="42.135119600823515" lon="19.48721813442643"><ele>24.0</ele><time>2026-05-01T17:16:00.999Z</time></trkpt><trkpt lat="42.13498623616447" lon="19.487320967456313"><ele>24.0</ele><time>2026-05-01T17:16:01.999Z</time></trkpt><trkpt lat="42.13485195578383" lon="19.48742240191859"><ele>24.0</ele><time>2026-05-01T17:16:02.999Z</time></trkpt><trkpt lat="42.13472258349231" lon="19.487522806038843"><ele>24.0</ele><time>2026-05-01T17:16:03.999Z</time></trkpt><trkpt lat="42.134602859363774" lon="19.487616469895638"><ele>24.0</ele><time>2026-05-01T17:16:04.999Z</time></trkpt><trkpt lat="42.13448751749354" lon="19.487722080292624"><ele>24.0</ele><time>2026-05-01T17:16:05.999Z</time></trkpt><trkpt lat="42.134368136156745" lon="19.4878252880516"><ele>24.0</ele><time>2026-05-01T17:16:06.999Z</time></trkpt><trkpt lat="42.134258589107674" lon="19.48792113210854"><ele>24.0</ele><time>2026-05-01T17:16:07.999Z</time></trkpt><trkpt lat="42.13415604651054" lon="19.488008889761105"><ele>24.0</ele><time>2026-05-01T17:16:08.999Z</time></trkpt><trkpt lat="42.13405972483062" lon="19.488086042546144"><ele>23.5</ele><time>2026-05-01T17:16:09.999Z</time></trkpt><trkpt lat="42.133967876483396" lon="19.488157119786724"><ele>23.0</ele><time>2026-05-01T17:16:10.999Z</time></trkpt><trkpt lat="42.133880907920926" lon="19.488223066287457"><ele>22.5</ele><time>2026-05-01T17:16:11.999Z</time></trkpt><trkpt lat="42.13379526021488" lon="19.488277245474666"><ele>22.0</ele><time>2026-05-01T17:16:12.999Z</time></trkpt><trkpt lat="42.133728755256485" lon="19.488310496863182"><ele>21.5</ele><time>2026-05-01T17:16:13.999Z</time></trkpt><trkpt lat="42.133666416932535" lon="19.488336921409445"><ele>21.0</ele><time>2026-05-01T17:16:16Z</time></trkpt><trkpt lat="42.1335862882457" lon="19.488355580945306"><ele>21.0</ele><time>2026-05-01T17:16:20Z</time></trkpt><trkpt lat="42.133499296457884" lon="19.488342086565424"><ele>21.0</ele><time>2026-05-01T17:16:22Z</time></trkpt><trkpt lat="42.13338637878283" lon="19.48840410482142"><ele>21.0</ele><time>2026-05-01T17:16:24Z</time></trkpt><trkpt lat="42.13333801970716" lon="19.488481467935543"><ele>21.0</ele><time>2026-05-01T17:16:25Z</time></trkpt><trkpt lat="42.133303459734385" lon="19.48857528444022"><ele>21.0</ele><time>2026-05-01T17:16:26Z</time></trkpt><trkpt lat="42.13327922527421" lon="19.488667621171004"><ele>21.0</ele><time>2026-05-01T17:16:27Z</time></trkpt><trkpt lat="42.13324184449754" lon="19.48875751463599"><ele>20.833333333333332</ele><time>2026-05-01T17:16:28Z</time></trkpt><trkpt lat="42.133182003380554" lon="19.488846940416888"><ele>20.666666666666668</ele><time>2026-05-01T17:16:29Z</time></trkpt><trkpt lat="42.13311097653062" lon="19.488925752393758"><ele>20.5</ele><time>2026-05-01T17:16:30Z</time></trkpt><trkpt lat="42.133041355198046" lon="19.489001209272683"><ele>20.333333333333336</ele><time>2026-05-01T17:16:31Z</time></trkpt><trkpt lat="42.13297352078483" lon="19.489071049793303"><ele>20.166666666666668</ele><time>2026-05-01T17:16:32Z</time></trkpt><trkpt lat="42.132905840110475" lon="19.489134645192987"><ele>20.0</ele><time>2026-05-01T17:16:33Z</time></trkpt><trkpt lat="42.13283653263346" lon="19.48918968216158"><ele>20.0</ele><time>2026-05-01T17:16:34Z</time></trkpt><trkpt lat="42.132767649119444" lon="19.489226070241962"><ele>20.0</ele><time>2026-05-01T17:16:35Z</time></trkpt><trkpt lat="42.13270215841457" lon="19.489249696738266"><ele>20.0</ele><time>2026-05-01T17:16:36Z</time></trkpt><trkpt lat="42.13264044999931" lon="19.489274693613694"><ele>20.0</ele><time>2026-05-01T17:16:37Z</time></trkpt><trkpt lat="42.13254505972578" lon="19.489329328631516"><ele>20.0</ele><time>2026-05-01T17:16:39Z</time></trkpt></trkseg></trk></gpx>